<?xml version="1.0" encoding="UTF-8" standalone="no" ?>
<gpx xmlns="http://www.topografix.com/GPX/1/1" xmlns:xsi="http://www.w3.org/2001/XMLSchema-instance" xsi:schemaLocation="http://www.topografix.com/GPX/1/1 http://www.topografix.com/GPX/1/1/gpx.xsd" version="1.1" creator="VisuGPX - https://www.visugpx.com">
  <metadata>
    <name>Caudan T25</name>
    <desc><![CDATA[T25 parcours actif des travaux exterieurs
]]></desc>
  </metadata>
  <trk>
    <name><![CDATA[22/01/2015 10:10]]></name>
    <desc><![CDATA[]]></desc>
    <trkseg>
      <trkpt lat="47.7879" lon="-3.31457">
        <ele>98</ele>
        <time>2015-01-22T09:10:03.839Z</time>
      </trkpt>
      <trkpt lat="47.78793" lon="-3.3147">
        <ele>108</ele>
        <time>2015-01-22T09:10:16.399Z</time>
      </trkpt>
      <trkpt lat="47.78799" lon="-3.3146">
        <ele>103</ele>
        <time>2015-01-22T09:10:40.403Z</time>
      </trkpt>
      <trkpt lat="47.78804" lon="-3.3146">
        <ele>103</ele>
        <time>2015-01-22T09:10:41.406Z</time>
      </trkpt>
      <trkpt lat="47.78808" lon="-3.31455">
        <ele>102</ele>
        <time>2015-01-22T09:10:42.385Z</time>
      </trkpt>
      <trkpt lat="47.78812" lon="-3.31454">
        <ele>103</ele>
        <time>2015-01-22T09:10:43.402Z</time>
      </trkpt>
      <trkpt lat="47.7882" lon="-3.31457">
        <ele>100</ele>
        <time>2015-01-22T09:10:47.407Z</time>
      </trkpt>
      <trkpt lat="47.78822" lon="-3.31459">
        <ele>98</ele>
        <time>2015-01-22T09:10:48.396Z</time>
      </trkpt>
      <trkpt lat="47.78827" lon="-3.31464">
        <ele>100</ele>
        <time>2015-01-22T09:10:50.403Z</time>
      </trkpt>
      <trkpt lat="47.78829" lon="-3.31469">
        <ele>100</ele>
        <time>2015-01-22T09:10:51.542Z</time>
      </trkpt>
      <trkpt lat="47.78831" lon="-3.31475">
        <ele>101</ele>
        <time>2015-01-22T09:10:52.360Z</time>
      </trkpt>
      <trkpt lat="47.78832" lon="-3.31484">
        <ele>101</ele>
        <time>2015-01-22T09:10:53.395Z</time>
      </trkpt>
      <trkpt lat="47.78833" lon="-3.31498">
        <ele>103</ele>
        <time>2015-01-22T09:10:54.417Z</time>
      </trkpt>
      <trkpt lat="47.78834" lon="-3.31511">
        <ele>101</ele>
        <time>2015-01-22T09:10:55.440Z</time>
      </trkpt>
      <trkpt lat="47.78833" lon="-3.31521">
        <ele>101</ele>
        <time>2015-01-22T09:10:56.406Z</time>
      </trkpt>
      <trkpt lat="47.78833" lon="-3.31531">
        <ele>100</ele>
        <time>2015-01-22T09:10:57.545Z</time>
      </trkpt>
      <trkpt lat="47.78837" lon="-3.31539">
        <ele>101</ele>
        <time>2015-01-22T09:10:58.362Z</time>
      </trkpt>
      <trkpt lat="47.78836" lon="-3.3155">
        <ele>100</ele>
        <time>2015-01-22T09:10:59.400Z</time>
      </trkpt>
      <trkpt lat="47.78835" lon="-3.31562">
        <ele>101</ele>
        <time>2015-01-22T09:11:00.378Z</time>
      </trkpt>
      <trkpt lat="47.78836" lon="-3.31574">
        <ele>101</ele>
        <time>2015-01-22T09:11:01.376Z</time>
      </trkpt>
      <trkpt lat="47.78836" lon="-3.31585">
        <ele>102</ele>
        <time>2015-01-22T09:11:02.377Z</time>
      </trkpt>
      <trkpt lat="47.78837" lon="-3.31594">
        <ele>101</ele>
        <time>2015-01-22T09:11:03.375Z</time>
      </trkpt>
      <trkpt lat="47.78837" lon="-3.31602">
        <ele>101</ele>
        <time>2015-01-22T09:11:04.376Z</time>
      </trkpt>
      <trkpt lat="47.78837" lon="-3.31609">
        <ele>103</ele>
        <time>2015-01-22T09:11:05.364Z</time>
      </trkpt>
      <trkpt lat="47.78835" lon="-3.31616">
        <ele>104</ele>
        <time>2015-01-22T09:11:06.376Z</time>
      </trkpt>
      <trkpt lat="47.78835" lon="-3.31627">
        <ele>105</ele>
        <time>2015-01-22T09:11:08.375Z</time>
      </trkpt>
      <trkpt lat="47.78839" lon="-3.31631">
        <ele>104</ele>
        <time>2015-01-22T09:11:09.376Z</time>
      </trkpt>
      <trkpt lat="47.78845" lon="-3.31635">
        <ele>104</ele>
        <time>2015-01-22T09:11:10.376Z</time>
      </trkpt>
      <trkpt lat="47.78851" lon="-3.31639">
        <ele>104</ele>
        <time>2015-01-22T09:11:11.372Z</time>
      </trkpt>
      <trkpt lat="47.78856" lon="-3.31644">
        <ele>104</ele>
        <time>2015-01-22T09:11:12.375Z</time>
      </trkpt>
      <trkpt lat="47.78865" lon="-3.31651">
        <ele>102</ele>
        <time>2015-01-22T09:11:13.374Z</time>
      </trkpt>
      <trkpt lat="47.78879" lon="-3.31656">
        <ele>100</ele>
        <time>2015-01-22T09:11:14.375Z</time>
      </trkpt>
      <trkpt lat="47.78888" lon="-3.31662">
        <ele>99</ele>
        <time>2015-01-22T09:11:15.374Z</time>
      </trkpt>
      <trkpt lat="47.78897" lon="-3.31667">
        <ele>99</ele>
        <time>2015-01-22T09:11:16.373Z</time>
      </trkpt>
      <trkpt lat="47.78906" lon="-3.31675">
        <ele>98</ele>
        <time>2015-01-22T09:11:17.372Z</time>
      </trkpt>
      <trkpt lat="47.78918" lon="-3.31684">
        <ele>97</ele>
        <time>2015-01-22T09:11:18.375Z</time>
      </trkpt>
      <trkpt lat="47.78928" lon="-3.31693">
        <ele>97</ele>
        <time>2015-01-22T09:11:19.374Z</time>
      </trkpt>
      <trkpt lat="47.78934" lon="-3.31698">
        <ele>101</ele>
        <time>2015-01-22T09:11:20.375Z</time>
      </trkpt>
      <trkpt lat="47.78945" lon="-3.31709">
        <ele>100</ele>
        <time>2015-01-22T09:11:21.373Z</time>
      </trkpt>
      <trkpt lat="47.78957" lon="-3.31717">
        <ele>99</ele>
        <time>2015-01-22T09:11:22.376Z</time>
      </trkpt>
      <trkpt lat="47.78966" lon="-3.31726">
        <ele>99</ele>
        <time>2015-01-22T09:11:23.373Z</time>
      </trkpt>
      <trkpt lat="47.78979" lon="-3.31735">
        <ele>98</ele>
        <time>2015-01-22T09:11:24.376Z</time>
      </trkpt>
      <trkpt lat="47.78993" lon="-3.31746">
        <ele>99</ele>
        <time>2015-01-22T09:11:25.374Z</time>
      </trkpt>
      <trkpt lat="47.79008" lon="-3.31746">
        <ele>96</ele>
        <time>2015-01-22T09:11:26.376Z</time>
      </trkpt>
      <trkpt lat="47.7903" lon="-3.31748">
        <ele>93</ele>
        <time>2015-01-22T09:11:27.373Z</time>
      </trkpt>
      <trkpt lat="47.79044" lon="-3.31756">
        <ele>94</ele>
        <time>2015-01-22T09:11:28.374Z</time>
      </trkpt>
      <trkpt lat="47.79056" lon="-3.31754">
        <ele>94</ele>
        <time>2015-01-22T09:11:29.374Z</time>
      </trkpt>
      <trkpt lat="47.79064" lon="-3.31759">
        <ele>93</ele>
        <time>2015-01-22T09:11:30.375Z</time>
      </trkpt>
      <trkpt lat="47.79073" lon="-3.31758">
        <ele>94</ele>
        <time>2015-01-22T09:11:31.375Z</time>
      </trkpt>
      <trkpt lat="47.79081" lon="-3.31759">
        <ele>94</ele>
        <time>2015-01-22T09:11:32.374Z</time>
      </trkpt>
      <trkpt lat="47.79089" lon="-3.31759">
        <ele>92</ele>
        <time>2015-01-22T09:11:33.374Z</time>
      </trkpt>
      <trkpt lat="47.79096" lon="-3.31764">
        <ele>91</ele>
        <time>2015-01-22T09:11:34.374Z</time>
      </trkpt>
      <trkpt lat="47.79102" lon="-3.31768">
        <ele>91</ele>
        <time>2015-01-22T09:11:35.373Z</time>
      </trkpt>
      <trkpt lat="47.79106" lon="-3.31777">
        <ele>89</ele>
        <time>2015-01-22T09:11:37.372Z</time>
      </trkpt>
      <trkpt lat="47.79104" lon="-3.31782">
        <ele>89</ele>
        <time>2015-01-22T09:11:38.373Z</time>
      </trkpt>
      <trkpt lat="47.79106" lon="-3.31787">
        <ele>90</ele>
        <time>2015-01-22T09:11:39.373Z</time>
      </trkpt>
      <trkpt lat="47.79101" lon="-3.31805">
        <ele>90</ele>
        <time>2015-01-22T09:11:40.372Z</time>
      </trkpt>
      <trkpt lat="47.79091" lon="-3.31826">
        <ele>91</ele>
        <time>2015-01-22T09:11:41.371Z</time>
      </trkpt>
      <trkpt lat="47.79088" lon="-3.3184">
        <ele>93</ele>
        <time>2015-01-22T09:11:42.373Z</time>
      </trkpt>
      <trkpt lat="47.79084" lon="-3.31855">
        <ele>93</ele>
        <time>2015-01-22T09:11:43.375Z</time>
      </trkpt>
      <trkpt lat="47.79077" lon="-3.31873">
        <ele>91</ele>
        <time>2015-01-22T09:11:44.373Z</time>
      </trkpt>
      <trkpt lat="47.7907" lon="-3.31893">
        <ele>89</ele>
        <time>2015-01-22T09:11:45.371Z</time>
      </trkpt>
      <trkpt lat="47.79068" lon="-3.31908">
        <ele>91</ele>
        <time>2015-01-22T09:11:46.373Z</time>
      </trkpt>
      <trkpt lat="47.79062" lon="-3.31931">
        <ele>91</ele>
        <time>2015-01-22T09:11:47.374Z</time>
      </trkpt>
      <trkpt lat="47.79053" lon="-3.31944">
        <ele>91</ele>
        <time>2015-01-22T09:11:48.373Z</time>
      </trkpt>
      <trkpt lat="47.7905" lon="-3.3196">
        <ele>90</ele>
        <time>2015-01-22T09:11:49.437Z</time>
      </trkpt>
      <trkpt lat="47.79041" lon="-3.31977">
        <ele>92</ele>
        <time>2015-01-22T09:11:50.371Z</time>
      </trkpt>
      <trkpt lat="47.79035" lon="-3.31995">
        <ele>93</ele>
        <time>2015-01-22T09:11:51.371Z</time>
      </trkpt>
      <trkpt lat="47.79027" lon="-3.32009">
        <ele>92</ele>
        <time>2015-01-22T09:11:52.373Z</time>
      </trkpt>
      <trkpt lat="47.7902" lon="-3.32028">
        <ele>93</ele>
        <time>2015-01-22T09:11:53.371Z</time>
      </trkpt>
      <trkpt lat="47.79011" lon="-3.32045">
        <ele>94</ele>
        <time>2015-01-22T09:11:54.373Z</time>
      </trkpt>
      <trkpt lat="47.79004" lon="-3.32064">
        <ele>95</ele>
        <time>2015-01-22T09:11:55.372Z</time>
      </trkpt>
      <trkpt lat="47.78993" lon="-3.32088">
        <ele>98</ele>
        <time>2015-01-22T09:11:56.371Z</time>
      </trkpt>
      <trkpt lat="47.78985" lon="-3.32106">
        <ele>98</ele>
        <time>2015-01-22T09:11:57.372Z</time>
      </trkpt>
      <trkpt lat="47.7898" lon="-3.3212">
        <ele>98</ele>
        <time>2015-01-22T09:11:58.372Z</time>
      </trkpt>
      <trkpt lat="47.78973" lon="-3.32133">
        <ele>98</ele>
        <time>2015-01-22T09:11:59.372Z</time>
      </trkpt>
      <trkpt lat="47.78964" lon="-3.32146">
        <ele>97</ele>
        <time>2015-01-22T09:12:00.374Z</time>
      </trkpt>
      <trkpt lat="47.78958" lon="-3.32162">
        <ele>98</ele>
        <time>2015-01-22T09:12:01.369Z</time>
      </trkpt>
      <trkpt lat="47.78952" lon="-3.32179">
        <ele>99</ele>
        <time>2015-01-22T09:12:02.371Z</time>
      </trkpt>
      <trkpt lat="47.78941" lon="-3.32194">
        <ele>102</ele>
        <time>2015-01-22T09:12:03.374Z</time>
      </trkpt>
      <trkpt lat="47.78932" lon="-3.32203">
        <ele>104</ele>
        <time>2015-01-22T09:12:04.372Z</time>
      </trkpt>
      <trkpt lat="47.78922" lon="-3.32214">
        <ele>101</ele>
        <time>2015-01-22T09:12:05.373Z</time>
      </trkpt>
      <trkpt lat="47.78913" lon="-3.32225">
        <ele>101</ele>
        <time>2015-01-22T09:12:06.374Z</time>
      </trkpt>
      <trkpt lat="47.78907" lon="-3.3224">
        <ele>101</ele>
        <time>2015-01-22T09:12:07.375Z</time>
      </trkpt>
      <trkpt lat="47.78904" lon="-3.3225">
        <ele>103</ele>
        <time>2015-01-22T09:12:08.372Z</time>
      </trkpt>
      <trkpt lat="47.78903" lon="-3.32258">
        <ele>102</ele>
        <time>2015-01-22T09:12:09.374Z</time>
      </trkpt>
      <trkpt lat="47.78906" lon="-3.32272">
        <ele>103</ele>
        <time>2015-01-22T09:12:10.388Z</time>
      </trkpt>
      <trkpt lat="47.78922" lon="-3.32289">
        <ele>102</ele>
        <time>2015-01-22T09:12:11.373Z</time>
      </trkpt>
      <trkpt lat="47.78926" lon="-3.32297">
        <ele>102</ele>
        <time>2015-01-22T09:12:12.377Z</time>
      </trkpt>
      <trkpt lat="47.78932" lon="-3.32306">
        <ele>101</ele>
        <time>2015-01-22T09:12:13.373Z</time>
      </trkpt>
      <trkpt lat="47.78939" lon="-3.32312">
        <ele>102</ele>
        <time>2015-01-22T09:12:14.372Z</time>
      </trkpt>
      <trkpt lat="47.78948" lon="-3.32314">
        <ele>103</ele>
        <time>2015-01-22T09:12:15.374Z</time>
      </trkpt>
      <trkpt lat="47.78959" lon="-3.32321">
        <ele>104</ele>
        <time>2015-01-22T09:12:16.372Z</time>
      </trkpt>
      <trkpt lat="47.7897" lon="-3.32323">
        <ele>103</ele>
        <time>2015-01-22T09:12:17.373Z</time>
      </trkpt>
      <trkpt lat="47.78978" lon="-3.32322">
        <ele>103</ele>
        <time>2015-01-22T09:12:18.377Z</time>
      </trkpt>
      <trkpt lat="47.78986" lon="-3.32317">
        <ele>103</ele>
        <time>2015-01-22T09:12:19.371Z</time>
      </trkpt>
      <trkpt lat="47.78996" lon="-3.32314">
        <ele>102</ele>
        <time>2015-01-22T09:12:20.370Z</time>
      </trkpt>
      <trkpt lat="47.79007" lon="-3.32311">
        <ele>100</ele>
        <time>2015-01-22T09:12:21.371Z</time>
      </trkpt>
      <trkpt lat="47.79011" lon="-3.32309">
        <ele>99</ele>
        <time>2015-01-22T09:12:22.371Z</time>
      </trkpt>
      <trkpt lat="47.79009" lon="-3.32291">
        <ele>98</ele>
        <time>2015-01-22T09:12:23.371Z</time>
      </trkpt>
      <trkpt lat="47.79007" lon="-3.32276">
        <ele>97</ele>
        <time>2015-01-22T09:12:24.371Z</time>
      </trkpt>
      <trkpt lat="47.79008" lon="-3.32262">
        <ele>97</ele>
        <time>2015-01-22T09:12:25.371Z</time>
      </trkpt>
      <trkpt lat="47.79007" lon="-3.32246">
        <ele>96</ele>
        <time>2015-01-22T09:12:26.371Z</time>
      </trkpt>
      <trkpt lat="47.79008" lon="-3.32229">
        <ele>95</ele>
        <time>2015-01-22T09:12:27.372Z</time>
      </trkpt>
      <trkpt lat="47.7901" lon="-3.32212">
        <ele>94</ele>
        <time>2015-01-22T09:12:28.372Z</time>
      </trkpt>
      <trkpt lat="47.79011" lon="-3.32196">
        <ele>94</ele>
        <time>2015-01-22T09:12:29.373Z</time>
      </trkpt>
      <trkpt lat="47.79009" lon="-3.32179">
        <ele>93</ele>
        <time>2015-01-22T09:12:30.369Z</time>
      </trkpt>
      <trkpt lat="47.79012" lon="-3.32162">
        <ele>94</ele>
        <time>2015-01-22T09:12:31.372Z</time>
      </trkpt>
      <trkpt lat="47.79021" lon="-3.32147">
        <ele>95</ele>
        <time>2015-01-22T09:12:32.373Z</time>
      </trkpt>
      <trkpt lat="47.79031" lon="-3.32129">
        <ele>94</ele>
        <time>2015-01-22T09:12:33.371Z</time>
      </trkpt>
      <trkpt lat="47.79038" lon="-3.32112">
        <ele>94</ele>
        <time>2015-01-22T09:12:34.370Z</time>
      </trkpt>
      <trkpt lat="47.79044" lon="-3.32095">
        <ele>96</ele>
        <time>2015-01-22T09:12:35.370Z</time>
      </trkpt>
      <trkpt lat="47.79052" lon="-3.32083">
        <ele>98</ele>
        <time>2015-01-22T09:12:36.370Z</time>
      </trkpt>
      <trkpt lat="47.79061" lon="-3.32072">
        <ele>98</ele>
        <time>2015-01-22T09:12:37.371Z</time>
      </trkpt>
      <trkpt lat="47.79066" lon="-3.32066">
        <ele>98</ele>
        <time>2015-01-22T09:12:38.372Z</time>
      </trkpt>
      <trkpt lat="47.79072" lon="-3.32062">
        <ele>97</ele>
        <time>2015-01-22T09:12:39.368Z</time>
      </trkpt>
      <trkpt lat="47.7908" lon="-3.32065">
        <ele>96</ele>
        <time>2015-01-22T09:12:41.371Z</time>
      </trkpt>
      <trkpt lat="47.7908" lon="-3.32074">
        <ele>95</ele>
        <time>2015-01-22T09:12:42.370Z</time>
      </trkpt>
      <trkpt lat="47.79086" lon="-3.32079">
        <ele>98</ele>
        <time>2015-01-22T09:12:43.371Z</time>
      </trkpt>
      <trkpt lat="47.7909" lon="-3.32088">
        <ele>97</ele>
        <time>2015-01-22T09:12:44.371Z</time>
      </trkpt>
      <trkpt lat="47.79094" lon="-3.32104">
        <ele>96</ele>
        <time>2015-01-22T09:12:45.370Z</time>
      </trkpt>
      <trkpt lat="47.79099" lon="-3.32112">
        <ele>96</ele>
        <time>2015-01-22T09:12:46.370Z</time>
      </trkpt>
      <trkpt lat="47.79106" lon="-3.32118">
        <ele>95</ele>
        <time>2015-01-22T09:12:47.371Z</time>
      </trkpt>
      <trkpt lat="47.79115" lon="-3.3212">
        <ele>97</ele>
        <time>2015-01-22T09:12:48.371Z</time>
      </trkpt>
      <trkpt lat="47.79122" lon="-3.32126">
        <ele>97</ele>
        <time>2015-01-22T09:12:49.370Z</time>
      </trkpt>
      <trkpt lat="47.79128" lon="-3.32132">
        <ele>100</ele>
        <time>2015-01-22T09:12:50.370Z</time>
      </trkpt>
      <trkpt lat="47.79137" lon="-3.32139">
        <ele>100</ele>
        <time>2015-01-22T09:12:51.371Z</time>
      </trkpt>
      <trkpt lat="47.79146" lon="-3.32148">
        <ele>100</ele>
        <time>2015-01-22T09:12:52.371Z</time>
      </trkpt>
      <trkpt lat="47.79157" lon="-3.32158">
        <ele>99</ele>
        <time>2015-01-22T09:12:53.374Z</time>
      </trkpt>
      <trkpt lat="47.79179" lon="-3.32166">
        <ele>100</ele>
        <time>2015-01-22T09:12:54.370Z</time>
      </trkpt>
      <trkpt lat="47.79193" lon="-3.32178">
        <ele>100</ele>
        <time>2015-01-22T09:12:55.372Z</time>
      </trkpt>
      <trkpt lat="47.79204" lon="-3.32181">
        <ele>100</ele>
        <time>2015-01-22T09:12:56.373Z</time>
      </trkpt>
      <trkpt lat="47.79215" lon="-3.32189">
        <ele>101</ele>
        <time>2015-01-22T09:12:57.372Z</time>
      </trkpt>
      <trkpt lat="47.79228" lon="-3.32196">
        <ele>103</ele>
        <time>2015-01-22T09:12:58.372Z</time>
      </trkpt>
      <trkpt lat="47.79241" lon="-3.32196">
        <ele>105</ele>
        <time>2015-01-22T09:12:59.371Z</time>
      </trkpt>
      <trkpt lat="47.79249" lon="-3.32206">
        <ele>107</ele>
        <time>2015-01-22T09:13:00.371Z</time>
      </trkpt>
      <trkpt lat="47.79259" lon="-3.32215">
        <ele>109</ele>
        <time>2015-01-22T09:13:01.371Z</time>
      </trkpt>
      <trkpt lat="47.7927" lon="-3.32221">
        <ele>110</ele>
        <time>2015-01-22T09:13:02.371Z</time>
      </trkpt>
      <trkpt lat="47.79283" lon="-3.32229">
        <ele>112</ele>
        <time>2015-01-22T09:13:03.371Z</time>
      </trkpt>
      <trkpt lat="47.79295" lon="-3.32233">
        <ele>110</ele>
        <time>2015-01-22T09:13:04.372Z</time>
      </trkpt>
      <trkpt lat="47.79308" lon="-3.32238">
        <ele>111</ele>
        <time>2015-01-22T09:13:05.369Z</time>
      </trkpt>
      <trkpt lat="47.79317" lon="-3.32241">
        <ele>112</ele>
        <time>2015-01-22T09:13:06.371Z</time>
      </trkpt>
      <trkpt lat="47.79326" lon="-3.32245">
        <ele>112</ele>
        <time>2015-01-22T09:13:07.370Z</time>
      </trkpt>
      <trkpt lat="47.79336" lon="-3.32248">
        <ele>109</ele>
        <time>2015-01-22T09:13:08.367Z</time>
      </trkpt>
      <trkpt lat="47.7935" lon="-3.3225">
        <ele>108</ele>
        <time>2015-01-22T09:13:09.369Z</time>
      </trkpt>
      <trkpt lat="47.79361" lon="-3.32243">
        <ele>107</ele>
        <time>2015-01-22T09:13:10.371Z</time>
      </trkpt>
      <trkpt lat="47.79364" lon="-3.32239">
        <ele>110</ele>
        <time>2015-01-22T09:13:11.369Z</time>
      </trkpt>
      <trkpt lat="47.79384" lon="-3.32259">
        <ele>109</ele>
        <time>2015-01-22T09:13:12.370Z</time>
      </trkpt>
      <trkpt lat="47.79402" lon="-3.32269">
        <ele>111</ele>
        <time>2015-01-22T09:13:13.366Z</time>
      </trkpt>
      <trkpt lat="47.79412" lon="-3.32279">
        <ele>110</ele>
        <time>2015-01-22T09:13:14.370Z</time>
      </trkpt>
      <trkpt lat="47.79423" lon="-3.32288">
        <ele>110</ele>
        <time>2015-01-22T09:13:15.370Z</time>
      </trkpt>
      <trkpt lat="47.79434" lon="-3.32296">
        <ele>111</ele>
        <time>2015-01-22T09:13:16.374Z</time>
      </trkpt>
      <trkpt lat="47.79445" lon="-3.32305">
        <ele>111</ele>
        <time>2015-01-22T09:13:17.371Z</time>
      </trkpt>
      <trkpt lat="47.79453" lon="-3.32313">
        <ele>111</ele>
        <time>2015-01-22T09:13:18.370Z</time>
      </trkpt>
      <trkpt lat="47.79462" lon="-3.32321">
        <ele>112</ele>
        <time>2015-01-22T09:13:19.373Z</time>
      </trkpt>
      <trkpt lat="47.79472" lon="-3.32327">
        <ele>112</ele>
        <time>2015-01-22T09:13:20.372Z</time>
      </trkpt>
      <trkpt lat="47.79482" lon="-3.32331">
        <ele>115</ele>
        <time>2015-01-22T09:13:21.369Z</time>
      </trkpt>
      <trkpt lat="47.79494" lon="-3.32337">
        <ele>119</ele>
        <time>2015-01-22T09:13:22.370Z</time>
      </trkpt>
      <trkpt lat="47.79506" lon="-3.32344">
        <ele>118</ele>
        <time>2015-01-22T09:13:23.371Z</time>
      </trkpt>
      <trkpt lat="47.79517" lon="-3.3235">
        <ele>118</ele>
        <time>2015-01-22T09:13:24.369Z</time>
      </trkpt>
      <trkpt lat="47.79531" lon="-3.32353">
        <ele>120</ele>
        <time>2015-01-22T09:13:25.369Z</time>
      </trkpt>
      <trkpt lat="47.79542" lon="-3.32359">
        <ele>120</ele>
        <time>2015-01-22T09:13:26.370Z</time>
      </trkpt>
      <trkpt lat="47.79554" lon="-3.32363">
        <ele>120</ele>
        <time>2015-01-22T09:13:27.370Z</time>
      </trkpt>
      <trkpt lat="47.79567" lon="-3.3237">
        <ele>119</ele>
        <time>2015-01-22T09:13:28.370Z</time>
      </trkpt>
      <trkpt lat="47.79574" lon="-3.32373">
        <ele>120</ele>
        <time>2015-01-22T09:13:29.370Z</time>
      </trkpt>
      <trkpt lat="47.79584" lon="-3.32378">
        <ele>120</ele>
        <time>2015-01-22T09:13:30.370Z</time>
      </trkpt>
      <trkpt lat="47.79594" lon="-3.32385">
        <ele>121</ele>
        <time>2015-01-22T09:13:31.369Z</time>
      </trkpt>
      <trkpt lat="47.79607" lon="-3.32389">
        <ele>123</ele>
        <time>2015-01-22T09:13:32.372Z</time>
      </trkpt>
      <trkpt lat="47.79617" lon="-3.32394">
        <ele>124</ele>
        <time>2015-01-22T09:13:33.370Z</time>
      </trkpt>
      <trkpt lat="47.79627" lon="-3.32401">
        <ele>124</ele>
        <time>2015-01-22T09:13:34.372Z</time>
      </trkpt>
      <trkpt lat="47.79638" lon="-3.32407">
        <ele>123</ele>
        <time>2015-01-22T09:13:35.370Z</time>
      </trkpt>
      <trkpt lat="47.79647" lon="-3.32413">
        <ele>124</ele>
        <time>2015-01-22T09:13:36.368Z</time>
      </trkpt>
      <trkpt lat="47.79656" lon="-3.32416">
        <ele>124</ele>
        <time>2015-01-22T09:13:37.371Z</time>
      </trkpt>
      <trkpt lat="47.79665" lon="-3.32413">
        <ele>122</ele>
        <time>2015-01-22T09:13:38.369Z</time>
      </trkpt>
      <trkpt lat="47.79683" lon="-3.32408">
        <ele>119</ele>
        <time>2015-01-22T09:13:39.371Z</time>
      </trkpt>
      <trkpt lat="47.79695" lon="-3.32409">
        <ele>117</ele>
        <time>2015-01-22T09:13:40.370Z</time>
      </trkpt>
      <trkpt lat="47.79708" lon="-3.3241">
        <ele>114</ele>
        <time>2015-01-22T09:13:41.371Z</time>
      </trkpt>
      <trkpt lat="47.79719" lon="-3.32414">
        <ele>115</ele>
        <time>2015-01-22T09:13:42.371Z</time>
      </trkpt>
      <trkpt lat="47.79731" lon="-3.32417">
        <ele>117</ele>
        <time>2015-01-22T09:13:43.406Z</time>
      </trkpt>
      <trkpt lat="47.79741" lon="-3.32418">
        <ele>117</ele>
        <time>2015-01-22T09:13:44.424Z</time>
      </trkpt>
      <trkpt lat="47.79754" lon="-3.3242">
        <ele>117</ele>
        <time>2015-01-22T09:13:45.372Z</time>
      </trkpt>
      <trkpt lat="47.79767" lon="-3.32422">
        <ele>119</ele>
        <time>2015-01-22T09:13:46.366Z</time>
      </trkpt>
      <trkpt lat="47.79778" lon="-3.32424">
        <ele>118</ele>
        <time>2015-01-22T09:13:47.370Z</time>
      </trkpt>
      <trkpt lat="47.7979" lon="-3.32424">
        <ele>117</ele>
        <time>2015-01-22T09:13:48.384Z</time>
      </trkpt>
      <trkpt lat="47.79798" lon="-3.32425">
        <ele>117</ele>
        <time>2015-01-22T09:13:49.370Z</time>
      </trkpt>
      <trkpt lat="47.79812" lon="-3.32427">
        <ele>114</ele>
        <time>2015-01-22T09:13:50.370Z</time>
      </trkpt>
      <trkpt lat="47.79827" lon="-3.32428">
        <ele>113</ele>
        <time>2015-01-22T09:13:51.370Z</time>
      </trkpt>
      <trkpt lat="47.79841" lon="-3.32433">
        <ele>109</ele>
        <time>2015-01-22T09:13:52.370Z</time>
      </trkpt>
      <trkpt lat="47.79854" lon="-3.32433">
        <ele>113</ele>
        <time>2015-01-22T09:13:53.370Z</time>
      </trkpt>
      <trkpt lat="47.79866" lon="-3.32436">
        <ele>114</ele>
        <time>2015-01-22T09:13:54.370Z</time>
      </trkpt>
      <trkpt lat="47.79881" lon="-3.32439">
        <ele>114</ele>
        <time>2015-01-22T09:13:55.370Z</time>
      </trkpt>
      <trkpt lat="47.79897" lon="-3.32444">
        <ele>114</ele>
        <time>2015-01-22T09:13:56.370Z</time>
      </trkpt>
      <trkpt lat="47.79916" lon="-3.32446">
        <ele>106</ele>
        <time>2015-01-22T09:13:57.370Z</time>
      </trkpt>
      <trkpt lat="47.79933" lon="-3.32452">
        <ele>106</ele>
        <time>2015-01-22T09:13:58.370Z</time>
      </trkpt>
      <trkpt lat="47.79945" lon="-3.32454">
        <ele>105</ele>
        <time>2015-01-22T09:13:59.371Z</time>
      </trkpt>
      <trkpt lat="47.79957" lon="-3.32457">
        <ele>105</ele>
        <time>2015-01-22T09:14:00.370Z</time>
      </trkpt>
      <trkpt lat="47.79963" lon="-3.32455">
        <ele>106</ele>
        <time>2015-01-22T09:14:01.371Z</time>
      </trkpt>
      <trkpt lat="47.79968" lon="-3.32459">
        <ele>108</ele>
        <time>2015-01-22T09:14:02.370Z</time>
      </trkpt>
      <trkpt lat="47.79981" lon="-3.32464">
        <ele>108</ele>
        <time>2015-01-22T09:14:03.371Z</time>
      </trkpt>
      <trkpt lat="47.79992" lon="-3.32466">
        <ele>109</ele>
        <time>2015-01-22T09:14:04.371Z</time>
      </trkpt>
      <trkpt lat="47.80004" lon="-3.3247">
        <ele>109</ele>
        <time>2015-01-22T09:14:05.627Z</time>
      </trkpt>
      <trkpt lat="47.80014" lon="-3.32467">
        <ele>110</ele>
        <time>2015-01-22T09:14:06.614Z</time>
      </trkpt>
      <trkpt lat="47.80033" lon="-3.32481">
        <ele>111</ele>
        <time>2015-01-22T09:14:07.615Z</time>
      </trkpt>
      <trkpt lat="47.80037" lon="-3.32485">
        <ele>112</ele>
        <time>2015-01-22T09:14:08.616Z</time>
      </trkpt>
      <trkpt lat="47.80053" lon="-3.32503">
        <ele>111</ele>
        <time>2015-01-22T09:14:09.614Z</time>
      </trkpt>
      <trkpt lat="47.80065" lon="-3.32516">
        <ele>110</ele>
        <time>2015-01-22T09:14:10.615Z</time>
      </trkpt>
      <trkpt lat="47.80078" lon="-3.3253">
        <ele>109</ele>
        <time>2015-01-22T09:14:11.615Z</time>
      </trkpt>
      <trkpt lat="47.80094" lon="-3.32547">
        <ele>110</ele>
        <time>2015-01-22T09:14:12.615Z</time>
      </trkpt>
      <trkpt lat="47.80109" lon="-3.32561">
        <ele>110</ele>
        <time>2015-01-22T09:14:13.612Z</time>
      </trkpt>
      <trkpt lat="47.80122" lon="-3.3258">
        <ele>112</ele>
        <time>2015-01-22T09:14:14.614Z</time>
      </trkpt>
      <trkpt lat="47.80138" lon="-3.32598">
        <ele>111</ele>
        <time>2015-01-22T09:14:15.614Z</time>
      </trkpt>
      <trkpt lat="47.80151" lon="-3.32614">
        <ele>112</ele>
        <time>2015-01-22T09:14:16.615Z</time>
      </trkpt>
      <trkpt lat="47.80167" lon="-3.32631">
        <ele>112</ele>
        <time>2015-01-22T09:14:17.652Z</time>
      </trkpt>
      <trkpt lat="47.80183" lon="-3.32648">
        <ele>112</ele>
        <time>2015-01-22T09:14:18.707Z</time>
      </trkpt>
      <trkpt lat="47.80198" lon="-3.32666">
        <ele>112</ele>
        <time>2015-01-22T09:14:19.615Z</time>
      </trkpt>
      <trkpt lat="47.80213" lon="-3.32683">
        <ele>112</ele>
        <time>2015-01-22T09:14:20.615Z</time>
      </trkpt>
      <trkpt lat="47.80227" lon="-3.32701">
        <ele>111</ele>
        <time>2015-01-22T09:14:21.616Z</time>
      </trkpt>
      <trkpt lat="47.80243" lon="-3.32716">
        <ele>111</ele>
        <time>2015-01-22T09:14:22.613Z</time>
      </trkpt>
      <trkpt lat="47.80259" lon="-3.32732">
        <ele>113</ele>
        <time>2015-01-22T09:14:23.614Z</time>
      </trkpt>
      <trkpt lat="47.80272" lon="-3.32749">
        <ele>113</ele>
        <time>2015-01-22T09:14:24.613Z</time>
      </trkpt>
      <trkpt lat="47.80287" lon="-3.32766">
        <ele>113</ele>
        <time>2015-01-22T09:14:25.614Z</time>
      </trkpt>
      <trkpt lat="47.80301" lon="-3.32787">
        <ele>113</ele>
        <time>2015-01-22T09:14:26.614Z</time>
      </trkpt>
      <trkpt lat="47.80314" lon="-3.32807">
        <ele>112</ele>
        <time>2015-01-22T09:14:27.612Z</time>
      </trkpt>
      <trkpt lat="47.8033" lon="-3.3282">
        <ele>111</ele>
        <time>2015-01-22T09:14:28.613Z</time>
      </trkpt>
      <trkpt lat="47.80341" lon="-3.3284">
        <ele>108</ele>
        <time>2015-01-22T09:14:29.615Z</time>
      </trkpt>
      <trkpt lat="47.80355" lon="-3.32859">
        <ele>108</ele>
        <time>2015-01-22T09:14:30.615Z</time>
      </trkpt>
      <trkpt lat="47.8037" lon="-3.32877">
        <ele>107</ele>
        <time>2015-01-22T09:14:31.613Z</time>
      </trkpt>
      <trkpt lat="47.80385" lon="-3.32898">
        <ele>107</ele>
        <time>2015-01-22T09:14:32.614Z</time>
      </trkpt>
      <trkpt lat="47.80399" lon="-3.32917">
        <ele>109</ele>
        <time>2015-01-22T09:14:33.633Z</time>
      </trkpt>
      <trkpt lat="47.80412" lon="-3.32936">
        <ele>109</ele>
        <time>2015-01-22T09:14:34.613Z</time>
      </trkpt>
      <trkpt lat="47.80429" lon="-3.32954">
        <ele>110</ele>
        <time>2015-01-22T09:14:35.614Z</time>
      </trkpt>
      <trkpt lat="47.80442" lon="-3.32978">
        <ele>110</ele>
        <time>2015-01-22T09:14:36.613Z</time>
      </trkpt>
      <trkpt lat="47.80456" lon="-3.32996">
        <ele>111</ele>
        <time>2015-01-22T09:14:37.612Z</time>
      </trkpt>
      <trkpt lat="47.80472" lon="-3.33008">
        <ele>113</ele>
        <time>2015-01-22T09:14:38.614Z</time>
      </trkpt>
      <trkpt lat="47.80488" lon="-3.33023">
        <ele>114</ele>
        <time>2015-01-22T09:14:39.616Z</time>
      </trkpt>
      <trkpt lat="47.805" lon="-3.33044">
        <ele>114</ele>
        <time>2015-01-22T09:14:40.613Z</time>
      </trkpt>
      <trkpt lat="47.80521" lon="-3.33052">
        <ele>109</ele>
        <time>2015-01-22T09:14:41.612Z</time>
      </trkpt>
      <trkpt lat="47.80537" lon="-3.33068">
        <ele>110</ele>
        <time>2015-01-22T09:14:42.614Z</time>
      </trkpt>
      <trkpt lat="47.80548" lon="-3.33089">
        <ele>110</ele>
        <time>2015-01-22T09:14:43.615Z</time>
      </trkpt>
      <trkpt lat="47.80563" lon="-3.33106">
        <ele>109</ele>
        <time>2015-01-22T09:14:44.641Z</time>
      </trkpt>
      <trkpt lat="47.80576" lon="-3.33128">
        <ele>110</ele>
        <time>2015-01-22T09:14:45.614Z</time>
      </trkpt>
      <trkpt lat="47.8059" lon="-3.3315">
        <ele>109</ele>
        <time>2015-01-22T09:14:46.614Z</time>
      </trkpt>
      <trkpt lat="47.80601" lon="-3.33175">
        <ele>109</ele>
        <time>2015-01-22T09:14:47.612Z</time>
      </trkpt>
      <trkpt lat="47.80615" lon="-3.33199">
        <ele>108</ele>
        <time>2015-01-22T09:14:48.622Z</time>
      </trkpt>
      <trkpt lat="47.80626" lon="-3.33221">
        <ele>107</ele>
        <time>2015-01-22T09:14:49.613Z</time>
      </trkpt>
      <trkpt lat="47.80646" lon="-3.33228">
        <ele>108</ele>
        <time>2015-01-22T09:14:50.611Z</time>
      </trkpt>
      <trkpt lat="47.80656" lon="-3.33251">
        <ele>108</ele>
        <time>2015-01-22T09:14:51.612Z</time>
      </trkpt>
      <trkpt lat="47.80667" lon="-3.33266">
        <ele>108</ele>
        <time>2015-01-22T09:14:52.622Z</time>
      </trkpt>
      <trkpt lat="47.80678" lon="-3.3328">
        <ele>108</ele>
        <time>2015-01-22T09:14:53.613Z</time>
      </trkpt>
      <trkpt lat="47.8069" lon="-3.33293">
        <ele>108</ele>
        <time>2015-01-22T09:14:54.613Z</time>
      </trkpt>
      <trkpt lat="47.80705" lon="-3.33303">
        <ele>110</ele>
        <time>2015-01-22T09:14:55.677Z</time>
      </trkpt>
      <trkpt lat="47.80716" lon="-3.33312">
        <ele>109</ele>
        <time>2015-01-22T09:14:56.615Z</time>
      </trkpt>
      <trkpt lat="47.80729" lon="-3.33323">
        <ele>110</ele>
        <time>2015-01-22T09:14:57.610Z</time>
      </trkpt>
      <trkpt lat="47.8074" lon="-3.3333">
        <ele>110</ele>
        <time>2015-01-22T09:14:58.613Z</time>
      </trkpt>
      <trkpt lat="47.80754" lon="-3.33336">
        <ele>110</ele>
        <time>2015-01-22T09:14:59.613Z</time>
      </trkpt>
      <trkpt lat="47.80767" lon="-3.33343">
        <ele>110</ele>
        <time>2015-01-22T09:15:00.611Z</time>
      </trkpt>
      <trkpt lat="47.8078" lon="-3.33349">
        <ele>109</ele>
        <time>2015-01-22T09:15:01.611Z</time>
      </trkpt>
      <trkpt lat="47.80793" lon="-3.33355">
        <ele>109</ele>
        <time>2015-01-22T09:15:02.613Z</time>
      </trkpt>
      <trkpt lat="47.80806" lon="-3.33361">
        <ele>109</ele>
        <time>2015-01-22T09:15:03.611Z</time>
      </trkpt>
      <trkpt lat="47.80818" lon="-3.33366">
        <ele>109</ele>
        <time>2015-01-22T09:15:04.614Z</time>
      </trkpt>
      <trkpt lat="47.80831" lon="-3.33375">
        <ele>109</ele>
        <time>2015-01-22T09:15:05.611Z</time>
      </trkpt>
      <trkpt lat="47.80845" lon="-3.33382">
        <ele>108</ele>
        <time>2015-01-22T09:15:06.612Z</time>
      </trkpt>
      <trkpt lat="47.80859" lon="-3.33393">
        <ele>108</ele>
        <time>2015-01-22T09:15:07.611Z</time>
      </trkpt>
      <trkpt lat="47.80869" lon="-3.33403">
        <ele>109</ele>
        <time>2015-01-22T09:15:08.612Z</time>
      </trkpt>
      <trkpt lat="47.80878" lon="-3.33421">
        <ele>107</ele>
        <time>2015-01-22T09:15:09.613Z</time>
      </trkpt>
      <trkpt lat="47.80886" lon="-3.33436">
        <ele>107</ele>
        <time>2015-01-22T09:15:10.611Z</time>
      </trkpt>
      <trkpt lat="47.80893" lon="-3.33449">
        <ele>106</ele>
        <time>2015-01-22T09:15:11.611Z</time>
      </trkpt>
      <trkpt lat="47.80897" lon="-3.33464">
        <ele>101</ele>
        <time>2015-01-22T09:15:12.611Z</time>
      </trkpt>
      <trkpt lat="47.80905" lon="-3.33476">
        <ele>101</ele>
        <time>2015-01-22T09:15:13.022Z</time>
      </trkpt>
      <trkpt lat="47.80911" lon="-3.33491">
        <ele>101</ele>
        <time>2015-01-22T09:15:13.970Z</time>
      </trkpt>
      <trkpt lat="47.80917" lon="-3.33505">
        <ele>107</ele>
        <time>2015-01-22T09:15:14.980Z</time>
      </trkpt>
      <trkpt lat="47.80922" lon="-3.33517">
        <ele>107</ele>
        <time>2015-01-22T09:15:15.981Z</time>
      </trkpt>
      <trkpt lat="47.80928" lon="-3.33533">
        <ele>107</ele>
        <time>2015-01-22T09:15:16.980Z</time>
      </trkpt>
      <trkpt lat="47.80934" lon="-3.33546">
        <ele>106</ele>
        <time>2015-01-22T09:15:17.981Z</time>
      </trkpt>
      <trkpt lat="47.80931" lon="-3.33564">
        <ele>105</ele>
        <time>2015-01-22T09:15:18.982Z</time>
      </trkpt>
      <trkpt lat="47.80931" lon="-3.33578">
        <ele>104</ele>
        <time>2015-01-22T09:15:20.566Z</time>
      </trkpt>
      <trkpt lat="47.80931" lon="-3.33594">
        <ele>105</ele>
        <time>2015-01-22T09:15:21.571Z</time>
      </trkpt>
      <trkpt lat="47.8093" lon="-3.33604">
        <ele>105</ele>
        <time>2015-01-22T09:15:22.568Z</time>
      </trkpt>
      <trkpt lat="47.80927" lon="-3.33619">
        <ele>106</ele>
        <time>2015-01-22T09:15:23.569Z</time>
      </trkpt>
      <trkpt lat="47.8093" lon="-3.33638">
        <ele>106</ele>
        <time>2015-01-22T09:15:24.571Z</time>
      </trkpt>
      <trkpt lat="47.8093" lon="-3.33645">
        <ele>106</ele>
        <time>2015-01-22T09:15:25.571Z</time>
      </trkpt>
      <trkpt lat="47.80928" lon="-3.33651">
        <ele>106</ele>
        <time>2015-01-22T09:15:26.569Z</time>
      </trkpt>
      <trkpt lat="47.80927" lon="-3.33659">
        <ele>107</ele>
        <time>2015-01-22T09:15:27.570Z</time>
      </trkpt>
      <trkpt lat="47.80928" lon="-3.33672">
        <ele>107</ele>
        <time>2015-01-22T09:15:28.570Z</time>
      </trkpt>
      <trkpt lat="47.80927" lon="-3.33673">
        <ele>106</ele>
        <time>2015-01-22T09:15:29.570Z</time>
      </trkpt>
      <trkpt lat="47.80931" lon="-3.33691">
        <ele>106</ele>
        <time>2015-01-22T09:15:30.566Z</time>
      </trkpt>
      <trkpt lat="47.80929" lon="-3.33702">
        <ele>106</ele>
        <time>2015-01-22T09:15:31.569Z</time>
      </trkpt>
      <trkpt lat="47.80932" lon="-3.33709">
        <ele>105</ele>
        <time>2015-01-22T09:15:32.569Z</time>
      </trkpt>
      <trkpt lat="47.80935" lon="-3.33717">
        <ele>104</ele>
        <time>2015-01-22T09:15:33.570Z</time>
      </trkpt>
      <trkpt lat="47.80935" lon="-3.3373">
        <ele>105</ele>
        <time>2015-01-22T09:15:34.568Z</time>
      </trkpt>
      <trkpt lat="47.80935" lon="-3.33737">
        <ele>105</ele>
        <time>2015-01-22T09:15:35.569Z</time>
      </trkpt>
      <trkpt lat="47.80943" lon="-3.3375">
        <ele>107</ele>
        <time>2015-01-22T09:15:36.571Z</time>
      </trkpt>
      <trkpt lat="47.80943" lon="-3.33754">
        <ele>108</ele>
        <time>2015-01-22T09:15:37.571Z</time>
      </trkpt>
      <trkpt lat="47.80942" lon="-3.33772">
        <ele>108</ele>
        <time>2015-01-22T09:15:38.570Z</time>
      </trkpt>
      <trkpt lat="47.80952" lon="-3.33796">
        <ele>109</ele>
        <time>2015-01-22T09:15:39.570Z</time>
      </trkpt>
      <trkpt lat="47.80951" lon="-3.33818">
        <ele>109</ele>
        <time>2015-01-22T09:15:40.612Z</time>
      </trkpt>
      <trkpt lat="47.80954" lon="-3.33826">
        <ele>109</ele>
        <time>2015-01-22T09:15:41.570Z</time>
      </trkpt>
      <trkpt lat="47.80952" lon="-3.33838">
        <ele>110</ele>
        <time>2015-01-22T09:15:42.571Z</time>
      </trkpt>
      <trkpt lat="47.80958" lon="-3.33844">
        <ele>106</ele>
        <time>2015-01-22T09:15:43.571Z</time>
      </trkpt>
      <trkpt lat="47.80957" lon="-3.33854">
        <ele>109</ele>
        <time>2015-01-22T09:15:44.571Z</time>
      </trkpt>
      <trkpt lat="47.80957" lon="-3.33864">
        <ele>111</ele>
        <time>2015-01-22T09:15:46.567Z</time>
      </trkpt>
      <trkpt lat="47.8095" lon="-3.33872">
        <ele>115</ele>
        <time>2015-01-22T09:15:47.570Z</time>
      </trkpt>
      <trkpt lat="47.80943" lon="-3.33879">
        <ele>115</ele>
        <time>2015-01-22T09:15:48.567Z</time>
      </trkpt>
      <trkpt lat="47.80938" lon="-3.3389">
        <ele>114</ele>
        <time>2015-01-22T09:15:49.570Z</time>
      </trkpt>
      <trkpt lat="47.80933" lon="-3.33895">
        <ele>114</ele>
        <time>2015-01-22T09:15:50.566Z</time>
      </trkpt>
      <trkpt lat="47.80927" lon="-3.339">
        <ele>114</ele>
        <time>2015-01-22T09:15:51.570Z</time>
      </trkpt>
      <trkpt lat="47.8092" lon="-3.33904">
        <ele>114</ele>
        <time>2015-01-22T09:15:52.565Z</time>
      </trkpt>
      <trkpt lat="47.80913" lon="-3.33909">
        <ele>113</ele>
        <time>2015-01-22T09:15:53.571Z</time>
      </trkpt>
      <trkpt lat="47.80907" lon="-3.33915">
        <ele>113</ele>
        <time>2015-01-22T09:15:54.571Z</time>
      </trkpt>
      <trkpt lat="47.80899" lon="-3.33918">
        <ele>111</ele>
        <time>2015-01-22T09:15:55.605Z</time>
      </trkpt>
      <trkpt lat="47.80889" lon="-3.3392">
        <ele>111</ele>
        <time>2015-01-22T09:15:56.569Z</time>
      </trkpt>
      <trkpt lat="47.80885" lon="-3.33921">
        <ele>110</ele>
        <time>2015-01-22T09:15:57.634Z</time>
      </trkpt>
      <trkpt lat="47.80875" lon="-3.33925">
        <ele>108</ele>
        <time>2015-01-22T09:15:58.574Z</time>
      </trkpt>
      <trkpt lat="47.80863" lon="-3.3393">
        <ele>106</ele>
        <time>2015-01-22T09:15:59.570Z</time>
      </trkpt>
      <trkpt lat="47.80853" lon="-3.33934">
        <ele>106</ele>
        <time>2015-01-22T09:16:00.571Z</time>
      </trkpt>
      <trkpt lat="47.80843" lon="-3.33936">
        <ele>107</ele>
        <time>2015-01-22T09:16:01.567Z</time>
      </trkpt>
      <trkpt lat="47.80833" lon="-3.33938">
        <ele>108</ele>
        <time>2015-01-22T09:16:02.571Z</time>
      </trkpt>
      <trkpt lat="47.80824" lon="-3.33942">
        <ele>105</ele>
        <time>2015-01-22T09:16:03.569Z</time>
      </trkpt>
      <trkpt lat="47.80813" lon="-3.33944">
        <ele>105</ele>
        <time>2015-01-22T09:16:04.568Z</time>
      </trkpt>
      <trkpt lat="47.80802" lon="-3.33946">
        <ele>104</ele>
        <time>2015-01-22T09:16:05.567Z</time>
      </trkpt>
      <trkpt lat="47.80792" lon="-3.33949">
        <ele>104</ele>
        <time>2015-01-22T09:16:06.566Z</time>
      </trkpt>
      <trkpt lat="47.80782" lon="-3.33952">
        <ele>104</ele>
        <time>2015-01-22T09:16:07.569Z</time>
      </trkpt>
      <trkpt lat="47.80772" lon="-3.33957">
        <ele>105</ele>
        <time>2015-01-22T09:16:08.571Z</time>
      </trkpt>
      <trkpt lat="47.80762" lon="-3.33965">
        <ele>104</ele>
        <time>2015-01-22T09:16:09.575Z</time>
      </trkpt>
      <trkpt lat="47.80752" lon="-3.33973">
        <ele>104</ele>
        <time>2015-01-22T09:16:10.612Z</time>
      </trkpt>
      <trkpt lat="47.80745" lon="-3.33984">
        <ele>104</ele>
        <time>2015-01-22T09:16:11.569Z</time>
      </trkpt>
      <trkpt lat="47.8074" lon="-3.33995">
        <ele>104</ele>
        <time>2015-01-22T09:16:12.592Z</time>
      </trkpt>
      <trkpt lat="47.80737" lon="-3.34005">
        <ele>104</ele>
        <time>2015-01-22T09:16:13.616Z</time>
      </trkpt>
      <trkpt lat="47.80735" lon="-3.34014">
        <ele>103</ele>
        <time>2015-01-22T09:16:14.571Z</time>
      </trkpt>
      <trkpt lat="47.80733" lon="-3.34021">
        <ele>104</ele>
        <time>2015-01-22T09:16:15.569Z</time>
      </trkpt>
      <trkpt lat="47.80729" lon="-3.34025">
        <ele>105</ele>
        <time>2015-01-22T09:16:16.566Z</time>
      </trkpt>
      <trkpt lat="47.80722" lon="-3.34026">
        <ele>105</ele>
        <time>2015-01-22T09:16:17.569Z</time>
      </trkpt>
      <trkpt lat="47.80717" lon="-3.34026">
        <ele>104</ele>
        <time>2015-01-22T09:16:18.569Z</time>
      </trkpt>
      <trkpt lat="47.80709" lon="-3.34019">
        <ele>104</ele>
        <time>2015-01-22T09:16:19.570Z</time>
      </trkpt>
      <trkpt lat="47.80701" lon="-3.3402">
        <ele>103</ele>
        <time>2015-01-22T09:16:20.570Z</time>
      </trkpt>
      <trkpt lat="47.80692" lon="-3.34017">
        <ele>106</ele>
        <time>2015-01-22T09:16:21.570Z</time>
      </trkpt>
      <trkpt lat="47.80684" lon="-3.34008">
        <ele>106</ele>
        <time>2015-01-22T09:16:22.570Z</time>
      </trkpt>
      <trkpt lat="47.80672" lon="-3.34011">
        <ele>103</ele>
        <time>2015-01-22T09:16:23.570Z</time>
      </trkpt>
      <trkpt lat="47.8066" lon="-3.33998">
        <ele>100</ele>
        <time>2015-01-22T09:16:24.570Z</time>
      </trkpt>
      <trkpt lat="47.80652" lon="-3.33997">
        <ele>100</ele>
        <time>2015-01-22T09:16:25.570Z</time>
      </trkpt>
      <trkpt lat="47.80642" lon="-3.3399">
        <ele>102</ele>
        <time>2015-01-22T09:16:26.567Z</time>
      </trkpt>
      <trkpt lat="47.80634" lon="-3.33984">
        <ele>100</ele>
        <time>2015-01-22T09:16:27.569Z</time>
      </trkpt>
      <trkpt lat="47.80626" lon="-3.33982">
        <ele>99</ele>
        <time>2015-01-22T09:16:28.569Z</time>
      </trkpt>
      <trkpt lat="47.80616" lon="-3.33985">
        <ele>98</ele>
        <time>2015-01-22T09:16:29.576Z</time>
      </trkpt>
      <trkpt lat="47.80605" lon="-3.3398">
        <ele>98</ele>
        <time>2015-01-22T09:16:30.569Z</time>
      </trkpt>
      <trkpt lat="47.80597" lon="-3.33984">
        <ele>98</ele>
        <time>2015-01-22T09:16:31.570Z</time>
      </trkpt>
      <trkpt lat="47.80588" lon="-3.3398">
        <ele>97</ele>
        <time>2015-01-22T09:16:32.571Z</time>
      </trkpt>
      <trkpt lat="47.80579" lon="-3.33982">
        <ele>97</ele>
        <time>2015-01-22T09:16:33.571Z</time>
      </trkpt>
      <trkpt lat="47.80572" lon="-3.33978">
        <ele>97</ele>
        <time>2015-01-22T09:16:34.570Z</time>
      </trkpt>
      <trkpt lat="47.80565" lon="-3.33985">
        <ele>97</ele>
        <time>2015-01-22T09:16:37.570Z</time>
      </trkpt>
      <trkpt lat="47.80564" lon="-3.33996">
        <ele>99</ele>
        <time>2015-01-22T09:16:38.571Z</time>
      </trkpt>
      <trkpt lat="47.80564" lon="-3.34008">
        <ele>99</ele>
        <time>2015-01-22T09:16:39.627Z</time>
      </trkpt>
      <trkpt lat="47.80561" lon="-3.34015">
        <ele>97</ele>
        <time>2015-01-22T09:16:40.617Z</time>
      </trkpt>
      <trkpt lat="47.80565" lon="-3.34025">
        <ele>93</ele>
        <time>2015-01-22T09:16:41.570Z</time>
      </trkpt>
      <trkpt lat="47.80569" lon="-3.34034">
        <ele>93</ele>
        <time>2015-01-22T09:16:42.596Z</time>
      </trkpt>
      <trkpt lat="47.80572" lon="-3.34046">
        <ele>94</ele>
        <time>2015-01-22T09:16:43.603Z</time>
      </trkpt>
      <trkpt lat="47.80574" lon="-3.34059">
        <ele>94</ele>
        <time>2015-01-22T09:16:44.570Z</time>
      </trkpt>
      <trkpt lat="47.80574" lon="-3.34076">
        <ele>94</ele>
        <time>2015-01-22T09:16:45.579Z</time>
      </trkpt>
      <trkpt lat="47.80576" lon="-3.34081">
        <ele>92</ele>
        <time>2015-01-22T09:16:46.568Z</time>
      </trkpt>
      <trkpt lat="47.80573" lon="-3.34092">
        <ele>92</ele>
        <time>2015-01-22T09:16:47.568Z</time>
      </trkpt>
      <trkpt lat="47.80571" lon="-3.34098">
        <ele>92</ele>
        <time>2015-01-22T09:16:48.566Z</time>
      </trkpt>
      <trkpt lat="47.80565" lon="-3.34102">
        <ele>93</ele>
        <time>2015-01-22T09:16:49.578Z</time>
      </trkpt>
      <trkpt lat="47.80559" lon="-3.34106">
        <ele>93</ele>
        <time>2015-01-22T09:16:50.568Z</time>
      </trkpt>
      <trkpt lat="47.80556" lon="-3.34107">
        <ele>91</ele>
        <time>2015-01-22T09:16:51.650Z</time>
      </trkpt>
      <trkpt lat="47.80548" lon="-3.34109">
        <ele>84</ele>
        <time>2015-01-22T09:17:21.625Z</time>
      </trkpt>
      <trkpt lat="47.80546" lon="-3.34109">
        <ele>81</ele>
        <time>2015-01-22T09:17:22.632Z</time>
      </trkpt>
      <trkpt lat="47.80553" lon="-3.34111">
        <ele>83</ele>
        <time>2015-01-22T09:18:24.569Z</time>
      </trkpt>
      <trkpt lat="47.80555" lon="-3.34111">
        <ele>83</ele>
        <time>2015-01-22T09:18:25.564Z</time>
      </trkpt>
      <trkpt lat="47.80564" lon="-3.3411">
        <ele>83</ele>
        <time>2015-01-22T09:18:29.568Z</time>
      </trkpt>
      <trkpt lat="47.80566" lon="-3.34112">
        <ele>82</ele>
        <time>2015-01-22T09:18:30.569Z</time>
      </trkpt>
      <trkpt lat="47.80571" lon="-3.34121">
        <ele>80</ele>
        <time>2015-01-22T09:18:32.568Z</time>
      </trkpt>
      <trkpt lat="47.80574" lon="-3.34128">
        <ele>80</ele>
        <time>2015-01-22T09:18:33.569Z</time>
      </trkpt>
      <trkpt lat="47.80578" lon="-3.34146">
        <ele>80</ele>
        <time>2015-01-22T09:18:34.569Z</time>
      </trkpt>
      <trkpt lat="47.80582" lon="-3.34151">
        <ele>81</ele>
        <time>2015-01-22T09:18:35.570Z</time>
      </trkpt>
      <trkpt lat="47.80587" lon="-3.34157">
        <ele>82</ele>
        <time>2015-01-22T09:18:36.567Z</time>
      </trkpt>
      <trkpt lat="47.80591" lon="-3.34162">
        <ele>82</ele>
        <time>2015-01-22T09:18:37.568Z</time>
      </trkpt>
      <trkpt lat="47.80598" lon="-3.34167">
        <ele>82</ele>
        <time>2015-01-22T09:18:38.570Z</time>
      </trkpt>
      <trkpt lat="47.80604" lon="-3.34171">
        <ele>84</ele>
        <time>2015-01-22T09:18:39.569Z</time>
      </trkpt>
      <trkpt lat="47.80611" lon="-3.3417">
        <ele>84</ele>
        <time>2015-01-22T09:18:40.569Z</time>
      </trkpt>
      <trkpt lat="47.80618" lon="-3.34168">
        <ele>84</ele>
        <time>2015-01-22T09:18:41.568Z</time>
      </trkpt>
      <trkpt lat="47.80627" lon="-3.34165">
        <ele>85</ele>
        <time>2015-01-22T09:18:42.570Z</time>
      </trkpt>
      <trkpt lat="47.80633" lon="-3.34161">
        <ele>85</ele>
        <time>2015-01-22T09:18:43.568Z</time>
      </trkpt>
      <trkpt lat="47.8064" lon="-3.34155">
        <ele>85</ele>
        <time>2015-01-22T09:18:44.570Z</time>
      </trkpt>
      <trkpt lat="47.8065" lon="-3.3415">
        <ele>88</ele>
        <time>2015-01-22T09:18:45.568Z</time>
      </trkpt>
      <trkpt lat="47.80658" lon="-3.34144">
        <ele>89</ele>
        <time>2015-01-22T09:18:46.568Z</time>
      </trkpt>
      <trkpt lat="47.80666" lon="-3.34138">
        <ele>89</ele>
        <time>2015-01-22T09:18:47.570Z</time>
      </trkpt>
      <trkpt lat="47.80676" lon="-3.34135">
        <ele>88</ele>
        <time>2015-01-22T09:18:48.569Z</time>
      </trkpt>
      <trkpt lat="47.80681" lon="-3.34129">
        <ele>88</ele>
        <time>2015-01-22T09:18:49.570Z</time>
      </trkpt>
      <trkpt lat="47.80693" lon="-3.34129">
        <ele>90</ele>
        <time>2015-01-22T09:18:50.569Z</time>
      </trkpt>
      <trkpt lat="47.80703" lon="-3.34127">
        <ele>91</ele>
        <time>2015-01-22T09:18:51.566Z</time>
      </trkpt>
      <trkpt lat="47.80711" lon="-3.34124">
        <ele>92</ele>
        <time>2015-01-22T09:18:52.570Z</time>
      </trkpt>
      <trkpt lat="47.80716" lon="-3.34119">
        <ele>92</ele>
        <time>2015-01-22T09:18:53.568Z</time>
      </trkpt>
      <trkpt lat="47.80728" lon="-3.3412">
        <ele>91</ele>
        <time>2015-01-22T09:18:54.567Z</time>
      </trkpt>
      <trkpt lat="47.80738" lon="-3.34118">
        <ele>91</ele>
        <time>2015-01-22T09:18:55.568Z</time>
      </trkpt>
      <trkpt lat="47.80747" lon="-3.34116">
        <ele>93</ele>
        <time>2015-01-22T09:18:56.568Z</time>
      </trkpt>
      <trkpt lat="47.80756" lon="-3.34114">
        <ele>97</ele>
        <time>2015-01-22T09:18:57.568Z</time>
      </trkpt>
      <trkpt lat="47.80764" lon="-3.3411">
        <ele>97</ele>
        <time>2015-01-22T09:18:58.570Z</time>
      </trkpt>
      <trkpt lat="47.8077" lon="-3.34107">
        <ele>98</ele>
        <time>2015-01-22T09:18:59.583Z</time>
      </trkpt>
      <trkpt lat="47.80777" lon="-3.34106">
        <ele>98</ele>
        <time>2015-01-22T09:19:00.566Z</time>
      </trkpt>
      <trkpt lat="47.80785" lon="-3.34108">
        <ele>98</ele>
        <time>2015-01-22T09:19:01.567Z</time>
      </trkpt>
      <trkpt lat="47.80794" lon="-3.34107">
        <ele>98</ele>
        <time>2015-01-22T09:19:02.566Z</time>
      </trkpt>
      <trkpt lat="47.80802" lon="-3.34106">
        <ele>100</ele>
        <time>2015-01-22T09:19:03.568Z</time>
      </trkpt>
      <trkpt lat="47.8081" lon="-3.34104">
        <ele>102</ele>
        <time>2015-01-22T09:19:04.567Z</time>
      </trkpt>
      <trkpt lat="47.80818" lon="-3.34102">
        <ele>102</ele>
        <time>2015-01-22T09:19:05.566Z</time>
      </trkpt>
      <trkpt lat="47.80827" lon="-3.34099">
        <ele>101</ele>
        <time>2015-01-22T09:19:06.566Z</time>
      </trkpt>
      <trkpt lat="47.80835" lon="-3.34097">
        <ele>102</ele>
        <time>2015-01-22T09:19:07.568Z</time>
      </trkpt>
      <trkpt lat="47.80842" lon="-3.34093">
        <ele>102</ele>
        <time>2015-01-22T09:19:08.568Z</time>
      </trkpt>
      <trkpt lat="47.80849" lon="-3.34091">
        <ele>104</ele>
        <time>2015-01-22T09:19:09.567Z</time>
      </trkpt>
      <trkpt lat="47.80858" lon="-3.3409">
        <ele>104</ele>
        <time>2015-01-22T09:19:10.569Z</time>
      </trkpt>
      <trkpt lat="47.80866" lon="-3.34089">
        <ele>107</ele>
        <time>2015-01-22T09:19:11.583Z</time>
      </trkpt>
      <trkpt lat="47.80875" lon="-3.34088">
        <ele>106</ele>
        <time>2015-01-22T09:19:12.566Z</time>
      </trkpt>
      <trkpt lat="47.80884" lon="-3.34085">
        <ele>107</ele>
        <time>2015-01-22T09:19:13.567Z</time>
      </trkpt>
      <trkpt lat="47.80893" lon="-3.34085">
        <ele>107</ele>
        <time>2015-01-22T09:19:14.568Z</time>
      </trkpt>
      <trkpt lat="47.80902" lon="-3.34084">
        <ele>106</ele>
        <time>2015-01-22T09:19:15.564Z</time>
      </trkpt>
      <trkpt lat="47.80911" lon="-3.34083">
        <ele>104</ele>
        <time>2015-01-22T09:19:16.566Z</time>
      </trkpt>
      <trkpt lat="47.8092" lon="-3.34086">
        <ele>104</ele>
        <time>2015-01-22T09:19:17.567Z</time>
      </trkpt>
      <trkpt lat="47.80928" lon="-3.34084">
        <ele>103</ele>
        <time>2015-01-22T09:19:18.567Z</time>
      </trkpt>
      <trkpt lat="47.80936" lon="-3.34082">
        <ele>104</ele>
        <time>2015-01-22T09:19:19.567Z</time>
      </trkpt>
      <trkpt lat="47.80945" lon="-3.3408">
        <ele>105</ele>
        <time>2015-01-22T09:19:20.567Z</time>
      </trkpt>
      <trkpt lat="47.80954" lon="-3.34078">
        <ele>105</ele>
        <time>2015-01-22T09:19:21.567Z</time>
      </trkpt>
      <trkpt lat="47.80962" lon="-3.34077">
        <ele>105</ele>
        <time>2015-01-22T09:19:22.567Z</time>
      </trkpt>
      <trkpt lat="47.80971" lon="-3.34076">
        <ele>107</ele>
        <time>2015-01-22T09:19:23.568Z</time>
      </trkpt>
      <trkpt lat="47.80979" lon="-3.34074">
        <ele>106</ele>
        <time>2015-01-22T09:19:24.573Z</time>
      </trkpt>
      <trkpt lat="47.80987" lon="-3.34074">
        <ele>107</ele>
        <time>2015-01-22T09:19:25.570Z</time>
      </trkpt>
      <trkpt lat="47.80995" lon="-3.34073">
        <ele>107</ele>
        <time>2015-01-22T09:19:26.569Z</time>
      </trkpt>
      <trkpt lat="47.81003" lon="-3.34071">
        <ele>107</ele>
        <time>2015-01-22T09:19:27.570Z</time>
      </trkpt>
      <trkpt lat="47.8101" lon="-3.3407">
        <ele>107</ele>
        <time>2015-01-22T09:19:28.569Z</time>
      </trkpt>
      <trkpt lat="47.81016" lon="-3.34068">
        <ele>106</ele>
        <time>2015-01-22T09:19:29.568Z</time>
      </trkpt>
      <trkpt lat="47.81023" lon="-3.34071">
        <ele>106</ele>
        <time>2015-01-22T09:19:30.569Z</time>
      </trkpt>
      <trkpt lat="47.81029" lon="-3.34071">
        <ele>107</ele>
        <time>2015-01-22T09:19:31.568Z</time>
      </trkpt>
      <trkpt lat="47.81034" lon="-3.3407">
        <ele>107</ele>
        <time>2015-01-22T09:19:32.568Z</time>
      </trkpt>
      <trkpt lat="47.81038" lon="-3.34074">
        <ele>106</ele>
        <time>2015-01-22T09:19:33.569Z</time>
      </trkpt>
      <trkpt lat="47.81041" lon="-3.34082">
        <ele>106</ele>
        <time>2015-01-22T09:19:34.570Z</time>
      </trkpt>
      <trkpt lat="47.81041" lon="-3.34086">
        <ele>107</ele>
        <time>2015-01-22T09:19:35.568Z</time>
      </trkpt>
      <trkpt lat="47.81043" lon="-3.34096">
        <ele>108</ele>
        <time>2015-01-22T09:19:36.563Z</time>
      </trkpt>
      <trkpt lat="47.81044" lon="-3.34105">
        <ele>108</ele>
        <time>2015-01-22T09:19:37.567Z</time>
      </trkpt>
      <trkpt lat="47.81043" lon="-3.34119">
        <ele>107</ele>
        <time>2015-01-22T09:19:38.568Z</time>
      </trkpt>
      <trkpt lat="47.81043" lon="-3.3413">
        <ele>107</ele>
        <time>2015-01-22T09:19:39.623Z</time>
      </trkpt>
      <trkpt lat="47.81041" lon="-3.34141">
        <ele>106</ele>
        <time>2015-01-22T09:19:40.569Z</time>
      </trkpt>
      <trkpt lat="47.8104" lon="-3.34152">
        <ele>107</ele>
        <time>2015-01-22T09:19:41.602Z</time>
      </trkpt>
      <trkpt lat="47.8104" lon="-3.34163">
        <ele>107</ele>
        <time>2015-01-22T09:19:42.567Z</time>
      </trkpt>
      <trkpt lat="47.81036" lon="-3.34174">
        <ele>107</ele>
        <time>2015-01-22T09:19:43.567Z</time>
      </trkpt>
      <trkpt lat="47.81037" lon="-3.34182">
        <ele>106</ele>
        <time>2015-01-22T09:19:44.568Z</time>
      </trkpt>
      <trkpt lat="47.81043" lon="-3.34192">
        <ele>106</ele>
        <time>2015-01-22T09:19:48.656Z</time>
      </trkpt>
      <trkpt lat="47.81045" lon="-3.34194">
        <ele>107</ele>
        <time>2015-01-22T09:19:49.570Z</time>
      </trkpt>
      <trkpt lat="47.81051" lon="-3.34197">
        <ele>109</ele>
        <time>2015-01-22T09:19:51.570Z</time>
      </trkpt>
      <trkpt lat="47.81055" lon="-3.34197">
        <ele>109</ele>
        <time>2015-01-22T09:19:52.605Z</time>
      </trkpt>
      <trkpt lat="47.81054" lon="-3.3421">
        <ele>110</ele>
        <time>2015-01-22T09:20:29.561Z</time>
      </trkpt>
      <trkpt lat="47.81054" lon="-3.34212">
        <ele>113</ele>
        <time>2015-01-22T09:20:30.560Z</time>
      </trkpt>
      <trkpt lat="47.81055" lon="-3.34225">
        <ele>110</ele>
        <time>2015-01-22T09:20:38.751Z</time>
      </trkpt>
      <trkpt lat="47.81055" lon="-3.34226">
        <ele>110</ele>
        <time>2015-01-22T09:20:39.561Z</time>
      </trkpt>
      <trkpt lat="47.81055" lon="-3.34239">
        <ele>110</ele>
        <time>2015-01-22T09:20:45.601Z</time>
      </trkpt>
      <trkpt lat="47.81054" lon="-3.34242">
        <ele>110</ele>
        <time>2015-01-22T09:20:46.567Z</time>
      </trkpt>
      <trkpt lat="47.8105" lon="-3.34232">
        <ele>114</ele>
        <time>2015-01-22T09:20:54.595Z</time>
      </trkpt>
      <trkpt lat="47.81051" lon="-3.34228">
        <ele>117</ele>
        <time>2015-01-22T09:20:55.584Z</time>
      </trkpt>
      <trkpt lat="47.81052" lon="-3.34219">
        <ele>114</ele>
        <time>2015-01-22T09:20:56.663Z</time>
      </trkpt>
      <trkpt lat="47.81052" lon="-3.34214">
        <ele>115</ele>
        <time>2015-01-22T09:20:57.576Z</time>
      </trkpt>
      <trkpt lat="47.81053" lon="-3.342">
        <ele>116</ele>
        <time>2015-01-22T09:21:38.580Z</time>
      </trkpt>
      <trkpt lat="47.81053" lon="-3.34198">
        <ele>114</ele>
        <time>2015-01-22T09:21:39.552Z</time>
      </trkpt>
      <trkpt lat="47.81045" lon="-3.34193">
        <ele>112</ele>
        <time>2015-01-22T09:24:52.585Z</time>
      </trkpt>
      <trkpt lat="47.81043" lon="-3.34194">
        <ele>113</ele>
        <time>2015-01-22T09:24:53.563Z</time>
      </trkpt>
      <trkpt lat="47.81036" lon="-3.34198">
        <ele>116</ele>
        <time>2015-01-22T09:24:57.569Z</time>
      </trkpt>
      <trkpt lat="47.81034" lon="-3.342">
        <ele>115</ele>
        <time>2015-01-22T09:24:58.552Z</time>
      </trkpt>
      <trkpt lat="47.8103" lon="-3.34211">
        <ele>113</ele>
        <time>2015-01-22T09:25:00.562Z</time>
      </trkpt>
      <trkpt lat="47.8103" lon="-3.34215">
        <ele>113</ele>
        <time>2015-01-22T09:25:01.565Z</time>
      </trkpt>
      <trkpt lat="47.81035" lon="-3.34226">
        <ele>111</ele>
        <time>2015-01-22T09:25:07.549Z</time>
      </trkpt>
      <trkpt lat="47.81036" lon="-3.34226">
        <ele>112</ele>
        <time>2015-01-22T09:25:08.551Z</time>
      </trkpt>
      <trkpt lat="47.81042" lon="-3.34218">
        <ele>111</ele>
        <time>2015-01-22T09:25:37.563Z</time>
      </trkpt>
      <trkpt lat="47.81042" lon="-3.34213">
        <ele>109</ele>
        <time>2015-01-22T09:25:38.563Z</time>
      </trkpt>
      <trkpt lat="47.81041" lon="-3.34202">
        <ele>109</ele>
        <time>2015-01-22T09:25:40.560Z</time>
      </trkpt>
      <trkpt lat="47.81041" lon="-3.34197">
        <ele>111</ele>
        <time>2015-01-22T09:25:41.558Z</time>
      </trkpt>
      <trkpt lat="47.81041" lon="-3.34187">
        <ele>112</ele>
        <time>2015-01-22T09:25:43.565Z</time>
      </trkpt>
      <trkpt lat="47.81041" lon="-3.34183">
        <ele>112</ele>
        <time>2015-01-22T09:25:44.567Z</time>
      </trkpt>
      <trkpt lat="47.81038" lon="-3.34171">
        <ele>108</ele>
        <time>2015-01-22T09:25:53.562Z</time>
      </trkpt>
      <trkpt lat="47.81037" lon="-3.34168">
        <ele>107</ele>
        <time>2015-01-22T09:25:54.552Z</time>
      </trkpt>
      <trkpt lat="47.81042" lon="-3.34159">
        <ele>107</ele>
        <time>2015-01-22T09:26:03.571Z</time>
      </trkpt>
      <trkpt lat="47.81043" lon="-3.34154">
        <ele>106</ele>
        <time>2015-01-22T09:26:04.557Z</time>
      </trkpt>
      <trkpt lat="47.81043" lon="-3.34141">
        <ele>107</ele>
        <time>2015-01-22T09:26:07.565Z</time>
      </trkpt>
      <trkpt lat="47.81042" lon="-3.34139">
        <ele>105</ele>
        <time>2015-01-22T09:26:08.552Z</time>
      </trkpt>
      <trkpt lat="47.81037" lon="-3.34129">
        <ele>102</ele>
        <time>2015-01-22T09:26:17.551Z</time>
      </trkpt>
      <trkpt lat="47.81038" lon="-3.34127">
        <ele>102</ele>
        <time>2015-01-22T09:26:18.569Z</time>
      </trkpt>
      <trkpt lat="47.81041" lon="-3.34115">
        <ele>102</ele>
        <time>2015-01-22T09:26:23.563Z</time>
      </trkpt>
      <trkpt lat="47.81041" lon="-3.34111">
        <ele>101</ele>
        <time>2015-01-22T09:26:24.564Z</time>
      </trkpt>
      <trkpt lat="47.81042" lon="-3.34097">
        <ele>102</ele>
        <time>2015-01-22T09:26:27.553Z</time>
      </trkpt>
      <trkpt lat="47.81043" lon="-3.34094">
        <ele>103</ele>
        <time>2015-01-22T09:26:28.606Z</time>
      </trkpt>
      <trkpt lat="47.81036" lon="-3.341">
        <ele>112</ele>
        <time>2015-01-22T09:27:29.622Z</time>
      </trkpt>
      <trkpt lat="47.81035" lon="-3.34103">
        <ele>112</ele>
        <time>2015-01-22T09:27:30.586Z</time>
      </trkpt>
      <trkpt lat="47.81039" lon="-3.34114">
        <ele>112</ele>
        <time>2015-01-22T09:27:34.561Z</time>
      </trkpt>
      <trkpt lat="47.81042" lon="-3.34114">
        <ele>114</ele>
        <time>2015-01-22T09:27:35.558Z</time>
      </trkpt>
      <trkpt lat="47.8105" lon="-3.34114">
        <ele>116</ele>
        <time>2015-01-22T09:27:38.560Z</time>
      </trkpt>
      <trkpt lat="47.81052" lon="-3.34114">
        <ele>114</ele>
        <time>2015-01-22T09:27:39.562Z</time>
      </trkpt>
      <trkpt lat="47.81059" lon="-3.34115">
        <ele>110</ele>
        <time>2015-01-22T09:27:42.558Z</time>
      </trkpt>
      <trkpt lat="47.81061" lon="-3.34116">
        <ele>110</ele>
        <time>2015-01-22T09:27:43.553Z</time>
      </trkpt>
      <trkpt lat="47.81055" lon="-3.3412">
        <ele>117</ele>
        <time>2015-01-22T09:27:53.559Z</time>
      </trkpt>
      <trkpt lat="47.81052" lon="-3.34121">
        <ele>119</ele>
        <time>2015-01-22T09:27:54.614Z</time>
      </trkpt>
      <trkpt lat="47.81045" lon="-3.3412">
        <ele>119</ele>
        <time>2015-01-22T09:27:56.558Z</time>
      </trkpt>
      <trkpt lat="47.81042" lon="-3.3412">
        <ele>117</ele>
        <time>2015-01-22T09:27:57.600Z</time>
      </trkpt>
      <trkpt lat="47.81033" lon="-3.34118">
        <ele>119</ele>
        <time>2015-01-22T09:28:02.563Z</time>
      </trkpt>
      <trkpt lat="47.81032" lon="-3.3412">
        <ele>121</ele>
        <time>2015-01-22T09:28:03.575Z</time>
      </trkpt>
      <trkpt lat="47.8103" lon="-3.34132">
        <ele>120</ele>
        <time>2015-01-22T09:28:06.565Z</time>
      </trkpt>
      <trkpt lat="47.8103" lon="-3.34137">
        <ele>120</ele>
        <time>2015-01-22T09:28:07.561Z</time>
      </trkpt>
      <trkpt lat="47.81031" lon="-3.34147">
        <ele>118</ele>
        <time>2015-01-22T09:28:09.552Z</time>
      </trkpt>
      <trkpt lat="47.81032" lon="-3.34151">
        <ele>118</ele>
        <time>2015-01-22T09:28:10.562Z</time>
      </trkpt>
      <trkpt lat="47.81034" lon="-3.34163">
        <ele>114</ele>
        <time>2015-01-22T09:28:14.551Z</time>
      </trkpt>
      <trkpt lat="47.81038" lon="-3.34161">
        <ele>113</ele>
        <time>2015-01-22T09:28:15.585Z</time>
      </trkpt>
      <trkpt lat="47.81043" lon="-3.3417">
        <ele>110</ele>
        <time>2015-01-22T09:29:20.559Z</time>
      </trkpt>
      <trkpt lat="47.81044" lon="-3.34172">
        <ele>108</ele>
        <time>2015-01-22T09:29:21.567Z</time>
      </trkpt>
      <trkpt lat="47.8105" lon="-3.34176">
        <ele>106</ele>
        <time>2015-01-22T09:29:24.557Z</time>
      </trkpt>
      <trkpt lat="47.81053" lon="-3.34176">
        <ele>106</ele>
        <time>2015-01-22T09:29:25.559Z</time>
      </trkpt>
      <trkpt lat="47.8106" lon="-3.34175">
        <ele>104</ele>
        <time>2015-01-22T09:29:27.559Z</time>
      </trkpt>
      <trkpt lat="47.81063" lon="-3.34175">
        <ele>103</ele>
        <time>2015-01-22T09:29:28.734Z</time>
      </trkpt>
      <trkpt lat="47.81071" lon="-3.34176">
        <ele>102</ele>
        <time>2015-01-22T09:29:30.649Z</time>
      </trkpt>
      <trkpt lat="47.81075" lon="-3.34175">
        <ele>101</ele>
        <time>2015-01-22T09:29:31.587Z</time>
      </trkpt>
      <trkpt lat="47.81079" lon="-3.34168">
        <ele>102</ele>
        <time>2015-01-22T09:29:33.564Z</time>
      </trkpt>
      <trkpt lat="47.8108" lon="-3.34163">
        <ele>102</ele>
        <time>2015-01-22T09:29:34.555Z</time>
      </trkpt>
      <trkpt lat="47.81081" lon="-3.34154">
        <ele>101</ele>
        <time>2015-01-22T09:29:36.558Z</time>
      </trkpt>
      <trkpt lat="47.81081" lon="-3.34149">
        <ele>101</ele>
        <time>2015-01-22T09:29:37.556Z</time>
      </trkpt>
      <trkpt lat="47.81079" lon="-3.34136">
        <ele>99</ele>
        <time>2015-01-22T09:29:40.576Z</time>
      </trkpt>
      <trkpt lat="47.81077" lon="-3.34135">
        <ele>97</ele>
        <time>2015-01-22T09:29:41.581Z</time>
      </trkpt>
      <trkpt lat="47.81075" lon="-3.34144">
        <ele>104</ele>
        <time>2015-01-22T09:30:29.573Z</time>
      </trkpt>
      <trkpt lat="47.81076" lon="-3.34148">
        <ele>104</ele>
        <time>2015-01-22T09:30:30.558Z</time>
      </trkpt>
      <trkpt lat="47.81076" lon="-3.34159">
        <ele>103</ele>
        <time>2015-01-22T09:30:32.559Z</time>
      </trkpt>
      <trkpt lat="47.81076" lon="-3.34164">
        <ele>103</ele>
        <time>2015-01-22T09:30:33.544Z</time>
      </trkpt>
      <trkpt lat="47.81074" lon="-3.34175">
        <ele>100</ele>
        <time>2015-01-22T09:30:35.559Z</time>
      </trkpt>
      <trkpt lat="47.81071" lon="-3.34179">
        <ele>99</ele>
        <time>2015-01-22T09:30:36.547Z</time>
      </trkpt>
      <trkpt lat="47.81064" lon="-3.34182">
        <ele>100</ele>
        <time>2015-01-22T09:30:38.555Z</time>
      </trkpt>
      <trkpt lat="47.8106" lon="-3.34183">
        <ele>100</ele>
        <time>2015-01-22T09:30:39.564Z</time>
      </trkpt>
      <trkpt lat="47.81052" lon="-3.34182">
        <ele>100</ele>
        <time>2015-01-22T09:30:41.557Z</time>
      </trkpt>
      <trkpt lat="47.81048" lon="-3.34182">
        <ele>101</ele>
        <time>2015-01-22T09:30:42.551Z</time>
      </trkpt>
      <trkpt lat="47.8104" lon="-3.34181">
        <ele>100</ele>
        <time>2015-01-22T09:30:44.571Z</time>
      </trkpt>
      <trkpt lat="47.81037" lon="-3.34182">
        <ele>100</ele>
        <time>2015-01-22T09:30:45.553Z</time>
      </trkpt>
      <trkpt lat="47.81033" lon="-3.34194">
        <ele>101</ele>
        <time>2015-01-22T09:30:48.555Z</time>
      </trkpt>
      <trkpt lat="47.81033" lon="-3.34198">
        <ele>102</ele>
        <time>2015-01-22T09:30:49.620Z</time>
      </trkpt>
      <trkpt lat="47.81032" lon="-3.3421">
        <ele>102</ele>
        <time>2015-01-22T09:30:51.559Z</time>
      </trkpt>
      <trkpt lat="47.81032" lon="-3.34216">
        <ele>102</ele>
        <time>2015-01-22T09:30:52.567Z</time>
      </trkpt>
      <trkpt lat="47.81032" lon="-3.34229">
        <ele>101</ele>
        <time>2015-01-22T09:30:54.559Z</time>
      </trkpt>
      <trkpt lat="47.81032" lon="-3.34235">
        <ele>103</ele>
        <time>2015-01-22T09:30:55.559Z</time>
      </trkpt>
      <trkpt lat="47.81032" lon="-3.34248">
        <ele>100</ele>
        <time>2015-01-22T09:30:57.558Z</time>
      </trkpt>
      <trkpt lat="47.81032" lon="-3.34253">
        <ele>102</ele>
        <time>2015-01-22T09:30:58.561Z</time>
      </trkpt>
      <trkpt lat="47.81038" lon="-3.34255">
        <ele>101</ele>
        <time>2015-01-22T09:31:02.559Z</time>
      </trkpt>
      <trkpt lat="47.81041" lon="-3.34254">
        <ele>100</ele>
        <time>2015-01-22T09:31:03.558Z</time>
      </trkpt>
      <trkpt lat="47.8105" lon="-3.34252">
        <ele>101</ele>
        <time>2015-01-22T09:31:06.684Z</time>
      </trkpt>
      <trkpt lat="47.81052" lon="-3.34251">
        <ele>100</ele>
        <time>2015-01-22T09:31:07.550Z</time>
      </trkpt>
      <trkpt lat="47.81059" lon="-3.34256">
        <ele>98</ele>
        <time>2015-01-22T09:31:38.557Z</time>
      </trkpt>
      <trkpt lat="47.81061" lon="-3.34255">
        <ele>99</ele>
        <time>2015-01-22T09:31:39.560Z</time>
      </trkpt>
      <trkpt lat="47.8107" lon="-3.34255">
        <ele>101</ele>
        <time>2015-01-22T09:31:46.573Z</time>
      </trkpt>
      <trkpt lat="47.8107" lon="-3.34254">
        <ele>101</ele>
        <time>2015-01-22T09:31:47.558Z</time>
      </trkpt>
      <trkpt lat="47.81076" lon="-3.34252">
        <ele>100</ele>
        <time>2015-01-22T09:32:05.568Z</time>
      </trkpt>
      <trkpt lat="47.81079" lon="-3.34252">
        <ele>98</ele>
        <time>2015-01-22T09:32:06.555Z</time>
      </trkpt>
      <trkpt lat="47.81087" lon="-3.34252">
        <ele>100</ele>
        <time>2015-01-22T09:32:08.556Z</time>
      </trkpt>
      <trkpt lat="47.81092" lon="-3.34252">
        <ele>100</ele>
        <time>2015-01-22T09:32:09.559Z</time>
      </trkpt>
      <trkpt lat="47.811" lon="-3.34252">
        <ele>100</ele>
        <time>2015-01-22T09:32:11.554Z</time>
      </trkpt>
      <trkpt lat="47.81104" lon="-3.34253">
        <ele>102</ele>
        <time>2015-01-22T09:32:12.556Z</time>
      </trkpt>
      <trkpt lat="47.81113" lon="-3.34253">
        <ele>102</ele>
        <time>2015-01-22T09:32:14.558Z</time>
      </trkpt>
      <trkpt lat="47.81116" lon="-3.34252">
        <ele>102</ele>
        <time>2015-01-22T09:32:15.557Z</time>
      </trkpt>
      <trkpt lat="47.8112" lon="-3.34261">
        <ele>106</ele>
        <time>2015-01-22T09:32:29.548Z</time>
      </trkpt>
      <trkpt lat="47.81122" lon="-3.34264">
        <ele>105</ele>
        <time>2015-01-22T09:32:30.548Z</time>
      </trkpt>
      <trkpt lat="47.81128" lon="-3.34271">
        <ele>105</ele>
        <time>2015-01-22T09:32:33.593Z</time>
      </trkpt>
      <trkpt lat="47.8113" lon="-3.34272">
        <ele>105</ele>
        <time>2015-01-22T09:32:34.552Z</time>
      </trkpt>
      <trkpt lat="47.81138" lon="-3.34271">
        <ele>103</ele>
        <time>2015-01-22T09:32:43.555Z</time>
      </trkpt>
      <trkpt lat="47.8114" lon="-3.34271">
        <ele>103</ele>
        <time>2015-01-22T09:32:44.555Z</time>
      </trkpt>
      <trkpt lat="47.81147" lon="-3.34273">
        <ele>101</ele>
        <time>2015-01-22T09:32:47.558Z</time>
      </trkpt>
      <trkpt lat="47.8115" lon="-3.34272">
        <ele>103</ele>
        <time>2015-01-22T09:32:48.554Z</time>
      </trkpt>
      <trkpt lat="47.81156" lon="-3.34264">
        <ele>101</ele>
        <time>2015-01-22T09:32:51.602Z</time>
      </trkpt>
      <trkpt lat="47.81156" lon="-3.34261">
        <ele>100</ele>
        <time>2015-01-22T09:32:52.613Z</time>
      </trkpt>
      <trkpt lat="47.8116" lon="-3.34252">
        <ele>99</ele>
        <time>2015-01-22T09:33:01.558Z</time>
      </trkpt>
      <trkpt lat="47.81161" lon="-3.34248">
        <ele>101</ele>
        <time>2015-01-22T09:33:02.556Z</time>
      </trkpt>
      <trkpt lat="47.81161" lon="-3.34235">
        <ele>102</ele>
        <time>2015-01-22T09:33:05.555Z</time>
      </trkpt>
      <trkpt lat="47.8116" lon="-3.3423">
        <ele>102</ele>
        <time>2015-01-22T09:33:06.558Z</time>
      </trkpt>
      <trkpt lat="47.81159" lon="-3.3422">
        <ele>100</ele>
        <time>2015-01-22T09:33:15.556Z</time>
      </trkpt>
      <trkpt lat="47.81159" lon="-3.34216">
        <ele>100</ele>
        <time>2015-01-22T09:33:16.557Z</time>
      </trkpt>
      <trkpt lat="47.81159" lon="-3.34204">
        <ele>103</ele>
        <time>2015-01-22T09:33:19.554Z</time>
      </trkpt>
      <trkpt lat="47.81158" lon="-3.342">
        <ele>102</ele>
        <time>2015-01-22T09:33:20.555Z</time>
      </trkpt>
      <trkpt lat="47.81155" lon="-3.34188">
        <ele>103</ele>
        <time>2015-01-22T09:33:24.671Z</time>
      </trkpt>
      <trkpt lat="47.81156" lon="-3.34187">
        <ele>103</ele>
        <time>2015-01-22T09:33:25.586Z</time>
      </trkpt>
      <trkpt lat="47.81161" lon="-3.34191">
        <ele>104</ele>
        <time>2015-01-22T09:33:29.561Z</time>
      </trkpt>
      <trkpt lat="47.81162" lon="-3.34196">
        <ele>103</ele>
        <time>2015-01-22T09:33:30.555Z</time>
      </trkpt>
      <trkpt lat="47.81163" lon="-3.34206">
        <ele>103</ele>
        <time>2015-01-22T09:33:32.559Z</time>
      </trkpt>
      <trkpt lat="47.81164" lon="-3.34211">
        <ele>104</ele>
        <time>2015-01-22T09:33:33.558Z</time>
      </trkpt>
      <trkpt lat="47.81165" lon="-3.34221">
        <ele>104</ele>
        <time>2015-01-22T09:33:35.556Z</time>
      </trkpt>
      <trkpt lat="47.81166" lon="-3.34226">
        <ele>104</ele>
        <time>2015-01-22T09:33:36.556Z</time>
      </trkpt>
      <trkpt lat="47.81168" lon="-3.34238">
        <ele>104</ele>
        <time>2015-01-22T09:33:38.555Z</time>
      </trkpt>
      <trkpt lat="47.81169" lon="-3.34245">
        <ele>104</ele>
        <time>2015-01-22T09:33:39.556Z</time>
      </trkpt>
      <trkpt lat="47.81168" lon="-3.34258">
        <ele>103</ele>
        <time>2015-01-22T09:33:41.555Z</time>
      </trkpt>
      <trkpt lat="47.81166" lon="-3.34264">
        <ele>102</ele>
        <time>2015-01-22T09:33:42.556Z</time>
      </trkpt>
      <trkpt lat="47.8116" lon="-3.34272">
        <ele>101</ele>
        <time>2015-01-22T09:33:44.555Z</time>
      </trkpt>
      <trkpt lat="47.81159" lon="-3.34275">
        <ele>100</ele>
        <time>2015-01-22T09:33:45.554Z</time>
      </trkpt>
      <trkpt lat="47.81161" lon="-3.34288">
        <ele>99</ele>
        <time>2015-01-22T09:33:49.573Z</time>
      </trkpt>
      <trkpt lat="47.81162" lon="-3.34292">
        <ele>98</ele>
        <time>2015-01-22T09:33:50.560Z</time>
      </trkpt>
      <trkpt lat="47.81163" lon="-3.34304">
        <ele>98</ele>
        <time>2015-01-22T09:33:53.646Z</time>
      </trkpt>
      <trkpt lat="47.81164" lon="-3.34307">
        <ele>98</ele>
        <time>2015-01-22T09:33:54.637Z</time>
      </trkpt>
      <trkpt lat="47.81167" lon="-3.34315">
        <ele>97</ele>
        <time>2015-01-22T09:34:02.611Z</time>
      </trkpt>
      <trkpt lat="47.81168" lon="-3.34319">
        <ele>96</ele>
        <time>2015-01-22T09:34:03.625Z</time>
      </trkpt>
      <trkpt lat="47.81171" lon="-3.34328">
        <ele>95</ele>
        <time>2015-01-22T09:34:05.638Z</time>
      </trkpt>
      <trkpt lat="47.81172" lon="-3.34333">
        <ele>95</ele>
        <time>2015-01-22T09:34:06.566Z</time>
      </trkpt>
      <trkpt lat="47.81173" lon="-3.34343">
        <ele>97</ele>
        <time>2015-01-22T09:34:08.542Z</time>
      </trkpt>
      <trkpt lat="47.81174" lon="-3.34348">
        <ele>96</ele>
        <time>2015-01-22T09:34:09.634Z</time>
      </trkpt>
      <trkpt lat="47.81173" lon="-3.34359">
        <ele>99</ele>
        <time>2015-01-22T09:34:25.568Z</time>
      </trkpt>
      <trkpt lat="47.81173" lon="-3.34362">
        <ele>100</ele>
        <time>2015-01-22T09:34:26.556Z</time>
      </trkpt>
      <trkpt lat="47.81172" lon="-3.34374">
        <ele>101</ele>
        <time>2015-01-22T09:34:29.559Z</time>
      </trkpt>
      <trkpt lat="47.81171" lon="-3.34378">
        <ele>101</ele>
        <time>2015-01-22T09:34:30.553Z</time>
      </trkpt>
      <trkpt lat="47.81169" lon="-3.34387">
        <ele>102</ele>
        <time>2015-01-22T09:34:37.565Z</time>
      </trkpt>
      <trkpt lat="47.81168" lon="-3.34392">
        <ele>101</ele>
        <time>2015-01-22T09:34:38.556Z</time>
      </trkpt>
      <trkpt lat="47.81167" lon="-3.34402">
        <ele>101</ele>
        <time>2015-01-22T09:34:40.561Z</time>
      </trkpt>
      <trkpt lat="47.81167" lon="-3.34406">
        <ele>100</ele>
        <time>2015-01-22T09:34:41.567Z</time>
      </trkpt>
      <trkpt lat="47.81165" lon="-3.34418">
        <ele>100</ele>
        <time>2015-01-22T09:34:47.619Z</time>
      </trkpt>
      <trkpt lat="47.81164" lon="-3.3442">
        <ele>100</ele>
        <time>2015-01-22T09:34:48.559Z</time>
      </trkpt>
      <trkpt lat="47.81163" lon="-3.34431">
        <ele>101</ele>
        <time>2015-01-22T09:34:50.553Z</time>
      </trkpt>
      <trkpt lat="47.81162" lon="-3.34438">
        <ele>101</ele>
        <time>2015-01-22T09:34:51.559Z</time>
      </trkpt>
      <trkpt lat="47.81162" lon="-3.34451">
        <ele>100</ele>
        <time>2015-01-22T09:34:53.554Z</time>
      </trkpt>
      <trkpt lat="47.81161" lon="-3.34458">
        <ele>100</ele>
        <time>2015-01-22T09:34:54.556Z</time>
      </trkpt>
      <trkpt lat="47.81161" lon="-3.34465">
        <ele>100</ele>
        <time>2015-01-22T09:34:55.548Z</time>
      </trkpt>
      <trkpt lat="47.81159" lon="-3.34474">
        <ele>101</ele>
        <time>2015-01-22T09:34:56.564Z</time>
      </trkpt>
      <trkpt lat="47.81158" lon="-3.34481">
        <ele>101</ele>
        <time>2015-01-22T09:34:57.548Z</time>
      </trkpt>
      <trkpt lat="47.81157" lon="-3.34488">
        <ele>101</ele>
        <time>2015-01-22T09:34:58.553Z</time>
      </trkpt>
      <trkpt lat="47.81156" lon="-3.34498">
        <ele>104</ele>
        <time>2015-01-22T09:35:00.548Z</time>
      </trkpt>
      <trkpt lat="47.81154" lon="-3.34505">
        <ele>102</ele>
        <time>2015-01-22T09:35:01.554Z</time>
      </trkpt>
      <trkpt lat="47.8116" lon="-3.34514">
        <ele>98</ele>
        <time>2015-01-22T09:35:03.580Z</time>
      </trkpt>
      <trkpt lat="47.81161" lon="-3.34514">
        <ele>99</ele>
        <time>2015-01-22T09:35:04.574Z</time>
      </trkpt>
      <trkpt lat="47.81168" lon="-3.34514">
        <ele>100</ele>
        <time>2015-01-22T09:35:07.556Z</time>
      </trkpt>
      <trkpt lat="47.8117" lon="-3.34514">
        <ele>98</ele>
        <time>2015-01-22T09:35:08.547Z</time>
      </trkpt>
      <trkpt lat="47.81177" lon="-3.34508">
        <ele>98</ele>
        <time>2015-01-22T09:35:11.571Z</time>
      </trkpt>
      <trkpt lat="47.81178" lon="-3.34505">
        <ele>98</ele>
        <time>2015-01-22T09:35:12.554Z</time>
      </trkpt>
      <trkpt lat="47.8118" lon="-3.34492">
        <ele>95</ele>
        <time>2015-01-22T09:35:15.553Z</time>
      </trkpt>
      <trkpt lat="47.8118" lon="-3.34487">
        <ele>94</ele>
        <time>2015-01-22T09:35:16.552Z</time>
      </trkpt>
      <trkpt lat="47.8118" lon="-3.34477">
        <ele>97</ele>
        <time>2015-01-22T09:35:18.559Z</time>
      </trkpt>
      <trkpt lat="47.8118" lon="-3.34472">
        <ele>97</ele>
        <time>2015-01-22T09:35:19.555Z</time>
      </trkpt>
      <trkpt lat="47.81181" lon="-3.34462">
        <ele>99</ele>
        <time>2015-01-22T09:35:21.550Z</time>
      </trkpt>
      <trkpt lat="47.81182" lon="-3.34457">
        <ele>98</ele>
        <time>2015-01-22T09:35:22.553Z</time>
      </trkpt>
      <trkpt lat="47.81185" lon="-3.34448">
        <ele>97</ele>
        <time>2015-01-22T09:35:24.557Z</time>
      </trkpt>
      <trkpt lat="47.81186" lon="-3.34444">
        <ele>98</ele>
        <time>2015-01-22T09:35:25.553Z</time>
      </trkpt>
      <trkpt lat="47.81186" lon="-3.34457">
        <ele>97</ele>
        <time>2015-01-22T09:36:02.557Z</time>
      </trkpt>
      <trkpt lat="47.81185" lon="-3.3446">
        <ele>95</ele>
        <time>2015-01-22T09:36:03.555Z</time>
      </trkpt>
      <trkpt lat="47.81184" lon="-3.34471">
        <ele>98</ele>
        <time>2015-01-22T09:36:06.555Z</time>
      </trkpt>
      <trkpt lat="47.81184" lon="-3.34473">
        <ele>99</ele>
        <time>2015-01-22T09:36:07.553Z</time>
      </trkpt>
      <trkpt lat="47.81183" lon="-3.34483">
        <ele>101</ele>
        <time>2015-01-22T09:36:30.565Z</time>
      </trkpt>
      <trkpt lat="47.81183" lon="-3.34487">
        <ele>101</ele>
        <time>2015-01-22T09:36:31.549Z</time>
      </trkpt>
      <trkpt lat="47.81186" lon="-3.34497">
        <ele>101</ele>
        <time>2015-01-22T09:36:33.555Z</time>
      </trkpt>
      <trkpt lat="47.81188" lon="-3.345">
        <ele>103</ele>
        <time>2015-01-22T09:36:34.554Z</time>
      </trkpt>
      <trkpt lat="47.81195" lon="-3.34502">
        <ele>103</ele>
        <time>2015-01-22T09:36:36.545Z</time>
      </trkpt>
      <trkpt lat="47.81198" lon="-3.34501">
        <ele>101</ele>
        <time>2015-01-22T09:36:37.559Z</time>
      </trkpt>
      <trkpt lat="47.81206" lon="-3.34498">
        <ele>100</ele>
        <time>2015-01-22T09:36:40.587Z</time>
      </trkpt>
      <trkpt lat="47.81208" lon="-3.34496">
        <ele>97</ele>
        <time>2015-01-22T09:36:41.548Z</time>
      </trkpt>
      <trkpt lat="47.81209" lon="-3.34484">
        <ele>100</ele>
        <time>2015-01-22T09:37:07.553Z</time>
      </trkpt>
      <trkpt lat="47.81208" lon="-3.34482">
        <ele>99</ele>
        <time>2015-01-22T09:37:08.555Z</time>
      </trkpt>
      <trkpt lat="47.81213" lon="-3.34471">
        <ele>105</ele>
        <time>2015-01-22T09:37:24.553Z</time>
      </trkpt>
      <trkpt lat="47.81213" lon="-3.34468">
        <ele>104</ele>
        <time>2015-01-22T09:37:25.564Z</time>
      </trkpt>
      <trkpt lat="47.81209" lon="-3.34457">
        <ele>104</ele>
        <time>2015-01-22T09:37:37.625Z</time>
      </trkpt>
      <trkpt lat="47.81208" lon="-3.34456">
        <ele>104</ele>
        <time>2015-01-22T09:37:38.580Z</time>
      </trkpt>
      <trkpt lat="47.81216" lon="-3.34453">
        <ele>106</ele>
        <time>2015-01-22T09:37:54.678Z</time>
      </trkpt>
      <trkpt lat="47.81219" lon="-3.34451">
        <ele>108</ele>
        <time>2015-01-22T09:37:55.563Z</time>
      </trkpt>
      <trkpt lat="47.81224" lon="-3.34447">
        <ele>99</ele>
        <time>2015-01-22T09:37:57.548Z</time>
      </trkpt>
      <trkpt lat="47.81227" lon="-3.34445">
        <ele>97</ele>
        <time>2015-01-22T09:37:58.627Z</time>
      </trkpt>
      <trkpt lat="47.8123" lon="-3.34435">
        <ele>97</ele>
        <time>2015-01-22T09:38:01.696Z</time>
      </trkpt>
      <trkpt lat="47.81229" lon="-3.34432">
        <ele>96</ele>
        <time>2015-01-22T09:38:02.547Z</time>
      </trkpt>
      <trkpt lat="47.81221" lon="-3.3443">
        <ele>98</ele>
        <time>2015-01-22T09:38:21.551Z</time>
      </trkpt>
      <trkpt lat="47.8122" lon="-3.34429">
        <ele>98</ele>
        <time>2015-01-22T09:38:22.555Z</time>
      </trkpt>
      <trkpt lat="47.81226" lon="-3.34435">
        <ele>102</ele>
        <time>2015-01-22T09:39:06.552Z</time>
      </trkpt>
      <trkpt lat="47.81229" lon="-3.34436">
        <ele>98</ele>
        <time>2015-01-22T09:39:07.551Z</time>
      </trkpt>
      <trkpt lat="47.81235" lon="-3.34429">
        <ele>100</ele>
        <time>2015-01-22T09:39:28.551Z</time>
      </trkpt>
      <trkpt lat="47.81236" lon="-3.34428">
        <ele>99</ele>
        <time>2015-01-22T09:39:29.654Z</time>
      </trkpt>
      <trkpt lat="47.81244" lon="-3.34432">
        <ele>100</ele>
        <time>2015-01-22T09:39:34.676Z</time>
      </trkpt>
      <trkpt lat="47.81246" lon="-3.34435">
        <ele>99</ele>
        <time>2015-01-22T09:39:35.552Z</time>
      </trkpt>
      <trkpt lat="47.81254" lon="-3.34435">
        <ele>92</ele>
        <time>2015-01-22T09:39:38.550Z</time>
      </trkpt>
      <trkpt lat="47.81257" lon="-3.34432">
        <ele>90</ele>
        <time>2015-01-22T09:39:39.551Z</time>
      </trkpt>
      <trkpt lat="47.81264" lon="-3.34426">
        <ele>93</ele>
        <time>2015-01-22T09:39:41.549Z</time>
      </trkpt>
      <trkpt lat="47.81267" lon="-3.34423">
        <ele>93</ele>
        <time>2015-01-22T09:39:42.553Z</time>
      </trkpt>
      <trkpt lat="47.81274" lon="-3.34418">
        <ele>96</ele>
        <time>2015-01-22T09:39:44.553Z</time>
      </trkpt>
      <trkpt lat="47.81278" lon="-3.34415">
        <ele>97</ele>
        <time>2015-01-22T09:39:45.552Z</time>
      </trkpt>
      <trkpt lat="47.81285" lon="-3.3441">
        <ele>97</ele>
        <time>2015-01-22T09:39:47.551Z</time>
      </trkpt>
      <trkpt lat="47.81289" lon="-3.34407">
        <ele>95</ele>
        <time>2015-01-22T09:39:48.550Z</time>
      </trkpt>
      <trkpt lat="47.81297" lon="-3.34404">
        <ele>96</ele>
        <time>2015-01-22T09:39:50.573Z</time>
      </trkpt>
      <trkpt lat="47.81301" lon="-3.34403">
        <ele>96</ele>
        <time>2015-01-22T09:39:51.553Z</time>
      </trkpt>
      <trkpt lat="47.8131" lon="-3.34404">
        <ele>92</ele>
        <time>2015-01-22T09:39:53.541Z</time>
      </trkpt>
      <trkpt lat="47.81318" lon="-3.34412">
        <ele>92</ele>
        <time>2015-01-22T09:39:54.549Z</time>
      </trkpt>
      <trkpt lat="47.81324" lon="-3.34417">
        <ele>91</ele>
        <time>2015-01-22T09:39:55.551Z</time>
      </trkpt>
      <trkpt lat="47.81328" lon="-3.34415">
        <ele>94</ele>
        <time>2015-01-22T09:39:56.548Z</time>
      </trkpt>
      <trkpt lat="47.81333" lon="-3.34418">
        <ele>94</ele>
        <time>2015-01-22T09:39:57.551Z</time>
      </trkpt>
      <trkpt lat="47.81338" lon="-3.3442">
        <ele>94</ele>
        <time>2015-01-22T09:39:58.553Z</time>
      </trkpt>
      <trkpt lat="47.81344" lon="-3.34429">
        <ele>98</ele>
        <time>2015-01-22T09:40:01.548Z</time>
      </trkpt>
      <trkpt lat="47.81344" lon="-3.34434">
        <ele>99</ele>
        <time>2015-01-22T09:40:02.550Z</time>
      </trkpt>
      <trkpt lat="47.81351" lon="-3.34443">
        <ele>104</ele>
        <time>2015-01-22T09:41:42.551Z</time>
      </trkpt>
      <trkpt lat="47.81352" lon="-3.34445">
        <ele>105</ele>
        <time>2015-01-22T09:41:43.548Z</time>
      </trkpt>
      <trkpt lat="47.81343" lon="-3.34443">
        <ele>100</ele>
        <time>2015-01-22T09:43:23.546Z</time>
      </trkpt>
      <trkpt lat="47.81343" lon="-3.34443">
        <ele>100</ele>
        <time>2015-01-22T09:43:24.548Z</time>
      </trkpt>
      <trkpt lat="47.8134" lon="-3.34453">
        <ele>102</ele>
        <time>2015-01-22T09:43:29.599Z</time>
      </trkpt>
      <trkpt lat="47.81339" lon="-3.34459">
        <ele>102</ele>
        <time>2015-01-22T09:43:30.550Z</time>
      </trkpt>
      <trkpt lat="47.81336" lon="-3.34469">
        <ele>104</ele>
        <time>2015-01-22T09:43:32.547Z</time>
      </trkpt>
      <trkpt lat="47.81336" lon="-3.34475">
        <ele>103</ele>
        <time>2015-01-22T09:43:33.548Z</time>
      </trkpt>
      <trkpt lat="47.81336" lon="-3.34486">
        <ele>105</ele>
        <time>2015-01-22T09:43:35.594Z</time>
      </trkpt>
      <trkpt lat="47.81338" lon="-3.34491">
        <ele>105</ele>
        <time>2015-01-22T09:43:36.550Z</time>
      </trkpt>
      <trkpt lat="47.81344" lon="-3.34498">
        <ele>103</ele>
        <time>2015-01-22T09:43:38.548Z</time>
      </trkpt>
      <trkpt lat="47.81348" lon="-3.34501">
        <ele>101</ele>
        <time>2015-01-22T09:43:39.623Z</time>
      </trkpt>
      <trkpt lat="47.81352" lon="-3.34502">
        <ele>102</ele>
        <time>2015-01-22T09:43:40.536Z</time>
      </trkpt>
      <trkpt lat="47.81357" lon="-3.34504">
        <ele>105</ele>
        <time>2015-01-22T09:43:41.548Z</time>
      </trkpt>
      <trkpt lat="47.81366" lon="-3.34506">
        <ele>104</ele>
        <time>2015-01-22T09:43:43.549Z</time>
      </trkpt>
      <trkpt lat="47.81369" lon="-3.34507">
        <ele>103</ele>
        <time>2015-01-22T09:43:44.547Z</time>
      </trkpt>
      <trkpt lat="47.81362" lon="-3.3451">
        <ele>101</ele>
        <time>2015-01-22T09:43:54.547Z</time>
      </trkpt>
      <trkpt lat="47.81358" lon="-3.3451">
        <ele>100</ele>
        <time>2015-01-22T09:43:55.547Z</time>
      </trkpt>
      <trkpt lat="47.81351" lon="-3.34509">
        <ele>102</ele>
        <time>2015-01-22T09:43:57.591Z</time>
      </trkpt>
      <trkpt lat="47.81347" lon="-3.34507">
        <ele>104</ele>
        <time>2015-01-22T09:43:58.550Z</time>
      </trkpt>
      <trkpt lat="47.81342" lon="-3.34505">
        <ele>103</ele>
        <time>2015-01-22T09:43:59.548Z</time>
      </trkpt>
      <trkpt lat="47.81338" lon="-3.34502">
        <ele>102</ele>
        <time>2015-01-22T09:44:00.562Z</time>
      </trkpt>
      <trkpt lat="47.81332" lon="-3.34495">
        <ele>101</ele>
        <time>2015-01-22T09:44:02.551Z</time>
      </trkpt>
      <trkpt lat="47.81329" lon="-3.34492">
        <ele>101</ele>
        <time>2015-01-22T09:44:03.548Z</time>
      </trkpt>
      <trkpt lat="47.8132" lon="-3.34488">
        <ele>101</ele>
        <time>2015-01-22T09:44:10.533Z</time>
      </trkpt>
      <trkpt lat="47.8132" lon="-3.34488">
        <ele>101</ele>
        <time>2015-01-22T09:44:11.583Z</time>
      </trkpt>
      <trkpt lat="47.81328" lon="-3.34483">
        <ele>102</ele>
        <time>2015-01-22T09:47:17.544Z</time>
      </trkpt>
      <trkpt lat="47.8133" lon="-3.34481">
        <ele>100</ele>
        <time>2015-01-22T09:47:18.625Z</time>
      </trkpt>
      <trkpt lat="47.81334" lon="-3.3447">
        <ele>100</ele>
        <time>2015-01-22T09:47:21.604Z</time>
      </trkpt>
      <trkpt lat="47.81334" lon="-3.34466">
        <ele>100</ele>
        <time>2015-01-22T09:47:22.596Z</time>
      </trkpt>
      <trkpt lat="47.81336" lon="-3.34455">
        <ele>101</ele>
        <time>2015-01-22T09:48:45.546Z</time>
      </trkpt>
      <trkpt lat="47.81337" lon="-3.34449">
        <ele>101</ele>
        <time>2015-01-22T09:48:46.543Z</time>
      </trkpt>
      <trkpt lat="47.8134" lon="-3.34439">
        <ele>102</ele>
        <time>2015-01-22T09:48:48.612Z</time>
      </trkpt>
      <trkpt lat="47.8134" lon="-3.34433">
        <ele>102</ele>
        <time>2015-01-22T09:48:49.581Z</time>
      </trkpt>
      <trkpt lat="47.81337" lon="-3.34423">
        <ele>99</ele>
        <time>2015-01-22T09:48:51.601Z</time>
      </trkpt>
      <trkpt lat="47.81334" lon="-3.3442">
        <ele>99</ele>
        <time>2015-01-22T09:48:52.599Z</time>
      </trkpt>
      <trkpt lat="47.81326" lon="-3.34417">
        <ele>101</ele>
        <time>2015-01-22T09:48:54.625Z</time>
      </trkpt>
      <trkpt lat="47.81322" lon="-3.34416">
        <ele>99</ele>
        <time>2015-01-22T09:48:55.542Z</time>
      </trkpt>
      <trkpt lat="47.81316" lon="-3.34414">
        <ele>99</ele>
        <time>2015-01-22T09:48:57.590Z</time>
      </trkpt>
      <trkpt lat="47.81313" lon="-3.34413">
        <ele>101</ele>
        <time>2015-01-22T09:48:58.543Z</time>
      </trkpt>
      <trkpt lat="47.81316" lon="-3.34425">
        <ele>95</ele>
        <time>2015-01-22T09:50:10.541Z</time>
      </trkpt>
      <trkpt lat="47.81317" lon="-3.34427">
        <ele>95</ele>
        <time>2015-01-22T09:50:11.541Z</time>
      </trkpt>
      <trkpt lat="47.81312" lon="-3.34419">
        <ele>96</ele>
        <time>2015-01-22T09:50:15.544Z</time>
      </trkpt>
      <trkpt lat="47.81308" lon="-3.34416">
        <ele>96</ele>
        <time>2015-01-22T09:50:16.539Z</time>
      </trkpt>
      <trkpt lat="47.81301" lon="-3.34413">
        <ele>98</ele>
        <time>2015-01-22T09:50:18.570Z</time>
      </trkpt>
      <trkpt lat="47.81297" lon="-3.34412">
        <ele>98</ele>
        <time>2015-01-22T09:50:19.656Z</time>
      </trkpt>
      <trkpt lat="47.8129" lon="-3.34413">
        <ele>100</ele>
        <time>2015-01-22T09:50:21.594Z</time>
      </trkpt>
      <trkpt lat="47.81287" lon="-3.34415">
        <ele>98</ele>
        <time>2015-01-22T09:50:22.580Z</time>
      </trkpt>
      <trkpt lat="47.8128" lon="-3.34419">
        <ele>98</ele>
        <time>2015-01-22T09:50:24.597Z</time>
      </trkpt>
      <trkpt lat="47.81277" lon="-3.34422">
        <ele>98</ele>
        <time>2015-01-22T09:50:25.546Z</time>
      </trkpt>
      <trkpt lat="47.81272" lon="-3.34428">
        <ele>99</ele>
        <time>2015-01-22T09:50:27.560Z</time>
      </trkpt>
      <trkpt lat="47.81271" lon="-3.34432">
        <ele>99</ele>
        <time>2015-01-22T09:50:28.586Z</time>
      </trkpt>
      <trkpt lat="47.81265" lon="-3.34437">
        <ele>99</ele>
        <time>2015-01-22T09:50:57.532Z</time>
      </trkpt>
      <trkpt lat="47.81262" lon="-3.34439">
        <ele>100</ele>
        <time>2015-01-22T09:50:58.535Z</time>
      </trkpt>
      <trkpt lat="47.81255" lon="-3.34445">
        <ele>99</ele>
        <time>2015-01-22T09:51:00.619Z</time>
      </trkpt>
      <trkpt lat="47.81252" lon="-3.34448">
        <ele>99</ele>
        <time>2015-01-22T09:51:01.540Z</time>
      </trkpt>
      <trkpt lat="47.81249" lon="-3.34459">
        <ele>99</ele>
        <time>2015-01-22T09:51:03.547Z</time>
      </trkpt>
      <trkpt lat="47.81249" lon="-3.34464">
        <ele>98</ele>
        <time>2015-01-22T09:51:04.558Z</time>
      </trkpt>
      <trkpt lat="47.81248" lon="-3.34472">
        <ele>99</ele>
        <time>2015-01-22T09:51:05.701Z</time>
      </trkpt>
      <trkpt lat="47.8125" lon="-3.34479">
        <ele>98</ele>
        <time>2015-01-22T09:51:06.531Z</time>
      </trkpt>
      <trkpt lat="47.81248" lon="-3.34487">
        <ele>99</ele>
        <time>2015-01-22T09:51:07.534Z</time>
      </trkpt>
      <trkpt lat="47.81249" lon="-3.34492">
        <ele>100</ele>
        <time>2015-01-22T09:51:08.615Z</time>
      </trkpt>
      <trkpt lat="47.81257" lon="-3.34482">
        <ele>101</ele>
        <time>2015-01-22T09:51:09.540Z</time>
      </trkpt>
      <trkpt lat="47.81261" lon="-3.34491">
        <ele>104</ele>
        <time>2015-01-22T09:51:11.535Z</time>
      </trkpt>
      <trkpt lat="47.81262" lon="-3.34494">
        <ele>104</ele>
        <time>2015-01-22T09:51:12.570Z</time>
      </trkpt>
      <trkpt lat="47.81265" lon="-3.34501">
        <ele>102</ele>
        <time>2015-01-22T09:52:20.594Z</time>
      </trkpt>
      <trkpt lat="47.81268" lon="-3.34507">
        <ele>98</ele>
        <time>2015-01-22T09:52:21.538Z</time>
      </trkpt>
      <trkpt lat="47.81272" lon="-3.34517">
        <ele>99</ele>
        <time>2015-01-22T09:52:23.567Z</time>
      </trkpt>
      <trkpt lat="47.81275" lon="-3.34521">
        <ele>99</ele>
        <time>2015-01-22T09:52:24.586Z</time>
      </trkpt>
      <trkpt lat="47.81283" lon="-3.34527">
        <ele>99</ele>
        <time>2015-01-22T09:52:26.593Z</time>
      </trkpt>
      <trkpt lat="47.81286" lon="-3.34527">
        <ele>99</ele>
        <time>2015-01-22T09:52:27.587Z</time>
      </trkpt>
      <trkpt lat="47.81293" lon="-3.34526">
        <ele>97</ele>
        <time>2015-01-22T09:52:29.543Z</time>
      </trkpt>
      <trkpt lat="47.81296" lon="-3.34525">
        <ele>98</ele>
        <time>2015-01-22T09:52:30.543Z</time>
      </trkpt>
      <trkpt lat="47.81302" lon="-3.34526">
        <ele>96</ele>
        <time>2015-01-22T09:52:32.579Z</time>
      </trkpt>
      <trkpt lat="47.81306" lon="-3.34528">
        <ele>95</ele>
        <time>2015-01-22T09:52:33.603Z</time>
      </trkpt>
      <trkpt lat="47.81313" lon="-3.34528">
        <ele>95</ele>
        <time>2015-01-22T09:52:35.551Z</time>
      </trkpt>
      <trkpt lat="47.81316" lon="-3.34528">
        <ele>94</ele>
        <time>2015-01-22T09:52:36.601Z</time>
      </trkpt>
      <trkpt lat="47.81323" lon="-3.3453">
        <ele>93</ele>
        <time>2015-01-22T09:52:43.560Z</time>
      </trkpt>
      <trkpt lat="47.81326" lon="-3.34531">
        <ele>94</ele>
        <time>2015-01-22T09:52:44.595Z</time>
      </trkpt>
      <trkpt lat="47.81334" lon="-3.34535">
        <ele>92</ele>
        <time>2015-01-22T09:52:48.638Z</time>
      </trkpt>
      <trkpt lat="47.81335" lon="-3.34536">
        <ele>92</ele>
        <time>2015-01-22T09:52:49.562Z</time>
      </trkpt>
      <trkpt lat="47.8134" lon="-3.34546">
        <ele>96</ele>
        <time>2015-01-22T09:52:58.546Z</time>
      </trkpt>
      <trkpt lat="47.81342" lon="-3.34547">
        <ele>96</ele>
        <time>2015-01-22T09:52:59.537Z</time>
      </trkpt>
      <trkpt lat="47.81348" lon="-3.3455">
        <ele>98</ele>
        <time>2015-01-22T09:53:01.539Z</time>
      </trkpt>
      <trkpt lat="47.81351" lon="-3.34551">
        <ele>98</ele>
        <time>2015-01-22T09:53:02.562Z</time>
      </trkpt>
      <trkpt lat="47.81359" lon="-3.34554">
        <ele>97</ele>
        <time>2015-01-22T09:53:05.560Z</time>
      </trkpt>
      <trkpt lat="47.8136" lon="-3.34554">
        <ele>96</ele>
        <time>2015-01-22T09:53:06.570Z</time>
      </trkpt>
      <trkpt lat="47.81363" lon="-3.34563">
        <ele>99</ele>
        <time>2015-01-22T09:53:49.539Z</time>
      </trkpt>
      <trkpt lat="47.81361" lon="-3.34567">
        <ele>98</ele>
        <time>2015-01-22T09:53:50.535Z</time>
      </trkpt>
      <trkpt lat="47.81356" lon="-3.34575">
        <ele>99</ele>
        <time>2015-01-22T09:53:52.597Z</time>
      </trkpt>
      <trkpt lat="47.81355" lon="-3.3458">
        <ele>99</ele>
        <time>2015-01-22T09:53:53.611Z</time>
      </trkpt>
      <trkpt lat="47.81353" lon="-3.34589">
        <ele>99</ele>
        <time>2015-01-22T09:53:55.556Z</time>
      </trkpt>
      <trkpt lat="47.81354" lon="-3.34594">
        <ele>100</ele>
        <time>2015-01-22T09:53:56.571Z</time>
      </trkpt>
      <trkpt lat="47.81347" lon="-3.34589">
        <ele>98</ele>
        <time>2015-01-22T09:54:23.530Z</time>
      </trkpt>
      <trkpt lat="47.81345" lon="-3.34587">
        <ele>98</ele>
        <time>2015-01-22T09:54:24.533Z</time>
      </trkpt>
      <trkpt lat="47.81339" lon="-3.34577">
        <ele>98</ele>
        <time>2015-01-22T09:54:33.533Z</time>
      </trkpt>
      <trkpt lat="47.81338" lon="-3.34574">
        <ele>99</ele>
        <time>2015-01-22T09:54:34.592Z</time>
      </trkpt>
      <trkpt lat="47.81333" lon="-3.34568">
        <ele>100</ele>
        <time>2015-01-22T09:54:36.549Z</time>
      </trkpt>
      <trkpt lat="47.8133" lon="-3.34566">
        <ele>101</ele>
        <time>2015-01-22T09:54:37.585Z</time>
      </trkpt>
      <trkpt lat="47.81325" lon="-3.34557">
        <ele>100</ele>
        <time>2015-01-22T09:54:45.536Z</time>
      </trkpt>
      <trkpt lat="47.81324" lon="-3.34555">
        <ele>100</ele>
        <time>2015-01-22T09:54:46.617Z</time>
      </trkpt>
      <trkpt lat="47.81317" lon="-3.34548">
        <ele>98</ele>
        <time>2015-01-22T09:54:50.605Z</time>
      </trkpt>
      <trkpt lat="47.81316" lon="-3.34548">
        <ele>98</ele>
        <time>2015-01-22T09:54:51.625Z</time>
      </trkpt>
      <trkpt lat="47.81311" lon="-3.3454">
        <ele>97</ele>
        <time>2015-01-22T09:54:58.536Z</time>
      </trkpt>
      <trkpt lat="47.81307" lon="-3.34538">
        <ele>97</ele>
        <time>2015-01-22T09:54:59.570Z</time>
      </trkpt>
      <trkpt lat="47.813" lon="-3.34538">
        <ele>97</ele>
        <time>2015-01-22T09:55:01.526Z</time>
      </trkpt>
      <trkpt lat="47.81296" lon="-3.34538">
        <ele>96</ele>
        <time>2015-01-22T09:55:02.593Z</time>
      </trkpt>
      <trkpt lat="47.81288" lon="-3.34542">
        <ele>93</ele>
        <time>2015-01-22T09:55:04.606Z</time>
      </trkpt>
      <trkpt lat="47.81284" lon="-3.34545">
        <ele>93</ele>
        <time>2015-01-22T09:55:05.625Z</time>
      </trkpt>
      <trkpt lat="47.81278" lon="-3.34554">
        <ele>95</ele>
        <time>2015-01-22T09:55:07.604Z</time>
      </trkpt>
      <trkpt lat="47.81275" lon="-3.34558">
        <ele>94</ele>
        <time>2015-01-22T09:55:08.541Z</time>
      </trkpt>
      <trkpt lat="47.81268" lon="-3.34565">
        <ele>94</ele>
        <time>2015-01-22T09:55:10.540Z</time>
      </trkpt>
      <trkpt lat="47.81265" lon="-3.34568">
        <ele>94</ele>
        <time>2015-01-22T09:55:11.533Z</time>
      </trkpt>
      <trkpt lat="47.81259" lon="-3.34566">
        <ele>94</ele>
        <time>2015-01-22T09:55:19.540Z</time>
      </trkpt>
      <trkpt lat="47.81255" lon="-3.34566">
        <ele>94</ele>
        <time>2015-01-22T09:55:20.535Z</time>
      </trkpt>
      <trkpt lat="47.81247" lon="-3.34567">
        <ele>95</ele>
        <time>2015-01-22T09:55:22.549Z</time>
      </trkpt>
      <trkpt lat="47.81243" lon="-3.34568">
        <ele>95</ele>
        <time>2015-01-22T09:55:23.537Z</time>
      </trkpt>
      <trkpt lat="47.81235" lon="-3.3457">
        <ele>95</ele>
        <time>2015-01-22T09:55:25.537Z</time>
      </trkpt>
      <trkpt lat="47.81232" lon="-3.34572">
        <ele>94</ele>
        <time>2015-01-22T09:55:26.537Z</time>
      </trkpt>
      <trkpt lat="47.81231" lon="-3.34585">
        <ele>89</ele>
        <time>2015-01-22T09:55:41.543Z</time>
      </trkpt>
      <trkpt lat="47.81231" lon="-3.34588">
        <ele>87</ele>
        <time>2015-01-22T09:55:42.540Z</time>
      </trkpt>
      <trkpt lat="47.81234" lon="-3.34598">
        <ele>92</ele>
        <time>2015-01-22T09:55:56.534Z</time>
      </trkpt>
      <trkpt lat="47.81235" lon="-3.346">
        <ele>94</ele>
        <time>2015-01-22T09:55:57.536Z</time>
      </trkpt>
      <trkpt lat="47.81232" lon="-3.34591">
        <ele>96</ele>
        <time>2015-01-22T09:56:07.528Z</time>
      </trkpt>
      <trkpt lat="47.81231" lon="-3.34587">
        <ele>95</ele>
        <time>2015-01-22T09:56:08.529Z</time>
      </trkpt>
      <trkpt lat="47.8123" lon="-3.34575">
        <ele>97</ele>
        <time>2015-01-22T09:56:11.526Z</time>
      </trkpt>
      <trkpt lat="47.8123" lon="-3.3457">
        <ele>97</ele>
        <time>2015-01-22T09:56:12.543Z</time>
      </trkpt>
      <trkpt lat="47.81234" lon="-3.34558">
        <ele>98</ele>
        <time>2015-01-22T09:56:15.541Z</time>
      </trkpt>
      <trkpt lat="47.81236" lon="-3.34557">
        <ele>99</ele>
        <time>2015-01-22T09:56:16.534Z</time>
      </trkpt>
      <trkpt lat="47.81242" lon="-3.34557">
        <ele>102</ele>
        <time>2015-01-22T09:56:18.536Z</time>
      </trkpt>
      <trkpt lat="47.81245" lon="-3.34558">
        <ele>102</ele>
        <time>2015-01-22T09:56:19.539Z</time>
      </trkpt>
      <trkpt lat="47.81253" lon="-3.34558">
        <ele>98</ele>
        <time>2015-01-22T09:56:22.534Z</time>
      </trkpt>
      <trkpt lat="47.81257" lon="-3.34559">
        <ele>97</ele>
        <time>2015-01-22T09:56:23.542Z</time>
      </trkpt>
      <trkpt lat="47.81262" lon="-3.34561">
        <ele>98</ele>
        <time>2015-01-22T09:56:25.541Z</time>
      </trkpt>
      <trkpt lat="47.81265" lon="-3.34564">
        <ele>100</ele>
        <time>2015-01-22T09:56:26.535Z</time>
      </trkpt>
      <trkpt lat="47.81268" lon="-3.34573">
        <ele>100</ele>
        <time>2015-01-22T09:56:28.540Z</time>
      </trkpt>
      <trkpt lat="47.81268" lon="-3.34578">
        <ele>100</ele>
        <time>2015-01-22T09:56:29.540Z</time>
      </trkpt>
      <trkpt lat="47.81268" lon="-3.3459">
        <ele>99</ele>
        <time>2015-01-22T09:56:31.534Z</time>
      </trkpt>
      <trkpt lat="47.81268" lon="-3.34595">
        <ele>99</ele>
        <time>2015-01-22T09:56:32.534Z</time>
      </trkpt>
      <trkpt lat="47.81267" lon="-3.34607">
        <ele>97</ele>
        <time>2015-01-22T09:56:39.620Z</time>
      </trkpt>
      <trkpt lat="47.81267" lon="-3.34612">
        <ele>96</ele>
        <time>2015-01-22T09:56:40.536Z</time>
      </trkpt>
      <trkpt lat="47.81266" lon="-3.34622">
        <ele>97</ele>
        <time>2015-01-22T09:56:42.536Z</time>
      </trkpt>
      <trkpt lat="47.81266" lon="-3.34627">
        <ele>97</ele>
        <time>2015-01-22T09:56:43.536Z</time>
      </trkpt>
      <trkpt lat="47.81263" lon="-3.34637">
        <ele>96</ele>
        <time>2015-01-22T09:56:45.537Z</time>
      </trkpt>
      <trkpt lat="47.81261" lon="-3.34642">
        <ele>98</ele>
        <time>2015-01-22T09:56:46.541Z</time>
      </trkpt>
      <trkpt lat="47.81257" lon="-3.34653">
        <ele>97</ele>
        <time>2015-01-22T09:56:48.535Z</time>
      </trkpt>
      <trkpt lat="47.81255" lon="-3.34658">
        <ele>96</ele>
        <time>2015-01-22T09:56:49.540Z</time>
      </trkpt>
      <trkpt lat="47.81251" lon="-3.34667">
        <ele>95</ele>
        <time>2015-01-22T09:57:02.538Z</time>
      </trkpt>
      <trkpt lat="47.81251" lon="-3.3467">
        <ele>95</ele>
        <time>2015-01-22T09:57:03.534Z</time>
      </trkpt>
      <trkpt lat="47.81252" lon="-3.34683">
        <ele>92</ele>
        <time>2015-01-22T09:57:12.535Z</time>
      </trkpt>
      <trkpt lat="47.81252" lon="-3.34684">
        <ele>92</ele>
        <time>2015-01-22T09:57:13.537Z</time>
      </trkpt>
      <trkpt lat="47.81253" lon="-3.34697">
        <ele>97</ele>
        <time>2015-01-22T09:57:18.532Z</time>
      </trkpt>
      <trkpt lat="47.81253" lon="-3.347">
        <ele>96</ele>
        <time>2015-01-22T09:57:19.542Z</time>
      </trkpt>
      <trkpt lat="47.81255" lon="-3.34687">
        <ele>94</ele>
        <time>2015-01-22T09:57:52.574Z</time>
      </trkpt>
      <trkpt lat="47.81255" lon="-3.34684">
        <ele>93</ele>
        <time>2015-01-22T09:57:53.543Z</time>
      </trkpt>
      <trkpt lat="47.81254" lon="-3.34671">
        <ele>93</ele>
        <time>2015-01-22T09:58:01.574Z</time>
      </trkpt>
      <trkpt lat="47.81255" lon="-3.34667">
        <ele>94</ele>
        <time>2015-01-22T09:58:02.600Z</time>
      </trkpt>
      <trkpt lat="47.81261" lon="-3.34658">
        <ele>96</ele>
        <time>2015-01-22T09:58:21.527Z</time>
      </trkpt>
      <trkpt lat="47.81261" lon="-3.34657">
        <ele>96</ele>
        <time>2015-01-22T09:58:22.526Z</time>
      </trkpt>
      <trkpt lat="47.81263" lon="-3.34645">
        <ele>98</ele>
        <time>2015-01-22T09:58:26.602Z</time>
      </trkpt>
      <trkpt lat="47.81263" lon="-3.3464">
        <ele>97</ele>
        <time>2015-01-22T09:58:27.572Z</time>
      </trkpt>
      <trkpt lat="47.81266" lon="-3.34629">
        <ele>94</ele>
        <time>2015-01-22T09:58:30.581Z</time>
      </trkpt>
      <trkpt lat="47.81267" lon="-3.34626">
        <ele>94</ele>
        <time>2015-01-22T09:58:31.531Z</time>
      </trkpt>
      <trkpt lat="47.81271" lon="-3.34616">
        <ele>94</ele>
        <time>2015-01-22T09:58:34.541Z</time>
      </trkpt>
      <trkpt lat="47.81271" lon="-3.34612">
        <ele>95</ele>
        <time>2015-01-22T09:58:35.535Z</time>
      </trkpt>
      <trkpt lat="47.81279" lon="-3.34617">
        <ele>95</ele>
        <time>2015-01-22T09:58:41.607Z</time>
      </trkpt>
      <trkpt lat="47.8128" lon="-3.34621">
        <ele>96</ele>
        <time>2015-01-22T09:58:42.534Z</time>
      </trkpt>
      <trkpt lat="47.81287" lon="-3.34626">
        <ele>95</ele>
        <time>2015-01-22T09:58:48.539Z</time>
      </trkpt>
      <trkpt lat="47.81289" lon="-3.34626">
        <ele>95</ele>
        <time>2015-01-22T09:58:49.535Z</time>
      </trkpt>
      <trkpt lat="47.81298" lon="-3.34629">
        <ele>95</ele>
        <time>2015-01-22T09:58:52.539Z</time>
      </trkpt>
      <trkpt lat="47.813" lon="-3.34631">
        <ele>95</ele>
        <time>2015-01-22T09:58:53.535Z</time>
      </trkpt>
      <trkpt lat="47.81307" lon="-3.34635">
        <ele>93</ele>
        <time>2015-01-22T09:58:58.535Z</time>
      </trkpt>
      <trkpt lat="47.81308" lon="-3.34636">
        <ele>93</ele>
        <time>2015-01-22T09:58:59.553Z</time>
      </trkpt>
      <trkpt lat="47.81314" lon="-3.34644">
        <ele>97</ele>
        <time>2015-01-22T09:59:04.578Z</time>
      </trkpt>
      <trkpt lat="47.81314" lon="-3.34647">
        <ele>98</ele>
        <time>2015-01-22T09:59:05.584Z</time>
      </trkpt>
      <trkpt lat="47.81312" lon="-3.3466">
        <ele>98</ele>
        <time>2015-01-22T09:59:08.544Z</time>
      </trkpt>
      <trkpt lat="47.81311" lon="-3.34663">
        <ele>97</ele>
        <time>2015-01-22T09:59:09.533Z</time>
      </trkpt>
      <trkpt lat="47.81306" lon="-3.34674">
        <ele>98</ele>
        <time>2015-01-22T09:59:16.532Z</time>
      </trkpt>
      <trkpt lat="47.81306" lon="-3.34674">
        <ele>98</ele>
        <time>2015-01-22T09:59:17.531Z</time>
      </trkpt>
      <trkpt lat="47.81298" lon="-3.34667">
        <ele>99</ele>
        <time>2015-01-22T09:59:33.539Z</time>
      </trkpt>
      <trkpt lat="47.81298" lon="-3.34665">
        <ele>99</ele>
        <time>2015-01-22T09:59:34.535Z</time>
      </trkpt>
      <trkpt lat="47.81305" lon="-3.34662">
        <ele>98</ele>
        <time>2015-01-22T09:59:44.534Z</time>
      </trkpt>
      <trkpt lat="47.81307" lon="-3.34659">
        <ele>96</ele>
        <time>2015-01-22T09:59:45.535Z</time>
      </trkpt>
      <trkpt lat="47.8131" lon="-3.34651">
        <ele>94</ele>
        <time>2015-01-22T09:59:47.534Z</time>
      </trkpt>
      <trkpt lat="47.81311" lon="-3.34647">
        <ele>94</ele>
        <time>2015-01-22T09:59:48.589Z</time>
      </trkpt>
      <trkpt lat="47.81307" lon="-3.34636">
        <ele>94</ele>
        <time>2015-01-22T09:59:51.532Z</time>
      </trkpt>
      <trkpt lat="47.81305" lon="-3.34633">
        <ele>93</ele>
        <time>2015-01-22T09:59:52.534Z</time>
      </trkpt>
      <trkpt lat="47.81299" lon="-3.34625">
        <ele>95</ele>
        <time>2015-01-22T09:59:55.591Z</time>
      </trkpt>
      <trkpt lat="47.81296" lon="-3.34625">
        <ele>93</ele>
        <time>2015-01-22T09:59:56.533Z</time>
      </trkpt>
      <trkpt lat="47.81289" lon="-3.34625">
        <ele>95</ele>
        <time>2015-01-22T09:59:58.535Z</time>
      </trkpt>
      <trkpt lat="47.81286" lon="-3.34624">
        <ele>95</ele>
        <time>2015-01-22T09:59:59.584Z</time>
      </trkpt>
      <trkpt lat="47.81278" lon="-3.34623">
        <ele>94</ele>
        <time>2015-01-22T10:00:07.531Z</time>
      </trkpt>
      <trkpt lat="47.81276" lon="-3.3462">
        <ele>93</ele>
        <time>2015-01-22T10:00:08.533Z</time>
      </trkpt>
      <trkpt lat="47.81272" lon="-3.34613">
        <ele>95</ele>
        <time>2015-01-22T10:00:10.537Z</time>
      </trkpt>
      <trkpt lat="47.8127" lon="-3.34609">
        <ele>96</ele>
        <time>2015-01-22T10:00:11.548Z</time>
      </trkpt>
      <trkpt lat="47.81269" lon="-3.34599">
        <ele>97</ele>
        <time>2015-01-22T10:00:13.537Z</time>
      </trkpt>
      <trkpt lat="47.81268" lon="-3.34594">
        <ele>98</ele>
        <time>2015-01-22T10:00:14.533Z</time>
      </trkpt>
      <trkpt lat="47.81267" lon="-3.34585">
        <ele>97</ele>
        <time>2015-01-22T10:00:16.536Z</time>
      </trkpt>
      <trkpt lat="47.81267" lon="-3.3458">
        <ele>98</ele>
        <time>2015-01-22T10:00:17.535Z</time>
      </trkpt>
      <trkpt lat="47.81267" lon="-3.34571">
        <ele>100</ele>
        <time>2015-01-22T10:00:19.532Z</time>
      </trkpt>
      <trkpt lat="47.81267" lon="-3.34566">
        <ele>100</ele>
        <time>2015-01-22T10:00:20.535Z</time>
      </trkpt>
      <trkpt lat="47.81269" lon="-3.34557">
        <ele>102</ele>
        <time>2015-01-22T10:00:22.654Z</time>
      </trkpt>
      <trkpt lat="47.81271" lon="-3.34553">
        <ele>102</ele>
        <time>2015-01-22T10:00:23.531Z</time>
      </trkpt>
      <trkpt lat="47.81273" lon="-3.34544">
        <ele>100</ele>
        <time>2015-01-22T10:00:25.604Z</time>
      </trkpt>
      <trkpt lat="47.81275" lon="-3.3454">
        <ele>100</ele>
        <time>2015-01-22T10:00:26.587Z</time>
      </trkpt>
      <trkpt lat="47.81275" lon="-3.34531">
        <ele>101</ele>
        <time>2015-01-22T10:00:28.537Z</time>
      </trkpt>
      <trkpt lat="47.81274" lon="-3.34526">
        <ele>101</ele>
        <time>2015-01-22T10:00:29.578Z</time>
      </trkpt>
      <trkpt lat="47.81271" lon="-3.34517">
        <ele>99</ele>
        <time>2015-01-22T10:00:31.632Z</time>
      </trkpt>
      <trkpt lat="47.81269" lon="-3.34513">
        <ele>99</ele>
        <time>2015-01-22T10:00:32.592Z</time>
      </trkpt>
      <trkpt lat="47.81265" lon="-3.34505">
        <ele>100</ele>
        <time>2015-01-22T10:00:34.579Z</time>
      </trkpt>
      <trkpt lat="47.81263" lon="-3.34501">
        <ele>101</ele>
        <time>2015-01-22T10:00:35.568Z</time>
      </trkpt>
      <trkpt lat="47.81259" lon="-3.34493">
        <ele>100</ele>
        <time>2015-01-22T10:00:37.533Z</time>
      </trkpt>
      <trkpt lat="47.81257" lon="-3.34489">
        <ele>100</ele>
        <time>2015-01-22T10:00:38.535Z</time>
      </trkpt>
      <trkpt lat="47.81253" lon="-3.34481">
        <ele>101</ele>
        <time>2015-01-22T10:00:40.532Z</time>
      </trkpt>
      <trkpt lat="47.81251" lon="-3.34479">
        <ele>100</ele>
        <time>2015-01-22T10:00:41.532Z</time>
      </trkpt>
      <trkpt lat="47.81249" lon="-3.34466">
        <ele>94</ele>
        <time>2015-01-22T10:01:59.532Z</time>
      </trkpt>
      <trkpt lat="47.81246" lon="-3.34464">
        <ele>95</ele>
        <time>2015-01-22T10:02:00.534Z</time>
      </trkpt>
      <trkpt lat="47.81237" lon="-3.34467">
        <ele>94</ele>
        <time>2015-01-22T10:02:02.532Z</time>
      </trkpt>
      <trkpt lat="47.81232" lon="-3.3447">
        <ele>96</ele>
        <time>2015-01-22T10:02:03.533Z</time>
      </trkpt>
      <trkpt lat="47.81226" lon="-3.34473">
        <ele>95</ele>
        <time>2015-01-22T10:02:04.534Z</time>
      </trkpt>
      <trkpt lat="47.81223" lon="-3.34475">
        <ele>96</ele>
        <time>2015-01-22T10:02:05.533Z</time>
      </trkpt>
      <trkpt lat="47.81219" lon="-3.3448">
        <ele>95</ele>
        <time>2015-01-22T10:02:06.531Z</time>
      </trkpt>
      <trkpt lat="47.81215" lon="-3.34486">
        <ele>95</ele>
        <time>2015-01-22T10:02:07.531Z</time>
      </trkpt>
      <trkpt lat="47.81214" lon="-3.34492">
        <ele>96</ele>
        <time>2015-01-22T10:02:08.531Z</time>
      </trkpt>
      <trkpt lat="47.81211" lon="-3.34499">
        <ele>96</ele>
        <time>2015-01-22T10:02:09.533Z</time>
      </trkpt>
      <trkpt lat="47.8121" lon="-3.34505">
        <ele>97</ele>
        <time>2015-01-22T10:02:10.534Z</time>
      </trkpt>
      <trkpt lat="47.81206" lon="-3.34512">
        <ele>97</ele>
        <time>2015-01-22T10:02:11.529Z</time>
      </trkpt>
      <trkpt lat="47.81202" lon="-3.34517">
        <ele>97</ele>
        <time>2015-01-22T10:02:12.561Z</time>
      </trkpt>
      <trkpt lat="47.81196" lon="-3.3452">
        <ele>98</ele>
        <time>2015-01-22T10:02:13.530Z</time>
      </trkpt>
      <trkpt lat="47.81188" lon="-3.34521">
        <ele>97</ele>
        <time>2015-01-22T10:02:14.524Z</time>
      </trkpt>
      <trkpt lat="47.81183" lon="-3.34522">
        <ele>98</ele>
        <time>2015-01-22T10:02:15.566Z</time>
      </trkpt>
      <trkpt lat="47.81177" lon="-3.34522">
        <ele>99</ele>
        <time>2015-01-22T10:02:16.624Z</time>
      </trkpt>
      <trkpt lat="47.81172" lon="-3.34522">
        <ele>98</ele>
        <time>2015-01-22T10:02:17.606Z</time>
      </trkpt>
      <trkpt lat="47.81166" lon="-3.34522">
        <ele>98</ele>
        <time>2015-01-22T10:02:18.537Z</time>
      </trkpt>
      <trkpt lat="47.81161" lon="-3.34522">
        <ele>99</ele>
        <time>2015-01-22T10:02:19.571Z</time>
      </trkpt>
      <trkpt lat="47.81154" lon="-3.34522">
        <ele>98</ele>
        <time>2015-01-22T10:02:21.610Z</time>
      </trkpt>
      <trkpt lat="47.81151" lon="-3.34522">
        <ele>97</ele>
        <time>2015-01-22T10:02:22.523Z</time>
      </trkpt>
      <trkpt lat="47.8115" lon="-3.34532">
        <ele>96</ele>
        <time>2015-01-22T10:02:24.532Z</time>
      </trkpt>
      <trkpt lat="47.81149" lon="-3.34537">
        <ele>97</ele>
        <time>2015-01-22T10:02:25.534Z</time>
      </trkpt>
      <trkpt lat="47.81148" lon="-3.34545">
        <ele>97</ele>
        <time>2015-01-22T10:02:26.520Z</time>
      </trkpt>
      <trkpt lat="47.81147" lon="-3.34552">
        <ele>98</ele>
        <time>2015-01-22T10:02:27.559Z</time>
      </trkpt>
      <trkpt lat="47.81146" lon="-3.3456">
        <ele>98</ele>
        <time>2015-01-22T10:02:28.596Z</time>
      </trkpt>
      <trkpt lat="47.81146" lon="-3.34568">
        <ele>97</ele>
        <time>2015-01-22T10:02:29.530Z</time>
      </trkpt>
      <trkpt lat="47.81146" lon="-3.34577">
        <ele>97</ele>
        <time>2015-01-22T10:02:30.652Z</time>
      </trkpt>
      <trkpt lat="47.81146" lon="-3.34586">
        <ele>97</ele>
        <time>2015-01-22T10:02:31.553Z</time>
      </trkpt>
      <trkpt lat="47.81147" lon="-3.34595">
        <ele>96</ele>
        <time>2015-01-22T10:02:32.615Z</time>
      </trkpt>
      <trkpt lat="47.81146" lon="-3.34603">
        <ele>95</ele>
        <time>2015-01-22T10:02:33.579Z</time>
      </trkpt>
      <trkpt lat="47.81145" lon="-3.34611">
        <ele>94</ele>
        <time>2015-01-22T10:02:34.576Z</time>
      </trkpt>
      <trkpt lat="47.81145" lon="-3.3462">
        <ele>95</ele>
        <time>2015-01-22T10:02:35.617Z</time>
      </trkpt>
      <trkpt lat="47.81151" lon="-3.34628">
        <ele>94</ele>
        <time>2015-01-22T10:02:37.620Z</time>
      </trkpt>
      <trkpt lat="47.81154" lon="-3.34631">
        <ele>93</ele>
        <time>2015-01-22T10:02:38.531Z</time>
      </trkpt>
      <trkpt lat="47.8116" lon="-3.3463">
        <ele>94</ele>
        <time>2015-01-22T10:02:40.584Z</time>
      </trkpt>
      <trkpt lat="47.81163" lon="-3.34628">
        <ele>93</ele>
        <time>2015-01-22T10:02:41.605Z</time>
      </trkpt>
      <trkpt lat="47.81169" lon="-3.34624">
        <ele>93</ele>
        <time>2015-01-22T10:02:43.559Z</time>
      </trkpt>
      <trkpt lat="47.81172" lon="-3.3462">
        <ele>94</ele>
        <time>2015-01-22T10:02:44.580Z</time>
      </trkpt>
      <trkpt lat="47.81178" lon="-3.34613">
        <ele>94</ele>
        <time>2015-01-22T10:02:47.532Z</time>
      </trkpt>
      <trkpt lat="47.8118" lon="-3.3461">
        <ele>95</ele>
        <time>2015-01-22T10:02:48.534Z</time>
      </trkpt>
      <trkpt lat="47.81183" lon="-3.34599">
        <ele>94</ele>
        <time>2015-01-22T10:02:51.524Z</time>
      </trkpt>
      <trkpt lat="47.81182" lon="-3.34596">
        <ele>95</ele>
        <time>2015-01-22T10:02:52.530Z</time>
      </trkpt>
      <trkpt lat="47.81182" lon="-3.34585">
        <ele>95</ele>
        <time>2015-01-22T10:02:58.532Z</time>
      </trkpt>
      <trkpt lat="47.81181" lon="-3.34581">
        <ele>95</ele>
        <time>2015-01-22T10:02:59.537Z</time>
      </trkpt>
      <trkpt lat="47.81181" lon="-3.3457">
        <ele>96</ele>
        <time>2015-01-22T10:03:02.533Z</time>
      </trkpt>
      <trkpt lat="47.81179" lon="-3.34566">
        <ele>97</ele>
        <time>2015-01-22T10:03:03.533Z</time>
      </trkpt>
      <trkpt lat="47.81171" lon="-3.34564">
        <ele>96</ele>
        <time>2015-01-22T10:03:06.531Z</time>
      </trkpt>
      <trkpt lat="47.81169" lon="-3.34564">
        <ele>96</ele>
        <time>2015-01-22T10:03:07.534Z</time>
      </trkpt>
      <trkpt lat="47.81177" lon="-3.34565">
        <ele>101</ele>
        <time>2015-01-22T10:03:38.528Z</time>
      </trkpt>
      <trkpt lat="47.81178" lon="-3.34566">
        <ele>100</ele>
        <time>2015-01-22T10:03:39.532Z</time>
      </trkpt>
      <trkpt lat="47.81179" lon="-3.34577">
        <ele>99</ele>
        <time>2015-01-22T10:03:43.528Z</time>
      </trkpt>
      <trkpt lat="47.81179" lon="-3.3458">
        <ele>98</ele>
        <time>2015-01-22T10:03:44.566Z</time>
      </trkpt>
      <trkpt lat="47.8118" lon="-3.34592">
        <ele>98</ele>
        <time>2015-01-22T10:03:47.547Z</time>
      </trkpt>
      <trkpt lat="47.81181" lon="-3.34596">
        <ele>96</ele>
        <time>2015-01-22T10:03:48.591Z</time>
      </trkpt>
      <trkpt lat="47.81182" lon="-3.34606">
        <ele>94</ele>
        <time>2015-01-22T10:03:51.528Z</time>
      </trkpt>
      <trkpt lat="47.81183" lon="-3.34609">
        <ele>94</ele>
        <time>2015-01-22T10:03:52.561Z</time>
      </trkpt>
      <trkpt lat="47.81185" lon="-3.3462">
        <ele>91</ele>
        <time>2015-01-22T10:03:55.619Z</time>
      </trkpt>
      <trkpt lat="47.81187" lon="-3.34623">
        <ele>88</ele>
        <time>2015-01-22T10:03:56.536Z</time>
      </trkpt>
      <trkpt lat="47.81193" lon="-3.34633">
        <ele>91</ele>
        <time>2015-01-22T10:04:04.586Z</time>
      </trkpt>
      <trkpt lat="47.81193" lon="-3.34634">
        <ele>91</ele>
        <time>2015-01-22T10:04:05.531Z</time>
      </trkpt>
      <trkpt lat="47.81199" lon="-3.34645">
        <ele>90</ele>
        <time>2015-01-22T10:04:13.533Z</time>
      </trkpt>
      <trkpt lat="47.812" lon="-3.34649">
        <ele>91</ele>
        <time>2015-01-22T10:04:14.531Z</time>
      </trkpt>
      <trkpt lat="47.81202" lon="-3.3466">
        <ele>94</ele>
        <time>2015-01-22T10:04:23.531Z</time>
      </trkpt>
      <trkpt lat="47.81202" lon="-3.34663">
        <ele>93</ele>
        <time>2015-01-22T10:04:24.599Z</time>
      </trkpt>
      <trkpt lat="47.81204" lon="-3.34672">
        <ele>93</ele>
        <time>2015-01-22T10:04:26.528Z</time>
      </trkpt>
      <trkpt lat="47.81204" lon="-3.34676">
        <ele>94</ele>
        <time>2015-01-22T10:04:27.568Z</time>
      </trkpt>
      <trkpt lat="47.81205" lon="-3.34686">
        <ele>95</ele>
        <time>2015-01-22T10:04:29.596Z</time>
      </trkpt>
      <trkpt lat="47.81205" lon="-3.34692">
        <ele>95</ele>
        <time>2015-01-22T10:04:30.528Z</time>
      </trkpt>
      <trkpt lat="47.81207" lon="-3.34702">
        <ele>94</ele>
        <time>2015-01-22T10:04:32.567Z</time>
      </trkpt>
      <trkpt lat="47.81208" lon="-3.34706">
        <ele>94</ele>
        <time>2015-01-22T10:04:33.588Z</time>
      </trkpt>
      <trkpt lat="47.81207" lon="-3.34718">
        <ele>97</ele>
        <time>2015-01-22T10:04:39.528Z</time>
      </trkpt>
      <trkpt lat="47.81208" lon="-3.34723">
        <ele>97</ele>
        <time>2015-01-22T10:04:40.519Z</time>
      </trkpt>
      <trkpt lat="47.81201" lon="-3.3473">
        <ele>96</ele>
        <time>2015-01-22T10:04:57.533Z</time>
      </trkpt>
      <trkpt lat="47.81198" lon="-3.34729">
        <ele>96</ele>
        <time>2015-01-22T10:04:58.529Z</time>
      </trkpt>
      <trkpt lat="47.8119" lon="-3.34731">
        <ele>95</ele>
        <time>2015-01-22T10:05:01.530Z</time>
      </trkpt>
      <trkpt lat="47.81189" lon="-3.34731">
        <ele>95</ele>
        <time>2015-01-22T10:05:02.528Z</time>
      </trkpt>
      <trkpt lat="47.8118" lon="-3.34728">
        <ele>92</ele>
        <time>2015-01-22T10:05:15.532Z</time>
      </trkpt>
      <trkpt lat="47.81177" lon="-3.34728">
        <ele>92</ele>
        <time>2015-01-22T10:05:16.568Z</time>
      </trkpt>
      <trkpt lat="47.8117" lon="-3.3472">
        <ele>93</ele>
        <time>2015-01-22T10:05:34.528Z</time>
      </trkpt>
      <trkpt lat="47.8117" lon="-3.34717">
        <ele>93</ele>
        <time>2015-01-22T10:05:35.522Z</time>
      </trkpt>
      <trkpt lat="47.81165" lon="-3.34709">
        <ele>89</ele>
        <time>2015-01-22T10:05:39.527Z</time>
      </trkpt>
      <trkpt lat="47.81164" lon="-3.34707">
        <ele>89</ele>
        <time>2015-01-22T10:05:40.531Z</time>
      </trkpt>
      <trkpt lat="47.81164" lon="-3.34697">
        <ele>93</ele>
        <time>2015-01-22T10:05:43.527Z</time>
      </trkpt>
      <trkpt lat="47.81165" lon="-3.34693">
        <ele>93</ele>
        <time>2015-01-22T10:05:44.530Z</time>
      </trkpt>
      <trkpt lat="47.81172" lon="-3.34699">
        <ele>91</ele>
        <time>2015-01-22T10:05:53.527Z</time>
      </trkpt>
      <trkpt lat="47.81172" lon="-3.34703">
        <ele>90</ele>
        <time>2015-01-22T10:05:54.530Z</time>
      </trkpt>
      <trkpt lat="47.81174" lon="-3.34712">
        <ele>89</ele>
        <time>2015-01-22T10:05:56.527Z</time>
      </trkpt>
      <trkpt lat="47.81175" lon="-3.34716">
        <ele>88</ele>
        <time>2015-01-22T10:05:57.526Z</time>
      </trkpt>
      <trkpt lat="47.81183" lon="-3.34722">
        <ele>90</ele>
        <time>2015-01-22T10:06:00.528Z</time>
      </trkpt>
      <trkpt lat="47.81185" lon="-3.34721">
        <ele>91</ele>
        <time>2015-01-22T10:06:01.528Z</time>
      </trkpt>
      <trkpt lat="47.81192" lon="-3.34717">
        <ele>86</ele>
        <time>2015-01-22T10:06:17.529Z</time>
      </trkpt>
      <trkpt lat="47.81194" lon="-3.34717">
        <ele>87</ele>
        <time>2015-01-22T10:06:18.565Z</time>
      </trkpt>
      <trkpt lat="47.812" lon="-3.34708">
        <ele>89</ele>
        <time>2015-01-22T10:06:22.528Z</time>
      </trkpt>
      <trkpt lat="47.812" lon="-3.34704">
        <ele>88</ele>
        <time>2015-01-22T10:06:23.563Z</time>
      </trkpt>
      <trkpt lat="47.812" lon="-3.34691">
        <ele>85</ele>
        <time>2015-01-22T10:06:26.527Z</time>
      </trkpt>
      <trkpt lat="47.812" lon="-3.34686">
        <ele>87</ele>
        <time>2015-01-22T10:06:27.529Z</time>
      </trkpt>
      <trkpt lat="47.81198" lon="-3.34673">
        <ele>86</ele>
        <time>2015-01-22T10:06:30.527Z</time>
      </trkpt>
      <trkpt lat="47.81197" lon="-3.3467">
        <ele>87</ele>
        <time>2015-01-22T10:06:31.530Z</time>
      </trkpt>
      <trkpt lat="47.81192" lon="-3.3466">
        <ele>85</ele>
        <time>2015-01-22T10:06:43.582Z</time>
      </trkpt>
      <trkpt lat="47.81191" lon="-3.34658">
        <ele>85</ele>
        <time>2015-01-22T10:06:44.640Z</time>
      </trkpt>
      <trkpt lat="47.81186" lon="-3.34646">
        <ele>86</ele>
        <time>2015-01-22T10:06:47.521Z</time>
      </trkpt>
      <trkpt lat="47.81185" lon="-3.34642">
        <ele>88</ele>
        <time>2015-01-22T10:06:48.595Z</time>
      </trkpt>
      <trkpt lat="47.81182" lon="-3.34631">
        <ele>90</ele>
        <time>2015-01-22T10:06:50.567Z</time>
      </trkpt>
      <trkpt lat="47.8118" lon="-3.34626">
        <ele>91</ele>
        <time>2015-01-22T10:06:51.582Z</time>
      </trkpt>
      <trkpt lat="47.81172" lon="-3.34623">
        <ele>91</ele>
        <time>2015-01-22T10:06:54.526Z</time>
      </trkpt>
      <trkpt lat="47.8117" lon="-3.34625">
        <ele>91</ele>
        <time>2015-01-22T10:06:55.560Z</time>
      </trkpt>
      <trkpt lat="47.81166" lon="-3.34633">
        <ele>91</ele>
        <time>2015-01-22T10:07:03.528Z</time>
      </trkpt>
      <trkpt lat="47.81162" lon="-3.34635">
        <ele>91</ele>
        <time>2015-01-22T10:07:04.529Z</time>
      </trkpt>
      <trkpt lat="47.81157" lon="-3.34637">
        <ele>90</ele>
        <time>2015-01-22T10:07:05.528Z</time>
      </trkpt>
      <trkpt lat="47.81153" lon="-3.34639">
        <ele>91</ele>
        <time>2015-01-22T10:07:06.528Z</time>
      </trkpt>
      <trkpt lat="47.81147" lon="-3.34646">
        <ele>91</ele>
        <time>2015-01-22T10:07:08.526Z</time>
      </trkpt>
      <trkpt lat="47.81146" lon="-3.34652">
        <ele>91</ele>
        <time>2015-01-22T10:07:09.600Z</time>
      </trkpt>
      <trkpt lat="47.81147" lon="-3.34664">
        <ele>90</ele>
        <time>2015-01-22T10:07:11.614Z</time>
      </trkpt>
      <trkpt lat="47.81147" lon="-3.3467">
        <ele>91</ele>
        <time>2015-01-22T10:07:12.576Z</time>
      </trkpt>
      <trkpt lat="47.81146" lon="-3.34681">
        <ele>91</ele>
        <time>2015-01-22T10:07:13.580Z</time>
      </trkpt>
      <trkpt lat="47.81147" lon="-3.34689">
        <ele>91</ele>
        <time>2015-01-22T10:07:14.591Z</time>
      </trkpt>
      <trkpt lat="47.81146" lon="-3.34698">
        <ele>91</ele>
        <time>2015-01-22T10:07:15.543Z</time>
      </trkpt>
      <trkpt lat="47.81146" lon="-3.34707">
        <ele>90</ele>
        <time>2015-01-22T10:07:16.605Z</time>
      </trkpt>
      <trkpt lat="47.81146" lon="-3.34716">
        <ele>90</ele>
        <time>2015-01-22T10:07:17.524Z</time>
      </trkpt>
      <trkpt lat="47.81147" lon="-3.34724">
        <ele>89</ele>
        <time>2015-01-22T10:07:18.584Z</time>
      </trkpt>
      <trkpt lat="47.81146" lon="-3.34734">
        <ele>89</ele>
        <time>2015-01-22T10:07:19.527Z</time>
      </trkpt>
      <trkpt lat="47.81145" lon="-3.34742">
        <ele>90</ele>
        <time>2015-01-22T10:07:20.594Z</time>
      </trkpt>
      <trkpt lat="47.81145" lon="-3.3475">
        <ele>89</ele>
        <time>2015-01-22T10:07:21.597Z</time>
      </trkpt>
      <trkpt lat="47.81144" lon="-3.34758">
        <ele>88</ele>
        <time>2015-01-22T10:07:22.578Z</time>
      </trkpt>
      <trkpt lat="47.81143" lon="-3.34766">
        <ele>88</ele>
        <time>2015-01-22T10:07:23.551Z</time>
      </trkpt>
      <trkpt lat="47.81142" lon="-3.34773">
        <ele>89</ele>
        <time>2015-01-22T10:07:24.525Z</time>
      </trkpt>
      <trkpt lat="47.8114" lon="-3.3478">
        <ele>88</ele>
        <time>2015-01-22T10:07:25.603Z</time>
      </trkpt>
      <trkpt lat="47.81138" lon="-3.34787">
        <ele>88</ele>
        <time>2015-01-22T10:07:26.527Z</time>
      </trkpt>
      <trkpt lat="47.81135" lon="-3.34793">
        <ele>88</ele>
        <time>2015-01-22T10:07:27.528Z</time>
      </trkpt>
      <trkpt lat="47.81132" lon="-3.348">
        <ele>88</ele>
        <time>2015-01-22T10:07:28.568Z</time>
      </trkpt>
      <trkpt lat="47.8113" lon="-3.34807">
        <ele>89</ele>
        <time>2015-01-22T10:07:29.519Z</time>
      </trkpt>
      <trkpt lat="47.81127" lon="-3.34813">
        <ele>88</ele>
        <time>2015-01-22T10:07:30.600Z</time>
      </trkpt>
      <trkpt lat="47.81123" lon="-3.3482">
        <ele>88</ele>
        <time>2015-01-22T10:07:31.670Z</time>
      </trkpt>
      <trkpt lat="47.8112" lon="-3.34826">
        <ele>88</ele>
        <time>2015-01-22T10:07:32.606Z</time>
      </trkpt>
      <trkpt lat="47.81115" lon="-3.34836">
        <ele>87</ele>
        <time>2015-01-22T10:07:34.584Z</time>
      </trkpt>
      <trkpt lat="47.81113" lon="-3.3484">
        <ele>87</ele>
        <time>2015-01-22T10:07:35.557Z</time>
      </trkpt>
      <trkpt lat="47.81116" lon="-3.34829">
        <ele>92</ele>
        <time>2015-01-22T10:07:56.524Z</time>
      </trkpt>
      <trkpt lat="47.81117" lon="-3.34825">
        <ele>91</ele>
        <time>2015-01-22T10:07:57.589Z</time>
      </trkpt>
      <trkpt lat="47.8112" lon="-3.34817">
        <ele>87</ele>
        <time>2015-01-22T10:07:59.605Z</time>
      </trkpt>
      <trkpt lat="47.81122" lon="-3.34813">
        <ele>86</ele>
        <time>2015-01-22T10:08:00.611Z</time>
      </trkpt>
      <trkpt lat="47.81127" lon="-3.34807">
        <ele>86</ele>
        <time>2015-01-22T10:08:02.526Z</time>
      </trkpt>
      <trkpt lat="47.81128" lon="-3.34802">
        <ele>86</ele>
        <time>2015-01-22T10:08:03.529Z</time>
      </trkpt>
      <trkpt lat="47.81127" lon="-3.34792">
        <ele>85</ele>
        <time>2015-01-22T10:08:05.526Z</time>
      </trkpt>
      <trkpt lat="47.81126" lon="-3.34788">
        <ele>86</ele>
        <time>2015-01-22T10:08:06.527Z</time>
      </trkpt>
      <trkpt lat="47.81124" lon="-3.34779">
        <ele>84</ele>
        <time>2015-01-22T10:08:08.515Z</time>
      </trkpt>
      <trkpt lat="47.81124" lon="-3.34774">
        <ele>83</ele>
        <time>2015-01-22T10:08:09.529Z</time>
      </trkpt>
      <trkpt lat="47.81126" lon="-3.34765">
        <ele>86</ele>
        <time>2015-01-22T10:08:11.530Z</time>
      </trkpt>
      <trkpt lat="47.81128" lon="-3.34762">
        <ele>86</ele>
        <time>2015-01-22T10:08:12.530Z</time>
      </trkpt>
      <trkpt lat="47.81133" lon="-3.34754">
        <ele>88</ele>
        <time>2015-01-22T10:08:14.530Z</time>
      </trkpt>
      <trkpt lat="47.81135" lon="-3.3475">
        <ele>88</ele>
        <time>2015-01-22T10:08:15.530Z</time>
      </trkpt>
      <trkpt lat="47.81139" lon="-3.34742">
        <ele>88</ele>
        <time>2015-01-22T10:08:17.549Z</time>
      </trkpt>
      <trkpt lat="47.81139" lon="-3.34738">
        <ele>88</ele>
        <time>2015-01-22T10:08:18.583Z</time>
      </trkpt>
      <trkpt lat="47.81138" lon="-3.34725">
        <ele>89</ele>
        <time>2015-01-22T10:08:21.527Z</time>
      </trkpt>
      <trkpt lat="47.81138" lon="-3.34722">
        <ele>87</ele>
        <time>2015-01-22T10:08:22.608Z</time>
      </trkpt>
      <trkpt lat="47.8114" lon="-3.34711">
        <ele>88</ele>
        <time>2015-01-22T10:08:32.604Z</time>
      </trkpt>
      <trkpt lat="47.8114" lon="-3.34706">
        <ele>88</ele>
        <time>2015-01-22T10:08:33.605Z</time>
      </trkpt>
      <trkpt lat="47.8114" lon="-3.34697">
        <ele>88</ele>
        <time>2015-01-22T10:08:35.567Z</time>
      </trkpt>
      <trkpt lat="47.81141" lon="-3.34693">
        <ele>87</ele>
        <time>2015-01-22T10:08:36.593Z</time>
      </trkpt>
      <trkpt lat="47.81141" lon="-3.34684">
        <ele>86</ele>
        <time>2015-01-22T10:08:38.614Z</time>
      </trkpt>
      <trkpt lat="47.81142" lon="-3.34679">
        <ele>88</ele>
        <time>2015-01-22T10:08:39.594Z</time>
      </trkpt>
      <trkpt lat="47.81142" lon="-3.34666">
        <ele>92</ele>
        <time>2015-01-22T10:08:42.585Z</time>
      </trkpt>
      <trkpt lat="47.81142" lon="-3.34661">
        <ele>91</ele>
        <time>2015-01-22T10:08:43.600Z</time>
      </trkpt>
      <trkpt lat="47.81143" lon="-3.34648">
        <ele>88</ele>
        <time>2015-01-22T10:08:46.526Z</time>
      </trkpt>
      <trkpt lat="47.81143" lon="-3.34643">
        <ele>88</ele>
        <time>2015-01-22T10:08:47.525Z</time>
      </trkpt>
      <trkpt lat="47.81143" lon="-3.34635">
        <ele>86</ele>
        <time>2015-01-22T10:08:49.531Z</time>
      </trkpt>
      <trkpt lat="47.81143" lon="-3.3463">
        <ele>88</ele>
        <time>2015-01-22T10:08:50.529Z</time>
      </trkpt>
      <trkpt lat="47.81143" lon="-3.34621">
        <ele>88</ele>
        <time>2015-01-22T10:08:52.602Z</time>
      </trkpt>
      <trkpt lat="47.81143" lon="-3.34616">
        <ele>89</ele>
        <time>2015-01-22T10:08:53.526Z</time>
      </trkpt>
      <trkpt lat="47.81143" lon="-3.34606">
        <ele>93</ele>
        <time>2015-01-22T10:08:55.526Z</time>
      </trkpt>
      <trkpt lat="47.81143" lon="-3.34602">
        <ele>94</ele>
        <time>2015-01-22T10:08:56.529Z</time>
      </trkpt>
      <trkpt lat="47.81144" lon="-3.34592">
        <ele>92</ele>
        <time>2015-01-22T10:08:58.528Z</time>
      </trkpt>
      <trkpt lat="47.81143" lon="-3.34587">
        <ele>93</ele>
        <time>2015-01-22T10:08:59.528Z</time>
      </trkpt>
      <trkpt lat="47.81136" lon="-3.3458">
        <ele>89</ele>
        <time>2015-01-22T10:09:02.525Z</time>
      </trkpt>
      <trkpt lat="47.81133" lon="-3.34578">
        <ele>88</ele>
        <time>2015-01-22T10:09:03.565Z</time>
      </trkpt>
      <trkpt lat="47.81125" lon="-3.34576">
        <ele>87</ele>
        <time>2015-01-22T10:09:04.606Z</time>
      </trkpt>
      <trkpt lat="47.81121" lon="-3.34571">
        <ele>86</ele>
        <time>2015-01-22T10:09:05.649Z</time>
      </trkpt>
      <trkpt lat="47.81116" lon="-3.34566">
        <ele>87</ele>
        <time>2015-01-22T10:09:06.588Z</time>
      </trkpt>
      <trkpt lat="47.81113" lon="-3.3456">
        <ele>87</ele>
        <time>2015-01-22T10:09:07.549Z</time>
      </trkpt>
      <trkpt lat="47.81108" lon="-3.34556">
        <ele>88</ele>
        <time>2015-01-22T10:09:08.534Z</time>
      </trkpt>
      <trkpt lat="47.81105" lon="-3.34553">
        <ele>87</ele>
        <time>2015-01-22T10:09:09.525Z</time>
      </trkpt>
      <trkpt lat="47.81098" lon="-3.34551">
        <ele>86</ele>
        <time>2015-01-22T10:09:11.529Z</time>
      </trkpt>
      <trkpt lat="47.81095" lon="-3.34552">
        <ele>86</ele>
        <time>2015-01-22T10:09:12.538Z</time>
      </trkpt>
      <trkpt lat="47.81087" lon="-3.34557">
        <ele>87</ele>
        <time>2015-01-22T10:09:17.525Z</time>
      </trkpt>
      <trkpt lat="47.81085" lon="-3.3456">
        <ele>86</ele>
        <time>2015-01-22T10:09:18.527Z</time>
      </trkpt>
      <trkpt lat="47.81078" lon="-3.34563">
        <ele>88</ele>
        <time>2015-01-22T10:09:21.526Z</time>
      </trkpt>
      <trkpt lat="47.81075" lon="-3.34563">
        <ele>88</ele>
        <time>2015-01-22T10:09:22.594Z</time>
      </trkpt>
      <trkpt lat="47.81067" lon="-3.34568">
        <ele>90</ele>
        <time>2015-01-22T10:09:26.522Z</time>
      </trkpt>
      <trkpt lat="47.81066" lon="-3.34572">
        <ele>90</ele>
        <time>2015-01-22T10:09:27.525Z</time>
      </trkpt>
      <trkpt lat="47.81063" lon="-3.34584">
        <ele>92</ele>
        <time>2015-01-22T10:09:30.575Z</time>
      </trkpt>
      <trkpt lat="47.81062" lon="-3.34587">
        <ele>92</ele>
        <time>2015-01-22T10:09:31.527Z</time>
      </trkpt>
      <trkpt lat="47.81055" lon="-3.34588">
        <ele>93</ele>
        <time>2015-01-22T10:09:35.578Z</time>
      </trkpt>
      <trkpt lat="47.81053" lon="-3.34586">
        <ele>91</ele>
        <time>2015-01-22T10:09:36.528Z</time>
      </trkpt>
      <trkpt lat="47.8105" lon="-3.34577">
        <ele>93</ele>
        <time>2015-01-22T10:09:39.570Z</time>
      </trkpt>
      <trkpt lat="47.8105" lon="-3.34573">
        <ele>92</ele>
        <time>2015-01-22T10:09:40.561Z</time>
      </trkpt>
      <trkpt lat="47.81052" lon="-3.34561">
        <ele>93</ele>
        <time>2015-01-22T10:09:43.562Z</time>
      </trkpt>
      <trkpt lat="47.81053" lon="-3.34557">
        <ele>93</ele>
        <time>2015-01-22T10:09:44.595Z</time>
      </trkpt>
      <trkpt lat="47.81057" lon="-3.34549">
        <ele>92</ele>
        <time>2015-01-22T10:09:46.598Z</time>
      </trkpt>
      <trkpt lat="47.8106" lon="-3.34546">
        <ele>94</ele>
        <time>2015-01-22T10:09:47.680Z</time>
      </trkpt>
      <trkpt lat="47.81067" lon="-3.34545">
        <ele>93</ele>
        <time>2015-01-22T10:09:49.593Z</time>
      </trkpt>
      <trkpt lat="47.81071" lon="-3.34544">
        <ele>92</ele>
        <time>2015-01-22T10:09:50.526Z</time>
      </trkpt>
      <trkpt lat="47.81079" lon="-3.34544">
        <ele>94</ele>
        <time>2015-01-22T10:09:52.583Z</time>
      </trkpt>
      <trkpt lat="47.81083" lon="-3.34545">
        <ele>96</ele>
        <time>2015-01-22T10:09:53.587Z</time>
      </trkpt>
      <trkpt lat="47.81091" lon="-3.34546">
        <ele>96</ele>
        <time>2015-01-22T10:09:55.573Z</time>
      </trkpt>
      <trkpt lat="47.81095" lon="-3.34548">
        <ele>96</ele>
        <time>2015-01-22T10:09:56.605Z</time>
      </trkpt>
      <trkpt lat="47.811" lon="-3.34549">
        <ele>95</ele>
        <time>2015-01-22T10:09:57.515Z</time>
      </trkpt>
      <trkpt lat="47.81105" lon="-3.34551">
        <ele>91</ele>
        <time>2015-01-22T10:09:58.606Z</time>
      </trkpt>
      <trkpt lat="47.8111" lon="-3.3456">
        <ele>93</ele>
        <time>2015-01-22T10:09:59.556Z</time>
      </trkpt>
      <trkpt lat="47.81114" lon="-3.34564">
        <ele>93</ele>
        <time>2015-01-22T10:10:00.583Z</time>
      </trkpt>
      <trkpt lat="47.8112" lon="-3.34567">
        <ele>93</ele>
        <time>2015-01-22T10:10:01.594Z</time>
      </trkpt>
      <trkpt lat="47.81124" lon="-3.3457">
        <ele>94</ele>
        <time>2015-01-22T10:10:02.588Z</time>
      </trkpt>
      <trkpt lat="47.8113" lon="-3.34576">
        <ele>93</ele>
        <time>2015-01-22T10:10:04.539Z</time>
      </trkpt>
      <trkpt lat="47.81133" lon="-3.34579">
        <ele>95</ele>
        <time>2015-01-22T10:10:05.527Z</time>
      </trkpt>
      <trkpt lat="47.81141" lon="-3.3458">
        <ele>96</ele>
        <time>2015-01-22T10:10:10.610Z</time>
      </trkpt>
      <trkpt lat="47.81142" lon="-3.34577">
        <ele>95</ele>
        <time>2015-01-22T10:10:11.579Z</time>
      </trkpt>
      <trkpt lat="47.81143" lon="-3.34567">
        <ele>94</ele>
        <time>2015-01-22T10:10:14.527Z</time>
      </trkpt>
      <trkpt lat="47.81143" lon="-3.34562">
        <ele>95</ele>
        <time>2015-01-22T10:10:15.532Z</time>
      </trkpt>
      <trkpt lat="47.81143" lon="-3.34551">
        <ele>93</ele>
        <time>2015-01-22T10:10:33.525Z</time>
      </trkpt>
      <trkpt lat="47.81144" lon="-3.34548">
        <ele>92</ele>
        <time>2015-01-22T10:10:34.533Z</time>
      </trkpt>
      <trkpt lat="47.81144" lon="-3.34536">
        <ele>94</ele>
        <time>2015-01-22T10:10:37.512Z</time>
      </trkpt>
      <trkpt lat="47.81144" lon="-3.34533">
        <ele>93</ele>
        <time>2015-01-22T10:10:38.527Z</time>
      </trkpt>
      <trkpt lat="47.81146" lon="-3.34521">
        <ele>91</ele>
        <time>2015-01-22T10:10:46.529Z</time>
      </trkpt>
      <trkpt lat="47.81147" lon="-3.34517">
        <ele>92</ele>
        <time>2015-01-22T10:10:47.525Z</time>
      </trkpt>
      <trkpt lat="47.81148" lon="-3.34507">
        <ele>91</ele>
        <time>2015-01-22T10:10:49.524Z</time>
      </trkpt>
      <trkpt lat="47.81148" lon="-3.34503">
        <ele>90</ele>
        <time>2015-01-22T10:10:50.526Z</time>
      </trkpt>
      <trkpt lat="47.81149" lon="-3.34492">
        <ele>90</ele>
        <time>2015-01-22T10:10:52.525Z</time>
      </trkpt>
      <trkpt lat="47.8115" lon="-3.34487">
        <ele>89</ele>
        <time>2015-01-22T10:10:53.521Z</time>
      </trkpt>
      <trkpt lat="47.8115" lon="-3.34477">
        <ele>90</ele>
        <time>2015-01-22T10:10:55.525Z</time>
      </trkpt>
      <trkpt lat="47.8115" lon="-3.34473">
        <ele>91</ele>
        <time>2015-01-22T10:10:56.525Z</time>
      </trkpt>
      <trkpt lat="47.81152" lon="-3.3446">
        <ele>90</ele>
        <time>2015-01-22T10:11:02.516Z</time>
      </trkpt>
      <trkpt lat="47.81153" lon="-3.34456">
        <ele>90</ele>
        <time>2015-01-22T10:11:03.572Z</time>
      </trkpt>
      <trkpt lat="47.81154" lon="-3.34445">
        <ele>90</ele>
        <time>2015-01-22T10:11:06.596Z</time>
      </trkpt>
      <trkpt lat="47.81154" lon="-3.3444">
        <ele>90</ele>
        <time>2015-01-22T10:11:07.617Z</time>
      </trkpt>
      <trkpt lat="47.81155" lon="-3.34427">
        <ele>89</ele>
        <time>2015-01-22T10:11:10.547Z</time>
      </trkpt>
      <trkpt lat="47.81156" lon="-3.34424">
        <ele>90</ele>
        <time>2015-01-22T10:11:11.727Z</time>
      </trkpt>
      <trkpt lat="47.8116" lon="-3.34414">
        <ele>93</ele>
        <time>2015-01-22T10:11:21.525Z</time>
      </trkpt>
      <trkpt lat="47.81159" lon="-3.3441">
        <ele>92</ele>
        <time>2015-01-22T10:11:22.523Z</time>
      </trkpt>
      <trkpt lat="47.81159" lon="-3.34398">
        <ele>94</ele>
        <time>2015-01-22T10:11:25.602Z</time>
      </trkpt>
      <trkpt lat="47.8116" lon="-3.34393">
        <ele>94</ele>
        <time>2015-01-22T10:11:26.664Z</time>
      </trkpt>
      <trkpt lat="47.81161" lon="-3.34383">
        <ele>93</ele>
        <time>2015-01-22T10:11:28.542Z</time>
      </trkpt>
      <trkpt lat="47.81161" lon="-3.34377">
        <ele>93</ele>
        <time>2015-01-22T10:11:29.572Z</time>
      </trkpt>
      <trkpt lat="47.8116" lon="-3.34367">
        <ele>91</ele>
        <time>2015-01-22T10:11:31.616Z</time>
      </trkpt>
      <trkpt lat="47.81158" lon="-3.34363">
        <ele>90</ele>
        <time>2015-01-22T10:11:32.559Z</time>
      </trkpt>
      <trkpt lat="47.81151" lon="-3.34356">
        <ele>90</ele>
        <time>2015-01-22T10:11:35.525Z</time>
      </trkpt>
      <trkpt lat="47.8115" lon="-3.34356">
        <ele>91</ele>
        <time>2015-01-22T10:11:36.547Z</time>
      </trkpt>
      <trkpt lat="47.81142" lon="-3.34357">
        <ele>87</ele>
        <time>2015-01-22T10:11:46.546Z</time>
      </trkpt>
      <trkpt lat="47.8114" lon="-3.34356">
        <ele>86</ele>
        <time>2015-01-22T10:11:47.571Z</time>
      </trkpt>
      <trkpt lat="47.81131" lon="-3.34354">
        <ele>88</ele>
        <time>2015-01-22T10:12:00.524Z</time>
      </trkpt>
      <trkpt lat="47.81131" lon="-3.34354">
        <ele>88</ele>
        <time>2015-01-22T10:12:01.615Z</time>
      </trkpt>
      <trkpt lat="47.81127" lon="-3.34365">
        <ele>98</ele>
        <time>2015-01-22T10:12:29.552Z</time>
      </trkpt>
      <trkpt lat="47.81127" lon="-3.34367">
        <ele>99</ele>
        <time>2015-01-22T10:12:30.521Z</time>
      </trkpt>
      <trkpt lat="47.81121" lon="-3.34367">
        <ele>101</ele>
        <time>2015-01-22T10:14:58.520Z</time>
      </trkpt>
      <trkpt lat="47.81118" lon="-3.34369">
        <ele>100</ele>
        <time>2015-01-22T10:14:59.521Z</time>
      </trkpt>
      <trkpt lat="47.81112" lon="-3.34375">
        <ele>98</ele>
        <time>2015-01-22T10:15:01.519Z</time>
      </trkpt>
      <trkpt lat="47.81111" lon="-3.3438">
        <ele>98</ele>
        <time>2015-01-22T10:15:02.536Z</time>
      </trkpt>
      <trkpt lat="47.8111" lon="-3.3439">
        <ele>97</ele>
        <time>2015-01-22T10:15:04.521Z</time>
      </trkpt>
      <trkpt lat="47.8111" lon="-3.34396">
        <ele>97</ele>
        <time>2015-01-22T10:15:05.592Z</time>
      </trkpt>
      <trkpt lat="47.81109" lon="-3.34407">
        <ele>97</ele>
        <time>2015-01-22T10:15:07.607Z</time>
      </trkpt>
      <trkpt lat="47.81109" lon="-3.34412">
        <ele>97</ele>
        <time>2015-01-22T10:15:08.530Z</time>
      </trkpt>
      <trkpt lat="47.81111" lon="-3.34423">
        <ele>95</ele>
        <time>2015-01-22T10:15:21.519Z</time>
      </trkpt>
      <trkpt lat="47.8111" lon="-3.34426">
        <ele>95</ele>
        <time>2015-01-22T10:15:22.515Z</time>
      </trkpt>
      <trkpt lat="47.81109" lon="-3.34438">
        <ele>95</ele>
        <time>2015-01-22T10:15:24.577Z</time>
      </trkpt>
      <trkpt lat="47.81108" lon="-3.34446">
        <ele>94</ele>
        <time>2015-01-22T10:15:25.584Z</time>
      </trkpt>
      <trkpt lat="47.81108" lon="-3.34456">
        <ele>94</ele>
        <time>2015-01-22T10:15:26.526Z</time>
      </trkpt>
      <trkpt lat="47.81109" lon="-3.34462">
        <ele>93</ele>
        <time>2015-01-22T10:15:27.600Z</time>
      </trkpt>
      <trkpt lat="47.81109" lon="-3.34474">
        <ele>94</ele>
        <time>2015-01-22T10:15:29.579Z</time>
      </trkpt>
      <trkpt lat="47.81108" lon="-3.3448">
        <ele>94</ele>
        <time>2015-01-22T10:15:30.538Z</time>
      </trkpt>
      <trkpt lat="47.81108" lon="-3.3449">
        <ele>92</ele>
        <time>2015-01-22T10:15:32.514Z</time>
      </trkpt>
      <trkpt lat="47.81109" lon="-3.34494">
        <ele>93</ele>
        <time>2015-01-22T10:15:33.511Z</time>
      </trkpt>
      <trkpt lat="47.81108" lon="-3.34506">
        <ele>94</ele>
        <time>2015-01-22T10:15:38.574Z</time>
      </trkpt>
      <trkpt lat="47.81107" lon="-3.34509">
        <ele>93</ele>
        <time>2015-01-22T10:15:39.604Z</time>
      </trkpt>
      <trkpt lat="47.811" lon="-3.34503">
        <ele>91</ele>
        <time>2015-01-22T10:15:57.592Z</time>
      </trkpt>
      <trkpt lat="47.81098" lon="-3.34502">
        <ele>92</ele>
        <time>2015-01-22T10:15:58.602Z</time>
      </trkpt>
      <trkpt lat="47.81091" lon="-3.345">
        <ele>90</ele>
        <time>2015-01-22T10:16:09.574Z</time>
      </trkpt>
      <trkpt lat="47.81089" lon="-3.345">
        <ele>90</ele>
        <time>2015-01-22T10:16:10.577Z</time>
      </trkpt>
      <trkpt lat="47.81081" lon="-3.34499">
        <ele>91</ele>
        <time>2015-01-22T10:16:13.554Z</time>
      </trkpt>
      <trkpt lat="47.81077" lon="-3.34499">
        <ele>90</ele>
        <time>2015-01-22T10:16:14.546Z</time>
      </trkpt>
      <trkpt lat="47.81069" lon="-3.345">
        <ele>92</ele>
        <time>2015-01-22T10:16:17.513Z</time>
      </trkpt>
      <trkpt lat="47.81066" lon="-3.345">
        <ele>92</ele>
        <time>2015-01-22T10:16:18.516Z</time>
      </trkpt>
      <trkpt lat="47.81058" lon="-3.34501">
        <ele>94</ele>
        <time>2015-01-22T10:16:25.711Z</time>
      </trkpt>
      <trkpt lat="47.81056" lon="-3.34501">
        <ele>95</ele>
        <time>2015-01-22T10:16:26.555Z</time>
      </trkpt>
      <trkpt lat="47.81048" lon="-3.34504">
        <ele>95</ele>
        <time>2015-01-22T10:16:30.535Z</time>
      </trkpt>
      <trkpt lat="47.81046" lon="-3.34505">
        <ele>94</ele>
        <time>2015-01-22T10:16:31.564Z</time>
      </trkpt>
      <trkpt lat="47.81039" lon="-3.34502">
        <ele>94</ele>
        <time>2015-01-22T10:16:40.544Z</time>
      </trkpt>
      <trkpt lat="47.81037" lon="-3.34502">
        <ele>94</ele>
        <time>2015-01-22T10:16:41.519Z</time>
      </trkpt>
      <trkpt lat="47.81028" lon="-3.34497">
        <ele>96</ele>
        <time>2015-01-22T10:16:57.537Z</time>
      </trkpt>
      <trkpt lat="47.81027" lon="-3.34497">
        <ele>95</ele>
        <time>2015-01-22T10:16:58.511Z</time>
      </trkpt>
      <trkpt lat="47.81028" lon="-3.34487">
        <ele>93</ele>
        <time>2015-01-22T10:17:41.520Z</time>
      </trkpt>
      <trkpt lat="47.81031" lon="-3.34484">
        <ele>94</ele>
        <time>2015-01-22T10:17:42.521Z</time>
      </trkpt>
      <trkpt lat="47.81036" lon="-3.34475">
        <ele>94</ele>
        <time>2015-01-22T10:17:44.512Z</time>
      </trkpt>
      <trkpt lat="47.81038" lon="-3.34469">
        <ele>94</ele>
        <time>2015-01-22T10:17:45.542Z</time>
      </trkpt>
      <trkpt lat="47.8104" lon="-3.34459">
        <ele>93</ele>
        <time>2015-01-22T10:17:47.514Z</time>
      </trkpt>
      <trkpt lat="47.81041" lon="-3.34454">
        <ele>94</ele>
        <time>2015-01-22T10:17:48.526Z</time>
      </trkpt>
      <trkpt lat="47.81043" lon="-3.34445">
        <ele>96</ele>
        <time>2015-01-22T10:17:50.516Z</time>
      </trkpt>
      <trkpt lat="47.81043" lon="-3.3444">
        <ele>97</ele>
        <time>2015-01-22T10:17:51.533Z</time>
      </trkpt>
      <trkpt lat="47.81043" lon="-3.3443">
        <ele>95</ele>
        <time>2015-01-22T10:17:54.529Z</time>
      </trkpt>
      <trkpt lat="47.81044" lon="-3.34426">
        <ele>94</ele>
        <time>2015-01-22T10:17:55.518Z</time>
      </trkpt>
      <trkpt lat="47.81042" lon="-3.34436">
        <ele>99</ele>
        <time>2015-01-22T10:18:13.510Z</time>
      </trkpt>
      <trkpt lat="47.81041" lon="-3.3444">
        <ele>98</ele>
        <time>2015-01-22T10:18:14.516Z</time>
      </trkpt>
      <trkpt lat="47.81045" lon="-3.34451">
        <ele>95</ele>
        <time>2015-01-22T10:18:17.518Z</time>
      </trkpt>
      <trkpt lat="47.81046" lon="-3.34453">
        <ele>95</ele>
        <time>2015-01-22T10:18:18.515Z</time>
      </trkpt>
      <trkpt lat="47.81044" lon="-3.34465">
        <ele>94</ele>
        <time>2015-01-22T10:18:31.513Z</time>
      </trkpt>
      <trkpt lat="47.81044" lon="-3.34471">
        <ele>95</ele>
        <time>2015-01-22T10:18:32.541Z</time>
      </trkpt>
      <trkpt lat="47.81046" lon="-3.34483">
        <ele>95</ele>
        <time>2015-01-22T10:18:34.506Z</time>
      </trkpt>
      <trkpt lat="47.81049" lon="-3.34487">
        <ele>98</ele>
        <time>2015-01-22T10:18:35.558Z</time>
      </trkpt>
      <trkpt lat="47.81056" lon="-3.34491">
        <ele>99</ele>
        <time>2015-01-22T10:18:37.528Z</time>
      </trkpt>
      <trkpt lat="47.8106" lon="-3.34492">
        <ele>98</ele>
        <time>2015-01-22T10:18:38.521Z</time>
      </trkpt>
      <trkpt lat="47.81069" lon="-3.34489">
        <ele>98</ele>
        <time>2015-01-22T10:18:39.516Z</time>
      </trkpt>
      <trkpt lat="47.81074" lon="-3.3449">
        <ele>97</ele>
        <time>2015-01-22T10:18:40.511Z</time>
      </trkpt>
      <trkpt lat="47.8108" lon="-3.34489">
        <ele>97</ele>
        <time>2015-01-22T10:18:41.597Z</time>
      </trkpt>
      <trkpt lat="47.81087" lon="-3.34489">
        <ele>98</ele>
        <time>2015-01-22T10:18:42.530Z</time>
      </trkpt>
      <trkpt lat="47.81094" lon="-3.34488">
        <ele>97</ele>
        <time>2015-01-22T10:18:43.514Z</time>
      </trkpt>
      <trkpt lat="47.81102" lon="-3.34487">
        <ele>97</ele>
        <time>2015-01-22T10:18:44.522Z</time>
      </trkpt>
      <trkpt lat="47.81101" lon="-3.34478">
        <ele>96</ele>
        <time>2015-01-22T10:18:45.509Z</time>
      </trkpt>
      <trkpt lat="47.81102" lon="-3.34471">
        <ele>96</ele>
        <time>2015-01-22T10:18:46.596Z</time>
      </trkpt>
      <trkpt lat="47.81103" lon="-3.34462">
        <ele>95</ele>
        <time>2015-01-22T10:18:48.533Z</time>
      </trkpt>
      <trkpt lat="47.81102" lon="-3.34456">
        <ele>95</ele>
        <time>2015-01-22T10:18:49.511Z</time>
      </trkpt>
      <trkpt lat="47.81104" lon="-3.34445">
        <ele>95</ele>
        <time>2015-01-22T10:18:59.508Z</time>
      </trkpt>
      <trkpt lat="47.81104" lon="-3.34442">
        <ele>94</ele>
        <time>2015-01-22T10:19:00.520Z</time>
      </trkpt>
      <trkpt lat="47.81106" lon="-3.34431">
        <ele>93</ele>
        <time>2015-01-22T10:19:10.538Z</time>
      </trkpt>
      <trkpt lat="47.81106" lon="-3.34428">
        <ele>95</ele>
        <time>2015-01-22T10:19:11.547Z</time>
      </trkpt>
      <trkpt lat="47.81104" lon="-3.34416">
        <ele>95</ele>
        <time>2015-01-22T10:19:16.513Z</time>
      </trkpt>
      <trkpt lat="47.81104" lon="-3.34414">
        <ele>93</ele>
        <time>2015-01-22T10:19:17.517Z</time>
      </trkpt>
      <trkpt lat="47.81103" lon="-3.34402">
        <ele>94</ele>
        <time>2015-01-22T10:19:21.556Z</time>
      </trkpt>
      <trkpt lat="47.81103" lon="-3.34399">
        <ele>95</ele>
        <time>2015-01-22T10:19:22.564Z</time>
      </trkpt>
      <trkpt lat="47.81103" lon="-3.34388">
        <ele>97</ele>
        <time>2015-01-22T10:19:27.516Z</time>
      </trkpt>
      <trkpt lat="47.81103" lon="-3.34385">
        <ele>97</ele>
        <time>2015-01-22T10:19:28.522Z</time>
      </trkpt>
      <trkpt lat="47.81102" lon="-3.34373">
        <ele>103</ele>
        <time>2015-01-22T10:19:45.516Z</time>
      </trkpt>
      <trkpt lat="47.81101" lon="-3.34371">
        <ele>103</ele>
        <time>2015-01-22T10:19:46.516Z</time>
      </trkpt>
      <trkpt lat="47.81093" lon="-3.34364">
        <ele>101</ele>
        <time>2015-01-22T10:19:50.537Z</time>
      </trkpt>
      <trkpt lat="47.8109" lon="-3.34364">
        <ele>101</ele>
        <time>2015-01-22T10:19:51.515Z</time>
      </trkpt>
      <trkpt lat="47.81082" lon="-3.34366">
        <ele>99</ele>
        <time>2015-01-22T10:19:56.508Z</time>
      </trkpt>
      <trkpt lat="47.81081" lon="-3.34366">
        <ele>99</ele>
        <time>2015-01-22T10:19:57.512Z</time>
      </trkpt>
      <trkpt lat="47.81074" lon="-3.34367">
        <ele>99</ele>
        <time>2015-01-22T10:20:00.589Z</time>
      </trkpt>
      <trkpt lat="47.81071" lon="-3.34367">
        <ele>99</ele>
        <time>2015-01-22T10:20:01.543Z</time>
      </trkpt>
      <trkpt lat="47.81063" lon="-3.34367">
        <ele>97</ele>
        <time>2015-01-22T10:20:12.525Z</time>
      </trkpt>
      <trkpt lat="47.81062" lon="-3.34366">
        <ele>96</ele>
        <time>2015-01-22T10:20:13.567Z</time>
      </trkpt>
      <trkpt lat="47.81056" lon="-3.34361">
        <ele>98</ele>
        <time>2015-01-22T10:20:26.504Z</time>
      </trkpt>
      <trkpt lat="47.81053" lon="-3.34362">
        <ele>99</ele>
        <time>2015-01-22T10:20:27.519Z</time>
      </trkpt>
      <trkpt lat="47.81045" lon="-3.34362">
        <ele>99</ele>
        <time>2015-01-22T10:20:30.536Z</time>
      </trkpt>
      <trkpt lat="47.81041" lon="-3.34362">
        <ele>99</ele>
        <time>2015-01-22T10:20:31.719Z</time>
      </trkpt>
      <trkpt lat="47.81033" lon="-3.34362">
        <ele>99</ele>
        <time>2015-01-22T10:20:34.520Z</time>
      </trkpt>
      <trkpt lat="47.8103" lon="-3.34362">
        <ele>99</ele>
        <time>2015-01-22T10:20:35.554Z</time>
      </trkpt>
      <trkpt lat="47.81022" lon="-3.34367">
        <ele>100</ele>
        <time>2015-01-22T10:20:43.517Z</time>
      </trkpt>
      <trkpt lat="47.8102" lon="-3.34368">
        <ele>100</ele>
        <time>2015-01-22T10:20:44.510Z</time>
      </trkpt>
      <trkpt lat="47.81011" lon="-3.34371">
        <ele>99</ele>
        <time>2015-01-22T10:20:47.614Z</time>
      </trkpt>
      <trkpt lat="47.81009" lon="-3.34373">
        <ele>100</ele>
        <time>2015-01-22T10:20:48.517Z</time>
      </trkpt>
      <trkpt lat="47.81002" lon="-3.34382">
        <ele>103</ele>
        <time>2015-01-22T10:20:51.516Z</time>
      </trkpt>
      <trkpt lat="47.81001" lon="-3.34385">
        <ele>104</ele>
        <time>2015-01-22T10:20:52.526Z</time>
      </trkpt>
      <trkpt lat="47.80999" lon="-3.34395">
        <ele>104</ele>
        <time>2015-01-22T10:21:06.582Z</time>
      </trkpt>
      <trkpt lat="47.80999" lon="-3.34398">
        <ele>103</ele>
        <time>2015-01-22T10:21:07.548Z</time>
      </trkpt>
      <trkpt lat="47.80997" lon="-3.34409">
        <ele>99</ele>
        <time>2015-01-22T10:21:12.517Z</time>
      </trkpt>
      <trkpt lat="47.80996" lon="-3.34412">
        <ele>99</ele>
        <time>2015-01-22T10:21:13.505Z</time>
      </trkpt>
      <trkpt lat="47.80989" lon="-3.34417">
        <ele>103</ele>
        <time>2015-01-22T10:21:26.595Z</time>
      </trkpt>
      <trkpt lat="47.80987" lon="-3.34417">
        <ele>103</ele>
        <time>2015-01-22T10:21:27.579Z</time>
      </trkpt>
      <trkpt lat="47.80982" lon="-3.34428">
        <ele>101</ele>
        <time>2015-01-22T10:21:40.545Z</time>
      </trkpt>
      <trkpt lat="47.80983" lon="-3.34431">
        <ele>101</ele>
        <time>2015-01-22T10:21:41.515Z</time>
      </trkpt>
      <trkpt lat="47.80974" lon="-3.34434">
        <ele>99</ele>
        <time>2015-01-22T10:21:50.527Z</time>
      </trkpt>
      <trkpt lat="47.80974" lon="-3.34435">
        <ele>99</ele>
        <time>2015-01-22T10:21:51.558Z</time>
      </trkpt>
      <trkpt lat="47.80979" lon="-3.34446">
        <ele>98</ele>
        <time>2015-01-22T10:22:06.516Z</time>
      </trkpt>
      <trkpt lat="47.80979" lon="-3.34449">
        <ele>97</ele>
        <time>2015-01-22T10:22:07.555Z</time>
      </trkpt>
      <trkpt lat="47.8098" lon="-3.34461">
        <ele>97</ele>
        <time>2015-01-22T10:22:17.516Z</time>
      </trkpt>
      <trkpt lat="47.80979" lon="-3.34463">
        <ele>97</ele>
        <time>2015-01-22T10:22:18.558Z</time>
      </trkpt>
      <trkpt lat="47.80975" lon="-3.34473">
        <ele>98</ele>
        <time>2015-01-22T10:22:24.524Z</time>
      </trkpt>
      <trkpt lat="47.80974" lon="-3.34474">
        <ele>97</ele>
        <time>2015-01-22T10:22:25.506Z</time>
      </trkpt>
      <trkpt lat="47.80969" lon="-3.34482">
        <ele>97</ele>
        <time>2015-01-22T10:22:28.515Z</time>
      </trkpt>
      <trkpt lat="47.80968" lon="-3.34486">
        <ele>97</ele>
        <time>2015-01-22T10:22:29.515Z</time>
      </trkpt>
      <trkpt lat="47.80965" lon="-3.34496">
        <ele>98</ele>
        <time>2015-01-22T10:22:31.634Z</time>
      </trkpt>
      <trkpt lat="47.80964" lon="-3.345">
        <ele>97</ele>
        <time>2015-01-22T10:22:32.505Z</time>
      </trkpt>
      <trkpt lat="47.8096" lon="-3.34511">
        <ele>97</ele>
        <time>2015-01-22T10:22:38.515Z</time>
      </trkpt>
      <trkpt lat="47.80959" lon="-3.34514">
        <ele>97</ele>
        <time>2015-01-22T10:22:39.583Z</time>
      </trkpt>
      <trkpt lat="47.80956" lon="-3.34525">
        <ele>96</ele>
        <time>2015-01-22T10:22:41.590Z</time>
      </trkpt>
      <trkpt lat="47.80953" lon="-3.34531">
        <ele>97</ele>
        <time>2015-01-22T10:22:42.556Z</time>
      </trkpt>
      <trkpt lat="47.80951" lon="-3.34542">
        <ele>96</ele>
        <time>2015-01-22T10:22:44.530Z</time>
      </trkpt>
      <trkpt lat="47.80951" lon="-3.34547">
        <ele>95</ele>
        <time>2015-01-22T10:22:45.513Z</time>
      </trkpt>
      <trkpt lat="47.80954" lon="-3.34558">
        <ele>96</ele>
        <time>2015-01-22T10:22:47.517Z</time>
      </trkpt>
      <trkpt lat="47.80957" lon="-3.34561">
        <ele>96</ele>
        <time>2015-01-22T10:22:48.513Z</time>
      </trkpt>
      <trkpt lat="47.80965" lon="-3.34566">
        <ele>97</ele>
        <time>2015-01-22T10:22:51.514Z</time>
      </trkpt>
      <trkpt lat="47.80967" lon="-3.34567">
        <ele>96</ele>
        <time>2015-01-22T10:22:52.512Z</time>
      </trkpt>
      <trkpt lat="47.80975" lon="-3.34571">
        <ele>92</ele>
        <time>2015-01-22T10:23:17.513Z</time>
      </trkpt>
      <trkpt lat="47.80977" lon="-3.34571">
        <ele>92</ele>
        <time>2015-01-22T10:23:18.512Z</time>
      </trkpt>
      <trkpt lat="47.80984" lon="-3.3457">
        <ele>94</ele>
        <time>2015-01-22T10:23:21.513Z</time>
      </trkpt>
      <trkpt lat="47.80986" lon="-3.3457">
        <ele>95</ele>
        <time>2015-01-22T10:23:22.512Z</time>
      </trkpt>
      <trkpt lat="47.80995" lon="-3.3457">
        <ele>96</ele>
        <time>2015-01-22T10:23:35.659Z</time>
      </trkpt>
      <trkpt lat="47.80997" lon="-3.34573">
        <ele>99</ele>
        <time>2015-01-22T10:23:36.512Z</time>
      </trkpt>
      <trkpt lat="47.80999" lon="-3.34584">
        <ele>96</ele>
        <time>2015-01-22T10:23:45.512Z</time>
      </trkpt>
      <trkpt lat="47.80999" lon="-3.34588">
        <ele>95</ele>
        <time>2015-01-22T10:23:46.515Z</time>
      </trkpt>
      <trkpt lat="47.81002" lon="-3.34597">
        <ele>93</ele>
        <time>2015-01-22T10:23:48.514Z</time>
      </trkpt>
      <trkpt lat="47.81005" lon="-3.346">
        <ele>92</ele>
        <time>2015-01-22T10:23:49.513Z</time>
      </trkpt>
      <trkpt lat="47.8101" lon="-3.34608">
        <ele>91</ele>
        <time>2015-01-22T10:23:51.659Z</time>
      </trkpt>
      <trkpt lat="47.81013" lon="-3.34612">
        <ele>91</ele>
        <time>2015-01-22T10:23:52.590Z</time>
      </trkpt>
      <trkpt lat="47.8102" lon="-3.34617">
        <ele>92</ele>
        <time>2015-01-22T10:23:54.556Z</time>
      </trkpt>
      <trkpt lat="47.81025" lon="-3.3462">
        <ele>92</ele>
        <time>2015-01-22T10:23:55.579Z</time>
      </trkpt>
      <trkpt lat="47.81033" lon="-3.34622">
        <ele>91</ele>
        <time>2015-01-22T10:23:57.603Z</time>
      </trkpt>
      <trkpt lat="47.81036" lon="-3.34622">
        <ele>91</ele>
        <time>2015-01-22T10:23:58.517Z</time>
      </trkpt>
      <trkpt lat="47.8103" lon="-3.34615">
        <ele>90</ele>
        <time>2015-01-22T10:24:33.516Z</time>
      </trkpt>
      <trkpt lat="47.81028" lon="-3.34614">
        <ele>89</ele>
        <time>2015-01-22T10:24:34.678Z</time>
      </trkpt>
      <trkpt lat="47.81019" lon="-3.34613">
        <ele>92</ele>
        <time>2015-01-22T10:24:47.507Z</time>
      </trkpt>
      <trkpt lat="47.81017" lon="-3.34611">
        <ele>92</ele>
        <time>2015-01-22T10:24:48.504Z</time>
      </trkpt>
      <trkpt lat="47.8101" lon="-3.34604">
        <ele>93</ele>
        <time>2015-01-22T10:24:51.514Z</time>
      </trkpt>
      <trkpt lat="47.81007" lon="-3.34604">
        <ele>92</ele>
        <time>2015-01-22T10:24:52.508Z</time>
      </trkpt>
      <trkpt lat="47.80999" lon="-3.34603">
        <ele>93</ele>
        <time>2015-01-22T10:24:54.515Z</time>
      </trkpt>
      <trkpt lat="47.80995" lon="-3.34602">
        <ele>93</ele>
        <time>2015-01-22T10:24:55.518Z</time>
      </trkpt>
      <trkpt lat="47.80988" lon="-3.34602">
        <ele>92</ele>
        <time>2015-01-22T10:24:57.505Z</time>
      </trkpt>
      <trkpt lat="47.80986" lon="-3.34602">
        <ele>92</ele>
        <time>2015-01-22T10:24:58.503Z</time>
      </trkpt>
      <trkpt lat="47.80982" lon="-3.34596">
        <ele>93</ele>
        <time>2015-01-22T10:25:06.506Z</time>
      </trkpt>
      <trkpt lat="47.80978" lon="-3.34593">
        <ele>94</ele>
        <time>2015-01-22T10:25:07.510Z</time>
      </trkpt>
      <trkpt lat="47.80971" lon="-3.34588">
        <ele>96</ele>
        <time>2015-01-22T10:25:09.514Z</time>
      </trkpt>
      <trkpt lat="47.80968" lon="-3.34585">
        <ele>96</ele>
        <time>2015-01-22T10:25:10.513Z</time>
      </trkpt>
      <trkpt lat="47.80964" lon="-3.34577">
        <ele>98</ele>
        <time>2015-01-22T10:25:24.505Z</time>
      </trkpt>
      <trkpt lat="47.80962" lon="-3.34576">
        <ele>97</ele>
        <time>2015-01-22T10:25:25.512Z</time>
      </trkpt>
      <trkpt lat="47.80956" lon="-3.34571">
        <ele>97</ele>
        <time>2015-01-22T10:25:27.503Z</time>
      </trkpt>
      <trkpt lat="47.80953" lon="-3.34569">
        <ele>97</ele>
        <time>2015-01-22T10:25:28.519Z</time>
      </trkpt>
      <trkpt lat="47.80945" lon="-3.34571">
        <ele>97</ele>
        <time>2015-01-22T10:25:52.515Z</time>
      </trkpt>
      <trkpt lat="47.80944" lon="-3.34573">
        <ele>97</ele>
        <time>2015-01-22T10:25:53.516Z</time>
      </trkpt>
      <trkpt lat="47.80941" lon="-3.34583">
        <ele>96</ele>
        <time>2015-01-22T10:25:57.513Z</time>
      </trkpt>
      <trkpt lat="47.80938" lon="-3.34584">
        <ele>96</ele>
        <time>2015-01-22T10:25:58.583Z</time>
      </trkpt>
      <trkpt lat="47.80932" lon="-3.34575">
        <ele>94</ele>
        <time>2015-01-22T10:26:17.515Z</time>
      </trkpt>
      <trkpt lat="47.80933" lon="-3.34571">
        <ele>93</ele>
        <time>2015-01-22T10:26:18.572Z</time>
      </trkpt>
      <trkpt lat="47.80937" lon="-3.34561">
        <ele>94</ele>
        <time>2015-01-22T10:26:21.531Z</time>
      </trkpt>
      <trkpt lat="47.80938" lon="-3.34558">
        <ele>94</ele>
        <time>2015-01-22T10:26:22.505Z</time>
      </trkpt>
      <trkpt lat="47.80941" lon="-3.34546">
        <ele>93</ele>
        <time>2015-01-22T10:26:32.571Z</time>
      </trkpt>
      <trkpt lat="47.80942" lon="-3.34544">
        <ele>93</ele>
        <time>2015-01-22T10:26:33.579Z</time>
      </trkpt>
      <trkpt lat="47.80948" lon="-3.34538">
        <ele>95</ele>
        <time>2015-01-22T10:26:45.509Z</time>
      </trkpt>
      <trkpt lat="47.80949" lon="-3.34535">
        <ele>94</ele>
        <time>2015-01-22T10:26:46.667Z</time>
      </trkpt>
      <trkpt lat="47.80952" lon="-3.34524">
        <ele>95</ele>
        <time>2015-01-22T10:26:49.521Z</time>
      </trkpt>
      <trkpt lat="47.80952" lon="-3.34521">
        <ele>94</ele>
        <time>2015-01-22T10:26:50.513Z</time>
      </trkpt>
      <trkpt lat="47.80954" lon="-3.34508">
        <ele>94</ele>
        <time>2015-01-22T10:27:02.509Z</time>
      </trkpt>
      <trkpt lat="47.80955" lon="-3.34504">
        <ele>95</ele>
        <time>2015-01-22T10:27:03.497Z</time>
      </trkpt>
      <trkpt lat="47.80959" lon="-3.34492">
        <ele>97</ele>
        <time>2015-01-22T10:27:12.513Z</time>
      </trkpt>
      <trkpt lat="47.80959" lon="-3.34492">
        <ele>98</ele>
        <time>2015-01-22T10:27:13.508Z</time>
      </trkpt>
      <trkpt lat="47.80962" lon="-3.3448">
        <ele>94</ele>
        <time>2015-01-22T10:27:43.569Z</time>
      </trkpt>
      <trkpt lat="47.8096" lon="-3.34476">
        <ele>94</ele>
        <time>2015-01-22T10:27:44.570Z</time>
      </trkpt>
      <trkpt lat="47.80956" lon="-3.3447">
        <ele>95</ele>
        <time>2015-01-22T10:27:46.581Z</time>
      </trkpt>
      <trkpt lat="47.80952" lon="-3.34467">
        <ele>95</ele>
        <time>2015-01-22T10:27:47.563Z</time>
      </trkpt>
      <trkpt lat="47.80946" lon="-3.34462">
        <ele>94</ele>
        <time>2015-01-22T10:27:49.509Z</time>
      </trkpt>
      <trkpt lat="47.80943" lon="-3.3446">
        <ele>93</ele>
        <time>2015-01-22T10:27:50.529Z</time>
      </trkpt>
      <trkpt lat="47.80936" lon="-3.34456">
        <ele>93</ele>
        <time>2015-01-22T10:27:52.660Z</time>
      </trkpt>
      <trkpt lat="47.80933" lon="-3.34454">
        <ele>93</ele>
        <time>2015-01-22T10:27:53.589Z</time>
      </trkpt>
      <trkpt lat="47.80927" lon="-3.34449">
        <ele>93</ele>
        <time>2015-01-22T10:27:55.572Z</time>
      </trkpt>
      <trkpt lat="47.80924" lon="-3.34447">
        <ele>93</ele>
        <time>2015-01-22T10:27:56.523Z</time>
      </trkpt>
      <trkpt lat="47.80916" lon="-3.3445">
        <ele>93</ele>
        <time>2015-01-22T10:27:59.570Z</time>
      </trkpt>
      <trkpt lat="47.80916" lon="-3.34452">
        <ele>94</ele>
        <time>2015-01-22T10:28:00.509Z</time>
      </trkpt>
      <trkpt lat="47.80921" lon="-3.34443">
        <ele>95</ele>
        <time>2015-01-22T10:28:26.509Z</time>
      </trkpt>
      <trkpt lat="47.80922" lon="-3.34439">
        <ele>95</ele>
        <time>2015-01-22T10:28:27.511Z</time>
      </trkpt>
      <trkpt lat="47.80919" lon="-3.3443">
        <ele>96</ele>
        <time>2015-01-22T10:28:30.509Z</time>
      </trkpt>
      <trkpt lat="47.80916" lon="-3.34428">
        <ele>95</ele>
        <time>2015-01-22T10:28:31.510Z</time>
      </trkpt>
      <trkpt lat="47.80909" lon="-3.34428">
        <ele>92</ele>
        <time>2015-01-22T10:28:44.514Z</time>
      </trkpt>
      <trkpt lat="47.80907" lon="-3.34429">
        <ele>92</ele>
        <time>2015-01-22T10:28:45.506Z</time>
      </trkpt>
      <trkpt lat="47.809" lon="-3.34428">
        <ele>93</ele>
        <time>2015-01-22T10:28:47.501Z</time>
      </trkpt>
      <trkpt lat="47.80896" lon="-3.34426">
        <ele>93</ele>
        <time>2015-01-22T10:28:48.499Z</time>
      </trkpt>
      <trkpt lat="47.80889" lon="-3.34421">
        <ele>91</ele>
        <time>2015-01-22T10:28:50.513Z</time>
      </trkpt>
      <trkpt lat="47.80885" lon="-3.34419">
        <ele>91</ele>
        <time>2015-01-22T10:28:51.508Z</time>
      </trkpt>
      <trkpt lat="47.80877" lon="-3.34412">
        <ele>93</ele>
        <time>2015-01-22T10:28:53.511Z</time>
      </trkpt>
      <trkpt lat="47.80874" lon="-3.34408">
        <ele>93</ele>
        <time>2015-01-22T10:28:54.515Z</time>
      </trkpt>
      <trkpt lat="47.80881" lon="-3.34405">
        <ele>96</ele>
        <time>2015-01-22T10:29:10.509Z</time>
      </trkpt>
      <trkpt lat="47.80884" lon="-3.34407">
        <ele>97</ele>
        <time>2015-01-22T10:29:11.505Z</time>
      </trkpt>
      <trkpt lat="47.80892" lon="-3.34408">
        <ele>95</ele>
        <time>2015-01-22T10:29:14.507Z</time>
      </trkpt>
      <trkpt lat="47.80895" lon="-3.34407">
        <ele>94</ele>
        <time>2015-01-22T10:29:15.501Z</time>
      </trkpt>
      <trkpt lat="47.80901" lon="-3.34398">
        <ele>94</ele>
        <time>2015-01-22T10:29:18.509Z</time>
      </trkpt>
      <trkpt lat="47.80904" lon="-3.34396">
        <ele>95</ele>
        <time>2015-01-22T10:29:19.509Z</time>
      </trkpt>
      <trkpt lat="47.80911" lon="-3.34391">
        <ele>96</ele>
        <time>2015-01-22T10:29:22.558Z</time>
      </trkpt>
      <trkpt lat="47.80912" lon="-3.34391">
        <ele>95</ele>
        <time>2015-01-22T10:29:23.533Z</time>
      </trkpt>
      <trkpt lat="47.80921" lon="-3.3439">
        <ele>97</ele>
        <time>2015-01-22T10:29:40.512Z</time>
      </trkpt>
      <trkpt lat="47.80923" lon="-3.34387">
        <ele>96</ele>
        <time>2015-01-22T10:29:41.510Z</time>
      </trkpt>
      <trkpt lat="47.80931" lon="-3.34385">
        <ele>98</ele>
        <time>2015-01-22T10:30:05.565Z</time>
      </trkpt>
      <trkpt lat="47.80931" lon="-3.34385">
        <ele>97</ele>
        <time>2015-01-22T10:30:06.512Z</time>
      </trkpt>
      <trkpt lat="47.8094" lon="-3.34382">
        <ele>94</ele>
        <time>2015-01-22T10:30:13.522Z</time>
      </trkpt>
      <trkpt lat="47.80941" lon="-3.34381">
        <ele>94</ele>
        <time>2015-01-22T10:30:14.505Z</time>
      </trkpt>
      <trkpt lat="47.80933" lon="-3.34379">
        <ele>91</ele>
        <time>2015-01-22T10:30:22.524Z</time>
      </trkpt>
      <trkpt lat="47.80931" lon="-3.34379">
        <ele>91</ele>
        <time>2015-01-22T10:30:23.509Z</time>
      </trkpt>
      <trkpt lat="47.80933" lon="-3.34367">
        <ele>93</ele>
        <time>2015-01-22T10:30:39.512Z</time>
      </trkpt>
      <trkpt lat="47.80935" lon="-3.34365">
        <ele>93</ele>
        <time>2015-01-22T10:30:40.513Z</time>
      </trkpt>
      <trkpt lat="47.80941" lon="-3.34361">
        <ele>92</ele>
        <time>2015-01-22T10:30:42.511Z</time>
      </trkpt>
      <trkpt lat="47.80944" lon="-3.34359">
        <ele>92</ele>
        <time>2015-01-22T10:30:43.512Z</time>
      </trkpt>
      <trkpt lat="47.80952" lon="-3.34354">
        <ele>92</ele>
        <time>2015-01-22T10:30:46.511Z</time>
      </trkpt>
      <trkpt lat="47.80954" lon="-3.34353">
        <ele>91</ele>
        <time>2015-01-22T10:30:47.514Z</time>
      </trkpt>
      <trkpt lat="47.80963" lon="-3.34348">
        <ele>90</ele>
        <time>2015-01-22T10:30:54.516Z</time>
      </trkpt>
      <trkpt lat="47.80965" lon="-3.34347">
        <ele>90</ele>
        <time>2015-01-22T10:30:55.506Z</time>
      </trkpt>
      <trkpt lat="47.80971" lon="-3.34356">
        <ele>96</ele>
        <time>2015-01-22T10:31:12.546Z</time>
      </trkpt>
      <trkpt lat="47.80971" lon="-3.34358">
        <ele>96</ele>
        <time>2015-01-22T10:31:13.548Z</time>
      </trkpt>
      <trkpt lat="47.80975" lon="-3.34346">
        <ele>100</ele>
        <time>2015-01-22T10:31:49.512Z</time>
      </trkpt>
      <trkpt lat="47.80977" lon="-3.34346">
        <ele>100</ele>
        <time>2015-01-22T10:31:50.523Z</time>
      </trkpt>
      <trkpt lat="47.80986" lon="-3.34345">
        <ele>101</ele>
        <time>2015-01-22T10:31:52.512Z</time>
      </trkpt>
      <trkpt lat="47.80989" lon="-3.34345">
        <ele>102</ele>
        <time>2015-01-22T10:31:53.496Z</time>
      </trkpt>
      <trkpt lat="47.80997" lon="-3.34347">
        <ele>104</ele>
        <time>2015-01-22T10:32:03.700Z</time>
      </trkpt>
      <trkpt lat="47.81" lon="-3.34347">
        <ele>103</ele>
        <time>2015-01-22T10:32:04.496Z</time>
      </trkpt>
      <trkpt lat="47.81006" lon="-3.34347">
        <ele>102</ele>
        <time>2015-01-22T10:32:06.526Z</time>
      </trkpt>
      <trkpt lat="47.81009" lon="-3.34345">
        <ele>98</ele>
        <time>2015-01-22T10:32:07.527Z</time>
      </trkpt>
      <trkpt lat="47.81017" lon="-3.34339">
        <ele>102</ele>
        <time>2015-01-22T10:32:10.513Z</time>
      </trkpt>
      <trkpt lat="47.81018" lon="-3.34338">
        <ele>103</ele>
        <time>2015-01-22T10:32:11.800Z</time>
      </trkpt>
      <trkpt lat="47.81018" lon="-3.34327">
        <ele>101</ele>
        <time>2015-01-22T10:32:24.500Z</time>
      </trkpt>
      <trkpt lat="47.81019" lon="-3.34324">
        <ele>101</ele>
        <time>2015-01-22T10:32:25.500Z</time>
      </trkpt>
      <trkpt lat="47.81019" lon="-3.34311">
        <ele>99</ele>
        <time>2015-01-22T10:32:29.500Z</time>
      </trkpt>
      <trkpt lat="47.81016" lon="-3.3431">
        <ele>100</ele>
        <time>2015-01-22T10:32:30.520Z</time>
      </trkpt>
      <trkpt lat="47.81013" lon="-3.34321">
        <ele>103</ele>
        <time>2015-01-22T10:32:42.508Z</time>
      </trkpt>
      <trkpt lat="47.81013" lon="-3.34323">
        <ele>102</ele>
        <time>2015-01-22T10:32:43.509Z</time>
      </trkpt>
      <trkpt lat="47.81018" lon="-3.34313">
        <ele>103</ele>
        <time>2015-01-22T10:32:59.509Z</time>
      </trkpt>
      <trkpt lat="47.8102" lon="-3.34313">
        <ele>102</ele>
        <time>2015-01-22T10:33:00.507Z</time>
      </trkpt>
      <trkpt lat="47.81026" lon="-3.34304">
        <ele>100</ele>
        <time>2015-01-22T10:33:04.507Z</time>
      </trkpt>
      <trkpt lat="47.81026" lon="-3.34301">
        <ele>101</ele>
        <time>2015-01-22T10:33:05.506Z</time>
      </trkpt>
      <trkpt lat="47.81028" lon="-3.34289">
        <ele>103</ele>
        <time>2015-01-22T10:33:10.500Z</time>
      </trkpt>
      <trkpt lat="47.81028" lon="-3.34288">
        <ele>103</ele>
        <time>2015-01-22T10:33:11.525Z</time>
      </trkpt>
      <trkpt lat="47.81033" lon="-3.34276">
        <ele>105</ele>
        <time>2015-01-22T10:33:19.507Z</time>
      </trkpt>
      <trkpt lat="47.81033" lon="-3.34273">
        <ele>105</ele>
        <time>2015-01-22T10:33:20.511Z</time>
      </trkpt>
      <trkpt lat="47.81031" lon="-3.3426">
        <ele>102</ele>
        <time>2015-01-22T10:33:24.508Z</time>
      </trkpt>
      <trkpt lat="47.81031" lon="-3.34258">
        <ele>104</ele>
        <time>2015-01-22T10:33:25.510Z</time>
      </trkpt>
      <trkpt lat="47.81031" lon="-3.34248">
        <ele>103</ele>
        <time>2015-01-22T10:33:28.504Z</time>
      </trkpt>
      <trkpt lat="47.81031" lon="-3.34244">
        <ele>105</ele>
        <time>2015-01-22T10:33:29.507Z</time>
      </trkpt>
      <trkpt lat="47.81031" lon="-3.34233">
        <ele>104</ele>
        <time>2015-01-22T10:33:32.507Z</time>
      </trkpt>
      <trkpt lat="47.81032" lon="-3.34229">
        <ele>105</ele>
        <time>2015-01-22T10:33:33.509Z</time>
      </trkpt>
      <trkpt lat="47.81033" lon="-3.34216">
        <ele>102</ele>
        <time>2015-01-22T10:33:36.510Z</time>
      </trkpt>
      <trkpt lat="47.81033" lon="-3.34211">
        <ele>104</ele>
        <time>2015-01-22T10:33:37.507Z</time>
      </trkpt>
      <trkpt lat="47.81037" lon="-3.342">
        <ele>104</ele>
        <time>2015-01-22T10:33:40.499Z</time>
      </trkpt>
      <trkpt lat="47.8104" lon="-3.34198">
        <ele>105</ele>
        <time>2015-01-22T10:33:41.510Z</time>
      </trkpt>
      <trkpt lat="47.81046" lon="-3.34197">
        <ele>104</ele>
        <time>2015-01-22T10:33:43.502Z</time>
      </trkpt>
      <trkpt lat="47.81049" lon="-3.34198">
        <ele>105</ele>
        <time>2015-01-22T10:33:44.510Z</time>
      </trkpt>
      <trkpt lat="47.8104" lon="-3.34198">
        <ele>104</ele>
        <time>2015-01-22T10:36:53.519Z</time>
      </trkpt>
      <trkpt lat="47.81038" lon="-3.34199">
        <ele>104</ele>
        <time>2015-01-22T10:36:54.581Z</time>
      </trkpt>
      <trkpt lat="47.8103" lon="-3.34202">
        <ele>102</ele>
        <time>2015-01-22T10:36:58.570Z</time>
      </trkpt>
      <trkpt lat="47.81028" lon="-3.34205">
        <ele>103</ele>
        <time>2015-01-22T10:36:59.584Z</time>
      </trkpt>
      <trkpt lat="47.81027" lon="-3.34217">
        <ele>101</ele>
        <time>2015-01-22T10:37:02.507Z</time>
      </trkpt>
      <trkpt lat="47.81027" lon="-3.34222">
        <ele>101</ele>
        <time>2015-01-22T10:37:03.504Z</time>
      </trkpt>
      <trkpt lat="47.81028" lon="-3.34232">
        <ele>103</ele>
        <time>2015-01-22T10:37:05.505Z</time>
      </trkpt>
      <trkpt lat="47.81028" lon="-3.34237">
        <ele>103</ele>
        <time>2015-01-22T10:37:06.503Z</time>
      </trkpt>
      <trkpt lat="47.8103" lon="-3.34249">
        <ele>102</ele>
        <time>2015-01-22T10:37:46.504Z</time>
      </trkpt>
      <trkpt lat="47.8103" lon="-3.3425">
        <ele>102</ele>
        <time>2015-01-22T10:37:47.501Z</time>
      </trkpt>
      <trkpt lat="47.81022" lon="-3.34252">
        <ele>106</ele>
        <time>2015-01-22T10:37:53.500Z</time>
      </trkpt>
      <trkpt lat="47.81019" lon="-3.34252">
        <ele>107</ele>
        <time>2015-01-22T10:37:54.502Z</time>
      </trkpt>
      <trkpt lat="47.81012" lon="-3.34247">
        <ele>105</ele>
        <time>2015-01-22T10:37:57.560Z</time>
      </trkpt>
      <trkpt lat="47.81011" lon="-3.34244">
        <ele>105</ele>
        <time>2015-01-22T10:37:58.505Z</time>
      </trkpt>
      <trkpt lat="47.81002" lon="-3.34245">
        <ele>103</ele>
        <time>2015-01-22T10:38:22.502Z</time>
      </trkpt>
      <trkpt lat="47.81002" lon="-3.34245">
        <ele>103</ele>
        <time>2015-01-22T10:38:23.502Z</time>
      </trkpt>
      <trkpt lat="47.80993" lon="-3.34243">
        <ele>104</ele>
        <time>2015-01-22T10:38:59.523Z</time>
      </trkpt>
      <trkpt lat="47.80992" lon="-3.34243">
        <ele>104</ele>
        <time>2015-01-22T10:39:00.539Z</time>
      </trkpt>
      <trkpt lat="47.80987" lon="-3.34254">
        <ele>103</ele>
        <time>2015-01-22T10:39:15.502Z</time>
      </trkpt>
      <trkpt lat="47.80987" lon="-3.34256">
        <ele>102</ele>
        <time>2015-01-22T10:39:16.527Z</time>
      </trkpt>
      <trkpt lat="47.80984" lon="-3.34267">
        <ele>102</ele>
        <time>2015-01-22T10:39:21.502Z</time>
      </trkpt>
      <trkpt lat="47.80983" lon="-3.34269">
        <ele>101</ele>
        <time>2015-01-22T10:39:22.502Z</time>
      </trkpt>
      <trkpt lat="47.80975" lon="-3.34267">
        <ele>98</ele>
        <time>2015-01-22T10:40:17.500Z</time>
      </trkpt>
      <trkpt lat="47.80973" lon="-3.34268">
        <ele>97</ele>
        <time>2015-01-22T10:40:18.500Z</time>
      </trkpt>
      <trkpt lat="47.80966" lon="-3.3427">
        <ele>101</ele>
        <time>2015-01-22T10:42:31.496Z</time>
      </trkpt>
      <trkpt lat="47.80964" lon="-3.3427">
        <ele>101</ele>
        <time>2015-01-22T10:42:32.494Z</time>
      </trkpt>
      <trkpt lat="47.80957" lon="-3.34276">
        <ele>100</ele>
        <time>2015-01-22T10:42:49.496Z</time>
      </trkpt>
      <trkpt lat="47.80955" lon="-3.34278">
        <ele>100</ele>
        <time>2015-01-22T10:42:50.499Z</time>
      </trkpt>
      <trkpt lat="47.80949" lon="-3.34282">
        <ele>99</ele>
        <time>2015-01-22T10:42:52.500Z</time>
      </trkpt>
      <trkpt lat="47.80946" lon="-3.34284">
        <ele>99</ele>
        <time>2015-01-22T10:42:53.498Z</time>
      </trkpt>
      <trkpt lat="47.80939" lon="-3.3429">
        <ele>96</ele>
        <time>2015-01-22T10:43:01.497Z</time>
      </trkpt>
      <trkpt lat="47.80937" lon="-3.34291">
        <ele>97</ele>
        <time>2015-01-22T10:43:02.498Z</time>
      </trkpt>
      <trkpt lat="47.8093" lon="-3.34296">
        <ele>96</ele>
        <time>2015-01-22T10:43:05.500Z</time>
      </trkpt>
      <trkpt lat="47.80928" lon="-3.34297">
        <ele>95</ele>
        <time>2015-01-22T10:43:06.501Z</time>
      </trkpt>
      <trkpt lat="47.80921" lon="-3.34305">
        <ele>96</ele>
        <time>2015-01-22T10:43:18.497Z</time>
      </trkpt>
      <trkpt lat="47.80919" lon="-3.34307">
        <ele>97</ele>
        <time>2015-01-22T10:43:19.499Z</time>
      </trkpt>
      <trkpt lat="47.80911" lon="-3.34313">
        <ele>96</ele>
        <time>2015-01-22T10:43:22.498Z</time>
      </trkpt>
      <trkpt lat="47.80909" lon="-3.34315">
        <ele>96</ele>
        <time>2015-01-22T10:43:23.500Z</time>
      </trkpt>
      <trkpt lat="47.80902" lon="-3.3432">
        <ele>95</ele>
        <time>2015-01-22T10:43:32.498Z</time>
      </trkpt>
      <trkpt lat="47.80899" lon="-3.34323">
        <ele>94</ele>
        <time>2015-01-22T10:43:33.500Z</time>
      </trkpt>
      <trkpt lat="47.80893" lon="-3.3433">
        <ele>95</ele>
        <time>2015-01-22T10:43:39.497Z</time>
      </trkpt>
      <trkpt lat="47.80892" lon="-3.34331">
        <ele>95</ele>
        <time>2015-01-22T10:43:40.496Z</time>
      </trkpt>
      <trkpt lat="47.80884" lon="-3.34336">
        <ele>93</ele>
        <time>2015-01-22T10:43:43.496Z</time>
      </trkpt>
      <trkpt lat="47.80883" lon="-3.34338">
        <ele>92</ele>
        <time>2015-01-22T10:43:44.497Z</time>
      </trkpt>
      <trkpt lat="47.80875" lon="-3.34342">
        <ele>92</ele>
        <time>2015-01-22T10:43:56.497Z</time>
      </trkpt>
      <trkpt lat="47.80872" lon="-3.34344">
        <ele>92</ele>
        <time>2015-01-22T10:43:57.495Z</time>
      </trkpt>
      <trkpt lat="47.80864" lon="-3.34349">
        <ele>92</ele>
        <time>2015-01-22T10:44:00.498Z</time>
      </trkpt>
      <trkpt lat="47.80862" lon="-3.3435">
        <ele>92</ele>
        <time>2015-01-22T10:44:01.497Z</time>
      </trkpt>
      <trkpt lat="47.80854" lon="-3.34354">
        <ele>91</ele>
        <time>2015-01-22T10:44:08.497Z</time>
      </trkpt>
      <trkpt lat="47.8085" lon="-3.34356">
        <ele>90</ele>
        <time>2015-01-22T10:44:09.496Z</time>
      </trkpt>
      <trkpt lat="47.80847" lon="-3.3436">
        <ele>90</ele>
        <time>2015-01-22T10:44:10.497Z</time>
      </trkpt>
      <trkpt lat="47.80843" lon="-3.34365">
        <ele>90</ele>
        <time>2015-01-22T10:44:11.500Z</time>
      </trkpt>
      <trkpt lat="47.80841" lon="-3.34371">
        <ele>89</ele>
        <time>2015-01-22T10:44:12.495Z</time>
      </trkpt>
      <trkpt lat="47.80839" lon="-3.34379">
        <ele>90</ele>
        <time>2015-01-22T10:44:13.497Z</time>
      </trkpt>
      <trkpt lat="47.80832" lon="-3.34384">
        <ele>89</ele>
        <time>2015-01-22T10:44:14.498Z</time>
      </trkpt>
      <trkpt lat="47.80827" lon="-3.34387">
        <ele>90</ele>
        <time>2015-01-22T10:44:15.498Z</time>
      </trkpt>
      <trkpt lat="47.80821" lon="-3.34391">
        <ele>90</ele>
        <time>2015-01-22T10:44:16.497Z</time>
      </trkpt>
      <trkpt lat="47.80816" lon="-3.34396">
        <ele>89</ele>
        <time>2015-01-22T10:44:17.498Z</time>
      </trkpt>
      <trkpt lat="47.80811" lon="-3.34403">
        <ele>89</ele>
        <time>2015-01-22T10:44:18.497Z</time>
      </trkpt>
      <trkpt lat="47.80807" lon="-3.3441">
        <ele>89</ele>
        <time>2015-01-22T10:44:19.496Z</time>
      </trkpt>
      <trkpt lat="47.80801" lon="-3.34416">
        <ele>89</ele>
        <time>2015-01-22T10:44:20.501Z</time>
      </trkpt>
      <trkpt lat="47.80797" lon="-3.34423">
        <ele>89</ele>
        <time>2015-01-22T10:44:21.497Z</time>
      </trkpt>
      <trkpt lat="47.80794" lon="-3.34433">
        <ele>92</ele>
        <time>2015-01-22T10:44:23.500Z</time>
      </trkpt>
      <trkpt lat="47.80791" lon="-3.34435">
        <ele>93</ele>
        <time>2015-01-22T10:44:24.498Z</time>
      </trkpt>
      <trkpt lat="47.80794" lon="-3.34447">
        <ele>93</ele>
        <time>2015-01-22T10:44:28.503Z</time>
      </trkpt>
      <trkpt lat="47.80796" lon="-3.34448">
        <ele>92</ele>
        <time>2015-01-22T10:44:29.498Z</time>
      </trkpt>
      <trkpt lat="47.80788" lon="-3.34443">
        <ele>89</ele>
        <time>2015-01-22T10:44:59.496Z</time>
      </trkpt>
      <trkpt lat="47.80786" lon="-3.34442">
        <ele>89</ele>
        <time>2015-01-22T10:45:00.499Z</time>
      </trkpt>
      <trkpt lat="47.8078" lon="-3.34446">
        <ele>87</ele>
        <time>2015-01-22T10:45:02.497Z</time>
      </trkpt>
      <trkpt lat="47.80778" lon="-3.3445">
        <ele>87</ele>
        <time>2015-01-22T10:45:03.496Z</time>
      </trkpt>
      <trkpt lat="47.80775" lon="-3.34456">
        <ele>87</ele>
        <time>2015-01-22T10:45:04.497Z</time>
      </trkpt>
      <trkpt lat="47.80772" lon="-3.34461">
        <ele>86</ele>
        <time>2015-01-22T10:45:05.499Z</time>
      </trkpt>
      <trkpt lat="47.80765" lon="-3.34469">
        <ele>87</ele>
        <time>2015-01-22T10:45:07.495Z</time>
      </trkpt>
      <trkpt lat="47.80762" lon="-3.34473">
        <ele>87</ele>
        <time>2015-01-22T10:45:08.516Z</time>
      </trkpt>
      <trkpt lat="47.80765" lon="-3.34461">
        <ele>88</ele>
        <time>2015-01-22T10:45:32.493Z</time>
      </trkpt>
      <trkpt lat="47.80767" lon="-3.34459">
        <ele>87</ele>
        <time>2015-01-22T10:45:33.495Z</time>
      </trkpt>
      <trkpt lat="47.80772" lon="-3.34451">
        <ele>85</ele>
        <time>2015-01-22T10:45:41.499Z</time>
      </trkpt>
      <trkpt lat="47.80774" lon="-3.34448">
        <ele>86</ele>
        <time>2015-01-22T10:45:42.496Z</time>
      </trkpt>
      <trkpt lat="47.80779" lon="-3.34439">
        <ele>86</ele>
        <time>2015-01-22T10:45:45.497Z</time>
      </trkpt>
      <trkpt lat="47.80781" lon="-3.34436">
        <ele>87</ele>
        <time>2015-01-22T10:45:46.495Z</time>
      </trkpt>
      <trkpt lat="47.80784" lon="-3.34425">
        <ele>91</ele>
        <time>2015-01-22T10:45:49.496Z</time>
      </trkpt>
      <trkpt lat="47.80784" lon="-3.34421">
        <ele>89</ele>
        <time>2015-01-22T10:45:50.496Z</time>
      </trkpt>
      <trkpt lat="47.80783" lon="-3.3441">
        <ele>89</ele>
        <time>2015-01-22T10:45:53.494Z</time>
      </trkpt>
      <trkpt lat="47.80783" lon="-3.34407">
        <ele>89</ele>
        <time>2015-01-22T10:45:54.495Z</time>
      </trkpt>
      <trkpt lat="47.80779" lon="-3.34397">
        <ele>90</ele>
        <time>2015-01-22T10:45:57.495Z</time>
      </trkpt>
      <trkpt lat="47.80777" lon="-3.34394">
        <ele>89</ele>
        <time>2015-01-22T10:45:58.495Z</time>
      </trkpt>
      <trkpt lat="47.80773" lon="-3.34384">
        <ele>89</ele>
        <time>2015-01-22T10:46:01.495Z</time>
      </trkpt>
      <trkpt lat="47.80772" lon="-3.34381">
        <ele>88</ele>
        <time>2015-01-22T10:46:02.496Z</time>
      </trkpt>
      <trkpt lat="47.80767" lon="-3.34372">
        <ele>88</ele>
        <time>2015-01-22T10:46:05.496Z</time>
      </trkpt>
      <trkpt lat="47.80765" lon="-3.3437">
        <ele>89</ele>
        <time>2015-01-22T10:46:06.495Z</time>
      </trkpt>
      <trkpt lat="47.80763" lon="-3.34359">
        <ele>90</ele>
        <time>2015-01-22T10:46:22.495Z</time>
      </trkpt>
      <trkpt lat="47.80763" lon="-3.34356">
        <ele>89</ele>
        <time>2015-01-22T10:46:23.492Z</time>
      </trkpt>
      <trkpt lat="47.80758" lon="-3.34347">
        <ele>89</ele>
        <time>2015-01-22T10:46:26.497Z</time>
      </trkpt>
      <trkpt lat="47.80757" lon="-3.34345">
        <ele>89</ele>
        <time>2015-01-22T10:46:27.493Z</time>
      </trkpt>
      <trkpt lat="47.80748" lon="-3.34341">
        <ele>89</ele>
        <time>2015-01-22T10:48:10.494Z</time>
      </trkpt>
      <trkpt lat="47.80748" lon="-3.3434">
        <ele>88</ele>
        <time>2015-01-22T10:48:11.494Z</time>
      </trkpt>
      <trkpt lat="47.80746" lon="-3.3433">
        <ele>87</ele>
        <time>2015-01-22T10:48:45.495Z</time>
      </trkpt>
      <trkpt lat="47.80745" lon="-3.34326">
        <ele>87</ele>
        <time>2015-01-22T10:48:46.492Z</time>
      </trkpt>
      <trkpt lat="47.8074" lon="-3.34315">
        <ele>87</ele>
        <time>2015-01-22T10:48:49.491Z</time>
      </trkpt>
      <trkpt lat="47.80738" lon="-3.34312">
        <ele>86</ele>
        <time>2015-01-22T10:48:50.492Z</time>
      </trkpt>
      <trkpt lat="47.80732" lon="-3.34306">
        <ele>87</ele>
        <time>2015-01-22T10:48:59.494Z</time>
      </trkpt>
      <trkpt lat="47.8073" lon="-3.34303">
        <ele>88</ele>
        <time>2015-01-22T10:49:00.495Z</time>
      </trkpt>
      <trkpt lat="47.80725" lon="-3.34297">
        <ele>86</ele>
        <time>2015-01-22T10:49:03.496Z</time>
      </trkpt>
      <trkpt lat="47.80723" lon="-3.34296">
        <ele>86</ele>
        <time>2015-01-22T10:49:04.493Z</time>
      </trkpt>
      <trkpt lat="47.80716" lon="-3.34291">
        <ele>86</ele>
        <time>2015-01-22T10:49:07.491Z</time>
      </trkpt>
      <trkpt lat="47.80714" lon="-3.34289">
        <ele>86</ele>
        <time>2015-01-22T10:49:08.493Z</time>
      </trkpt>
      <trkpt lat="47.80708" lon="-3.34284">
        <ele>87</ele>
        <time>2015-01-22T10:49:11.494Z</time>
      </trkpt>
      <trkpt lat="47.80706" lon="-3.34281">
        <ele>87</ele>
        <time>2015-01-22T10:49:12.494Z</time>
      </trkpt>
      <trkpt lat="47.80698" lon="-3.34276">
        <ele>89</ele>
        <time>2015-01-22T10:49:16.496Z</time>
      </trkpt>
      <trkpt lat="47.80697" lon="-3.34276">
        <ele>89</ele>
        <time>2015-01-22T10:49:17.493Z</time>
      </trkpt>
      <trkpt lat="47.80692" lon="-3.34269">
        <ele>90</ele>
        <time>2015-01-22T10:49:22.492Z</time>
      </trkpt>
      <trkpt lat="47.8069" lon="-3.34266">
        <ele>90</ele>
        <time>2015-01-22T10:49:23.492Z</time>
      </trkpt>
      <trkpt lat="47.80684" lon="-3.34258">
        <ele>91</ele>
        <time>2015-01-22T10:49:27.492Z</time>
      </trkpt>
      <trkpt lat="47.80684" lon="-3.34257">
        <ele>91</ele>
        <time>2015-01-22T10:49:28.501Z</time>
      </trkpt>
      <trkpt lat="47.80678" lon="-3.34249">
        <ele>92</ele>
        <time>2015-01-22T10:49:31.490Z</time>
      </trkpt>
      <trkpt lat="47.80675" lon="-3.34247">
        <ele>91</ele>
        <time>2015-01-22T10:49:32.497Z</time>
      </trkpt>
      <trkpt lat="47.80668" lon="-3.34246">
        <ele>90</ele>
        <time>2015-01-22T10:49:34.489Z</time>
      </trkpt>
      <trkpt lat="47.80665" lon="-3.34247">
        <ele>90</ele>
        <time>2015-01-22T10:49:35.502Z</time>
      </trkpt>
      <trkpt lat="47.80659" lon="-3.3424">
        <ele>90</ele>
        <time>2015-01-22T10:49:45.542Z</time>
      </trkpt>
      <trkpt lat="47.80658" lon="-3.34238">
        <ele>90</ele>
        <time>2015-01-22T10:49:46.492Z</time>
      </trkpt>
      <trkpt lat="47.80653" lon="-3.34226">
        <ele>84</ele>
        <time>2015-01-22T10:49:52.494Z</time>
      </trkpt>
      <trkpt lat="47.80653" lon="-3.34224">
        <ele>85</ele>
        <time>2015-01-22T10:49:53.499Z</time>
      </trkpt>
      <trkpt lat="47.80658" lon="-3.34215">
        <ele>86</ele>
        <time>2015-01-22T10:50:10.494Z</time>
      </trkpt>
      <trkpt lat="47.80659" lon="-3.34214">
        <ele>86</ele>
        <time>2015-01-22T10:50:11.492Z</time>
      </trkpt>
      <trkpt lat="47.80665" lon="-3.34209">
        <ele>86</ele>
        <time>2015-01-22T10:50:22.589Z</time>
      </trkpt>
      <trkpt lat="47.80668" lon="-3.34211">
        <ele>86</ele>
        <time>2015-01-22T10:50:23.493Z</time>
      </trkpt>
      <trkpt lat="47.80673" lon="-3.3422">
        <ele>86</ele>
        <time>2015-01-22T10:50:26.491Z</time>
      </trkpt>
      <trkpt lat="47.80675" lon="-3.34223">
        <ele>86</ele>
        <time>2015-01-22T10:50:27.492Z</time>
      </trkpt>
      <trkpt lat="47.80681" lon="-3.34232">
        <ele>89</ele>
        <time>2015-01-22T10:50:36.489Z</time>
      </trkpt>
      <trkpt lat="47.80682" lon="-3.34235">
        <ele>89</ele>
        <time>2015-01-22T10:50:37.489Z</time>
      </trkpt>
      <trkpt lat="47.80687" lon="-3.34246">
        <ele>89</ele>
        <time>2015-01-22T10:50:41.492Z</time>
      </trkpt>
      <trkpt lat="47.80687" lon="-3.34247">
        <ele>90</ele>
        <time>2015-01-22T10:50:42.491Z</time>
      </trkpt>
      <trkpt lat="47.80692" lon="-3.34257">
        <ele>91</ele>
        <time>2015-01-22T10:50:46.491Z</time>
      </trkpt>
      <trkpt lat="47.80694" lon="-3.3426">
        <ele>91</ele>
        <time>2015-01-22T10:50:47.493Z</time>
      </trkpt>
      <trkpt lat="47.80699" lon="-3.34269">
        <ele>92</ele>
        <time>2015-01-22T10:50:50.491Z</time>
      </trkpt>
      <trkpt lat="47.807" lon="-3.34272">
        <ele>91</ele>
        <time>2015-01-22T10:50:51.494Z</time>
      </trkpt>
      <trkpt lat="47.80709" lon="-3.34276">
        <ele>93</ele>
        <time>2015-01-22T10:51:03.488Z</time>
      </trkpt>
      <trkpt lat="47.8071" lon="-3.34277">
        <ele>94</ele>
        <time>2015-01-22T10:51:04.491Z</time>
      </trkpt>
      <trkpt lat="47.80718" lon="-3.34281">
        <ele>92</ele>
        <time>2015-01-22T10:51:15.488Z</time>
      </trkpt>
      <trkpt lat="47.80721" lon="-3.34283">
        <ele>92</ele>
        <time>2015-01-22T10:51:16.488Z</time>
      </trkpt>
      <trkpt lat="47.80728" lon="-3.3429">
        <ele>93</ele>
        <time>2015-01-22T10:51:19.493Z</time>
      </trkpt>
      <trkpt lat="47.8073" lon="-3.34293">
        <ele>93</ele>
        <time>2015-01-22T10:51:20.492Z</time>
      </trkpt>
      <trkpt lat="47.80736" lon="-3.343">
        <ele>91</ele>
        <time>2015-01-22T10:53:10.493Z</time>
      </trkpt>
      <trkpt lat="47.80737" lon="-3.34303">
        <ele>91</ele>
        <time>2015-01-22T10:53:11.491Z</time>
      </trkpt>
      <trkpt lat="47.80744" lon="-3.34309">
        <ele>91</ele>
        <time>2015-01-22T10:53:25.490Z</time>
      </trkpt>
      <trkpt lat="47.80745" lon="-3.34311">
        <ele>90</ele>
        <time>2015-01-22T10:53:26.490Z</time>
      </trkpt>
      <trkpt lat="47.80748" lon="-3.34318">
        <ele>90</ele>
        <time>2015-01-22T10:53:36.491Z</time>
      </trkpt>
      <trkpt lat="47.8075" lon="-3.34323">
        <ele>90</ele>
        <time>2015-01-22T10:53:37.500Z</time>
      </trkpt>
      <trkpt lat="47.80753" lon="-3.34333">
        <ele>90</ele>
        <time>2015-01-22T10:53:39.490Z</time>
      </trkpt>
      <trkpt lat="47.80754" lon="-3.34337">
        <ele>90</ele>
        <time>2015-01-22T10:53:40.490Z</time>
      </trkpt>
      <trkpt lat="47.80758" lon="-3.34346">
        <ele>90</ele>
        <time>2015-01-22T10:53:42.490Z</time>
      </trkpt>
      <trkpt lat="47.8076" lon="-3.3435">
        <ele>89</ele>
        <time>2015-01-22T10:53:43.490Z</time>
      </trkpt>
      <trkpt lat="47.80764" lon="-3.34359">
        <ele>89</ele>
        <time>2015-01-22T10:53:45.488Z</time>
      </trkpt>
      <trkpt lat="47.80766" lon="-3.34364">
        <ele>90</ele>
        <time>2015-01-22T10:53:46.489Z</time>
      </trkpt>
      <trkpt lat="47.80772" lon="-3.34372">
        <ele>88</ele>
        <time>2015-01-22T10:53:48.491Z</time>
      </trkpt>
      <trkpt lat="47.80774" lon="-3.34375">
        <ele>88</ele>
        <time>2015-01-22T10:53:49.492Z</time>
      </trkpt>
      <trkpt lat="47.80778" lon="-3.34386">
        <ele>89</ele>
        <time>2015-01-22T10:54:03.490Z</time>
      </trkpt>
      <trkpt lat="47.8078" lon="-3.34391">
        <ele>89</ele>
        <time>2015-01-22T10:54:04.491Z</time>
      </trkpt>
      <trkpt lat="47.80784" lon="-3.34399">
        <ele>87</ele>
        <time>2015-01-22T10:54:06.489Z</time>
      </trkpt>
      <trkpt lat="47.80786" lon="-3.34402">
        <ele>87</ele>
        <time>2015-01-22T10:54:07.490Z</time>
      </trkpt>
      <trkpt lat="47.80793" lon="-3.34404">
        <ele>89</ele>
        <time>2015-01-22T10:54:10.490Z</time>
      </trkpt>
      <trkpt lat="47.80796" lon="-3.34403">
        <ele>89</ele>
        <time>2015-01-22T10:54:11.490Z</time>
      </trkpt>
      <trkpt lat="47.80804" lon="-3.34404">
        <ele>90</ele>
        <time>2015-01-22T10:54:14.490Z</time>
      </trkpt>
      <trkpt lat="47.80806" lon="-3.34403">
        <ele>90</ele>
        <time>2015-01-22T10:54:15.491Z</time>
      </trkpt>
      <trkpt lat="47.80811" lon="-3.34393">
        <ele>89</ele>
        <time>2015-01-22T10:54:35.488Z</time>
      </trkpt>
      <trkpt lat="47.80812" lon="-3.34392">
        <ele>89</ele>
        <time>2015-01-22T10:54:36.488Z</time>
      </trkpt>
      <trkpt lat="47.80819" lon="-3.34385">
        <ele>90</ele>
        <time>2015-01-22T10:54:45.488Z</time>
      </trkpt>
      <trkpt lat="47.8082" lon="-3.34383">
        <ele>91</ele>
        <time>2015-01-22T10:54:46.490Z</time>
      </trkpt>
      <trkpt lat="47.80826" lon="-3.34375">
        <ele>91</ele>
        <time>2015-01-22T10:54:54.489Z</time>
      </trkpt>
      <trkpt lat="47.80827" lon="-3.34372">
        <ele>92</ele>
        <time>2015-01-22T10:54:55.491Z</time>
      </trkpt>
      <trkpt lat="47.80827" lon="-3.3436">
        <ele>90</ele>
        <time>2015-01-22T10:54:59.489Z</time>
      </trkpt>
      <trkpt lat="47.80826" lon="-3.34358">
        <ele>89</ele>
        <time>2015-01-22T10:55:00.489Z</time>
      </trkpt>
      <trkpt lat="47.80821" lon="-3.34347">
        <ele>89</ele>
        <time>2015-01-22T10:55:03.489Z</time>
      </trkpt>
      <trkpt lat="47.80819" lon="-3.34344">
        <ele>90</ele>
        <time>2015-01-22T10:55:04.488Z</time>
      </trkpt>
      <trkpt lat="47.80813" lon="-3.34335">
        <ele>94</ele>
        <time>2015-01-22T10:55:13.490Z</time>
      </trkpt>
      <trkpt lat="47.80812" lon="-3.34333">
        <ele>94</ele>
        <time>2015-01-22T10:55:14.490Z</time>
      </trkpt>
      <trkpt lat="47.80807" lon="-3.34324">
        <ele>94</ele>
        <time>2015-01-22T10:55:34.489Z</time>
      </trkpt>
      <trkpt lat="47.80806" lon="-3.3432">
        <ele>93</ele>
        <time>2015-01-22T10:55:35.491Z</time>
      </trkpt>
      <trkpt lat="47.80802" lon="-3.34311">
        <ele>92</ele>
        <time>2015-01-22T10:55:38.503Z</time>
      </trkpt>
      <trkpt lat="47.808" lon="-3.34308">
        <ele>93</ele>
        <time>2015-01-22T10:55:39.491Z</time>
      </trkpt>
      <trkpt lat="47.80796" lon="-3.34298">
        <ele>91</ele>
        <time>2015-01-22T10:55:47.489Z</time>
      </trkpt>
      <trkpt lat="47.80795" lon="-3.34296">
        <ele>91</ele>
        <time>2015-01-22T10:55:48.489Z</time>
      </trkpt>
      <trkpt lat="47.80791" lon="-3.34285">
        <ele>93</ele>
        <time>2015-01-22T10:56:09.490Z</time>
      </trkpt>
      <trkpt lat="47.8079" lon="-3.34282">
        <ele>94</ele>
        <time>2015-01-22T10:56:10.489Z</time>
      </trkpt>
      <trkpt lat="47.80785" lon="-3.34272">
        <ele>94</ele>
        <time>2015-01-22T10:56:13.491Z</time>
      </trkpt>
      <trkpt lat="47.80784" lon="-3.34269">
        <ele>94</ele>
        <time>2015-01-22T10:56:14.489Z</time>
      </trkpt>
      <trkpt lat="47.80778" lon="-3.34259">
        <ele>94</ele>
        <time>2015-01-22T10:56:25.488Z</time>
      </trkpt>
      <trkpt lat="47.80777" lon="-3.34258">
        <ele>94</ele>
        <time>2015-01-22T10:56:26.488Z</time>
      </trkpt>
      <trkpt lat="47.80773" lon="-3.34247">
        <ele>94</ele>
        <time>2015-01-22T10:56:34.489Z</time>
      </trkpt>
      <trkpt lat="47.80772" lon="-3.34243">
        <ele>94</ele>
        <time>2015-01-22T10:56:35.489Z</time>
      </trkpt>
      <trkpt lat="47.80766" lon="-3.34233">
        <ele>94</ele>
        <time>2015-01-22T10:56:40.489Z</time>
      </trkpt>
      <trkpt lat="47.80766" lon="-3.34232">
        <ele>93</ele>
        <time>2015-01-22T10:56:41.490Z</time>
      </trkpt>
      <trkpt lat="47.80774" lon="-3.34234">
        <ele>95</ele>
        <time>2015-01-22T10:57:15.487Z</time>
      </trkpt>
      <trkpt lat="47.80775" lon="-3.34237">
        <ele>94</ele>
        <time>2015-01-22T10:57:16.486Z</time>
      </trkpt>
      <trkpt lat="47.80779" lon="-3.34245">
        <ele>95</ele>
        <time>2015-01-22T10:57:18.488Z</time>
      </trkpt>
      <trkpt lat="47.80781" lon="-3.3425">
        <ele>96</ele>
        <time>2015-01-22T10:57:19.489Z</time>
      </trkpt>
      <trkpt lat="47.80784" lon="-3.34259">
        <ele>96</ele>
        <time>2015-01-22T10:57:21.488Z</time>
      </trkpt>
      <trkpt lat="47.80786" lon="-3.34263">
        <ele>95</ele>
        <time>2015-01-22T10:57:22.490Z</time>
      </trkpt>
      <trkpt lat="47.8079" lon="-3.34271">
        <ele>94</ele>
        <time>2015-01-22T10:57:24.487Z</time>
      </trkpt>
      <trkpt lat="47.80793" lon="-3.34274">
        <ele>93</ele>
        <time>2015-01-22T10:57:25.486Z</time>
      </trkpt>
      <trkpt lat="47.80801" lon="-3.34271">
        <ele>92</ele>
        <time>2015-01-22T10:57:28.486Z</time>
      </trkpt>
      <trkpt lat="47.80804" lon="-3.34268">
        <ele>92</ele>
        <time>2015-01-22T10:57:29.489Z</time>
      </trkpt>
      <trkpt lat="47.80809" lon="-3.3426">
        <ele>91</ele>
        <time>2015-01-22T10:57:32.488Z</time>
      </trkpt>
      <trkpt lat="47.80811" lon="-3.34257">
        <ele>91</ele>
        <time>2015-01-22T10:57:33.487Z</time>
      </trkpt>
      <trkpt lat="47.8082" lon="-3.34258">
        <ele>96</ele>
        <time>2015-01-22T10:57:50.511Z</time>
      </trkpt>
      <trkpt lat="47.80822" lon="-3.34261">
        <ele>95</ele>
        <time>2015-01-22T10:57:51.490Z</time>
      </trkpt>
      <trkpt lat="47.80818" lon="-3.34271">
        <ele>96</ele>
        <time>2015-01-22T10:58:07.488Z</time>
      </trkpt>
      <trkpt lat="47.80816" lon="-3.34272">
        <ele>96</ele>
        <time>2015-01-22T10:58:08.486Z</time>
      </trkpt>
      <trkpt lat="47.8081" lon="-3.34277">
        <ele>95</ele>
        <time>2015-01-22T10:58:16.488Z</time>
      </trkpt>
      <trkpt lat="47.80806" lon="-3.3428">
        <ele>95</ele>
        <time>2015-01-22T10:58:17.483Z</time>
      </trkpt>
      <trkpt lat="47.80801" lon="-3.3429">
        <ele>94</ele>
        <time>2015-01-22T10:58:19.485Z</time>
      </trkpt>
      <trkpt lat="47.808" lon="-3.34295">
        <ele>94</ele>
        <time>2015-01-22T10:58:20.488Z</time>
      </trkpt>
      <trkpt lat="47.80802" lon="-3.34307">
        <ele>95</ele>
        <time>2015-01-22T10:58:32.484Z</time>
      </trkpt>
      <trkpt lat="47.80804" lon="-3.34309">
        <ele>95</ele>
        <time>2015-01-22T10:58:33.488Z</time>
      </trkpt>
      <trkpt lat="47.80812" lon="-3.34315">
        <ele>94</ele>
        <time>2015-01-22T10:58:36.487Z</time>
      </trkpt>
      <trkpt lat="47.80814" lon="-3.34317">
        <ele>94</ele>
        <time>2015-01-22T10:58:37.488Z</time>
      </trkpt>
      <trkpt lat="47.80818" lon="-3.34324">
        <ele>95</ele>
        <time>2015-01-22T10:58:53.549Z</time>
      </trkpt>
      <trkpt lat="47.80819" lon="-3.34329">
        <ele>97</ele>
        <time>2015-01-22T10:58:54.486Z</time>
      </trkpt>
      <trkpt lat="47.80824" lon="-3.34339">
        <ele>96</ele>
        <time>2015-01-22T10:58:56.536Z</time>
      </trkpt>
      <trkpt lat="47.80826" lon="-3.34344">
        <ele>97</ele>
        <time>2015-01-22T10:58:57.535Z</time>
      </trkpt>
      <trkpt lat="47.80831" lon="-3.3435">
        <ele>94</ele>
        <time>2015-01-22T10:58:59.520Z</time>
      </trkpt>
      <trkpt lat="47.80834" lon="-3.34352">
        <ele>96</ele>
        <time>2015-01-22T10:59:00.490Z</time>
      </trkpt>
      <trkpt lat="47.80839" lon="-3.34354">
        <ele>98</ele>
        <time>2015-01-22T10:59:02.548Z</time>
      </trkpt>
      <trkpt lat="47.80843" lon="-3.34354">
        <ele>97</ele>
        <time>2015-01-22T10:59:03.563Z</time>
      </trkpt>
      <trkpt lat="47.8085" lon="-3.34351">
        <ele>98</ele>
        <time>2015-01-22T10:59:06.491Z</time>
      </trkpt>
      <trkpt lat="47.80852" lon="-3.34349">
        <ele>98</ele>
        <time>2015-01-22T10:59:07.561Z</time>
      </trkpt>
      <trkpt lat="47.80859" lon="-3.34342">
        <ele>96</ele>
        <time>2015-01-22T10:59:22.552Z</time>
      </trkpt>
      <trkpt lat="47.80861" lon="-3.3434">
        <ele>97</ele>
        <time>2015-01-22T10:59:23.560Z</time>
      </trkpt>
      <trkpt lat="47.80868" lon="-3.34333">
        <ele>97</ele>
        <time>2015-01-22T10:59:26.484Z</time>
      </trkpt>
      <trkpt lat="47.8087" lon="-3.34331">
        <ele>96</ele>
        <time>2015-01-22T10:59:27.537Z</time>
      </trkpt>
      <trkpt lat="47.80872" lon="-3.34321">
        <ele>96</ele>
        <time>2015-01-22T10:59:30.484Z</time>
      </trkpt>
      <trkpt lat="47.80873" lon="-3.34318">
        <ele>95</ele>
        <time>2015-01-22T10:59:31.485Z</time>
      </trkpt>
      <trkpt lat="47.80875" lon="-3.34308">
        <ele>98</ele>
        <time>2015-01-22T10:59:34.495Z</time>
      </trkpt>
      <trkpt lat="47.80876" lon="-3.34305">
        <ele>97</ele>
        <time>2015-01-22T10:59:35.486Z</time>
      </trkpt>
      <trkpt lat="47.80876" lon="-3.34292">
        <ele>99</ele>
        <time>2015-01-22T10:59:51.485Z</time>
      </trkpt>
      <trkpt lat="47.80875" lon="-3.34291">
        <ele>99</ele>
        <time>2015-01-22T10:59:52.494Z</time>
      </trkpt>
      <trkpt lat="47.80878" lon="-3.34279">
        <ele>102</ele>
        <time>2015-01-22T10:59:59.484Z</time>
      </trkpt>
      <trkpt lat="47.80878" lon="-3.34276">
        <ele>102</ele>
        <time>2015-01-22T11:00:00.483Z</time>
      </trkpt>
      <trkpt lat="47.80878" lon="-3.34263">
        <ele>103</ele>
        <time>2015-01-22T11:00:17.485Z</time>
      </trkpt>
      <trkpt lat="47.80878" lon="-3.34261">
        <ele>103</ele>
        <time>2015-01-22T11:00:18.486Z</time>
      </trkpt>
      <trkpt lat="47.80879" lon="-3.3425">
        <ele>105</ele>
        <time>2015-01-22T11:00:21.486Z</time>
      </trkpt>
      <trkpt lat="47.80879" lon="-3.34246">
        <ele>105</ele>
        <time>2015-01-22T11:00:22.484Z</time>
      </trkpt>
      <trkpt lat="47.80879" lon="-3.34234">
        <ele>104</ele>
        <time>2015-01-22T11:00:25.484Z</time>
      </trkpt>
      <trkpt lat="47.80878" lon="-3.3423">
        <ele>104</ele>
        <time>2015-01-22T11:00:26.486Z</time>
      </trkpt>
      <trkpt lat="47.80877" lon="-3.3422">
        <ele>102</ele>
        <time>2015-01-22T11:00:38.485Z</time>
      </trkpt>
      <trkpt lat="47.80877" lon="-3.34216">
        <ele>103</ele>
        <time>2015-01-22T11:00:39.485Z</time>
      </trkpt>
      <trkpt lat="47.80877" lon="-3.34204">
        <ele>104</ele>
        <time>2015-01-22T11:00:42.484Z</time>
      </trkpt>
      <trkpt lat="47.80876" lon="-3.34199">
        <ele>104</ele>
        <time>2015-01-22T11:00:43.516Z</time>
      </trkpt>
      <trkpt lat="47.80875" lon="-3.34188">
        <ele>103</ele>
        <time>2015-01-22T11:00:46.481Z</time>
      </trkpt>
      <trkpt lat="47.80875" lon="-3.34185">
        <ele>104</ele>
        <time>2015-01-22T11:00:47.485Z</time>
      </trkpt>
      <trkpt lat="47.80874" lon="-3.34175">
        <ele>104</ele>
        <time>2015-01-22T11:00:53.485Z</time>
      </trkpt>
      <trkpt lat="47.80874" lon="-3.34171">
        <ele>104</ele>
        <time>2015-01-22T11:00:54.485Z</time>
      </trkpt>
      <trkpt lat="47.80876" lon="-3.3416">
        <ele>104</ele>
        <time>2015-01-22T11:01:02.485Z</time>
      </trkpt>
      <trkpt lat="47.80876" lon="-3.34156">
        <ele>104</ele>
        <time>2015-01-22T11:01:03.483Z</time>
      </trkpt>
      <trkpt lat="47.80875" lon="-3.34146">
        <ele>104</ele>
        <time>2015-01-22T11:01:05.485Z</time>
      </trkpt>
      <trkpt lat="47.80873" lon="-3.34141">
        <ele>105</ele>
        <time>2015-01-22T11:01:06.484Z</time>
      </trkpt>
      <trkpt lat="47.8087" lon="-3.34131">
        <ele>107</ele>
        <time>2015-01-22T11:01:08.483Z</time>
      </trkpt>
      <trkpt lat="47.8087" lon="-3.34126">
        <ele>107</ele>
        <time>2015-01-22T11:01:09.484Z</time>
      </trkpt>
      <trkpt lat="47.80867" lon="-3.34113">
        <ele>106</ele>
        <time>2015-01-22T11:01:12.606Z</time>
      </trkpt>
      <trkpt lat="47.80868" lon="-3.34113">
        <ele>106</ele>
        <time>2015-01-22T11:01:13.540Z</time>
      </trkpt>
      <trkpt lat="47.80872" lon="-3.34123">
        <ele>103</ele>
        <time>2015-01-22T11:01:32.496Z</time>
      </trkpt>
      <trkpt lat="47.80873" lon="-3.34126">
        <ele>102</ele>
        <time>2015-01-22T11:01:33.546Z</time>
      </trkpt>
      <trkpt lat="47.80875" lon="-3.34138">
        <ele>102</ele>
        <time>2015-01-22T11:01:44.544Z</time>
      </trkpt>
      <trkpt lat="47.80876" lon="-3.3414">
        <ele>103</ele>
        <time>2015-01-22T11:01:45.561Z</time>
      </trkpt>
      <trkpt lat="47.80877" lon="-3.34149">
        <ele>102</ele>
        <time>2015-01-22T11:01:55.480Z</time>
      </trkpt>
      <trkpt lat="47.80877" lon="-3.34153">
        <ele>101</ele>
        <time>2015-01-22T11:01:56.482Z</time>
      </trkpt>
      <trkpt lat="47.80878" lon="-3.34162">
        <ele>99</ele>
        <time>2015-01-22T11:01:58.563Z</time>
      </trkpt>
      <trkpt lat="47.80879" lon="-3.34167">
        <ele>99</ele>
        <time>2015-01-22T11:01:59.592Z</time>
      </trkpt>
      <trkpt lat="47.80881" lon="-3.3418">
        <ele>102</ele>
        <time>2015-01-22T11:02:05.565Z</time>
      </trkpt>
      <trkpt lat="47.8088" lon="-3.34181">
        <ele>102</ele>
        <time>2015-01-22T11:02:06.483Z</time>
      </trkpt>
      <trkpt lat="47.8088" lon="-3.34193">
        <ele>101</ele>
        <time>2015-01-22T11:02:09.558Z</time>
      </trkpt>
      <trkpt lat="47.8088" lon="-3.34197">
        <ele>100</ele>
        <time>2015-01-22T11:02:10.565Z</time>
      </trkpt>
      <trkpt lat="47.80882" lon="-3.3421">
        <ele>101</ele>
        <time>2015-01-22T11:02:14.481Z</time>
      </trkpt>
      <trkpt lat="47.80881" lon="-3.34213">
        <ele>101</ele>
        <time>2015-01-22T11:02:15.537Z</time>
      </trkpt>
      <trkpt lat="47.80881" lon="-3.34222">
        <ele>101</ele>
        <time>2015-01-22T11:02:17.575Z</time>
      </trkpt>
      <trkpt lat="47.80882" lon="-3.34227">
        <ele>101</ele>
        <time>2015-01-22T11:02:18.532Z</time>
      </trkpt>
      <trkpt lat="47.80885" lon="-3.34236">
        <ele>101</ele>
        <time>2015-01-22T11:02:20.504Z</time>
      </trkpt>
      <trkpt lat="47.80886" lon="-3.3424">
        <ele>101</ele>
        <time>2015-01-22T11:02:21.577Z</time>
      </trkpt>
      <trkpt lat="47.80885" lon="-3.34252">
        <ele>101</ele>
        <time>2015-01-22T11:02:33.478Z</time>
      </trkpt>
      <trkpt lat="47.80885" lon="-3.34256">
        <ele>101</ele>
        <time>2015-01-22T11:02:34.479Z</time>
      </trkpt>
      <trkpt lat="47.80884" lon="-3.34268">
        <ele>99</ele>
        <time>2015-01-22T11:02:37.479Z</time>
      </trkpt>
      <trkpt lat="47.80885" lon="-3.3427">
        <ele>99</ele>
        <time>2015-01-22T11:02:38.479Z</time>
      </trkpt>
      <trkpt lat="47.80884" lon="-3.34281">
        <ele>100</ele>
        <time>2015-01-22T11:02:56.561Z</time>
      </trkpt>
      <trkpt lat="47.80884" lon="-3.34284">
        <ele>100</ele>
        <time>2015-01-22T11:02:57.576Z</time>
      </trkpt>
      <trkpt lat="47.80885" lon="-3.34298">
        <ele>98</ele>
        <time>2015-01-22T11:03:03.480Z</time>
      </trkpt>
      <trkpt lat="47.80884" lon="-3.34299">
        <ele>98</ele>
        <time>2015-01-22T11:03:04.518Z</time>
      </trkpt>
      <trkpt lat="47.80886" lon="-3.34311">
        <ele>98</ele>
        <time>2015-01-22T11:03:07.549Z</time>
      </trkpt>
      <trkpt lat="47.80887" lon="-3.34314">
        <ele>98</ele>
        <time>2015-01-22T11:03:08.487Z</time>
      </trkpt>
      <trkpt lat="47.80895" lon="-3.34315">
        <ele>98</ele>
        <time>2015-01-22T11:03:11.576Z</time>
      </trkpt>
      <trkpt lat="47.80897" lon="-3.34314">
        <ele>97</ele>
        <time>2015-01-22T11:03:12.543Z</time>
      </trkpt>
      <trkpt lat="47.80904" lon="-3.34307">
        <ele>97</ele>
        <time>2015-01-22T11:03:15.537Z</time>
      </trkpt>
      <trkpt lat="47.80906" lon="-3.34305">
        <ele>98</ele>
        <time>2015-01-22T11:03:16.534Z</time>
      </trkpt>
      <trkpt lat="47.80911" lon="-3.343">
        <ele>100</ele>
        <time>2015-01-22T11:03:18.527Z</time>
      </trkpt>
      <trkpt lat="47.80913" lon="-3.34297">
        <ele>99</ele>
        <time>2015-01-22T11:03:19.480Z</time>
      </trkpt>
      <trkpt lat="47.80921" lon="-3.3429">
        <ele>101</ele>
        <time>2015-01-22T11:03:27.480Z</time>
      </trkpt>
      <trkpt lat="47.80921" lon="-3.3429">
        <ele>101</ele>
        <time>2015-01-22T11:03:28.478Z</time>
      </trkpt>
      <trkpt lat="47.80927" lon="-3.34285">
        <ele>99</ele>
        <time>2015-01-22T11:03:36.480Z</time>
      </trkpt>
      <trkpt lat="47.8093" lon="-3.34284">
        <ele>100</ele>
        <time>2015-01-22T11:03:37.480Z</time>
      </trkpt>
      <trkpt lat="47.80938" lon="-3.34279">
        <ele>101</ele>
        <time>2015-01-22T11:03:40.491Z</time>
      </trkpt>
      <trkpt lat="47.8094" lon="-3.34276">
        <ele>102</ele>
        <time>2015-01-22T11:03:41.485Z</time>
      </trkpt>
      <trkpt lat="47.80948" lon="-3.34271">
        <ele>100</ele>
        <time>2015-01-22T11:03:46.481Z</time>
      </trkpt>
      <trkpt lat="47.80948" lon="-3.3427">
        <ele>100</ele>
        <time>2015-01-22T11:03:47.481Z</time>
      </trkpt>
      <trkpt lat="47.80954" lon="-3.34266">
        <ele>101</ele>
        <time>2015-01-22T11:03:53.479Z</time>
      </trkpt>
      <trkpt lat="47.80957" lon="-3.34264">
        <ele>101</ele>
        <time>2015-01-22T11:03:54.481Z</time>
      </trkpt>
      <trkpt lat="47.80963" lon="-3.34257">
        <ele>100</ele>
        <time>2015-01-22T11:03:57.481Z</time>
      </trkpt>
      <trkpt lat="47.80965" lon="-3.34255">
        <ele>100</ele>
        <time>2015-01-22T11:03:58.481Z</time>
      </trkpt>
      <trkpt lat="47.80964" lon="-3.34266">
        <ele>97</ele>
        <time>2015-01-22T11:04:24.497Z</time>
      </trkpt>
      <trkpt lat="47.80965" lon="-3.34234">
        <ele>94</ele>
        <time>2015-01-22T11:05:18.497Z</time>
      </trkpt>
      <trkpt lat="47.80966" lon="-3.34244">
        <ele>96</ele>
        <time>2015-01-22T11:05:19.488Z</time>
      </trkpt>
      <trkpt lat="47.80965" lon="-3.34247">
        <ele>94</ele>
        <time>2015-01-22T11:05:20.476Z</time>
      </trkpt>
      <trkpt lat="47.80972" lon="-3.34249">
        <ele>100</ele>
        <time>2015-01-22T11:05:41.481Z</time>
      </trkpt>
      <trkpt lat="47.80974" lon="-3.34245">
        <ele>100</ele>
        <time>2015-01-22T11:05:42.479Z</time>
      </trkpt>
      <trkpt lat="47.80973" lon="-3.34232">
        <ele>99</ele>
        <time>2015-01-22T11:05:45.491Z</time>
      </trkpt>
      <trkpt lat="47.80973" lon="-3.34228">
        <ele>99</ele>
        <time>2015-01-22T11:05:46.479Z</time>
      </trkpt>
      <trkpt lat="47.80971" lon="-3.34215">
        <ele>99</ele>
        <time>2015-01-22T11:05:49.482Z</time>
      </trkpt>
      <trkpt lat="47.80971" lon="-3.34211">
        <ele>100</ele>
        <time>2015-01-22T11:05:50.479Z</time>
      </trkpt>
      <trkpt lat="47.80979" lon="-3.34204">
        <ele>100</ele>
        <time>2015-01-22T11:06:04.502Z</time>
      </trkpt>
      <trkpt lat="47.80979" lon="-3.34203">
        <ele>100</ele>
        <time>2015-01-22T11:06:05.502Z</time>
      </trkpt>
      <trkpt lat="47.80971" lon="-3.34201">
        <ele>97</ele>
        <time>2015-01-22T11:06:30.481Z</time>
      </trkpt>
      <trkpt lat="47.80969" lon="-3.34201">
        <ele>98</ele>
        <time>2015-01-22T11:06:31.520Z</time>
      </trkpt>
      <trkpt lat="47.80966" lon="-3.34191">
        <ele>100</ele>
        <time>2015-01-22T11:06:41.481Z</time>
      </trkpt>
      <trkpt lat="47.80964" lon="-3.34188">
        <ele>99</ele>
        <time>2015-01-22T11:06:42.488Z</time>
      </trkpt>
      <trkpt lat="47.80957" lon="-3.34185">
        <ele>99</ele>
        <time>2015-01-22T11:06:45.479Z</time>
      </trkpt>
      <trkpt lat="47.80954" lon="-3.34187">
        <ele>100</ele>
        <time>2015-01-22T11:06:46.481Z</time>
      </trkpt>
      <trkpt lat="47.80947" lon="-3.34192">
        <ele>101</ele>
        <time>2015-01-22T11:06:48.480Z</time>
      </trkpt>
      <trkpt lat="47.80944" lon="-3.34195">
        <ele>101</ele>
        <time>2015-01-22T11:06:49.480Z</time>
      </trkpt>
      <trkpt lat="47.80937" lon="-3.34202">
        <ele>101</ele>
        <time>2015-01-22T11:06:51.479Z</time>
      </trkpt>
      <trkpt lat="47.80935" lon="-3.34205">
        <ele>102</ele>
        <time>2015-01-22T11:06:52.526Z</time>
      </trkpt>
      <trkpt lat="47.80927" lon="-3.3421">
        <ele>103</ele>
        <time>2015-01-22T11:07:01.481Z</time>
      </trkpt>
      <trkpt lat="47.80924" lon="-3.34212">
        <ele>103</ele>
        <time>2015-01-22T11:07:02.479Z</time>
      </trkpt>
      <trkpt lat="47.80917" lon="-3.34217">
        <ele>102</ele>
        <time>2015-01-22T11:07:05.480Z</time>
      </trkpt>
      <trkpt lat="47.80915" lon="-3.3422">
        <ele>102</ele>
        <time>2015-01-22T11:07:06.480Z</time>
      </trkpt>
      <trkpt lat="47.80919" lon="-3.34212">
        <ele>102</ele>
        <time>2015-01-22T11:07:17.515Z</time>
      </trkpt>
      <trkpt lat="47.80921" lon="-3.34209">
        <ele>102</ele>
        <time>2015-01-22T11:07:18.543Z</time>
      </trkpt>
      <trkpt lat="47.80925" lon="-3.34197">
        <ele>101</ele>
        <time>2015-01-22T11:07:21.561Z</time>
      </trkpt>
      <trkpt lat="47.80925" lon="-3.34192">
        <ele>101</ele>
        <time>2015-01-22T11:07:22.541Z</time>
      </trkpt>
      <trkpt lat="47.80923" lon="-3.3418">
        <ele>101</ele>
        <time>2015-01-22T11:07:25.484Z</time>
      </trkpt>
      <trkpt lat="47.80921" lon="-3.34177">
        <ele>101</ele>
        <time>2015-01-22T11:07:26.477Z</time>
      </trkpt>
      <trkpt lat="47.80921" lon="-3.34167">
        <ele>100</ele>
        <time>2015-01-22T11:07:33.477Z</time>
      </trkpt>
      <trkpt lat="47.80921" lon="-3.34162">
        <ele>100</ele>
        <time>2015-01-22T11:07:34.479Z</time>
      </trkpt>
      <trkpt lat="47.80921" lon="-3.34149">
        <ele>100</ele>
        <time>2015-01-22T11:07:37.479Z</time>
      </trkpt>
      <trkpt lat="47.80921" lon="-3.34145">
        <ele>100</ele>
        <time>2015-01-22T11:07:38.476Z</time>
      </trkpt>
      <trkpt lat="47.80921" lon="-3.34136">
        <ele>100</ele>
        <time>2015-01-22T11:07:40.482Z</time>
      </trkpt>
      <trkpt lat="47.80921" lon="-3.34131">
        <ele>99</ele>
        <time>2015-01-22T11:07:41.483Z</time>
      </trkpt>
      <trkpt lat="47.80921" lon="-3.34121">
        <ele>100</ele>
        <time>2015-01-22T11:07:43.478Z</time>
      </trkpt>
      <trkpt lat="47.80921" lon="-3.34116">
        <ele>100</ele>
        <time>2015-01-22T11:07:44.560Z</time>
      </trkpt>
      <trkpt lat="47.80921" lon="-3.34106">
        <ele>99</ele>
        <time>2015-01-22T11:07:46.536Z</time>
      </trkpt>
      <trkpt lat="47.80921" lon="-3.34102">
        <ele>99</ele>
        <time>2015-01-22T11:07:47.517Z</time>
      </trkpt>
      <trkpt lat="47.80918" lon="-3.3409">
        <ele>97</ele>
        <time>2015-01-22T11:07:58.476Z</time>
      </trkpt>
      <trkpt lat="47.80916" lon="-3.34087">
        <ele>97</ele>
        <time>2015-01-22T11:07:59.552Z</time>
      </trkpt>
      <trkpt lat="47.8091" lon="-3.3408">
        <ele>95</ele>
        <time>2015-01-22T11:08:02.477Z</time>
      </trkpt>
      <trkpt lat="47.80908" lon="-3.34077">
        <ele>97</ele>
        <time>2015-01-22T11:08:03.542Z</time>
      </trkpt>
      <trkpt lat="47.80904" lon="-3.34067">
        <ele>97</ele>
        <time>2015-01-22T11:08:06.531Z</time>
      </trkpt>
      <trkpt lat="47.80904" lon="-3.34064">
        <ele>97</ele>
        <time>2015-01-22T11:08:07.480Z</time>
      </trkpt>
      <trkpt lat="47.80904" lon="-3.34053">
        <ele>100</ele>
        <time>2015-01-22T11:08:10.481Z</time>
      </trkpt>
      <trkpt lat="47.80904" lon="-3.34049">
        <ele>100</ele>
        <time>2015-01-22T11:08:11.541Z</time>
      </trkpt>
      <trkpt lat="47.80899" lon="-3.34038">
        <ele>99</ele>
        <time>2015-01-22T11:08:15.545Z</time>
      </trkpt>
      <trkpt lat="47.80897" lon="-3.34036">
        <ele>99</ele>
        <time>2015-01-22T11:08:16.480Z</time>
      </trkpt>
      <trkpt lat="47.8089" lon="-3.3403">
        <ele>101</ele>
        <time>2015-01-22T11:08:18.559Z</time>
      </trkpt>
      <trkpt lat="47.80887" lon="-3.34027">
        <ele>101</ele>
        <time>2015-01-22T11:08:19.515Z</time>
      </trkpt>
      <trkpt lat="47.8088" lon="-3.34021">
        <ele>101</ele>
        <time>2015-01-22T11:08:21.476Z</time>
      </trkpt>
      <trkpt lat="47.80877" lon="-3.34018">
        <ele>101</ele>
        <time>2015-01-22T11:08:22.479Z</time>
      </trkpt>
      <trkpt lat="47.80872" lon="-3.34012">
        <ele>101</ele>
        <time>2015-01-22T11:08:24.478Z</time>
      </trkpt>
      <trkpt lat="47.80869" lon="-3.3401">
        <ele>102</ele>
        <time>2015-01-22T11:08:25.478Z</time>
      </trkpt>
      <trkpt lat="47.80863" lon="-3.34013">
        <ele>104</ele>
        <time>2015-01-22T11:08:34.473Z</time>
      </trkpt>
      <trkpt lat="47.8086" lon="-3.34014">
        <ele>103</ele>
        <time>2015-01-22T11:08:35.476Z</time>
      </trkpt>
      <trkpt lat="47.80852" lon="-3.34014">
        <ele>104</ele>
        <time>2015-01-22T11:08:38.477Z</time>
      </trkpt>
      <trkpt lat="47.80849" lon="-3.34014">
        <ele>103</ele>
        <time>2015-01-22T11:08:39.476Z</time>
      </trkpt>
      <trkpt lat="47.80842" lon="-3.34018">
        <ele>102</ele>
        <time>2015-01-22T11:08:48.475Z</time>
      </trkpt>
      <trkpt lat="47.80841" lon="-3.3402">
        <ele>102</ele>
        <time>2015-01-22T11:08:49.478Z</time>
      </trkpt>
      <trkpt lat="47.80833" lon="-3.34014">
        <ele>102</ele>
        <time>2015-01-22T11:09:01.478Z</time>
      </trkpt>
      <trkpt lat="47.80833" lon="-3.34014">
        <ele>102</ele>
        <time>2015-01-22T11:09:02.474Z</time>
      </trkpt>
      <trkpt lat="47.80824" lon="-3.34017">
        <ele>100</ele>
        <time>2015-01-22T11:09:16.480Z</time>
      </trkpt>
      <trkpt lat="47.80821" lon="-3.34017">
        <ele>97</ele>
        <time>2015-01-22T11:09:17.487Z</time>
      </trkpt>
      <trkpt lat="47.80814" lon="-3.34016">
        <ele>95</ele>
        <time>2015-01-22T11:09:19.477Z</time>
      </trkpt>
      <trkpt lat="47.8081" lon="-3.34016">
        <ele>95</ele>
        <time>2015-01-22T11:09:20.476Z</time>
      </trkpt>
      <trkpt lat="47.80802" lon="-3.34017">
        <ele>95</ele>
        <time>2015-01-22T11:09:22.476Z</time>
      </trkpt>
      <trkpt lat="47.80797" lon="-3.34018">
        <ele>94</ele>
        <time>2015-01-22T11:09:23.476Z</time>
      </trkpt>
      <trkpt lat="47.80789" lon="-3.34018">
        <ele>95</ele>
        <time>2015-01-22T11:09:36.476Z</time>
      </trkpt>
      <trkpt lat="47.80788" lon="-3.34018">
        <ele>95</ele>
        <time>2015-01-22T11:09:37.476Z</time>
      </trkpt>
      <trkpt lat="47.80782" lon="-3.34017">
        <ele>97</ele>
        <time>2015-01-22T11:09:39.476Z</time>
      </trkpt>
      <trkpt lat="47.80778" lon="-3.34018">
        <ele>98</ele>
        <time>2015-01-22T11:09:40.476Z</time>
      </trkpt>
      <trkpt lat="47.80771" lon="-3.34019">
        <ele>98</ele>
        <time>2015-01-22T11:09:42.481Z</time>
      </trkpt>
      <trkpt lat="47.80769" lon="-3.34019">
        <ele>98</ele>
        <time>2015-01-22T11:09:43.477Z</time>
      </trkpt>
      <trkpt lat="47.80769" lon="-3.34006">
        <ele>96</ele>
        <time>2015-01-22T11:09:54.478Z</time>
      </trkpt>
      <trkpt lat="47.80769" lon="-3.34004">
        <ele>97</ele>
        <time>2015-01-22T11:09:55.474Z</time>
      </trkpt>
      <trkpt lat="47.80761" lon="-3.34005">
        <ele>98</ele>
        <time>2015-01-22T11:10:20.486Z</time>
      </trkpt>
      <trkpt lat="47.80759" lon="-3.34007">
        <ele>97</ele>
        <time>2015-01-22T11:10:21.475Z</time>
      </trkpt>
      <trkpt lat="47.80751" lon="-3.34009">
        <ele>94</ele>
        <time>2015-01-22T11:10:24.477Z</time>
      </trkpt>
      <trkpt lat="47.80748" lon="-3.34008">
        <ele>95</ele>
        <time>2015-01-22T11:10:25.475Z</time>
      </trkpt>
      <trkpt lat="47.80739" lon="-3.3401">
        <ele>94</ele>
        <time>2015-01-22T11:10:28.475Z</time>
      </trkpt>
      <trkpt lat="47.80736" lon="-3.34013">
        <ele>93</ele>
        <time>2015-01-22T11:10:29.475Z</time>
      </trkpt>
      <trkpt lat="47.80733" lon="-3.34023">
        <ele>93</ele>
        <time>2015-01-22T11:10:31.514Z</time>
      </trkpt>
      <trkpt lat="47.80733" lon="-3.34029">
        <ele>93</ele>
        <time>2015-01-22T11:10:32.476Z</time>
      </trkpt>
      <trkpt lat="47.80734" lon="-3.3404">
        <ele>92</ele>
        <time>2015-01-22T11:10:34.541Z</time>
      </trkpt>
      <trkpt lat="47.80734" lon="-3.34046">
        <ele>92</ele>
        <time>2015-01-22T11:10:35.562Z</time>
      </trkpt>
      <trkpt lat="47.80735" lon="-3.34057">
        <ele>89</ele>
        <time>2015-01-22T11:10:37.475Z</time>
      </trkpt>
      <trkpt lat="47.80736" lon="-3.34062">
        <ele>89</ele>
        <time>2015-01-22T11:10:38.501Z</time>
      </trkpt>
      <trkpt lat="47.80742" lon="-3.34071">
        <ele>88</ele>
        <time>2015-01-22T11:10:50.476Z</time>
      </trkpt>
      <trkpt lat="47.80743" lon="-3.34076">
        <ele>87</ele>
        <time>2015-01-22T11:10:51.476Z</time>
      </trkpt>
      <trkpt lat="47.80743" lon="-3.34086">
        <ele>87</ele>
        <time>2015-01-22T11:10:54.473Z</time>
      </trkpt>
      <trkpt lat="47.80743" lon="-3.34089">
        <ele>88</ele>
        <time>2015-01-22T11:10:55.519Z</time>
      </trkpt>
      <trkpt lat="47.80747" lon="-3.34078">
        <ele>88</ele>
        <time>2015-01-22T11:11:24.478Z</time>
      </trkpt>
      <trkpt lat="47.80749" lon="-3.34077">
        <ele>89</ele>
        <time>2015-01-22T11:11:25.479Z</time>
      </trkpt>
      <trkpt lat="47.80755" lon="-3.34082">
        <ele>90</ele>
        <time>2015-01-22T11:11:33.478Z</time>
      </trkpt>
      <trkpt lat="47.80757" lon="-3.34085">
        <ele>91</ele>
        <time>2015-01-22T11:11:34.487Z</time>
      </trkpt>
      <trkpt lat="47.8075" lon="-3.34092">
        <ele>88</ele>
        <time>2015-01-22T11:11:41.475Z</time>
      </trkpt>
      <trkpt lat="47.80749" lon="-3.34093">
        <ele>89</ele>
        <time>2015-01-22T11:11:42.479Z</time>
      </trkpt>
      <trkpt lat="47.80741" lon="-3.34091">
        <ele>93</ele>
        <time>2015-01-22T11:15:28.473Z</time>
      </trkpt>
      <trkpt lat="47.8074" lon="-3.34089">
        <ele>92</ele>
        <time>2015-01-22T11:15:29.472Z</time>
      </trkpt>
      <trkpt lat="47.80738" lon="-3.34081">
        <ele>92</ele>
        <time>2015-01-22T11:15:31.472Z</time>
      </trkpt>
      <trkpt lat="47.80737" lon="-3.34076">
        <ele>93</ele>
        <time>2015-01-22T11:15:32.472Z</time>
      </trkpt>
      <trkpt lat="47.80734" lon="-3.34067">
        <ele>92</ele>
        <time>2015-01-22T11:15:34.472Z</time>
      </trkpt>
      <trkpt lat="47.80733" lon="-3.34062">
        <ele>92</ele>
        <time>2015-01-22T11:15:35.476Z</time>
      </trkpt>
      <trkpt lat="47.80732" lon="-3.34053">
        <ele>92</ele>
        <time>2015-01-22T11:15:37.472Z</time>
      </trkpt>
      <trkpt lat="47.80732" lon="-3.34048">
        <ele>93</ele>
        <time>2015-01-22T11:15:38.470Z</time>
      </trkpt>
      <trkpt lat="47.80732" lon="-3.34036">
        <ele>94</ele>
        <time>2015-01-22T11:15:41.476Z</time>
      </trkpt>
      <trkpt lat="47.80732" lon="-3.34032">
        <ele>94</ele>
        <time>2015-01-22T11:15:42.471Z</time>
      </trkpt>
      <trkpt lat="47.80731" lon="-3.34022">
        <ele>92</ele>
        <time>2015-01-22T11:15:45.471Z</time>
      </trkpt>
      <trkpt lat="47.80729" lon="-3.34019">
        <ele>91</ele>
        <time>2015-01-22T11:15:46.470Z</time>
      </trkpt>
      <trkpt lat="47.80723" lon="-3.34015">
        <ele>92</ele>
        <time>2015-01-22T11:15:48.473Z</time>
      </trkpt>
      <trkpt lat="47.8072" lon="-3.34014">
        <ele>92</ele>
        <time>2015-01-22T11:15:49.473Z</time>
      </trkpt>
      <trkpt lat="47.80712" lon="-3.34013">
        <ele>93</ele>
        <time>2015-01-22T11:15:51.473Z</time>
      </trkpt>
      <trkpt lat="47.80708" lon="-3.34012">
        <ele>92</ele>
        <time>2015-01-22T11:15:52.474Z</time>
      </trkpt>
      <trkpt lat="47.807" lon="-3.3401">
        <ele>93</ele>
        <time>2015-01-22T11:15:59.476Z</time>
      </trkpt>
      <trkpt lat="47.80699" lon="-3.34009">
        <ele>93</ele>
        <time>2015-01-22T11:16:00.471Z</time>
      </trkpt>
      <trkpt lat="47.80693" lon="-3.34005">
        <ele>92</ele>
        <time>2015-01-22T11:16:02.474Z</time>
      </trkpt>
      <trkpt lat="47.8069" lon="-3.34004">
        <ele>91</ele>
        <time>2015-01-22T11:16:03.471Z</time>
      </trkpt>
      <trkpt lat="47.80683" lon="-3.33998">
        <ele>92</ele>
        <time>2015-01-22T11:16:19.472Z</time>
      </trkpt>
      <trkpt lat="47.80682" lon="-3.33997">
        <ele>92</ele>
        <time>2015-01-22T11:16:20.473Z</time>
      </trkpt>
      <trkpt lat="47.80676" lon="-3.33995">
        <ele>93</ele>
        <time>2015-01-22T11:16:42.470Z</time>
      </trkpt>
      <trkpt lat="47.80673" lon="-3.33993">
        <ele>92</ele>
        <time>2015-01-22T11:16:43.471Z</time>
      </trkpt>
      <trkpt lat="47.80667" lon="-3.33991">
        <ele>90</ele>
        <time>2015-01-22T11:16:45.474Z</time>
      </trkpt>
      <trkpt lat="47.80664" lon="-3.33991">
        <ele>89</ele>
        <time>2015-01-22T11:16:46.470Z</time>
      </trkpt>
      <trkpt lat="47.80657" lon="-3.33989">
        <ele>89</ele>
        <time>2015-01-22T11:16:48.471Z</time>
      </trkpt>
      <trkpt lat="47.80654" lon="-3.33988">
        <ele>89</ele>
        <time>2015-01-22T11:16:49.471Z</time>
      </trkpt>
      <trkpt lat="47.80646" lon="-3.33983">
        <ele>88</ele>
        <time>2015-01-22T11:16:51.470Z</time>
      </trkpt>
      <trkpt lat="47.80642" lon="-3.33981">
        <ele>89</ele>
        <time>2015-01-22T11:16:52.469Z</time>
      </trkpt>
      <trkpt lat="47.80637" lon="-3.33972">
        <ele>88</ele>
        <time>2015-01-22T11:16:54.470Z</time>
      </trkpt>
      <trkpt lat="47.80636" lon="-3.33967">
        <ele>88</ele>
        <time>2015-01-22T11:16:55.469Z</time>
      </trkpt>
      <trkpt lat="47.80636" lon="-3.33954">
        <ele>88</ele>
        <time>2015-01-22T11:16:58.470Z</time>
      </trkpt>
      <trkpt lat="47.80636" lon="-3.3395">
        <ele>88</ele>
        <time>2015-01-22T11:16:59.469Z</time>
      </trkpt>
      <trkpt lat="47.80635" lon="-3.33938">
        <ele>86</ele>
        <time>2015-01-22T11:17:02.469Z</time>
      </trkpt>
      <trkpt lat="47.80635" lon="-3.33934">
        <ele>86</ele>
        <time>2015-01-22T11:17:03.469Z</time>
      </trkpt>
      <trkpt lat="47.80642" lon="-3.33942">
        <ele>90</ele>
        <time>2015-01-22T11:17:26.471Z</time>
      </trkpt>
      <trkpt lat="47.80642" lon="-3.33947">
        <ele>90</ele>
        <time>2015-01-22T11:17:27.471Z</time>
      </trkpt>
      <trkpt lat="47.80642" lon="-3.33959">
        <ele>91</ele>
        <time>2015-01-22T11:17:29.485Z</time>
      </trkpt>
      <trkpt lat="47.80643" lon="-3.33965">
        <ele>91</ele>
        <time>2015-01-22T11:17:30.470Z</time>
      </trkpt>
      <trkpt lat="47.80644" lon="-3.33976">
        <ele>91</ele>
        <time>2015-01-22T11:17:32.470Z</time>
      </trkpt>
      <trkpt lat="47.80644" lon="-3.33981">
        <ele>90</ele>
        <time>2015-01-22T11:17:33.474Z</time>
      </trkpt>
      <trkpt lat="47.80636" lon="-3.33983">
        <ele>91</ele>
        <time>2015-01-22T11:17:43.472Z</time>
      </trkpt>
      <trkpt lat="47.80634" lon="-3.33981">
        <ele>92</ele>
        <time>2015-01-22T11:17:44.469Z</time>
      </trkpt>
      <trkpt lat="47.80625" lon="-3.33979">
        <ele>93</ele>
        <time>2015-01-22T11:17:46.471Z</time>
      </trkpt>
      <trkpt lat="47.80621" lon="-3.33977">
        <ele>93</ele>
        <time>2015-01-22T11:17:47.472Z</time>
      </trkpt>
      <trkpt lat="47.80613" lon="-3.33976">
        <ele>92</ele>
        <time>2015-01-22T11:17:49.471Z</time>
      </trkpt>
      <trkpt lat="47.80609" lon="-3.33975">
        <ele>90</ele>
        <time>2015-01-22T11:17:50.469Z</time>
      </trkpt>
      <trkpt lat="47.80601" lon="-3.33976">
        <ele>89</ele>
        <time>2015-01-22T11:18:01.470Z</time>
      </trkpt>
      <trkpt lat="47.80597" lon="-3.33979">
        <ele>89</ele>
        <time>2015-01-22T11:18:02.469Z</time>
      </trkpt>
      <trkpt lat="47.80589" lon="-3.33982">
        <ele>88</ele>
        <time>2015-01-22T11:18:04.471Z</time>
      </trkpt>
      <trkpt lat="47.80585" lon="-3.33983">
        <ele>87</ele>
        <time>2015-01-22T11:18:05.470Z</time>
      </trkpt>
      <trkpt lat="47.80577" lon="-3.33985">
        <ele>91</ele>
        <time>2015-01-22T11:18:13.469Z</time>
      </trkpt>
      <trkpt lat="47.80576" lon="-3.33984">
        <ele>90</ele>
        <time>2015-01-22T11:18:14.470Z</time>
      </trkpt>
      <trkpt lat="47.80569" lon="-3.33985">
        <ele>89</ele>
        <time>2015-01-22T11:18:16.502Z</time>
      </trkpt>
      <trkpt lat="47.80566" lon="-3.33989">
        <ele>89</ele>
        <time>2015-01-22T11:18:17.472Z</time>
      </trkpt>
      <trkpt lat="47.80564" lon="-3.34001">
        <ele>88</ele>
        <time>2015-01-22T11:18:19.470Z</time>
      </trkpt>
      <trkpt lat="47.80565" lon="-3.34008">
        <ele>88</ele>
        <time>2015-01-22T11:18:20.469Z</time>
      </trkpt>
      <trkpt lat="47.80569" lon="-3.3402">
        <ele>87</ele>
        <time>2015-01-22T11:18:21.470Z</time>
      </trkpt>
      <trkpt lat="47.8057" lon="-3.34027">
        <ele>87</ele>
        <time>2015-01-22T11:18:22.471Z</time>
      </trkpt>
      <trkpt lat="47.80571" lon="-3.34036">
        <ele>86</ele>
        <time>2015-01-22T11:18:23.469Z</time>
      </trkpt>
      <trkpt lat="47.80571" lon="-3.34044">
        <ele>87</ele>
        <time>2015-01-22T11:18:24.469Z</time>
      </trkpt>
      <trkpt lat="47.80572" lon="-3.34052">
        <ele>87</ele>
        <time>2015-01-22T11:18:25.471Z</time>
      </trkpt>
      <trkpt lat="47.80573" lon="-3.34061">
        <ele>87</ele>
        <time>2015-01-22T11:18:26.473Z</time>
      </trkpt>
      <trkpt lat="47.80573" lon="-3.34069">
        <ele>86</ele>
        <time>2015-01-22T11:18:27.485Z</time>
      </trkpt>
      <trkpt lat="47.80573" lon="-3.34077">
        <ele>85</ele>
        <time>2015-01-22T11:18:28.470Z</time>
      </trkpt>
      <trkpt lat="47.80574" lon="-3.34085">
        <ele>85</ele>
        <time>2015-01-22T11:18:29.468Z</time>
      </trkpt>
      <trkpt lat="47.80574" lon="-3.34092">
        <ele>85</ele>
        <time>2015-01-22T11:18:30.758Z</time>
      </trkpt>
      <trkpt lat="47.80574" lon="-3.34099">
        <ele>84</ele>
        <time>2015-01-22T11:18:31.459Z</time>
      </trkpt>
      <trkpt lat="47.80568" lon="-3.34105">
        <ele>83</ele>
        <time>2015-01-22T11:18:33.466Z</time>
      </trkpt>
      <trkpt lat="47.80563" lon="-3.34106">
        <ele>83</ele>
        <time>2015-01-22T11:18:34.470Z</time>
      </trkpt>
      <trkpt lat="47.80555" lon="-3.34107">
        <ele>83</ele>
        <time>2015-01-22T11:18:36.513Z</time>
      </trkpt>
      <trkpt lat="47.80551" lon="-3.34108">
        <ele>83</ele>
        <time>2015-01-22T11:18:37.467Z</time>
      </trkpt>
      <trkpt lat="47.80542" lon="-3.34106">
        <ele>86</ele>
        <time>2015-01-22T11:20:20.470Z</time>
      </trkpt>
      <trkpt lat="47.80542" lon="-3.34106">
        <ele>86</ele>
        <time>2015-01-22T11:20:21.470Z</time>
      </trkpt>
      <trkpt lat="47.80549" lon="-3.34102">
        <ele>87</ele>
        <time>2015-01-22T11:21:05.463Z</time>
      </trkpt>
      <trkpt lat="47.80551" lon="-3.34101">
        <ele>88</ele>
        <time>2015-01-22T11:21:06.466Z</time>
      </trkpt>
      <trkpt lat="47.80557" lon="-3.341">
        <ele>87</ele>
        <time>2015-01-22T11:21:08.471Z</time>
      </trkpt>
      <trkpt lat="47.8056" lon="-3.34099">
        <ele>87</ele>
        <time>2015-01-22T11:21:09.469Z</time>
      </trkpt>
      <trkpt lat="47.80565" lon="-3.34088">
        <ele>85</ele>
        <time>2015-01-22T11:21:14.481Z</time>
      </trkpt>
      <trkpt lat="47.80564" lon="-3.34085">
        <ele>85</ele>
        <time>2015-01-22T11:21:15.530Z</time>
      </trkpt>
      <trkpt lat="47.80562" lon="-3.34073">
        <ele>87</ele>
        <time>2015-01-22T11:21:18.469Z</time>
      </trkpt>
      <trkpt lat="47.80562" lon="-3.34069">
        <ele>86</ele>
        <time>2015-01-22T11:21:19.468Z</time>
      </trkpt>
      <trkpt lat="47.80561" lon="-3.34056">
        <ele>87</ele>
        <time>2015-01-22T11:21:22.486Z</time>
      </trkpt>
      <trkpt lat="47.8056" lon="-3.34052">
        <ele>87</ele>
        <time>2015-01-22T11:21:23.483Z</time>
      </trkpt>
      <trkpt lat="47.80559" lon="-3.3404">
        <ele>87</ele>
        <time>2015-01-22T11:21:27.530Z</time>
      </trkpt>
      <trkpt lat="47.80558" lon="-3.34037">
        <ele>87</ele>
        <time>2015-01-22T11:21:28.513Z</time>
      </trkpt>
      <trkpt lat="47.80557" lon="-3.34026">
        <ele>88</ele>
        <time>2015-01-22T11:21:31.550Z</time>
      </trkpt>
      <trkpt lat="47.80557" lon="-3.34023">
        <ele>87</ele>
        <time>2015-01-22T11:21:32.492Z</time>
      </trkpt>
      <trkpt lat="47.80556" lon="-3.34011">
        <ele>89</ele>
        <time>2015-01-22T11:21:35.510Z</time>
      </trkpt>
      <trkpt lat="47.80556" lon="-3.34008">
        <ele>88</ele>
        <time>2015-01-22T11:21:36.468Z</time>
      </trkpt>
      <trkpt lat="47.80559" lon="-3.33995">
        <ele>86</ele>
        <time>2015-01-22T11:21:51.467Z</time>
      </trkpt>
      <trkpt lat="47.80559" lon="-3.33994">
        <ele>86</ele>
        <time>2015-01-22T11:21:52.468Z</time>
      </trkpt>
      <trkpt lat="47.80561" lon="-3.33981">
        <ele>89</ele>
        <time>2015-01-22T11:21:57.464Z</time>
      </trkpt>
      <trkpt lat="47.80561" lon="-3.3398">
        <ele>88</ele>
        <time>2015-01-22T11:21:58.481Z</time>
      </trkpt>
      <trkpt lat="47.8056" lon="-3.33968">
        <ele>90</ele>
        <time>2015-01-22T11:22:03.626Z</time>
      </trkpt>
      <trkpt lat="47.8056" lon="-3.33966">
        <ele>89</ele>
        <time>2015-01-22T11:22:04.477Z</time>
      </trkpt>
      <trkpt lat="47.80562" lon="-3.33953">
        <ele>90</ele>
        <time>2015-01-22T11:22:19.466Z</time>
      </trkpt>
      <trkpt lat="47.80562" lon="-3.33949">
        <ele>90</ele>
        <time>2015-01-22T11:22:20.468Z</time>
      </trkpt>
      <trkpt lat="47.80561" lon="-3.33937">
        <ele>88</ele>
        <time>2015-01-22T11:22:23.467Z</time>
      </trkpt>
      <trkpt lat="47.80561" lon="-3.33933">
        <ele>88</ele>
        <time>2015-01-22T11:22:24.465Z</time>
      </trkpt>
      <trkpt lat="47.8056" lon="-3.33921">
        <ele>88</ele>
        <time>2015-01-22T11:22:27.524Z</time>
      </trkpt>
      <trkpt lat="47.8056" lon="-3.33917">
        <ele>88</ele>
        <time>2015-01-22T11:22:28.466Z</time>
      </trkpt>
      <trkpt lat="47.80567" lon="-3.33909">
        <ele>88</ele>
        <time>2015-01-22T11:22:56.550Z</time>
      </trkpt>
      <trkpt lat="47.80567" lon="-3.33909">
        <ele>88</ele>
        <time>2015-01-22T11:22:57.553Z</time>
      </trkpt>
      <trkpt lat="47.80562" lon="-3.339">
        <ele>87</ele>
        <time>2015-01-22T11:23:12.464Z</time>
      </trkpt>
      <trkpt lat="47.80562" lon="-3.33898">
        <ele>87</ele>
        <time>2015-01-22T11:23:13.465Z</time>
      </trkpt>
      <trkpt lat="47.80564" lon="-3.33886">
        <ele>87</ele>
        <time>2015-01-22T11:23:19.463Z</time>
      </trkpt>
      <trkpt lat="47.80564" lon="-3.33884">
        <ele>87</ele>
        <time>2015-01-22T11:23:20.568Z</time>
      </trkpt>
      <trkpt lat="47.80567" lon="-3.33872">
        <ele>88</ele>
        <time>2015-01-22T11:24:09.467Z</time>
      </trkpt>
      <trkpt lat="47.80568" lon="-3.3387">
        <ele>88</ele>
        <time>2015-01-22T11:24:10.468Z</time>
      </trkpt>
      <trkpt lat="47.80573" lon="-3.3386">
        <ele>87</ele>
        <time>2015-01-22T11:24:32.551Z</time>
      </trkpt>
      <trkpt lat="47.80574" lon="-3.33859">
        <ele>87</ele>
        <time>2015-01-22T11:24:33.530Z</time>
      </trkpt>
      <trkpt lat="47.80577" lon="-3.3385">
        <ele>87</ele>
        <time>2015-01-22T11:24:36.465Z</time>
      </trkpt>
      <trkpt lat="47.80577" lon="-3.33846">
        <ele>87</ele>
        <time>2015-01-22T11:24:37.466Z</time>
      </trkpt>
      <trkpt lat="47.80577" lon="-3.33835">
        <ele>85</ele>
        <time>2015-01-22T11:24:46.463Z</time>
      </trkpt>
      <trkpt lat="47.80576" lon="-3.33831">
        <ele>85</ele>
        <time>2015-01-22T11:24:47.492Z</time>
      </trkpt>
      <trkpt lat="47.80571" lon="-3.33822">
        <ele>85</ele>
        <time>2015-01-22T11:24:50.463Z</time>
      </trkpt>
      <trkpt lat="47.80567" lon="-3.33819">
        <ele>84</ele>
        <time>2015-01-22T11:24:51.508Z</time>
      </trkpt>
      <trkpt lat="47.8056" lon="-3.33814">
        <ele>84</ele>
        <time>2015-01-22T11:24:53.463Z</time>
      </trkpt>
      <trkpt lat="47.80556" lon="-3.33811">
        <ele>83</ele>
        <time>2015-01-22T11:24:54.529Z</time>
      </trkpt>
      <trkpt lat="47.80549" lon="-3.33806">
        <ele>82</ele>
        <time>2015-01-22T11:24:56.464Z</time>
      </trkpt>
      <trkpt lat="47.80545" lon="-3.33803">
        <ele>82</ele>
        <time>2015-01-22T11:24:57.461Z</time>
      </trkpt>
      <trkpt lat="47.80538" lon="-3.33798">
        <ele>83</ele>
        <time>2015-01-22T11:24:59.523Z</time>
      </trkpt>
      <trkpt lat="47.80535" lon="-3.33796">
        <ele>82</ele>
        <time>2015-01-22T11:25:00.473Z</time>
      </trkpt>
      <trkpt lat="47.80527" lon="-3.33791">
        <ele>84</ele>
        <time>2015-01-22T11:25:06.515Z</time>
      </trkpt>
      <trkpt lat="47.80526" lon="-3.3379">
        <ele>82</ele>
        <time>2015-01-22T11:25:07.502Z</time>
      </trkpt>
      <trkpt lat="47.80517" lon="-3.3379">
        <ele>83</ele>
        <time>2015-01-22T11:25:13.535Z</time>
      </trkpt>
      <trkpt lat="47.80516" lon="-3.33791">
        <ele>82</ele>
        <time>2015-01-22T11:25:14.500Z</time>
      </trkpt>
      <trkpt lat="47.80509" lon="-3.33792">
        <ele>82</ele>
        <time>2015-01-22T11:25:17.553Z</time>
      </trkpt>
      <trkpt lat="47.80507" lon="-3.33794">
        <ele>82</ele>
        <time>2015-01-22T11:25:18.500Z</time>
      </trkpt>
      <trkpt lat="47.80502" lon="-3.33804">
        <ele>82</ele>
        <time>2015-01-22T11:25:21.509Z</time>
      </trkpt>
      <trkpt lat="47.80502" lon="-3.33807">
        <ele>83</ele>
        <time>2015-01-22T11:25:22.467Z</time>
      </trkpt>
      <trkpt lat="47.80498" lon="-3.33817">
        <ele>82</ele>
        <time>2015-01-22T11:25:26.520Z</time>
      </trkpt>
      <trkpt lat="47.80496" lon="-3.33823">
        <ele>82</ele>
        <time>2015-01-22T11:25:27.472Z</time>
      </trkpt>
      <trkpt lat="47.80494" lon="-3.33829">
        <ele>82</ele>
        <time>2015-01-22T11:25:28.492Z</time>
      </trkpt>
      <trkpt lat="47.80492" lon="-3.33835">
        <ele>82</ele>
        <time>2015-01-22T11:25:29.462Z</time>
      </trkpt>
      <trkpt lat="47.8049" lon="-3.33842">
        <ele>81</ele>
        <time>2015-01-22T11:25:30.462Z</time>
      </trkpt>
      <trkpt lat="47.80489" lon="-3.33848">
        <ele>81</ele>
        <time>2015-01-22T11:25:31.463Z</time>
      </trkpt>
      <trkpt lat="47.80489" lon="-3.3386">
        <ele>80</ele>
        <time>2015-01-22T11:25:33.461Z</time>
      </trkpt>
      <trkpt lat="47.80491" lon="-3.33862">
        <ele>80</ele>
        <time>2015-01-22T11:25:34.462Z</time>
      </trkpt>
      <trkpt lat="47.80498" lon="-3.33864">
        <ele>80</ele>
        <time>2015-01-22T11:25:40.511Z</time>
      </trkpt>
      <trkpt lat="47.80501" lon="-3.33866">
        <ele>80</ele>
        <time>2015-01-22T11:25:41.461Z</time>
      </trkpt>
      <trkpt lat="47.80507" lon="-3.33872">
        <ele>80</ele>
        <time>2015-01-22T11:25:44.464Z</time>
      </trkpt>
      <trkpt lat="47.80509" lon="-3.33875">
        <ele>81</ele>
        <time>2015-01-22T11:25:45.464Z</time>
      </trkpt>
      <trkpt lat="47.80517" lon="-3.33879">
        <ele>80</ele>
        <time>2015-01-22T11:26:02.461Z</time>
      </trkpt>
      <trkpt lat="47.80518" lon="-3.3388">
        <ele>81</ele>
        <time>2015-01-22T11:26:03.464Z</time>
      </trkpt>
      <trkpt lat="47.80517" lon="-3.3389">
        <ele>81</ele>
        <time>2015-01-22T11:26:06.462Z</time>
      </trkpt>
      <trkpt lat="47.80516" lon="-3.33894">
        <ele>81</ele>
        <time>2015-01-22T11:26:07.540Z</time>
      </trkpt>
      <trkpt lat="47.80519" lon="-3.33905">
        <ele>79</ele>
        <time>2015-01-22T11:26:19.461Z</time>
      </trkpt>
      <trkpt lat="47.80517" lon="-3.33908">
        <ele>80</ele>
        <time>2015-01-22T11:26:20.462Z</time>
      </trkpt>
      <trkpt lat="47.80511" lon="-3.33918">
        <ele>80</ele>
        <time>2015-01-22T11:26:28.463Z</time>
      </trkpt>
      <trkpt lat="47.8051" lon="-3.33918">
        <ele>80</ele>
        <time>2015-01-22T11:26:29.465Z</time>
      </trkpt>
      <trkpt lat="47.80512" lon="-3.3393">
        <ele>80</ele>
        <time>2015-01-22T11:26:39.496Z</time>
      </trkpt>
      <trkpt lat="47.80513" lon="-3.33934">
        <ele>80</ele>
        <time>2015-01-22T11:26:40.540Z</time>
      </trkpt>
      <trkpt lat="47.80515" lon="-3.33944">
        <ele>81</ele>
        <time>2015-01-22T11:26:43.473Z</time>
      </trkpt>
      <trkpt lat="47.80516" lon="-3.33947">
        <ele>81</ele>
        <time>2015-01-22T11:26:44.526Z</time>
      </trkpt>
      <trkpt lat="47.80517" lon="-3.33959">
        <ele>80</ele>
        <time>2015-01-22T11:26:52.481Z</time>
      </trkpt>
      <trkpt lat="47.80518" lon="-3.33961">
        <ele>80</ele>
        <time>2015-01-22T11:26:53.545Z</time>
      </trkpt>
      <trkpt lat="47.80515" lon="-3.33971">
        <ele>82</ele>
        <time>2015-01-22T11:27:10.461Z</time>
      </trkpt>
      <trkpt lat="47.80515" lon="-3.33974">
        <ele>81</ele>
        <time>2015-01-22T11:27:11.528Z</time>
      </trkpt>
      <trkpt lat="47.80516" lon="-3.33985">
        <ele>82</ele>
        <time>2015-01-22T11:27:14.541Z</time>
      </trkpt>
      <trkpt lat="47.80515" lon="-3.33989">
        <ele>82</ele>
        <time>2015-01-22T11:27:15.505Z</time>
      </trkpt>
      <trkpt lat="47.80514" lon="-3.33977">
        <ele>81</ele>
        <time>2015-01-22T11:27:26.461Z</time>
      </trkpt>
      <trkpt lat="47.80514" lon="-3.33973">
        <ele>80</ele>
        <time>2015-01-22T11:27:27.540Z</time>
      </trkpt>
      <trkpt lat="47.80514" lon="-3.33962">
        <ele>80</ele>
        <time>2015-01-22T11:27:30.464Z</time>
      </trkpt>
      <trkpt lat="47.80513" lon="-3.33959">
        <ele>79</ele>
        <time>2015-01-22T11:27:31.519Z</time>
      </trkpt>
      <trkpt lat="47.8051" lon="-3.33948">
        <ele>77</ele>
        <time>2015-01-22T11:27:39.460Z</time>
      </trkpt>
      <trkpt lat="47.80508" lon="-3.33947">
        <ele>77</ele>
        <time>2015-01-22T11:27:40.460Z</time>
      </trkpt>
      <trkpt lat="47.80501" lon="-3.33947">
        <ele>77</ele>
        <time>2015-01-22T11:27:42.487Z</time>
      </trkpt>
      <trkpt lat="47.80497" lon="-3.33947">
        <ele>78</ele>
        <time>2015-01-22T11:27:43.470Z</time>
      </trkpt>
      <trkpt lat="47.80489" lon="-3.33946">
        <ele>78</ele>
        <time>2015-01-22T11:27:45.515Z</time>
      </trkpt>
      <trkpt lat="47.80486" lon="-3.33945">
        <ele>77</ele>
        <time>2015-01-22T11:27:46.462Z</time>
      </trkpt>
      <trkpt lat="47.80478" lon="-3.33941">
        <ele>78</ele>
        <time>2015-01-22T11:27:55.542Z</time>
      </trkpt>
      <trkpt lat="47.80477" lon="-3.33941">
        <ele>77</ele>
        <time>2015-01-22T11:27:56.468Z</time>
      </trkpt>
      <trkpt lat="47.80471" lon="-3.33934">
        <ele>72</ele>
        <time>2015-01-22T11:28:05.462Z</time>
      </trkpt>
      <trkpt lat="47.80467" lon="-3.33932">
        <ele>73</ele>
        <time>2015-01-22T11:28:06.522Z</time>
      </trkpt>
      <trkpt lat="47.80458" lon="-3.33933">
        <ele>73</ele>
        <time>2015-01-22T11:28:08.490Z</time>
      </trkpt>
      <trkpt lat="47.80455" lon="-3.33936">
        <ele>72</ele>
        <time>2015-01-22T11:28:09.459Z</time>
      </trkpt>
      <trkpt lat="47.8045" lon="-3.33944">
        <ele>73</ele>
        <time>2015-01-22T11:28:11.464Z</time>
      </trkpt>
      <trkpt lat="47.80448" lon="-3.33946">
        <ele>74</ele>
        <time>2015-01-22T11:28:12.467Z</time>
      </trkpt>
      <trkpt lat="47.80443" lon="-3.33956">
        <ele>73</ele>
        <time>2015-01-22T11:28:19.511Z</time>
      </trkpt>
      <trkpt lat="47.80441" lon="-3.33958">
        <ele>74</ele>
        <time>2015-01-22T11:28:20.540Z</time>
      </trkpt>
      <trkpt lat="47.80448" lon="-3.33952">
        <ele>73</ele>
        <time>2015-01-22T11:28:31.508Z</time>
      </trkpt>
      <trkpt lat="47.8045" lon="-3.33949">
        <ele>73</ele>
        <time>2015-01-22T11:28:32.458Z</time>
      </trkpt>
      <trkpt lat="47.80455" lon="-3.33939">
        <ele>72</ele>
        <time>2015-01-22T11:28:35.458Z</time>
      </trkpt>
      <trkpt lat="47.80456" lon="-3.33935">
        <ele>72</ele>
        <time>2015-01-22T11:28:36.458Z</time>
      </trkpt>
      <trkpt lat="47.80458" lon="-3.33922">
        <ele>73</ele>
        <time>2015-01-22T11:28:39.489Z</time>
      </trkpt>
      <trkpt lat="47.80459" lon="-3.3392">
        <ele>73</ele>
        <time>2015-01-22T11:28:40.488Z</time>
      </trkpt>
      <trkpt lat="47.80459" lon="-3.33907">
        <ele>74</ele>
        <time>2015-01-22T11:28:48.462Z</time>
      </trkpt>
      <trkpt lat="47.8046" lon="-3.33904">
        <ele>75</ele>
        <time>2015-01-22T11:28:49.460Z</time>
      </trkpt>
      <trkpt lat="47.80464" lon="-3.33895">
        <ele>75</ele>
        <time>2015-01-22T11:28:56.491Z</time>
      </trkpt>
      <trkpt lat="47.80465" lon="-3.33892">
        <ele>75</ele>
        <time>2015-01-22T11:28:57.470Z</time>
      </trkpt>
      <trkpt lat="47.80469" lon="-3.33882">
        <ele>76</ele>
        <time>2015-01-22T11:29:00.469Z</time>
      </trkpt>
      <trkpt lat="47.8047" lon="-3.33879">
        <ele>75</ele>
        <time>2015-01-22T11:29:01.541Z</time>
      </trkpt>
      <trkpt lat="47.80477" lon="-3.33873">
        <ele>74</ele>
        <time>2015-01-22T11:29:16.462Z</time>
      </trkpt>
      <trkpt lat="47.80478" lon="-3.33872">
        <ele>74</ele>
        <time>2015-01-22T11:29:17.459Z</time>
      </trkpt>
      <trkpt lat="47.80474" lon="-3.33865">
        <ele>75</ele>
        <time>2015-01-22T11:29:20.460Z</time>
      </trkpt>
      <trkpt lat="47.80472" lon="-3.33861">
        <ele>75</ele>
        <time>2015-01-22T11:29:21.460Z</time>
      </trkpt>
      <trkpt lat="47.80467" lon="-3.33855">
        <ele>73</ele>
        <time>2015-01-22T11:29:23.467Z</time>
      </trkpt>
      <trkpt lat="47.80465" lon="-3.33853">
        <ele>73</ele>
        <time>2015-01-22T11:29:24.557Z</time>
      </trkpt>
      <trkpt lat="47.80458" lon="-3.33845">
        <ele>72</ele>
        <time>2015-01-22T11:29:27.459Z</time>
      </trkpt>
      <trkpt lat="47.80456" lon="-3.33843">
        <ele>72</ele>
        <time>2015-01-22T11:29:28.536Z</time>
      </trkpt>
      <trkpt lat="47.80462" lon="-3.33849">
        <ele>73</ele>
        <time>2015-01-22T11:29:39.504Z</time>
      </trkpt>
      <trkpt lat="47.80464" lon="-3.33848">
        <ele>73</ele>
        <time>2015-01-22T11:29:40.459Z</time>
      </trkpt>
      <trkpt lat="47.80473" lon="-3.33848">
        <ele>75</ele>
        <time>2015-01-22T11:29:54.462Z</time>
      </trkpt>
      <trkpt lat="47.80474" lon="-3.33847">
        <ele>74</ele>
        <time>2015-01-22T11:29:55.492Z</time>
      </trkpt>
      <trkpt lat="47.80481" lon="-3.33852">
        <ele>76</ele>
        <time>2015-01-22T11:30:11.505Z</time>
      </trkpt>
      <trkpt lat="47.80483" lon="-3.33852">
        <ele>76</ele>
        <time>2015-01-22T11:30:12.496Z</time>
      </trkpt>
      <trkpt lat="47.80489" lon="-3.33841">
        <ele>75</ele>
        <time>2015-01-22T11:30:16.459Z</time>
      </trkpt>
      <trkpt lat="47.80489" lon="-3.33838">
        <ele>76</ele>
        <time>2015-01-22T11:30:17.462Z</time>
      </trkpt>
      <trkpt lat="47.80493" lon="-3.33826">
        <ele>76</ele>
        <time>2015-01-22T11:30:21.461Z</time>
      </trkpt>
      <trkpt lat="47.80493" lon="-3.33823">
        <ele>76</ele>
        <time>2015-01-22T11:30:22.454Z</time>
      </trkpt>
      <trkpt lat="47.80496" lon="-3.33811">
        <ele>77</ele>
        <time>2015-01-22T11:30:26.459Z</time>
      </trkpt>
      <trkpt lat="47.80497" lon="-3.33808">
        <ele>78</ele>
        <time>2015-01-22T11:30:27.459Z</time>
      </trkpt>
      <trkpt lat="47.80502" lon="-3.33797">
        <ele>76</ele>
        <time>2015-01-22T11:30:31.488Z</time>
      </trkpt>
      <trkpt lat="47.80504" lon="-3.33795">
        <ele>77</ele>
        <time>2015-01-22T11:30:32.538Z</time>
      </trkpt>
      <trkpt lat="47.8051" lon="-3.33786">
        <ele>72</ele>
        <time>2015-01-22T11:30:36.462Z</time>
      </trkpt>
      <trkpt lat="47.80511" lon="-3.33784">
        <ele>72</ele>
        <time>2015-01-22T11:30:37.496Z</time>
      </trkpt>
      <trkpt lat="47.80518" lon="-3.33781">
        <ele>77</ele>
        <time>2015-01-22T11:30:41.551Z</time>
      </trkpt>
      <trkpt lat="47.8052" lon="-3.33782">
        <ele>77</ele>
        <time>2015-01-22T11:30:42.467Z</time>
      </trkpt>
      <trkpt lat="47.80529" lon="-3.33787">
        <ele>77</ele>
        <time>2015-01-22T11:30:45.457Z</time>
      </trkpt>
      <trkpt lat="47.80531" lon="-3.33789">
        <ele>78</ele>
        <time>2015-01-22T11:30:46.458Z</time>
      </trkpt>
      <trkpt lat="47.80539" lon="-3.33794">
        <ele>80</ele>
        <time>2015-01-22T11:30:49.456Z</time>
      </trkpt>
      <trkpt lat="47.80541" lon="-3.33796">
        <ele>81</ele>
        <time>2015-01-22T11:30:50.489Z</time>
      </trkpt>
      <trkpt lat="47.80549" lon="-3.338">
        <ele>82</ele>
        <time>2015-01-22T11:30:53.459Z</time>
      </trkpt>
      <trkpt lat="47.80551" lon="-3.33802">
        <ele>82</ele>
        <time>2015-01-22T11:30:54.506Z</time>
      </trkpt>
      <trkpt lat="47.80558" lon="-3.33806">
        <ele>84</ele>
        <time>2015-01-22T11:30:57.509Z</time>
      </trkpt>
      <trkpt lat="47.80561" lon="-3.33807">
        <ele>85</ele>
        <time>2015-01-22T11:30:58.459Z</time>
      </trkpt>
      <trkpt lat="47.80569" lon="-3.33809">
        <ele>85</ele>
        <time>2015-01-22T11:31:06.494Z</time>
      </trkpt>
      <trkpt lat="47.8057" lon="-3.33811">
        <ele>86</ele>
        <time>2015-01-22T11:31:07.455Z</time>
      </trkpt>
      <trkpt lat="47.80576" lon="-3.3382">
        <ele>87</ele>
        <time>2015-01-22T11:31:15.494Z</time>
      </trkpt>
      <trkpt lat="47.80577" lon="-3.33821">
        <ele>87</ele>
        <time>2015-01-22T11:31:16.540Z</time>
      </trkpt>
      <trkpt lat="47.80582" lon="-3.33831">
        <ele>85</ele>
        <time>2015-01-22T11:31:20.458Z</time>
      </trkpt>
      <trkpt lat="47.80585" lon="-3.33833">
        <ele>85</ele>
        <time>2015-01-22T11:31:21.457Z</time>
      </trkpt>
      <trkpt lat="47.80591" lon="-3.33837">
        <ele>82</ele>
        <time>2015-01-22T11:31:24.499Z</time>
      </trkpt>
      <trkpt lat="47.80594" lon="-3.33838">
        <ele>83</ele>
        <time>2015-01-22T11:31:25.553Z</time>
      </trkpt>
      <trkpt lat="47.806" lon="-3.33844">
        <ele>83</ele>
        <time>2015-01-22T11:31:28.456Z</time>
      </trkpt>
      <trkpt lat="47.80601" lon="-3.33847">
        <ele>82</ele>
        <time>2015-01-22T11:31:29.458Z</time>
      </trkpt>
      <trkpt lat="47.80598" lon="-3.33838">
        <ele>85</ele>
        <time>2015-01-22T11:31:43.569Z</time>
      </trkpt>
      <trkpt lat="47.80598" lon="-3.33835">
        <ele>85</ele>
        <time>2015-01-22T11:31:44.482Z</time>
      </trkpt>
      <trkpt lat="47.80602" lon="-3.33824">
        <ele>81</ele>
        <time>2015-01-22T11:32:16.454Z</time>
      </trkpt>
      <trkpt lat="47.80602" lon="-3.33823">
        <ele>81</ele>
        <time>2015-01-22T11:32:17.457Z</time>
      </trkpt>
      <trkpt lat="47.80595" lon="-3.33819">
        <ele>84</ele>
        <time>2015-01-22T11:35:17.455Z</time>
      </trkpt>
      <trkpt lat="47.80593" lon="-3.33819">
        <ele>84</ele>
        <time>2015-01-22T11:35:18.457Z</time>
      </trkpt>
      <trkpt lat="47.80595" lon="-3.33807">
        <ele>84</ele>
        <time>2015-01-22T11:35:27.519Z</time>
      </trkpt>
      <trkpt lat="47.80595" lon="-3.33805">
        <ele>84</ele>
        <time>2015-01-22T11:35:28.459Z</time>
      </trkpt>
      <trkpt lat="47.806" lon="-3.33795">
        <ele>88</ele>
        <time>2015-01-22T11:35:33.456Z</time>
      </trkpt>
      <trkpt lat="47.80601" lon="-3.33791">
        <ele>87</ele>
        <time>2015-01-22T11:35:34.455Z</time>
      </trkpt>
      <trkpt lat="47.80606" lon="-3.33783">
        <ele>85</ele>
        <time>2015-01-22T11:35:37.549Z</time>
      </trkpt>
      <trkpt lat="47.80608" lon="-3.3378">
        <ele>86</ele>
        <time>2015-01-22T11:35:38.525Z</time>
      </trkpt>
      <trkpt lat="47.80614" lon="-3.33771">
        <ele>87</ele>
        <time>2015-01-22T11:35:50.480Z</time>
      </trkpt>
      <trkpt lat="47.80616" lon="-3.3377">
        <ele>87</ele>
        <time>2015-01-22T11:35:51.457Z</time>
      </trkpt>
      <trkpt lat="47.80624" lon="-3.33765">
        <ele>86</ele>
        <time>2015-01-22T11:35:54.457Z</time>
      </trkpt>
      <trkpt lat="47.80627" lon="-3.33763">
        <ele>86</ele>
        <time>2015-01-22T11:35:55.525Z</time>
      </trkpt>
      <trkpt lat="47.80633" lon="-3.33759">
        <ele>89</ele>
        <time>2015-01-22T11:35:57.509Z</time>
      </trkpt>
      <trkpt lat="47.80635" lon="-3.33758">
        <ele>88</ele>
        <time>2015-01-22T11:35:58.453Z</time>
      </trkpt>
      <trkpt lat="47.80643" lon="-3.33757">
        <ele>91</ele>
        <time>2015-01-22T11:36:31.455Z</time>
      </trkpt>
      <trkpt lat="47.80645" lon="-3.33757">
        <ele>91</ele>
        <time>2015-01-22T11:36:32.458Z</time>
      </trkpt>
      <trkpt lat="47.80651" lon="-3.33755">
        <ele>92</ele>
        <time>2015-01-22T11:36:34.503Z</time>
      </trkpt>
      <trkpt lat="47.80654" lon="-3.33754">
        <ele>92</ele>
        <time>2015-01-22T11:36:35.455Z</time>
      </trkpt>
      <trkpt lat="47.80662" lon="-3.33752">
        <ele>91</ele>
        <time>2015-01-22T11:36:38.514Z</time>
      </trkpt>
      <trkpt lat="47.80664" lon="-3.33751">
        <ele>91</ele>
        <time>2015-01-22T11:36:39.455Z</time>
      </trkpt>
      <trkpt lat="47.80672" lon="-3.33751">
        <ele>91</ele>
        <time>2015-01-22T11:36:42.508Z</time>
      </trkpt>
      <trkpt lat="47.80675" lon="-3.33751">
        <ele>92</ele>
        <time>2015-01-22T11:36:43.510Z</time>
      </trkpt>
      <trkpt lat="47.80682" lon="-3.33759">
        <ele>93</ele>
        <time>2015-01-22T11:36:55.480Z</time>
      </trkpt>
      <trkpt lat="47.80683" lon="-3.33759">
        <ele>93</ele>
        <time>2015-01-22T11:36:56.456Z</time>
      </trkpt>
      <trkpt lat="47.8069" lon="-3.33765">
        <ele>94</ele>
        <time>2015-01-22T11:37:19.457Z</time>
      </trkpt>
      <trkpt lat="47.80692" lon="-3.33767">
        <ele>92</ele>
        <time>2015-01-22T11:37:20.453Z</time>
      </trkpt>
      <trkpt lat="47.807" lon="-3.33773">
        <ele>93</ele>
        <time>2015-01-22T11:37:23.499Z</time>
      </trkpt>
      <trkpt lat="47.80702" lon="-3.33774">
        <ele>93</ele>
        <time>2015-01-22T11:37:24.530Z</time>
      </trkpt>
      <trkpt lat="47.80709" lon="-3.33773">
        <ele>89</ele>
        <time>2015-01-22T11:37:59.454Z</time>
      </trkpt>
      <trkpt lat="47.80712" lon="-3.33774">
        <ele>88</ele>
        <time>2015-01-22T11:38:00.471Z</time>
      </trkpt>
      <trkpt lat="47.80718" lon="-3.33778">
        <ele>86</ele>
        <time>2015-01-22T11:38:03.533Z</time>
      </trkpt>
      <trkpt lat="47.8072" lon="-3.33779">
        <ele>85</ele>
        <time>2015-01-22T11:38:04.467Z</time>
      </trkpt>
      <trkpt lat="47.80725" lon="-3.33784">
        <ele>88</ele>
        <time>2015-01-22T11:38:15.452Z</time>
      </trkpt>
      <trkpt lat="47.80728" lon="-3.33786">
        <ele>88</ele>
        <time>2015-01-22T11:38:16.453Z</time>
      </trkpt>
      <trkpt lat="47.80735" lon="-3.33789">
        <ele>88</ele>
        <time>2015-01-22T11:38:18.455Z</time>
      </trkpt>
      <trkpt lat="47.80738" lon="-3.33791">
        <ele>88</ele>
        <time>2015-01-22T11:38:19.450Z</time>
      </trkpt>
      <trkpt lat="47.80746" lon="-3.33795">
        <ele>88</ele>
        <time>2015-01-22T11:38:22.453Z</time>
      </trkpt>
      <trkpt lat="47.80748" lon="-3.33795">
        <ele>88</ele>
        <time>2015-01-22T11:38:23.453Z</time>
      </trkpt>
      <trkpt lat="47.80753" lon="-3.33801">
        <ele>88</ele>
        <time>2015-01-22T11:38:45.453Z</time>
      </trkpt>
      <trkpt lat="47.80756" lon="-3.33803">
        <ele>90</ele>
        <time>2015-01-22T11:38:46.459Z</time>
      </trkpt>
      <trkpt lat="47.80763" lon="-3.33807">
        <ele>87</ele>
        <time>2015-01-22T11:38:49.477Z</time>
      </trkpt>
      <trkpt lat="47.80765" lon="-3.33807">
        <ele>88</ele>
        <time>2015-01-22T11:38:50.519Z</time>
      </trkpt>
      <trkpt lat="47.80773" lon="-3.33813">
        <ele>90</ele>
        <time>2015-01-22T11:39:01.452Z</time>
      </trkpt>
      <trkpt lat="47.80776" lon="-3.33815">
        <ele>91</ele>
        <time>2015-01-22T11:39:02.451Z</time>
      </trkpt>
      <trkpt lat="47.80782" lon="-3.33819">
        <ele>89</ele>
        <time>2015-01-22T11:39:04.575Z</time>
      </trkpt>
      <trkpt lat="47.80785" lon="-3.33821">
        <ele>89</ele>
        <time>2015-01-22T11:39:05.518Z</time>
      </trkpt>
      <trkpt lat="47.80791" lon="-3.33824">
        <ele>87</ele>
        <time>2015-01-22T11:39:07.543Z</time>
      </trkpt>
      <trkpt lat="47.80795" lon="-3.33825">
        <ele>85</ele>
        <time>2015-01-22T11:39:08.472Z</time>
      </trkpt>
      <trkpt lat="47.80801" lon="-3.33828">
        <ele>86</ele>
        <time>2015-01-22T11:39:10.450Z</time>
      </trkpt>
      <trkpt lat="47.80805" lon="-3.33829">
        <ele>86</ele>
        <time>2015-01-22T11:39:11.518Z</time>
      </trkpt>
      <trkpt lat="47.80811" lon="-3.33831">
        <ele>86</ele>
        <time>2015-01-22T11:39:13.486Z</time>
      </trkpt>
      <trkpt lat="47.80814" lon="-3.33831">
        <ele>84</ele>
        <time>2015-01-22T11:39:14.540Z</time>
      </trkpt>
      <trkpt lat="47.80822" lon="-3.33828">
        <ele>87</ele>
        <time>2015-01-22T11:39:26.448Z</time>
      </trkpt>
      <trkpt lat="47.80823" lon="-3.33828">
        <ele>87</ele>
        <time>2015-01-22T11:39:27.452Z</time>
      </trkpt>
      <trkpt lat="47.8083" lon="-3.3383">
        <ele>87</ele>
        <time>2015-01-22T11:39:33.449Z</time>
      </trkpt>
      <trkpt lat="47.80832" lon="-3.33831">
        <ele>87</ele>
        <time>2015-01-22T11:39:34.474Z</time>
      </trkpt>
      <trkpt lat="47.8084" lon="-3.33831">
        <ele>87</ele>
        <time>2015-01-22T11:39:37.533Z</time>
      </trkpt>
      <trkpt lat="47.80843" lon="-3.33832">
        <ele>89</ele>
        <time>2015-01-22T11:39:38.517Z</time>
      </trkpt>
      <trkpt lat="47.80851" lon="-3.33838">
        <ele>90</ele>
        <time>2015-01-22T11:39:41.540Z</time>
      </trkpt>
      <trkpt lat="47.80852" lon="-3.33842">
        <ele>90</ele>
        <time>2015-01-22T11:39:42.451Z</time>
      </trkpt>
      <trkpt lat="47.80858" lon="-3.33851">
        <ele>89</ele>
        <time>2015-01-22T11:39:45.524Z</time>
      </trkpt>
      <trkpt lat="47.8086" lon="-3.33853">
        <ele>90</ele>
        <time>2015-01-22T11:39:46.487Z</time>
      </trkpt>
      <trkpt lat="47.80867" lon="-3.33851">
        <ele>93</ele>
        <time>2015-01-22T11:39:49.453Z</time>
      </trkpt>
      <trkpt lat="47.8087" lon="-3.3385">
        <ele>93</ele>
        <time>2015-01-22T11:39:50.475Z</time>
      </trkpt>
      <trkpt lat="47.80877" lon="-3.33845">
        <ele>94</ele>
        <time>2015-01-22T11:39:53.460Z</time>
      </trkpt>
      <trkpt lat="47.8088" lon="-3.33844">
        <ele>93</ele>
        <time>2015-01-22T11:39:54.451Z</time>
      </trkpt>
      <trkpt lat="47.80874" lon="-3.33843">
        <ele>93</ele>
        <time>2015-01-22T11:40:03.449Z</time>
      </trkpt>
      <trkpt lat="47.80871" lon="-3.33846">
        <ele>92</ele>
        <time>2015-01-22T11:40:04.450Z</time>
      </trkpt>
      <trkpt lat="47.80865" lon="-3.33852">
        <ele>92</ele>
        <time>2015-01-22T11:40:06.534Z</time>
      </trkpt>
      <trkpt lat="47.8086" lon="-3.33854">
        <ele>92</ele>
        <time>2015-01-22T11:40:07.522Z</time>
      </trkpt>
      <trkpt lat="47.80855" lon="-3.33854">
        <ele>92</ele>
        <time>2015-01-22T11:40:08.513Z</time>
      </trkpt>
      <trkpt lat="47.80851" lon="-3.33852">
        <ele>89</ele>
        <time>2015-01-22T11:40:09.541Z</time>
      </trkpt>
      <trkpt lat="47.80847" lon="-3.33849">
        <ele>89</ele>
        <time>2015-01-22T11:40:10.527Z</time>
      </trkpt>
      <trkpt lat="47.80843" lon="-3.33845">
        <ele>89</ele>
        <time>2015-01-22T11:40:11.540Z</time>
      </trkpt>
      <trkpt lat="47.80837" lon="-3.33841">
        <ele>88</ele>
        <time>2015-01-22T11:40:12.456Z</time>
      </trkpt>
      <trkpt lat="47.80831" lon="-3.3384">
        <ele>89</ele>
        <time>2015-01-22T11:40:13.522Z</time>
      </trkpt>
      <trkpt lat="47.80824" lon="-3.33841">
        <ele>89</ele>
        <time>2015-01-22T11:40:14.447Z</time>
      </trkpt>
      <trkpt lat="47.80818" lon="-3.33841">
        <ele>89</ele>
        <time>2015-01-22T11:40:15.515Z</time>
      </trkpt>
      <trkpt lat="47.80812" lon="-3.33841">
        <ele>88</ele>
        <time>2015-01-22T11:40:16.448Z</time>
      </trkpt>
      <trkpt lat="47.80806" lon="-3.3384">
        <ele>88</ele>
        <time>2015-01-22T11:40:17.537Z</time>
      </trkpt>
      <trkpt lat="47.808" lon="-3.33838">
        <ele>88</ele>
        <time>2015-01-22T11:40:18.512Z</time>
      </trkpt>
      <trkpt lat="47.80794" lon="-3.33835">
        <ele>88</ele>
        <time>2015-01-22T11:40:19.502Z</time>
      </trkpt>
      <trkpt lat="47.80789" lon="-3.33833">
        <ele>88</ele>
        <time>2015-01-22T11:40:20.453Z</time>
      </trkpt>
      <trkpt lat="47.80783" lon="-3.3383">
        <ele>90</ele>
        <time>2015-01-22T11:40:21.454Z</time>
      </trkpt>
      <trkpt lat="47.80778" lon="-3.33827">
        <ele>89</ele>
        <time>2015-01-22T11:40:22.525Z</time>
      </trkpt>
      <trkpt lat="47.80773" lon="-3.33824">
        <ele>89</ele>
        <time>2015-01-22T11:40:23.484Z</time>
      </trkpt>
      <trkpt lat="47.80769" lon="-3.3382">
        <ele>89</ele>
        <time>2015-01-22T11:40:24.526Z</time>
      </trkpt>
      <trkpt lat="47.80764" lon="-3.33819">
        <ele>89</ele>
        <time>2015-01-22T11:40:25.535Z</time>
      </trkpt>
      <trkpt lat="47.8076" lon="-3.33816">
        <ele>91</ele>
        <time>2015-01-22T11:40:26.533Z</time>
      </trkpt>
      <trkpt lat="47.80755" lon="-3.33814">
        <ele>93</ele>
        <time>2015-01-22T11:40:27.546Z</time>
      </trkpt>
      <trkpt lat="47.80747" lon="-3.33809">
        <ele>92</ele>
        <time>2015-01-22T11:40:29.531Z</time>
      </trkpt>
      <trkpt lat="47.80744" lon="-3.33808">
        <ele>92</ele>
        <time>2015-01-22T11:40:30.451Z</time>
      </trkpt>
      <trkpt lat="47.80736" lon="-3.33807">
        <ele>92</ele>
        <time>2015-01-22T11:40:39.508Z</time>
      </trkpt>
      <trkpt lat="47.80734" lon="-3.33806">
        <ele>93</ele>
        <time>2015-01-22T11:40:40.529Z</time>
      </trkpt>
      <trkpt lat="47.80726" lon="-3.33806">
        <ele>95</ele>
        <time>2015-01-22T11:40:43.537Z</time>
      </trkpt>
      <trkpt lat="47.80724" lon="-3.33808">
        <ele>96</ele>
        <time>2015-01-22T11:40:44.466Z</time>
      </trkpt>
      <trkpt lat="47.80717" lon="-3.33811">
        <ele>93</ele>
        <time>2015-01-22T11:41:06.502Z</time>
      </trkpt>
      <trkpt lat="47.80715" lon="-3.33814">
        <ele>93</ele>
        <time>2015-01-22T11:41:07.465Z</time>
      </trkpt>
      <trkpt lat="47.80708" lon="-3.33821">
        <ele>94</ele>
        <time>2015-01-22T11:41:10.452Z</time>
      </trkpt>
      <trkpt lat="47.80707" lon="-3.33823">
        <ele>93</ele>
        <time>2015-01-22T11:41:11.490Z</time>
      </trkpt>
      <trkpt lat="47.80701" lon="-3.3383">
        <ele>96</ele>
        <time>2015-01-22T11:41:23.467Z</time>
      </trkpt>
      <trkpt lat="47.80699" lon="-3.33832">
        <ele>95</ele>
        <time>2015-01-22T11:41:24.512Z</time>
      </trkpt>
      <trkpt lat="47.80693" lon="-3.3384">
        <ele>98</ele>
        <time>2015-01-22T11:41:28.449Z</time>
      </trkpt>
      <trkpt lat="47.80692" lon="-3.33841">
        <ele>99</ele>
        <time>2015-01-22T11:41:29.450Z</time>
      </trkpt>
      <trkpt lat="47.80684" lon="-3.3384">
        <ele>97</ele>
        <time>2015-01-22T11:42:02.452Z</time>
      </trkpt>
      <trkpt lat="47.80682" lon="-3.33843">
        <ele>98</ele>
        <time>2015-01-22T11:42:03.539Z</time>
      </trkpt>
      <trkpt lat="47.80677" lon="-3.33853">
        <ele>98</ele>
        <time>2015-01-22T11:42:06.447Z</time>
      </trkpt>
      <trkpt lat="47.80674" lon="-3.33856">
        <ele>97</ele>
        <time>2015-01-22T11:42:07.449Z</time>
      </trkpt>
      <trkpt lat="47.80669" lon="-3.3386">
        <ele>97</ele>
        <time>2015-01-22T11:42:09.450Z</time>
      </trkpt>
      <trkpt lat="47.80665" lon="-3.33861">
        <ele>97</ele>
        <time>2015-01-22T11:42:10.449Z</time>
      </trkpt>
      <trkpt lat="47.80658" lon="-3.33862">
        <ele>97</ele>
        <time>2015-01-22T11:42:12.476Z</time>
      </trkpt>
      <trkpt lat="47.80654" lon="-3.33862">
        <ele>94</ele>
        <time>2015-01-22T11:42:13.450Z</time>
      </trkpt>
      <trkpt lat="47.80647" lon="-3.33861">
        <ele>93</ele>
        <time>2015-01-22T11:42:15.486Z</time>
      </trkpt>
      <trkpt lat="47.80644" lon="-3.33861">
        <ele>92</ele>
        <time>2015-01-22T11:42:16.549Z</time>
      </trkpt>
      <trkpt lat="47.80638" lon="-3.33867">
        <ele>91</ele>
        <time>2015-01-22T11:42:23.526Z</time>
      </trkpt>
      <trkpt lat="47.80634" lon="-3.3387">
        <ele>92</ele>
        <time>2015-01-22T11:42:24.528Z</time>
      </trkpt>
      <trkpt lat="47.80631" lon="-3.33878">
        <ele>90</ele>
        <time>2015-01-22T11:42:26.547Z</time>
      </trkpt>
      <trkpt lat="47.80631" lon="-3.33882">
        <ele>89</ele>
        <time>2015-01-22T11:42:27.496Z</time>
      </trkpt>
      <trkpt lat="47.80637" lon="-3.33889">
        <ele>90</ele>
        <time>2015-01-22T11:42:30.533Z</time>
      </trkpt>
      <trkpt lat="47.8064" lon="-3.3389">
        <ele>90</ele>
        <time>2015-01-22T11:42:31.477Z</time>
      </trkpt>
      <trkpt lat="47.80648" lon="-3.33893">
        <ele>90</ele>
        <time>2015-01-22T11:42:34.510Z</time>
      </trkpt>
      <trkpt lat="47.8065" lon="-3.33894">
        <ele>91</ele>
        <time>2015-01-22T11:42:35.528Z</time>
      </trkpt>
      <trkpt lat="47.80657" lon="-3.33895">
        <ele>90</ele>
        <time>2015-01-22T11:42:38.462Z</time>
      </trkpt>
      <trkpt lat="47.8066" lon="-3.33893">
        <ele>89</ele>
        <time>2015-01-22T11:42:39.524Z</time>
      </trkpt>
      <trkpt lat="47.80662" lon="-3.33906">
        <ele>89</ele>
        <time>2015-01-22T11:42:52.450Z</time>
      </trkpt>
      <trkpt lat="47.80662" lon="-3.33911">
        <ele>89</ele>
        <time>2015-01-22T11:42:53.447Z</time>
      </trkpt>
      <trkpt lat="47.80666" lon="-3.33919">
        <ele>87</ele>
        <time>2015-01-22T11:43:05.511Z</time>
      </trkpt>
      <trkpt lat="47.80668" lon="-3.33921">
        <ele>87</ele>
        <time>2015-01-22T11:43:06.527Z</time>
      </trkpt>
      <trkpt lat="47.80674" lon="-3.33925">
        <ele>87</ele>
        <time>2015-01-22T11:43:08.450Z</time>
      </trkpt>
      <trkpt lat="47.80677" lon="-3.33928">
        <ele>88</ele>
        <time>2015-01-22T11:43:09.450Z</time>
      </trkpt>
      <trkpt lat="47.80683" lon="-3.33933">
        <ele>89</ele>
        <time>2015-01-22T11:43:11.484Z</time>
      </trkpt>
      <trkpt lat="47.80686" lon="-3.33935">
        <ele>90</ele>
        <time>2015-01-22T11:43:12.447Z</time>
      </trkpt>
      <trkpt lat="47.8069" lon="-3.3394">
        <ele>90</ele>
        <time>2015-01-22T11:43:14.452Z</time>
      </trkpt>
      <trkpt lat="47.80693" lon="-3.33944">
        <ele>89</ele>
        <time>2015-01-22T11:43:15.496Z</time>
      </trkpt>
      <trkpt lat="47.80698" lon="-3.33934">
        <ele>91</ele>
        <time>2015-01-22T11:43:24.478Z</time>
      </trkpt>
      <trkpt lat="47.80699" lon="-3.3393">
        <ele>92</ele>
        <time>2015-01-22T11:43:25.506Z</time>
      </trkpt>
      <trkpt lat="47.80702" lon="-3.33922">
        <ele>92</ele>
        <time>2015-01-22T11:43:27.521Z</time>
      </trkpt>
      <trkpt lat="47.80704" lon="-3.33918">
        <ele>92</ele>
        <time>2015-01-22T11:43:28.533Z</time>
      </trkpt>
      <trkpt lat="47.80708" lon="-3.33911">
        <ele>91</ele>
        <time>2015-01-22T11:43:30.509Z</time>
      </trkpt>
      <trkpt lat="47.8071" lon="-3.33907">
        <ele>92</ele>
        <time>2015-01-22T11:43:31.492Z</time>
      </trkpt>
      <trkpt lat="47.80714" lon="-3.339">
        <ele>92</ele>
        <time>2015-01-22T11:43:33.446Z</time>
      </trkpt>
      <trkpt lat="47.80715" lon="-3.33896">
        <ele>92</ele>
        <time>2015-01-22T11:43:34.588Z</time>
      </trkpt>
      <trkpt lat="47.80722" lon="-3.3389">
        <ele>94</ele>
        <time>2015-01-22T11:43:39.520Z</time>
      </trkpt>
      <trkpt lat="47.80725" lon="-3.33888">
        <ele>93</ele>
        <time>2015-01-22T11:43:40.461Z</time>
      </trkpt>
      <trkpt lat="47.8073" lon="-3.33877">
        <ele>88</ele>
        <time>2015-01-22T11:43:44.491Z</time>
      </trkpt>
      <trkpt lat="47.80731" lon="-3.33876">
        <ele>88</ele>
        <time>2015-01-22T11:43:45.525Z</time>
      </trkpt>
      <trkpt lat="47.80738" lon="-3.33875">
        <ele>88</ele>
        <time>2015-01-22T11:43:53.495Z</time>
      </trkpt>
      <trkpt lat="47.8074" lon="-3.33874">
        <ele>87</ele>
        <time>2015-01-22T11:43:54.520Z</time>
      </trkpt>
      <trkpt lat="47.80749" lon="-3.33877">
        <ele>87</ele>
        <time>2015-01-22T11:44:02.519Z</time>
      </trkpt>
      <trkpt lat="47.8075" lon="-3.33878">
        <ele>87</ele>
        <time>2015-01-22T11:44:03.492Z</time>
      </trkpt>
      <trkpt lat="47.80754" lon="-3.33866">
        <ele>93</ele>
        <time>2015-01-22T11:44:22.486Z</time>
      </trkpt>
      <trkpt lat="47.80756" lon="-3.33865">
        <ele>94</ele>
        <time>2015-01-22T11:44:23.445Z</time>
      </trkpt>
      <trkpt lat="47.80764" lon="-3.3387">
        <ele>93</ele>
        <time>2015-01-22T11:44:34.447Z</time>
      </trkpt>
      <trkpt lat="47.80765" lon="-3.3387">
        <ele>94</ele>
        <time>2015-01-22T11:44:35.480Z</time>
      </trkpt>
      <trkpt lat="47.80772" lon="-3.33869">
        <ele>93</ele>
        <time>2015-01-22T11:44:44.457Z</time>
      </trkpt>
      <trkpt lat="47.80774" lon="-3.33868">
        <ele>94</ele>
        <time>2015-01-22T11:44:45.533Z</time>
      </trkpt>
      <trkpt lat="47.80781" lon="-3.33865">
        <ele>93</ele>
        <time>2015-01-22T11:44:47.472Z</time>
      </trkpt>
      <trkpt lat="47.80784" lon="-3.33864">
        <ele>92</ele>
        <time>2015-01-22T11:44:48.515Z</time>
      </trkpt>
      <trkpt lat="47.80791" lon="-3.33862">
        <ele>90</ele>
        <time>2015-01-22T11:44:50.462Z</time>
      </trkpt>
      <trkpt lat="47.80795" lon="-3.33862">
        <ele>89</ele>
        <time>2015-01-22T11:44:51.446Z</time>
      </trkpt>
      <trkpt lat="47.80801" lon="-3.33866">
        <ele>91</ele>
        <time>2015-01-22T11:44:53.445Z</time>
      </trkpt>
      <trkpt lat="47.80802" lon="-3.3387">
        <ele>91</ele>
        <time>2015-01-22T11:44:54.447Z</time>
      </trkpt>
      <trkpt lat="47.80803" lon="-3.33882">
        <ele>91</ele>
        <time>2015-01-22T11:44:57.445Z</time>
      </trkpt>
      <trkpt lat="47.80803" lon="-3.33885">
        <ele>90</ele>
        <time>2015-01-22T11:44:58.447Z</time>
      </trkpt>
      <trkpt lat="47.80804" lon="-3.33897">
        <ele>91</ele>
        <time>2015-01-22T11:45:10.515Z</time>
      </trkpt>
      <trkpt lat="47.80804" lon="-3.33901">
        <ele>90</ele>
        <time>2015-01-22T11:45:11.457Z</time>
      </trkpt>
      <trkpt lat="47.80804" lon="-3.33914">
        <ele>90</ele>
        <time>2015-01-22T11:45:20.526Z</time>
      </trkpt>
      <trkpt lat="47.80805" lon="-3.33915">
        <ele>92</ele>
        <time>2015-01-22T11:45:21.532Z</time>
      </trkpt>
      <trkpt lat="47.80813" lon="-3.33919">
        <ele>95</ele>
        <time>2015-01-22T11:45:26.529Z</time>
      </trkpt>
      <trkpt lat="47.80815" lon="-3.33922">
        <ele>96</ele>
        <time>2015-01-22T11:45:27.475Z</time>
      </trkpt>
      <trkpt lat="47.80822" lon="-3.33928">
        <ele>95</ele>
        <time>2015-01-22T11:45:30.517Z</time>
      </trkpt>
      <trkpt lat="47.80823" lon="-3.33931">
        <ele>96</ele>
        <time>2015-01-22T11:45:31.527Z</time>
      </trkpt>
      <trkpt lat="47.80825" lon="-3.33943">
        <ele>96</ele>
        <time>2015-01-22T11:45:37.519Z</time>
      </trkpt>
      <trkpt lat="47.80825" lon="-3.33944">
        <ele>97</ele>
        <time>2015-01-22T11:45:38.542Z</time>
      </trkpt>
      <trkpt lat="47.80819" lon="-3.33941">
        <ele>94</ele>
        <time>2015-01-22T11:46:07.516Z</time>
      </trkpt>
      <trkpt lat="47.80815" lon="-3.33941">
        <ele>94</ele>
        <time>2015-01-22T11:46:08.524Z</time>
      </trkpt>
      <trkpt lat="47.80808" lon="-3.33942">
        <ele>95</ele>
        <time>2015-01-22T11:46:10.463Z</time>
      </trkpt>
      <trkpt lat="47.80805" lon="-3.33944">
        <ele>95</ele>
        <time>2015-01-22T11:46:11.476Z</time>
      </trkpt>
      <trkpt lat="47.80797" lon="-3.33944">
        <ele>92</ele>
        <time>2015-01-22T11:46:22.446Z</time>
      </trkpt>
      <trkpt lat="47.80794" lon="-3.33944">
        <ele>92</ele>
        <time>2015-01-22T11:46:23.528Z</time>
      </trkpt>
      <trkpt lat="47.80786" lon="-3.33945">
        <ele>93</ele>
        <time>2015-01-22T11:46:31.455Z</time>
      </trkpt>
      <trkpt lat="47.80784" lon="-3.33945">
        <ele>95</ele>
        <time>2015-01-22T11:46:32.512Z</time>
      </trkpt>
      <trkpt lat="47.80777" lon="-3.33946">
        <ele>96</ele>
        <time>2015-01-22T11:46:34.515Z</time>
      </trkpt>
      <trkpt lat="47.80773" lon="-3.33947">
        <ele>95</ele>
        <time>2015-01-22T11:46:35.510Z</time>
      </trkpt>
      <trkpt lat="47.80767" lon="-3.33952">
        <ele>94</ele>
        <time>2015-01-22T11:46:37.524Z</time>
      </trkpt>
      <trkpt lat="47.80763" lon="-3.33954">
        <ele>95</ele>
        <time>2015-01-22T11:46:38.445Z</time>
      </trkpt>
      <trkpt lat="47.80756" lon="-3.33962">
        <ele>95</ele>
        <time>2015-01-22T11:46:40.501Z</time>
      </trkpt>
      <trkpt lat="47.80753" lon="-3.33966">
        <ele>93</ele>
        <time>2015-01-22T11:46:41.524Z</time>
      </trkpt>
      <trkpt lat="47.80747" lon="-3.33975">
        <ele>93</ele>
        <time>2015-01-22T11:46:43.467Z</time>
      </trkpt>
      <trkpt lat="47.80744" lon="-3.33979">
        <ele>93</ele>
        <time>2015-01-22T11:46:44.521Z</time>
      </trkpt>
      <trkpt lat="47.80737" lon="-3.33983">
        <ele>93</ele>
        <time>2015-01-22T11:46:46.506Z</time>
      </trkpt>
      <trkpt lat="47.80735" lon="-3.33981">
        <ele>93</ele>
        <time>2015-01-22T11:46:47.445Z</time>
      </trkpt>
      <trkpt lat="47.80741" lon="-3.33972">
        <ele>91</ele>
        <time>2015-01-22T11:46:58.524Z</time>
      </trkpt>
      <trkpt lat="47.80742" lon="-3.3397">
        <ele>90</ele>
        <time>2015-01-22T11:46:59.489Z</time>
      </trkpt>
      <trkpt lat="47.80747" lon="-3.33961">
        <ele>88</ele>
        <time>2015-01-22T11:47:02.536Z</time>
      </trkpt>
      <trkpt lat="47.80749" lon="-3.33958">
        <ele>88</ele>
        <time>2015-01-22T11:47:03.483Z</time>
      </trkpt>
      <trkpt lat="47.80755" lon="-3.3395">
        <ele>87</ele>
        <time>2015-01-22T11:47:06.520Z</time>
      </trkpt>
      <trkpt lat="47.80758" lon="-3.33947">
        <ele>86</ele>
        <time>2015-01-22T11:47:07.541Z</time>
      </trkpt>
      <trkpt lat="47.80765" lon="-3.33941">
        <ele>86</ele>
        <time>2015-01-22T11:47:10.447Z</time>
      </trkpt>
      <trkpt lat="47.80767" lon="-3.33939">
        <ele>85</ele>
        <time>2015-01-22T11:47:11.528Z</time>
      </trkpt>
      <trkpt lat="47.80773" lon="-3.33935">
        <ele>86</ele>
        <time>2015-01-22T11:47:13.513Z</time>
      </trkpt>
      <trkpt lat="47.80776" lon="-3.33934">
        <ele>86</ele>
        <time>2015-01-22T11:47:14.513Z</time>
      </trkpt>
      <trkpt lat="47.80784" lon="-3.33931">
        <ele>88</ele>
        <time>2015-01-22T11:47:16.528Z</time>
      </trkpt>
      <trkpt lat="47.80788" lon="-3.3393">
        <ele>87</ele>
        <time>2015-01-22T11:47:17.444Z</time>
      </trkpt>
      <trkpt lat="47.80795" lon="-3.3393">
        <ele>90</ele>
        <time>2015-01-22T11:47:19.446Z</time>
      </trkpt>
      <trkpt lat="47.80799" lon="-3.3393">
        <ele>90</ele>
        <time>2015-01-22T11:47:20.445Z</time>
      </trkpt>
      <trkpt lat="47.80807" lon="-3.33928">
        <ele>92</ele>
        <time>2015-01-22T11:47:22.447Z</time>
      </trkpt>
      <trkpt lat="47.80811" lon="-3.33926">
        <ele>92</ele>
        <time>2015-01-22T11:47:23.446Z</time>
      </trkpt>
      <trkpt lat="47.80814" lon="-3.33922">
        <ele>92</ele>
        <time>2015-01-22T11:47:24.451Z</time>
      </trkpt>
      <trkpt lat="47.80818" lon="-3.33913">
        <ele>91</ele>
        <time>2015-01-22T11:47:25.446Z</time>
      </trkpt>
      <trkpt lat="47.8082" lon="-3.33903">
        <ele>90</ele>
        <time>2015-01-22T11:47:27.498Z</time>
      </trkpt>
      <trkpt lat="47.80823" lon="-3.33899">
        <ele>89</ele>
        <time>2015-01-22T11:47:28.443Z</time>
      </trkpt>
      <trkpt lat="47.80832" lon="-3.33898">
        <ele>90</ele>
        <time>2015-01-22T11:47:40.451Z</time>
      </trkpt>
      <trkpt lat="47.80835" lon="-3.33897">
        <ele>89</ele>
        <time>2015-01-22T11:47:41.542Z</time>
      </trkpt>
      <trkpt lat="47.80842" lon="-3.339">
        <ele>96</ele>
        <time>2015-01-22T11:48:05.501Z</time>
      </trkpt>
      <trkpt lat="47.80843" lon="-3.33903">
        <ele>96</ele>
        <time>2015-01-22T11:48:06.469Z</time>
      </trkpt>
      <trkpt lat="47.8085" lon="-3.33909">
        <ele>95</ele>
        <time>2015-01-22T11:48:09.539Z</time>
      </trkpt>
      <trkpt lat="47.80852" lon="-3.33909">
        <ele>95</ele>
        <time>2015-01-22T11:48:10.442Z</time>
      </trkpt>
      <trkpt lat="47.80858" lon="-3.33899">
        <ele>94</ele>
        <time>2015-01-22T11:48:18.519Z</time>
      </trkpt>
      <trkpt lat="47.80857" lon="-3.33896">
        <ele>95</ele>
        <time>2015-01-22T11:48:19.490Z</time>
      </trkpt>
      <trkpt lat="47.80857" lon="-3.33883">
        <ele>95</ele>
        <time>2015-01-22T11:48:29.528Z</time>
      </trkpt>
      <trkpt lat="47.80858" lon="-3.3388">
        <ele>94</ele>
        <time>2015-01-22T11:48:30.447Z</time>
      </trkpt>
      <trkpt lat="47.80852" lon="-3.3387">
        <ele>99</ele>
        <time>2015-01-22T11:48:45.531Z</time>
      </trkpt>
      <trkpt lat="47.80851" lon="-3.33865">
        <ele>97</ele>
        <time>2015-01-22T11:48:46.443Z</time>
      </trkpt>
      <trkpt lat="47.8085" lon="-3.33852">
        <ele>96</ele>
        <time>2015-01-22T11:48:48.513Z</time>
      </trkpt>
      <trkpt lat="47.8085" lon="-3.33845">
        <ele>96</ele>
        <time>2015-01-22T11:48:49.523Z</time>
      </trkpt>
      <trkpt lat="47.80851" lon="-3.33833">
        <ele>95</ele>
        <time>2015-01-22T11:48:51.494Z</time>
      </trkpt>
      <trkpt lat="47.80851" lon="-3.33828">
        <ele>94</ele>
        <time>2015-01-22T11:48:52.445Z</time>
      </trkpt>
      <trkpt lat="47.80848" lon="-3.33817">
        <ele>90</ele>
        <time>2015-01-22T11:49:05.441Z</time>
      </trkpt>
      <trkpt lat="47.80847" lon="-3.33815">
        <ele>89</ele>
        <time>2015-01-22T11:49:06.444Z</time>
      </trkpt>
      <trkpt lat="47.80847" lon="-3.33804">
        <ele>88</ele>
        <time>2015-01-22T11:49:12.538Z</time>
      </trkpt>
      <trkpt lat="47.80847" lon="-3.338">
        <ele>88</ele>
        <time>2015-01-22T11:49:13.445Z</time>
      </trkpt>
      <trkpt lat="47.80846" lon="-3.33787">
        <ele>88</ele>
        <time>2015-01-22T11:49:16.462Z</time>
      </trkpt>
      <trkpt lat="47.80844" lon="-3.33783">
        <ele>88</ele>
        <time>2015-01-22T11:49:17.444Z</time>
      </trkpt>
      <trkpt lat="47.80847" lon="-3.3377">
        <ele>90</ele>
        <time>2015-01-22T11:49:30.538Z</time>
      </trkpt>
      <trkpt lat="47.80846" lon="-3.33769">
        <ele>91</ele>
        <time>2015-01-22T11:49:31.509Z</time>
      </trkpt>
      <trkpt lat="47.80842" lon="-3.33759">
        <ele>91</ele>
        <time>2015-01-22T11:49:34.443Z</time>
      </trkpt>
      <trkpt lat="47.80841" lon="-3.33755">
        <ele>91</ele>
        <time>2015-01-22T11:49:35.493Z</time>
      </trkpt>
      <trkpt lat="47.80843" lon="-3.33743">
        <ele>93</ele>
        <time>2015-01-22T11:49:44.525Z</time>
      </trkpt>
      <trkpt lat="47.80843" lon="-3.33741">
        <ele>93</ele>
        <time>2015-01-22T11:49:45.531Z</time>
      </trkpt>
      <trkpt lat="47.8084" lon="-3.33731">
        <ele>91</ele>
        <time>2015-01-22T11:49:55.487Z</time>
      </trkpt>
      <trkpt lat="47.80838" lon="-3.33727">
        <ele>91</ele>
        <time>2015-01-22T11:49:56.512Z</time>
      </trkpt>
      <trkpt lat="47.80838" lon="-3.33716">
        <ele>90</ele>
        <time>2015-01-22T11:49:59.497Z</time>
      </trkpt>
      <trkpt lat="47.80838" lon="-3.33713">
        <ele>89</ele>
        <time>2015-01-22T11:50:00.528Z</time>
      </trkpt>
      <trkpt lat="47.80841" lon="-3.33702">
        <ele>89</ele>
        <time>2015-01-22T11:50:08.512Z</time>
      </trkpt>
      <trkpt lat="47.80841" lon="-3.33699">
        <ele>89</ele>
        <time>2015-01-22T11:50:09.512Z</time>
      </trkpt>
      <trkpt lat="47.80837" lon="-3.33688">
        <ele>87</ele>
        <time>2015-01-22T11:50:26.527Z</time>
      </trkpt>
      <trkpt lat="47.80836" lon="-3.33684">
        <ele>87</ele>
        <time>2015-01-22T11:50:27.496Z</time>
      </trkpt>
      <trkpt lat="47.80837" lon="-3.33672">
        <ele>84</ele>
        <time>2015-01-22T11:50:32.465Z</time>
      </trkpt>
      <trkpt lat="47.80837" lon="-3.33668">
        <ele>84</ele>
        <time>2015-01-22T11:50:33.440Z</time>
      </trkpt>
      <trkpt lat="47.80836" lon="-3.33658">
        <ele>84</ele>
        <time>2015-01-22T11:50:35.443Z</time>
      </trkpt>
      <trkpt lat="47.80833" lon="-3.33656">
        <ele>84</ele>
        <time>2015-01-22T11:50:36.440Z</time>
      </trkpt>
      <trkpt lat="47.80827" lon="-3.33655">
        <ele>85</ele>
        <time>2015-01-22T11:50:38.443Z</time>
      </trkpt>
      <trkpt lat="47.80823" lon="-3.33656">
        <ele>85</ele>
        <time>2015-01-22T11:50:39.442Z</time>
      </trkpt>
      <trkpt lat="47.80816" lon="-3.33657">
        <ele>85</ele>
        <time>2015-01-22T11:50:41.440Z</time>
      </trkpt>
      <trkpt lat="47.80813" lon="-3.33658">
        <ele>86</ele>
        <time>2015-01-22T11:50:42.441Z</time>
      </trkpt>
      <trkpt lat="47.80806" lon="-3.3366">
        <ele>83</ele>
        <time>2015-01-22T11:50:44.500Z</time>
      </trkpt>
      <trkpt lat="47.80803" lon="-3.33661">
        <ele>83</ele>
        <time>2015-01-22T11:50:45.443Z</time>
      </trkpt>
      <trkpt lat="47.80806" lon="-3.33649">
        <ele>81</ele>
        <time>2015-01-22T11:51:14.444Z</time>
      </trkpt>
      <trkpt lat="47.80807" lon="-3.33648">
        <ele>83</ele>
        <time>2015-01-22T11:51:15.473Z</time>
      </trkpt>
      <trkpt lat="47.80816" lon="-3.33643">
        <ele>86</ele>
        <time>2015-01-22T11:51:25.442Z</time>
      </trkpt>
      <trkpt lat="47.80816" lon="-3.33643">
        <ele>85</ele>
        <time>2015-01-22T11:51:26.440Z</time>
      </trkpt>
      <trkpt lat="47.80823" lon="-3.3364">
        <ele>86</ele>
        <time>2015-01-22T11:51:30.442Z</time>
      </trkpt>
      <trkpt lat="47.80825" lon="-3.33639">
        <ele>87</ele>
        <time>2015-01-22T11:51:31.443Z</time>
      </trkpt>
      <trkpt lat="47.80832" lon="-3.3364">
        <ele>88</ele>
        <time>2015-01-22T11:51:35.439Z</time>
      </trkpt>
      <trkpt lat="47.80835" lon="-3.3364">
        <ele>87</ele>
        <time>2015-01-22T11:51:36.490Z</time>
      </trkpt>
      <trkpt lat="47.80844" lon="-3.33639">
        <ele>85</ele>
        <time>2015-01-22T11:51:39.502Z</time>
      </trkpt>
      <trkpt lat="47.80846" lon="-3.33638">
        <ele>84</ele>
        <time>2015-01-22T11:51:40.446Z</time>
      </trkpt>
      <trkpt lat="47.80855" lon="-3.33635">
        <ele>84</ele>
        <time>2015-01-22T11:51:56.440Z</time>
      </trkpt>
      <trkpt lat="47.80855" lon="-3.33636">
        <ele>84</ele>
        <time>2015-01-22T11:51:57.442Z</time>
      </trkpt>
      <trkpt lat="47.80862" lon="-3.33643">
        <ele>88</ele>
        <time>2015-01-22T11:52:12.441Z</time>
      </trkpt>
      <trkpt lat="47.80863" lon="-3.33644">
        <ele>87</ele>
        <time>2015-01-22T11:52:13.520Z</time>
      </trkpt>
      <trkpt lat="47.80856" lon="-3.33636">
        <ele>91</ele>
        <time>2015-01-22T11:52:25.497Z</time>
      </trkpt>
      <trkpt lat="47.80855" lon="-3.33635">
        <ele>91</ele>
        <time>2015-01-22T11:52:26.538Z</time>
      </trkpt>
      <trkpt lat="47.80862" lon="-3.33631">
        <ele>90</ele>
        <time>2015-01-22T11:52:35.440Z</time>
      </trkpt>
      <trkpt lat="47.80866" lon="-3.33631">
        <ele>89</ele>
        <time>2015-01-22T11:52:36.486Z</time>
      </trkpt>
      <trkpt lat="47.80874" lon="-3.3363">
        <ele>86</ele>
        <time>2015-01-22T11:52:38.474Z</time>
      </trkpt>
      <trkpt lat="47.80877" lon="-3.33629">
        <ele>85</ele>
        <time>2015-01-22T11:52:39.485Z</time>
      </trkpt>
      <trkpt lat="47.80884" lon="-3.33628">
        <ele>86</ele>
        <time>2015-01-22T11:52:48.493Z</time>
      </trkpt>
      <trkpt lat="47.80886" lon="-3.33628">
        <ele>86</ele>
        <time>2015-01-22T11:52:49.489Z</time>
      </trkpt>
      <trkpt lat="47.80893" lon="-3.33626">
        <ele>88</ele>
        <time>2015-01-22T11:52:51.464Z</time>
      </trkpt>
      <trkpt lat="47.80896" lon="-3.33626">
        <ele>88</ele>
        <time>2015-01-22T11:52:52.517Z</time>
      </trkpt>
      <trkpt lat="47.80904" lon="-3.33624">
        <ele>88</ele>
        <time>2015-01-22T11:52:55.440Z</time>
      </trkpt>
      <trkpt lat="47.80906" lon="-3.33624">
        <ele>88</ele>
        <time>2015-01-22T11:52:56.441Z</time>
      </trkpt>
      <trkpt lat="47.80915" lon="-3.33623">
        <ele>89</ele>
        <time>2015-01-22T11:53:14.490Z</time>
      </trkpt>
      <trkpt lat="47.80916" lon="-3.33624">
        <ele>88</ele>
        <time>2015-01-22T11:53:15.507Z</time>
      </trkpt>
      <trkpt lat="47.80925" lon="-3.33625">
        <ele>86</ele>
        <time>2015-01-22T11:53:18.450Z</time>
      </trkpt>
      <trkpt lat="47.80928" lon="-3.33623">
        <ele>86</ele>
        <time>2015-01-22T11:53:19.493Z</time>
      </trkpt>
      <trkpt lat="47.80934" lon="-3.33622">
        <ele>87</ele>
        <time>2015-01-22T11:53:21.471Z</time>
      </trkpt>
      <trkpt lat="47.80938" lon="-3.33623">
        <ele>87</ele>
        <time>2015-01-22T11:53:22.519Z</time>
      </trkpt>
      <trkpt lat="47.80944" lon="-3.33625">
        <ele>87</ele>
        <time>2015-01-22T11:53:24.478Z</time>
      </trkpt>
      <trkpt lat="47.80947" lon="-3.33626">
        <ele>86</ele>
        <time>2015-01-22T11:53:25.441Z</time>
      </trkpt>
      <trkpt lat="47.80955" lon="-3.33627">
        <ele>86</ele>
        <time>2015-01-22T11:53:30.494Z</time>
      </trkpt>
      <trkpt lat="47.80956" lon="-3.33627">
        <ele>86</ele>
        <time>2015-01-22T11:53:31.513Z</time>
      </trkpt>
      <trkpt lat="47.80963" lon="-3.33624">
        <ele>85</ele>
        <time>2015-01-22T11:53:40.469Z</time>
      </trkpt>
      <trkpt lat="47.80966" lon="-3.33623">
        <ele>84</ele>
        <time>2015-01-22T11:53:41.439Z</time>
      </trkpt>
      <trkpt lat="47.80973" lon="-3.33623">
        <ele>82</ele>
        <time>2015-01-22T11:53:43.440Z</time>
      </trkpt>
      <trkpt lat="47.80976" lon="-3.33622">
        <ele>82</ele>
        <time>2015-01-22T11:53:44.440Z</time>
      </trkpt>
      <trkpt lat="47.80984" lon="-3.33622">
        <ele>83</ele>
        <time>2015-01-22T11:53:46.439Z</time>
      </trkpt>
      <trkpt lat="47.80989" lon="-3.33622">
        <ele>83</ele>
        <time>2015-01-22T11:53:47.512Z</time>
      </trkpt>
      <trkpt lat="47.80994" lon="-3.33622">
        <ele>84</ele>
        <time>2015-01-22T11:53:48.456Z</time>
      </trkpt>
      <trkpt lat="47.80999" lon="-3.33622">
        <ele>85</ele>
        <time>2015-01-22T11:53:49.527Z</time>
      </trkpt>
      <trkpt lat="47.81007" lon="-3.33623">
        <ele>85</ele>
        <time>2015-01-22T11:53:51.493Z</time>
      </trkpt>
      <trkpt lat="47.81009" lon="-3.33623">
        <ele>85</ele>
        <time>2015-01-22T11:53:52.506Z</time>
      </trkpt>
      <trkpt lat="47.81016" lon="-3.33617">
        <ele>88</ele>
        <time>2015-01-22T11:53:59.485Z</time>
      </trkpt>
      <trkpt lat="47.8102" lon="-3.33615">
        <ele>88</ele>
        <time>2015-01-22T11:54:00.513Z</time>
      </trkpt>
      <trkpt lat="47.81027" lon="-3.33613">
        <ele>85</ele>
        <time>2015-01-22T11:54:02.509Z</time>
      </trkpt>
      <trkpt lat="47.81032" lon="-3.33613">
        <ele>85</ele>
        <time>2015-01-22T11:54:03.495Z</time>
      </trkpt>
      <trkpt lat="47.81036" lon="-3.33613">
        <ele>84</ele>
        <time>2015-01-22T11:54:04.448Z</time>
      </trkpt>
      <trkpt lat="47.81041" lon="-3.33613">
        <ele>83</ele>
        <time>2015-01-22T11:54:05.501Z</time>
      </trkpt>
      <trkpt lat="47.81047" lon="-3.33614">
        <ele>82</ele>
        <time>2015-01-22T11:54:06.439Z</time>
      </trkpt>
      <trkpt lat="47.81052" lon="-3.33614">
        <ele>81</ele>
        <time>2015-01-22T11:54:07.444Z</time>
      </trkpt>
      <trkpt lat="47.81057" lon="-3.33613">
        <ele>81</ele>
        <time>2015-01-22T11:54:08.508Z</time>
      </trkpt>
      <trkpt lat="47.81062" lon="-3.33613">
        <ele>80</ele>
        <time>2015-01-22T11:54:09.518Z</time>
      </trkpt>
      <trkpt lat="47.81067" lon="-3.33612">
        <ele>80</ele>
        <time>2015-01-22T11:54:10.508Z</time>
      </trkpt>
      <trkpt lat="47.81071" lon="-3.33612">
        <ele>79</ele>
        <time>2015-01-22T11:54:11.464Z</time>
      </trkpt>
      <trkpt lat="47.81079" lon="-3.33618">
        <ele>79</ele>
        <time>2015-01-22T11:54:14.503Z</time>
      </trkpt>
      <trkpt lat="47.8108" lon="-3.3362">
        <ele>79</ele>
        <time>2015-01-22T11:54:15.439Z</time>
      </trkpt>
      <trkpt lat="47.81086" lon="-3.33629">
        <ele>80</ele>
        <time>2015-01-22T11:54:22.438Z</time>
      </trkpt>
      <trkpt lat="47.81088" lon="-3.33633">
        <ele>81</ele>
        <time>2015-01-22T11:54:23.465Z</time>
      </trkpt>
      <trkpt lat="47.8109" lon="-3.33641">
        <ele>82</ele>
        <time>2015-01-22T11:54:25.524Z</time>
      </trkpt>
      <trkpt lat="47.81091" lon="-3.33645">
        <ele>82</ele>
        <time>2015-01-22T11:54:26.512Z</time>
      </trkpt>
      <trkpt lat="47.81093" lon="-3.33655">
        <ele>81</ele>
        <time>2015-01-22T11:54:28.525Z</time>
      </trkpt>
      <trkpt lat="47.81094" lon="-3.3366">
        <ele>81</ele>
        <time>2015-01-22T11:54:29.437Z</time>
      </trkpt>
      <trkpt lat="47.81096" lon="-3.33669">
        <ele>80</ele>
        <time>2015-01-22T11:54:31.441Z</time>
      </trkpt>
      <trkpt lat="47.81096" lon="-3.33674">
        <ele>79</ele>
        <time>2015-01-22T11:54:32.445Z</time>
      </trkpt>
      <trkpt lat="47.81099" lon="-3.33682">
        <ele>77</ele>
        <time>2015-01-22T11:54:34.498Z</time>
      </trkpt>
      <trkpt lat="47.81101" lon="-3.33686">
        <ele>78</ele>
        <time>2015-01-22T11:54:35.439Z</time>
      </trkpt>
      <trkpt lat="47.81104" lon="-3.33698">
        <ele>78</ele>
        <time>2015-01-22T11:54:38.437Z</time>
      </trkpt>
      <trkpt lat="47.81104" lon="-3.337">
        <ele>78</ele>
        <time>2015-01-22T11:54:39.439Z</time>
      </trkpt>
      <trkpt lat="47.8111" lon="-3.33708">
        <ele>78</ele>
        <time>2015-01-22T11:54:49.488Z</time>
      </trkpt>
      <trkpt lat="47.81112" lon="-3.33712">
        <ele>78</ele>
        <time>2015-01-22T11:54:50.495Z</time>
      </trkpt>
      <trkpt lat="47.81116" lon="-3.33724">
        <ele>78</ele>
        <time>2015-01-22T11:54:57.498Z</time>
      </trkpt>
      <trkpt lat="47.81116" lon="-3.33725">
        <ele>78</ele>
        <time>2015-01-22T11:54:58.504Z</time>
      </trkpt>
      <trkpt lat="47.81121" lon="-3.33731">
        <ele>79</ele>
        <time>2015-01-22T11:55:00.518Z</time>
      </trkpt>
      <trkpt lat="47.81123" lon="-3.33735">
        <ele>80</ele>
        <time>2015-01-22T11:55:01.438Z</time>
      </trkpt>
      <trkpt lat="47.81126" lon="-3.33744">
        <ele>82</ele>
        <time>2015-01-22T11:55:03.437Z</time>
      </trkpt>
      <trkpt lat="47.81128" lon="-3.33749">
        <ele>82</ele>
        <time>2015-01-22T11:55:04.516Z</time>
      </trkpt>
      <trkpt lat="47.8113" lon="-3.33761">
        <ele>82</ele>
        <time>2015-01-22T11:55:07.451Z</time>
      </trkpt>
      <trkpt lat="47.8113" lon="-3.33763">
        <ele>81</ele>
        <time>2015-01-22T11:55:08.439Z</time>
      </trkpt>
      <trkpt lat="47.81137" lon="-3.3377">
        <ele>82</ele>
        <time>2015-01-22T11:57:04.439Z</time>
      </trkpt>
      <trkpt lat="47.81138" lon="-3.33771">
        <ele>82</ele>
        <time>2015-01-22T11:57:05.439Z</time>
      </trkpt>
      <trkpt lat="47.81143" lon="-3.33781">
        <ele>83</ele>
        <time>2015-01-22T11:57:12.505Z</time>
      </trkpt>
      <trkpt lat="47.81143" lon="-3.33782">
        <ele>81</ele>
        <time>2015-01-22T11:57:13.508Z</time>
      </trkpt>
      <trkpt lat="47.81146" lon="-3.33794">
        <ele>79</ele>
        <time>2015-01-22T11:57:29.486Z</time>
      </trkpt>
      <trkpt lat="47.81146" lon="-3.33796">
        <ele>79</ele>
        <time>2015-01-22T11:57:30.490Z</time>
      </trkpt>
      <trkpt lat="47.81153" lon="-3.33798">
        <ele>86</ele>
        <time>2015-01-22T11:59:00.437Z</time>
      </trkpt>
      <trkpt lat="47.81155" lon="-3.33799">
        <ele>87</ele>
        <time>2015-01-22T11:59:01.437Z</time>
      </trkpt>
      <trkpt lat="47.81161" lon="-3.33808">
        <ele>81</ele>
        <time>2015-01-22T11:59:04.545Z</time>
      </trkpt>
      <trkpt lat="47.81163" lon="-3.33812">
        <ele>81</ele>
        <time>2015-01-22T11:59:05.490Z</time>
      </trkpt>
      <trkpt lat="47.81165" lon="-3.33821">
        <ele>81</ele>
        <time>2015-01-22T11:59:07.437Z</time>
      </trkpt>
      <trkpt lat="47.81165" lon="-3.33825">
        <ele>82</ele>
        <time>2015-01-22T11:59:08.438Z</time>
      </trkpt>
      <trkpt lat="47.8117" lon="-3.33836">
        <ele>81</ele>
        <time>2015-01-22T11:59:21.501Z</time>
      </trkpt>
      <trkpt lat="47.81173" lon="-3.33839">
        <ele>80</ele>
        <time>2015-01-22T11:59:22.509Z</time>
      </trkpt>
      <trkpt lat="47.81178" lon="-3.33847">
        <ele>82</ele>
        <time>2015-01-22T11:59:24.436Z</time>
      </trkpt>
      <trkpt lat="47.8118" lon="-3.33851">
        <ele>81</ele>
        <time>2015-01-22T11:59:25.508Z</time>
      </trkpt>
      <trkpt lat="47.81183" lon="-3.3386">
        <ele>81</ele>
        <time>2015-01-22T11:59:27.474Z</time>
      </trkpt>
      <trkpt lat="47.81183" lon="-3.33864">
        <ele>80</ele>
        <time>2015-01-22T11:59:28.480Z</time>
      </trkpt>
      <trkpt lat="47.81177" lon="-3.33873">
        <ele>81</ele>
        <time>2015-01-22T11:59:31.477Z</time>
      </trkpt>
      <trkpt lat="47.81174" lon="-3.33876">
        <ele>81</ele>
        <time>2015-01-22T11:59:32.533Z</time>
      </trkpt>
      <trkpt lat="47.81167" lon="-3.33882">
        <ele>80</ele>
        <time>2015-01-22T11:59:35.460Z</time>
      </trkpt>
      <trkpt lat="47.81164" lon="-3.33884">
        <ele>80</ele>
        <time>2015-01-22T11:59:36.494Z</time>
      </trkpt>
      <trkpt lat="47.81158" lon="-3.33891">
        <ele>81</ele>
        <time>2015-01-22T11:59:39.435Z</time>
      </trkpt>
      <trkpt lat="47.81156" lon="-3.33893">
        <ele>82</ele>
        <time>2015-01-22T11:59:40.437Z</time>
      </trkpt>
      <trkpt lat="47.8115" lon="-3.339">
        <ele>81</ele>
        <time>2015-01-22T11:59:43.433Z</time>
      </trkpt>
      <trkpt lat="47.81149" lon="-3.33903">
        <ele>81</ele>
        <time>2015-01-22T11:59:44.432Z</time>
      </trkpt>
      <trkpt lat="47.81143" lon="-3.33909">
        <ele>82</ele>
        <time>2015-01-22T11:59:47.434Z</time>
      </trkpt>
      <trkpt lat="47.81141" lon="-3.3391">
        <ele>84</ele>
        <time>2015-01-22T11:59:48.433Z</time>
      </trkpt>
      <trkpt lat="47.81134" lon="-3.33913">
        <ele>83</ele>
        <time>2015-01-22T11:59:51.455Z</time>
      </trkpt>
      <trkpt lat="47.81131" lon="-3.33912">
        <ele>83</ele>
        <time>2015-01-22T11:59:52.484Z</time>
      </trkpt>
      <trkpt lat="47.81125" lon="-3.33903">
        <ele>82</ele>
        <time>2015-01-22T11:59:55.434Z</time>
      </trkpt>
      <trkpt lat="47.81123" lon="-3.339">
        <ele>82</ele>
        <time>2015-01-22T11:59:56.437Z</time>
      </trkpt>
      <trkpt lat="47.81118" lon="-3.3389">
        <ele>82</ele>
        <time>2015-01-22T12:00:00.479Z</time>
      </trkpt>
      <trkpt lat="47.81116" lon="-3.33888">
        <ele>82</ele>
        <time>2015-01-22T12:00:01.512Z</time>
      </trkpt>
      <trkpt lat="47.81112" lon="-3.33882">
        <ele>82</ele>
        <time>2015-01-22T12:00:03.471Z</time>
      </trkpt>
      <trkpt lat="47.8111" lon="-3.33879">
        <ele>82</ele>
        <time>2015-01-22T12:00:04.500Z</time>
      </trkpt>
      <trkpt lat="47.81105" lon="-3.33871">
        <ele>82</ele>
        <time>2015-01-22T12:00:06.469Z</time>
      </trkpt>
      <trkpt lat="47.81103" lon="-3.33867">
        <ele>82</ele>
        <time>2015-01-22T12:00:07.461Z</time>
      </trkpt>
      <trkpt lat="47.81099" lon="-3.33859">
        <ele>83</ele>
        <time>2015-01-22T12:00:09.489Z</time>
      </trkpt>
      <trkpt lat="47.81097" lon="-3.33855">
        <ele>82</ele>
        <time>2015-01-22T12:00:10.434Z</time>
      </trkpt>
      <trkpt lat="47.81093" lon="-3.33846">
        <ele>83</ele>
        <time>2015-01-22T12:00:22.492Z</time>
      </trkpt>
      <trkpt lat="47.81092" lon="-3.33843">
        <ele>83</ele>
        <time>2015-01-22T12:00:23.481Z</time>
      </trkpt>
      <trkpt lat="47.81089" lon="-3.33832">
        <ele>81</ele>
        <time>2015-01-22T12:00:31.451Z</time>
      </trkpt>
      <trkpt lat="47.81088" lon="-3.33829">
        <ele>81</ele>
        <time>2015-01-22T12:00:32.497Z</time>
      </trkpt>
      <trkpt lat="47.81085" lon="-3.33822">
        <ele>82</ele>
        <time>2015-01-22T12:00:34.503Z</time>
      </trkpt>
      <trkpt lat="47.81083" lon="-3.33817">
        <ele>82</ele>
        <time>2015-01-22T12:00:35.432Z</time>
      </trkpt>
      <trkpt lat="47.81081" lon="-3.33807">
        <ele>83</ele>
        <time>2015-01-22T12:00:37.431Z</time>
      </trkpt>
      <trkpt lat="47.8108" lon="-3.33802">
        <ele>83</ele>
        <time>2015-01-22T12:00:38.491Z</time>
      </trkpt>
      <trkpt lat="47.81077" lon="-3.33793">
        <ele>82</ele>
        <time>2015-01-22T12:00:40.477Z</time>
      </trkpt>
      <trkpt lat="47.81076" lon="-3.33789">
        <ele>83</ele>
        <time>2015-01-22T12:00:41.493Z</time>
      </trkpt>
      <trkpt lat="47.81074" lon="-3.33776">
        <ele>85</ele>
        <time>2015-01-22T12:00:48.486Z</time>
      </trkpt>
      <trkpt lat="47.81074" lon="-3.33774">
        <ele>85</ele>
        <time>2015-01-22T12:00:49.500Z</time>
      </trkpt>
      <trkpt lat="47.8107" lon="-3.33765">
        <ele>83</ele>
        <time>2015-01-22T12:00:52.519Z</time>
      </trkpt>
      <trkpt lat="47.81069" lon="-3.33762">
        <ele>83</ele>
        <time>2015-01-22T12:00:53.434Z</time>
      </trkpt>
      <trkpt lat="47.81067" lon="-3.33754">
        <ele>83</ele>
        <time>2015-01-22T12:00:55.434Z</time>
      </trkpt>
      <trkpt lat="47.81066" lon="-3.33749">
        <ele>82</ele>
        <time>2015-01-22T12:00:56.432Z</time>
      </trkpt>
      <trkpt lat="47.81064" lon="-3.33738">
        <ele>82</ele>
        <time>2015-01-22T12:00:58.438Z</time>
      </trkpt>
      <trkpt lat="47.81063" lon="-3.33732">
        <ele>82</ele>
        <time>2015-01-22T12:00:59.434Z</time>
      </trkpt>
      <trkpt lat="47.8106" lon="-3.33723">
        <ele>81</ele>
        <time>2015-01-22T12:01:01.437Z</time>
      </trkpt>
      <trkpt lat="47.81059" lon="-3.33718">
        <ele>81</ele>
        <time>2015-01-22T12:01:02.435Z</time>
      </trkpt>
      <trkpt lat="47.81056" lon="-3.33706">
        <ele>80</ele>
        <time>2015-01-22T12:01:13.447Z</time>
      </trkpt>
      <trkpt lat="47.81054" lon="-3.33705">
        <ele>80</ele>
        <time>2015-01-22T12:01:14.433Z</time>
      </trkpt>
      <trkpt lat="47.81049" lon="-3.33695">
        <ele>81</ele>
        <time>2015-01-22T12:01:28.435Z</time>
      </trkpt>
      <trkpt lat="47.81048" lon="-3.33691">
        <ele>81</ele>
        <time>2015-01-22T12:01:29.436Z</time>
      </trkpt>
      <trkpt lat="47.81047" lon="-3.33683">
        <ele>80</ele>
        <time>2015-01-22T12:01:31.507Z</time>
      </trkpt>
      <trkpt lat="47.81046" lon="-3.33678">
        <ele>80</ele>
        <time>2015-01-22T12:01:32.456Z</time>
      </trkpt>
      <trkpt lat="47.81044" lon="-3.33668">
        <ele>79</ele>
        <time>2015-01-22T12:01:34.438Z</time>
      </trkpt>
      <trkpt lat="47.81042" lon="-3.33663">
        <ele>78</ele>
        <time>2015-01-22T12:01:35.436Z</time>
      </trkpt>
      <trkpt lat="47.81039" lon="-3.33651">
        <ele>77</ele>
        <time>2015-01-22T12:01:43.459Z</time>
      </trkpt>
      <trkpt lat="47.81038" lon="-3.3365">
        <ele>78</ele>
        <time>2015-01-22T12:01:44.518Z</time>
      </trkpt>
      <trkpt lat="47.81037" lon="-3.33639">
        <ele>79</ele>
        <time>2015-01-22T12:01:47.434Z</time>
      </trkpt>
      <trkpt lat="47.81036" lon="-3.33634">
        <ele>79</ele>
        <time>2015-01-22T12:01:48.452Z</time>
      </trkpt>
      <trkpt lat="47.81033" lon="-3.33624">
        <ele>80</ele>
        <time>2015-01-22T12:01:50.455Z</time>
      </trkpt>
      <trkpt lat="47.81031" lon="-3.33619">
        <ele>80</ele>
        <time>2015-01-22T12:01:51.501Z</time>
      </trkpt>
      <trkpt lat="47.81024" lon="-3.33615">
        <ele>81</ele>
        <time>2015-01-22T12:01:54.542Z</time>
      </trkpt>
      <trkpt lat="47.81021" lon="-3.33616">
        <ele>82</ele>
        <time>2015-01-22T12:01:55.474Z</time>
      </trkpt>
      <trkpt lat="47.81012" lon="-3.3362">
        <ele>80</ele>
        <time>2015-01-22T12:01:58.437Z</time>
      </trkpt>
      <trkpt lat="47.8101" lon="-3.3362">
        <ele>80</ele>
        <time>2015-01-22T12:01:59.435Z</time>
      </trkpt>
      <trkpt lat="47.81004" lon="-3.33621">
        <ele>81</ele>
        <time>2015-01-22T12:02:01.504Z</time>
      </trkpt>
      <trkpt lat="47.81001" lon="-3.33621">
        <ele>81</ele>
        <time>2015-01-22T12:02:02.489Z</time>
      </trkpt>
      <trkpt lat="47.80992" lon="-3.33622">
        <ele>81</ele>
        <time>2015-01-22T12:02:05.486Z</time>
      </trkpt>
      <trkpt lat="47.80989" lon="-3.33622">
        <ele>80</ele>
        <time>2015-01-22T12:02:06.433Z</time>
      </trkpt>
      <trkpt lat="47.8098" lon="-3.33622">
        <ele>82</ele>
        <time>2015-01-22T12:02:09.515Z</time>
      </trkpt>
      <trkpt lat="47.80977" lon="-3.33623">
        <ele>82</ele>
        <time>2015-01-22T12:02:10.490Z</time>
      </trkpt>
      <trkpt lat="47.80968" lon="-3.33624">
        <ele>80</ele>
        <time>2015-01-22T12:02:13.432Z</time>
      </trkpt>
      <trkpt lat="47.80965" lon="-3.33625">
        <ele>81</ele>
        <time>2015-01-22T12:02:14.477Z</time>
      </trkpt>
      <trkpt lat="47.80957" lon="-3.33626">
        <ele>81</ele>
        <time>2015-01-22T12:02:17.480Z</time>
      </trkpt>
      <trkpt lat="47.80954" lon="-3.33627">
        <ele>83</ele>
        <time>2015-01-22T12:02:18.498Z</time>
      </trkpt>
      <trkpt lat="47.80945" lon="-3.33629">
        <ele>83</ele>
        <time>2015-01-22T12:02:21.494Z</time>
      </trkpt>
      <trkpt lat="47.80943" lon="-3.33631">
        <ele>83</ele>
        <time>2015-01-22T12:02:22.433Z</time>
      </trkpt>
      <trkpt lat="47.80935" lon="-3.33636">
        <ele>84</ele>
        <time>2015-01-22T12:02:25.510Z</time>
      </trkpt>
      <trkpt lat="47.80932" lon="-3.33637">
        <ele>84</ele>
        <time>2015-01-22T12:02:26.504Z</time>
      </trkpt>
      <trkpt lat="47.80924" lon="-3.33635">
        <ele>83</ele>
        <time>2015-01-22T12:02:29.434Z</time>
      </trkpt>
      <trkpt lat="47.80921" lon="-3.33635">
        <ele>83</ele>
        <time>2015-01-22T12:02:30.526Z</time>
      </trkpt>
      <trkpt lat="47.80913" lon="-3.33641">
        <ele>82</ele>
        <time>2015-01-22T12:02:37.488Z</time>
      </trkpt>
      <trkpt lat="47.80913" lon="-3.33641">
        <ele>82</ele>
        <time>2015-01-22T12:02:38.437Z</time>
      </trkpt>
      <trkpt lat="47.80906" lon="-3.33641">
        <ele>82</ele>
        <time>2015-01-22T12:02:47.435Z</time>
      </trkpt>
      <trkpt lat="47.80904" lon="-3.3364">
        <ele>83</ele>
        <time>2015-01-22T12:02:48.461Z</time>
      </trkpt>
      <trkpt lat="47.80895" lon="-3.33641">
        <ele>84</ele>
        <time>2015-01-22T12:02:51.530Z</time>
      </trkpt>
      <trkpt lat="47.80892" lon="-3.33641">
        <ele>83</ele>
        <time>2015-01-22T12:02:52.625Z</time>
      </trkpt>
      <trkpt lat="47.80885" lon="-3.33648">
        <ele>82</ele>
        <time>2015-01-22T12:02:55.511Z</time>
      </trkpt>
      <trkpt lat="47.80884" lon="-3.33652">
        <ele>82</ele>
        <time>2015-01-22T12:02:56.480Z</time>
      </trkpt>
      <trkpt lat="47.80884" lon="-3.33665">
        <ele>83</ele>
        <time>2015-01-22T12:02:59.478Z</time>
      </trkpt>
      <trkpt lat="47.80885" lon="-3.33669">
        <ele>82</ele>
        <time>2015-01-22T12:03:00.435Z</time>
      </trkpt>
      <trkpt lat="47.80886" lon="-3.33681">
        <ele>83</ele>
        <time>2015-01-22T12:03:03.444Z</time>
      </trkpt>
      <trkpt lat="47.80886" lon="-3.33684">
        <ele>83</ele>
        <time>2015-01-22T12:03:04.510Z</time>
      </trkpt>
      <trkpt lat="47.80886" lon="-3.33696">
        <ele>83</ele>
        <time>2015-01-22T12:03:07.503Z</time>
      </trkpt>
      <trkpt lat="47.80886" lon="-3.337">
        <ele>83</ele>
        <time>2015-01-22T12:03:08.460Z</time>
      </trkpt>
      <trkpt lat="47.80887" lon="-3.33711">
        <ele>83</ele>
        <time>2015-01-22T12:03:15.498Z</time>
      </trkpt>
      <trkpt lat="47.80887" lon="-3.33713">
        <ele>83</ele>
        <time>2015-01-22T12:03:16.491Z</time>
      </trkpt>
      <trkpt lat="47.80882" lon="-3.33724">
        <ele>90</ele>
        <time>2015-01-22T12:05:01.431Z</time>
      </trkpt>
      <trkpt lat="47.80881" lon="-3.33726">
        <ele>90</ele>
        <time>2015-01-22T12:05:02.432Z</time>
      </trkpt>
      <trkpt lat="47.80882" lon="-3.33737">
        <ele>86</ele>
        <time>2015-01-22T12:05:16.445Z</time>
      </trkpt>
      <trkpt lat="47.80883" lon="-3.33739">
        <ele>85</ele>
        <time>2015-01-22T12:05:17.471Z</time>
      </trkpt>
      <trkpt lat="47.80888" lon="-3.33749">
        <ele>87</ele>
        <time>2015-01-22T12:05:27.463Z</time>
      </trkpt>
      <trkpt lat="47.80887" lon="-3.33751">
        <ele>87</ele>
        <time>2015-01-22T12:05:28.493Z</time>
      </trkpt>
      <trkpt lat="47.80885" lon="-3.33761">
        <ele>87</ele>
        <time>2015-01-22T12:05:31.518Z</time>
      </trkpt>
      <trkpt lat="47.80885" lon="-3.33765">
        <ele>86</ele>
        <time>2015-01-22T12:05:32.444Z</time>
      </trkpt>
      <trkpt lat="47.80886" lon="-3.33776">
        <ele>85</ele>
        <time>2015-01-22T12:05:40.430Z</time>
      </trkpt>
      <trkpt lat="47.80886" lon="-3.33778">
        <ele>86</ele>
        <time>2015-01-22T12:05:41.427Z</time>
      </trkpt>
      <trkpt lat="47.80889" lon="-3.33789">
        <ele>85</ele>
        <time>2015-01-22T12:05:48.433Z</time>
      </trkpt>
      <trkpt lat="47.8089" lon="-3.33791">
        <ele>84</ele>
        <time>2015-01-22T12:05:49.446Z</time>
      </trkpt>
      <trkpt lat="47.80894" lon="-3.338">
        <ele>86</ele>
        <time>2015-01-22T12:05:52.427Z</time>
      </trkpt>
      <trkpt lat="47.80895" lon="-3.33804">
        <ele>86</ele>
        <time>2015-01-22T12:05:53.430Z</time>
      </trkpt>
      <trkpt lat="47.809" lon="-3.33815">
        <ele>87</ele>
        <time>2015-01-22T12:05:56.498Z</time>
      </trkpt>
      <trkpt lat="47.80902" lon="-3.33819">
        <ele>88</ele>
        <time>2015-01-22T12:05:57.429Z</time>
      </trkpt>
      <trkpt lat="47.80908" lon="-3.33828">
        <ele>89</ele>
        <time>2015-01-22T12:06:20.451Z</time>
      </trkpt>
      <trkpt lat="47.80908" lon="-3.33829">
        <ele>88</ele>
        <time>2015-01-22T12:06:21.463Z</time>
      </trkpt>
      <trkpt lat="47.8091" lon="-3.33839">
        <ele>90</ele>
        <time>2015-01-22T12:06:25.473Z</time>
      </trkpt>
      <trkpt lat="47.8091" lon="-3.33842">
        <ele>91</ele>
        <time>2015-01-22T12:06:26.431Z</time>
      </trkpt>
      <trkpt lat="47.80914" lon="-3.33851">
        <ele>90</ele>
        <time>2015-01-22T12:06:43.485Z</time>
      </trkpt>
      <trkpt lat="47.80915" lon="-3.33854">
        <ele>91</ele>
        <time>2015-01-22T12:06:44.538Z</time>
      </trkpt>
      <trkpt lat="47.80921" lon="-3.33861">
        <ele>91</ele>
        <time>2015-01-22T12:06:47.432Z</time>
      </trkpt>
      <trkpt lat="47.80922" lon="-3.33862">
        <ele>91</ele>
        <time>2015-01-22T12:06:48.498Z</time>
      </trkpt>
      <trkpt lat="47.80926" lon="-3.33872">
        <ele>89</ele>
        <time>2015-01-22T12:07:02.506Z</time>
      </trkpt>
      <trkpt lat="47.80928" lon="-3.33874">
        <ele>89</ele>
        <time>2015-01-22T12:07:03.432Z</time>
      </trkpt>
      <trkpt lat="47.80936" lon="-3.33874">
        <ele>87</ele>
        <time>2015-01-22T12:07:07.428Z</time>
      </trkpt>
      <trkpt lat="47.80938" lon="-3.33872">
        <ele>87</ele>
        <time>2015-01-22T12:07:08.436Z</time>
      </trkpt>
      <trkpt lat="47.80943" lon="-3.33866">
        <ele>86</ele>
        <time>2015-01-22T12:07:10.430Z</time>
      </trkpt>
      <trkpt lat="47.80946" lon="-3.33863">
        <ele>87</ele>
        <time>2015-01-22T12:07:11.428Z</time>
      </trkpt>
      <trkpt lat="47.80951" lon="-3.33857">
        <ele>88</ele>
        <time>2015-01-22T12:07:13.429Z</time>
      </trkpt>
      <trkpt lat="47.80954" lon="-3.33855">
        <ele>88</ele>
        <time>2015-01-22T12:07:14.430Z</time>
      </trkpt>
      <trkpt lat="47.80957" lon="-3.33844">
        <ele>89</ele>
        <time>2015-01-22T12:07:17.428Z</time>
      </trkpt>
      <trkpt lat="47.80957" lon="-3.3384">
        <ele>89</ele>
        <time>2015-01-22T12:07:18.456Z</time>
      </trkpt>
      <trkpt lat="47.80959" lon="-3.33852">
        <ele>93</ele>
        <time>2015-01-22T12:07:45.429Z</time>
      </trkpt>
      <trkpt lat="47.80959" lon="-3.33855">
        <ele>93</ele>
        <time>2015-01-22T12:07:46.430Z</time>
      </trkpt>
      <trkpt lat="47.80957" lon="-3.33868">
        <ele>95</ele>
        <time>2015-01-22T12:07:52.503Z</time>
      </trkpt>
      <trkpt lat="47.80957" lon="-3.33868">
        <ele>96</ele>
        <time>2015-01-22T12:07:53.498Z</time>
      </trkpt>
      <trkpt lat="47.80949" lon="-3.3387">
        <ele>97</ele>
        <time>2015-01-22T12:07:57.503Z</time>
      </trkpt>
      <trkpt lat="47.80947" lon="-3.33872">
        <ele>98</ele>
        <time>2015-01-22T12:07:58.428Z</time>
      </trkpt>
      <trkpt lat="47.80941" lon="-3.33882">
        <ele>98</ele>
        <time>2015-01-22T12:08:01.487Z</time>
      </trkpt>
      <trkpt lat="47.80939" lon="-3.33885">
        <ele>97</ele>
        <time>2015-01-22T12:08:02.495Z</time>
      </trkpt>
      <trkpt lat="47.80934" lon="-3.33895">
        <ele>99</ele>
        <time>2015-01-22T12:08:05.456Z</time>
      </trkpt>
      <trkpt lat="47.80932" lon="-3.33897">
        <ele>100</ele>
        <time>2015-01-22T12:08:06.491Z</time>
      </trkpt>
      <trkpt lat="47.80925" lon="-3.33902">
        <ele>100</ele>
        <time>2015-01-22T12:08:28.431Z</time>
      </trkpt>
      <trkpt lat="47.80923" lon="-3.33903">
        <ele>100</ele>
        <time>2015-01-22T12:08:29.430Z</time>
      </trkpt>
      <trkpt lat="47.80915" lon="-3.33908">
        <ele>99</ele>
        <time>2015-01-22T12:08:35.469Z</time>
      </trkpt>
      <trkpt lat="47.80915" lon="-3.33908">
        <ele>99</ele>
        <time>2015-01-22T12:08:36.486Z</time>
      </trkpt>
      <trkpt lat="47.80907" lon="-3.33912">
        <ele>99</ele>
        <time>2015-01-22T12:08:40.522Z</time>
      </trkpt>
      <trkpt lat="47.80904" lon="-3.33913">
        <ele>100</ele>
        <time>2015-01-22T12:08:41.484Z</time>
      </trkpt>
      <trkpt lat="47.80896" lon="-3.33918">
        <ele>99</ele>
        <time>2015-01-22T12:08:46.429Z</time>
      </trkpt>
      <trkpt lat="47.80895" lon="-3.33918">
        <ele>99</ele>
        <time>2015-01-22T12:08:47.427Z</time>
      </trkpt>
      <trkpt lat="47.80886" lon="-3.33921">
        <ele>100</ele>
        <time>2015-01-22T12:08:55.427Z</time>
      </trkpt>
      <trkpt lat="47.80884" lon="-3.33922">
        <ele>100</ele>
        <time>2015-01-22T12:08:56.495Z</time>
      </trkpt>
      <trkpt lat="47.80875" lon="-3.33925">
        <ele>101</ele>
        <time>2015-01-22T12:09:04.427Z</time>
      </trkpt>
      <trkpt lat="47.80873" lon="-3.33925">
        <ele>101</ele>
        <time>2015-01-22T12:09:05.428Z</time>
      </trkpt>
      <trkpt lat="47.80865" lon="-3.33927">
        <ele>100</ele>
        <time>2015-01-22T12:09:39.427Z</time>
      </trkpt>
      <trkpt lat="47.80863" lon="-3.33928">
        <ele>99</ele>
        <time>2015-01-22T12:09:40.430Z</time>
      </trkpt>
      <trkpt lat="47.80856" lon="-3.3393">
        <ele>96</ele>
        <time>2015-01-22T12:09:51.427Z</time>
      </trkpt>
      <trkpt lat="47.80854" lon="-3.33931">
        <ele>96</ele>
        <time>2015-01-22T12:09:52.470Z</time>
      </trkpt>
      <trkpt lat="47.80848" lon="-3.33938">
        <ele>92</ele>
        <time>2015-01-22T12:09:55.427Z</time>
      </trkpt>
      <trkpt lat="47.80848" lon="-3.33942">
        <ele>93</ele>
        <time>2015-01-22T12:09:56.428Z</time>
      </trkpt>
      <trkpt lat="47.80851" lon="-3.33931">
        <ele>91</ele>
        <time>2015-01-22T12:10:12.428Z</time>
      </trkpt>
      <trkpt lat="47.80854" lon="-3.33929">
        <ele>91</ele>
        <time>2015-01-22T12:10:13.427Z</time>
      </trkpt>
      <trkpt lat="47.80859" lon="-3.33926">
        <ele>90</ele>
        <time>2015-01-22T12:10:15.424Z</time>
      </trkpt>
      <trkpt lat="47.80862" lon="-3.33924">
        <ele>92</ele>
        <time>2015-01-22T12:10:16.428Z</time>
      </trkpt>
      <trkpt lat="47.80869" lon="-3.33921">
        <ele>92</ele>
        <time>2015-01-22T12:10:18.429Z</time>
      </trkpt>
      <trkpt lat="47.80873" lon="-3.33919">
        <ele>91</ele>
        <time>2015-01-22T12:10:19.425Z</time>
      </trkpt>
      <trkpt lat="47.8088" lon="-3.33916">
        <ele>91</ele>
        <time>2015-01-22T12:10:21.426Z</time>
      </trkpt>
      <trkpt lat="47.80883" lon="-3.33915">
        <ele>90</ele>
        <time>2015-01-22T12:10:22.430Z</time>
      </trkpt>
      <trkpt lat="47.8089" lon="-3.33913">
        <ele>91</ele>
        <time>2015-01-22T12:10:24.428Z</time>
      </trkpt>
      <trkpt lat="47.80893" lon="-3.33912">
        <ele>90</ele>
        <time>2015-01-22T12:10:25.427Z</time>
      </trkpt>
      <trkpt lat="47.80899" lon="-3.33904">
        <ele>89</ele>
        <time>2015-01-22T12:10:51.427Z</time>
      </trkpt>
      <trkpt lat="47.80901" lon="-3.33903">
        <ele>89</ele>
        <time>2015-01-22T12:10:52.424Z</time>
      </trkpt>
      <trkpt lat="47.80909" lon="-3.33898">
        <ele>87</ele>
        <time>2015-01-22T12:10:55.491Z</time>
      </trkpt>
      <trkpt lat="47.80911" lon="-3.33897">
        <ele>88</ele>
        <time>2015-01-22T12:10:56.429Z</time>
      </trkpt>
      <trkpt lat="47.80918" lon="-3.33893">
        <ele>86</ele>
        <time>2015-01-22T12:10:59.426Z</time>
      </trkpt>
      <trkpt lat="47.8092" lon="-3.33892">
        <ele>86</ele>
        <time>2015-01-22T12:11:00.487Z</time>
      </trkpt>
      <trkpt lat="47.80929" lon="-3.33889">
        <ele>88</ele>
        <time>2015-01-22T12:11:03.461Z</time>
      </trkpt>
      <trkpt lat="47.80931" lon="-3.33888">
        <ele>88</ele>
        <time>2015-01-22T12:11:04.470Z</time>
      </trkpt>
      <trkpt lat="47.8094" lon="-3.33887">
        <ele>89</ele>
        <time>2015-01-22T12:11:07.512Z</time>
      </trkpt>
      <trkpt lat="47.80942" lon="-3.33889">
        <ele>90</ele>
        <time>2015-01-22T12:11:08.446Z</time>
      </trkpt>
      <trkpt lat="47.80948" lon="-3.33898">
        <ele>91</ele>
        <time>2015-01-22T12:11:11.498Z</time>
      </trkpt>
      <trkpt lat="47.80949" lon="-3.33902">
        <ele>92</ele>
        <time>2015-01-22T12:11:12.500Z</time>
      </trkpt>
      <trkpt lat="47.80954" lon="-3.33912">
        <ele>91</ele>
        <time>2015-01-22T12:11:15.426Z</time>
      </trkpt>
      <trkpt lat="47.80955" lon="-3.33916">
        <ele>90</ele>
        <time>2015-01-22T12:11:16.426Z</time>
      </trkpt>
      <trkpt lat="47.80955" lon="-3.33925">
        <ele>91</ele>
        <time>2015-01-22T12:11:18.426Z</time>
      </trkpt>
      <trkpt lat="47.80955" lon="-3.33929">
        <ele>90</ele>
        <time>2015-01-22T12:11:19.463Z</time>
      </trkpt>
      <trkpt lat="47.80955" lon="-3.33942">
        <ele>93</ele>
        <time>2015-01-22T12:11:29.506Z</time>
      </trkpt>
      <trkpt lat="47.80956" lon="-3.33944">
        <ele>93</ele>
        <time>2015-01-22T12:11:30.515Z</time>
      </trkpt>
      <trkpt lat="47.80958" lon="-3.33955">
        <ele>95</ele>
        <time>2015-01-22T12:11:38.504Z</time>
      </trkpt>
      <trkpt lat="47.80957" lon="-3.33959">
        <ele>97</ele>
        <time>2015-01-22T12:11:39.479Z</time>
      </trkpt>
      <trkpt lat="47.8096" lon="-3.33972">
        <ele>98</ele>
        <time>2015-01-22T12:11:42.423Z</time>
      </trkpt>
      <trkpt lat="47.80963" lon="-3.33973">
        <ele>98</ele>
        <time>2015-01-22T12:11:43.502Z</time>
      </trkpt>
      <trkpt lat="47.8097" lon="-3.33972">
        <ele>99</ele>
        <time>2015-01-22T12:11:45.436Z</time>
      </trkpt>
      <trkpt lat="47.80973" lon="-3.3397">
        <ele>98</ele>
        <time>2015-01-22T12:11:46.429Z</time>
      </trkpt>
      <trkpt lat="47.80979" lon="-3.33968">
        <ele>97</ele>
        <time>2015-01-22T12:11:48.426Z</time>
      </trkpt>
      <trkpt lat="47.80982" lon="-3.33967">
        <ele>98</ele>
        <time>2015-01-22T12:11:49.424Z</time>
      </trkpt>
      <trkpt lat="47.80991" lon="-3.33967">
        <ele>98</ele>
        <time>2015-01-22T12:11:52.458Z</time>
      </trkpt>
      <trkpt lat="47.80993" lon="-3.33969">
        <ele>97</ele>
        <time>2015-01-22T12:11:53.427Z</time>
      </trkpt>
      <trkpt lat="47.80986" lon="-3.3397">
        <ele>99</ele>
        <time>2015-01-22T12:12:03.471Z</time>
      </trkpt>
      <trkpt lat="47.80983" lon="-3.33968">
        <ele>99</ele>
        <time>2015-01-22T12:12:04.498Z</time>
      </trkpt>
      <trkpt lat="47.80975" lon="-3.33967">
        <ele>98</ele>
        <time>2015-01-22T12:12:07.427Z</time>
      </trkpt>
      <trkpt lat="47.80973" lon="-3.33967">
        <ele>98</ele>
        <time>2015-01-22T12:12:08.475Z</time>
      </trkpt>
      <trkpt lat="47.80964" lon="-3.33968">
        <ele>98</ele>
        <time>2015-01-22T12:12:11.505Z</time>
      </trkpt>
      <trkpt lat="47.80962" lon="-3.33968">
        <ele>98</ele>
        <time>2015-01-22T12:12:12.448Z</time>
      </trkpt>
      <trkpt lat="47.80955" lon="-3.33964">
        <ele>98</ele>
        <time>2015-01-22T12:12:15.491Z</time>
      </trkpt>
      <trkpt lat="47.80953" lon="-3.33965">
        <ele>97</ele>
        <time>2015-01-22T12:12:16.499Z</time>
      </trkpt>
      <trkpt lat="47.80946" lon="-3.3397">
        <ele>99</ele>
        <time>2015-01-22T12:12:29.495Z</time>
      </trkpt>
      <trkpt lat="47.80944" lon="-3.33971">
        <ele>99</ele>
        <time>2015-01-22T12:12:30.426Z</time>
      </trkpt>
      <trkpt lat="47.80941" lon="-3.33984">
        <ele>95</ele>
        <time>2015-01-22T12:12:49.423Z</time>
      </trkpt>
      <trkpt lat="47.80941" lon="-3.33984">
        <ele>96</ele>
        <time>2015-01-22T12:12:50.426Z</time>
      </trkpt>
      <trkpt lat="47.80933" lon="-3.33986">
        <ele>96</ele>
        <time>2015-01-22T12:13:10.485Z</time>
      </trkpt>
      <trkpt lat="47.8093" lon="-3.33988">
        <ele>96</ele>
        <time>2015-01-22T12:13:11.440Z</time>
      </trkpt>
      <trkpt lat="47.80923" lon="-3.33994">
        <ele>95</ele>
        <time>2015-01-22T12:13:14.481Z</time>
      </trkpt>
      <trkpt lat="47.80923" lon="-3.33997">
        <ele>95</ele>
        <time>2015-01-22T12:13:15.423Z</time>
      </trkpt>
      <trkpt lat="47.80915" lon="-3.33999">
        <ele>94</ele>
        <time>2015-01-22T12:13:21.425Z</time>
      </trkpt>
      <trkpt lat="47.80912" lon="-3.34001">
        <ele>95</ele>
        <time>2015-01-22T12:13:22.424Z</time>
      </trkpt>
      <trkpt lat="47.80904" lon="-3.34003">
        <ele>94</ele>
        <time>2015-01-22T12:13:25.433Z</time>
      </trkpt>
      <trkpt lat="47.80903" lon="-3.34002">
        <ele>94</ele>
        <time>2015-01-22T12:13:26.426Z</time>
      </trkpt>
      <trkpt lat="47.80896" lon="-3.34006">
        <ele>94</ele>
        <time>2015-01-22T12:13:37.501Z</time>
      </trkpt>
      <trkpt lat="47.80893" lon="-3.34008">
        <ele>94</ele>
        <time>2015-01-22T12:13:38.508Z</time>
      </trkpt>
      <trkpt lat="47.80887" lon="-3.34017">
        <ele>97</ele>
        <time>2015-01-22T12:14:02.488Z</time>
      </trkpt>
      <trkpt lat="47.80887" lon="-3.3402">
        <ele>97</ele>
        <time>2015-01-22T12:14:03.511Z</time>
      </trkpt>
      <trkpt lat="47.80891" lon="-3.3403">
        <ele>95</ele>
        <time>2015-01-22T12:14:08.517Z</time>
      </trkpt>
      <trkpt lat="47.80892" lon="-3.34032">
        <ele>96</ele>
        <time>2015-01-22T12:14:09.493Z</time>
      </trkpt>
      <trkpt lat="47.80898" lon="-3.3404">
        <ele>99</ele>
        <time>2015-01-22T12:14:14.486Z</time>
      </trkpt>
      <trkpt lat="47.80899" lon="-3.34042">
        <ele>99</ele>
        <time>2015-01-22T12:14:15.475Z</time>
      </trkpt>
      <trkpt lat="47.80904" lon="-3.34052">
        <ele>94</ele>
        <time>2015-01-22T12:14:22.428Z</time>
      </trkpt>
      <trkpt lat="47.80904" lon="-3.34054">
        <ele>94</ele>
        <time>2015-01-22T12:14:23.519Z</time>
      </trkpt>
      <trkpt lat="47.80904" lon="-3.34066">
        <ele>95</ele>
        <time>2015-01-22T12:14:28.500Z</time>
      </trkpt>
      <trkpt lat="47.80904" lon="-3.34068">
        <ele>95</ele>
        <time>2015-01-22T12:14:29.437Z</time>
      </trkpt>
      <trkpt lat="47.80908" lon="-3.3408">
        <ele>95</ele>
        <time>2015-01-22T12:14:36.482Z</time>
      </trkpt>
      <trkpt lat="47.80912" lon="-3.3408">
        <ele>95</ele>
        <time>2015-01-22T12:14:37.498Z</time>
      </trkpt>
      <trkpt lat="47.80918" lon="-3.34079">
        <ele>95</ele>
        <time>2015-01-22T12:14:39.472Z</time>
      </trkpt>
      <trkpt lat="47.80921" lon="-3.34078">
        <ele>96</ele>
        <time>2015-01-22T12:14:40.476Z</time>
      </trkpt>
      <trkpt lat="47.80927" lon="-3.34076">
        <ele>95</ele>
        <time>2015-01-22T12:14:42.485Z</time>
      </trkpt>
      <trkpt lat="47.8093" lon="-3.34075">
        <ele>94</ele>
        <time>2015-01-22T12:14:43.445Z</time>
      </trkpt>
      <trkpt lat="47.80936" lon="-3.34073">
        <ele>96</ele>
        <time>2015-01-22T12:14:45.424Z</time>
      </trkpt>
      <trkpt lat="47.80939" lon="-3.34073">
        <ele>96</ele>
        <time>2015-01-22T12:14:46.521Z</time>
      </trkpt>
      <trkpt lat="47.80946" lon="-3.34071">
        <ele>95</ele>
        <time>2015-01-22T12:14:48.460Z</time>
      </trkpt>
      <trkpt lat="47.80948" lon="-3.34071">
        <ele>96</ele>
        <time>2015-01-22T12:14:49.425Z</time>
      </trkpt>
      <trkpt lat="47.80956" lon="-3.34069">
        <ele>99</ele>
        <time>2015-01-22T12:14:52.430Z</time>
      </trkpt>
      <trkpt lat="47.80958" lon="-3.34068">
        <ele>98</ele>
        <time>2015-01-22T12:14:53.427Z</time>
      </trkpt>
      <trkpt lat="47.80964" lon="-3.34072">
        <ele>99</ele>
        <time>2015-01-22T12:14:56.425Z</time>
      </trkpt>
      <trkpt lat="47.80965" lon="-3.34076">
        <ele>99</ele>
        <time>2015-01-22T12:14:57.425Z</time>
      </trkpt>
      <trkpt lat="47.80969" lon="-3.34085">
        <ele>99</ele>
        <time>2015-01-22T12:15:00.503Z</time>
      </trkpt>
      <trkpt lat="47.80971" lon="-3.34087">
        <ele>100</ele>
        <time>2015-01-22T12:15:01.425Z</time>
      </trkpt>
      <trkpt lat="47.80966" lon="-3.34096">
        <ele>100</ele>
        <time>2015-01-22T12:15:22.424Z</time>
      </trkpt>
      <trkpt lat="47.80967" lon="-3.34099">
        <ele>100</ele>
        <time>2015-01-22T12:15:23.425Z</time>
      </trkpt>
      <trkpt lat="47.80969" lon="-3.34108">
        <ele>97</ele>
        <time>2015-01-22T12:15:30.423Z</time>
      </trkpt>
      <trkpt lat="47.80968" lon="-3.34113">
        <ele>99</ele>
        <time>2015-01-22T12:15:31.474Z</time>
      </trkpt>
      <trkpt lat="47.80968" lon="-3.34125">
        <ele>98</ele>
        <time>2015-01-22T12:15:34.424Z</time>
      </trkpt>
      <trkpt lat="47.80969" lon="-3.34129">
        <ele>98</ele>
        <time>2015-01-22T12:15:35.484Z</time>
      </trkpt>
      <trkpt lat="47.80969" lon="-3.34142">
        <ele>98</ele>
        <time>2015-01-22T12:15:38.486Z</time>
      </trkpt>
      <trkpt lat="47.80969" lon="-3.34147">
        <ele>99</ele>
        <time>2015-01-22T12:15:39.499Z</time>
      </trkpt>
      <trkpt lat="47.80966" lon="-3.34156">
        <ele>96</ele>
        <time>2015-01-22T12:15:57.432Z</time>
      </trkpt>
      <trkpt lat="47.80966" lon="-3.34159">
        <ele>96</ele>
        <time>2015-01-22T12:15:58.423Z</time>
      </trkpt>
      <trkpt lat="47.80971" lon="-3.3417">
        <ele>93</ele>
        <time>2015-01-22T12:16:09.424Z</time>
      </trkpt>
      <trkpt lat="47.80971" lon="-3.3417">
        <ele>93</ele>
        <time>2015-01-22T12:16:10.423Z</time>
      </trkpt>
      <trkpt lat="47.80973" lon="-3.34182">
        <ele>91</ele>
        <time>2015-01-22T12:16:14.431Z</time>
      </trkpt>
      <trkpt lat="47.80975" lon="-3.34185">
        <ele>91</ele>
        <time>2015-01-22T12:16:15.421Z</time>
      </trkpt>
      <trkpt lat="47.80981" lon="-3.34188">
        <ele>91</ele>
        <time>2015-01-22T12:16:18.422Z</time>
      </trkpt>
      <trkpt lat="47.80984" lon="-3.34188">
        <ele>91</ele>
        <time>2015-01-22T12:16:19.421Z</time>
      </trkpt>
      <trkpt lat="47.80993" lon="-3.34188">
        <ele>93</ele>
        <time>2015-01-22T12:16:22.423Z</time>
      </trkpt>
      <trkpt lat="47.80996" lon="-3.34188">
        <ele>93</ele>
        <time>2015-01-22T12:16:23.424Z</time>
      </trkpt>
      <trkpt lat="47.81002" lon="-3.34188">
        <ele>96</ele>
        <time>2015-01-22T12:16:25.419Z</time>
      </trkpt>
      <trkpt lat="47.81005" lon="-3.34188">
        <ele>97</ele>
        <time>2015-01-22T12:16:26.422Z</time>
      </trkpt>
      <trkpt lat="47.81013" lon="-3.3419">
        <ele>96</ele>
        <time>2015-01-22T12:16:29.429Z</time>
      </trkpt>
      <trkpt lat="47.81015" lon="-3.34192">
        <ele>96</ele>
        <time>2015-01-22T12:16:30.423Z</time>
      </trkpt>
      <trkpt lat="47.81024" lon="-3.34196">
        <ele>99</ele>
        <time>2015-01-22T12:16:35.422Z</time>
      </trkpt>
      <trkpt lat="47.81025" lon="-3.34196">
        <ele>98</ele>
        <time>2015-01-22T12:16:36.421Z</time>
      </trkpt>
      <trkpt lat="47.81033" lon="-3.34193">
        <ele>99</ele>
        <time>2015-01-22T12:16:47.499Z</time>
      </trkpt>
      <trkpt lat="47.81036" lon="-3.34192">
        <ele>98</ele>
        <time>2015-01-22T12:16:48.454Z</time>
      </trkpt>
      <trkpt lat="47.81042" lon="-3.34191">
        <ele>98</ele>
        <time>2015-01-22T12:16:50.523Z</time>
      </trkpt>
      <trkpt lat="47.81046" lon="-3.34191">
        <ele>98</ele>
        <time>2015-01-22T12:16:51.466Z</time>
      </trkpt>
      <trkpt lat="47.81054" lon="-3.34191">
        <ele>98</ele>
        <time>2015-01-22T12:17:00.422Z</time>
      </trkpt>
      <trkpt lat="47.81055" lon="-3.34191">
        <ele>98</ele>
        <time>2015-01-22T12:17:01.423Z</time>
      </trkpt>
      <trkpt lat="47.81055" lon="-3.34203">
        <ele>99</ele>
        <time>2015-01-22T12:18:08.422Z</time>
      </trkpt>
      <trkpt lat="47.81054" lon="-3.34207">
        <ele>99</ele>
        <time>2015-01-22T12:18:09.482Z</time>
      </trkpt>
      <trkpt lat="47.81057" lon="-3.34196">
        <ele>99</ele>
        <time>2015-01-22T12:19:02.435Z</time>
      </trkpt>
      <trkpt lat="47.81057" lon="-3.34194">
        <ele>99</ele>
        <time>2015-01-22T12:19:03.447Z</time>
      </trkpt>
      <trkpt lat="47.81049" lon="-3.34192">
        <ele>98</ele>
        <time>2015-01-22T12:19:54.421Z</time>
      </trkpt>
      <trkpt lat="47.81047" lon="-3.34193">
        <ele>98</ele>
        <time>2015-01-22T12:19:55.496Z</time>
      </trkpt>
      <trkpt lat="47.81039" lon="-3.34196">
        <ele>98</ele>
        <time>2015-01-22T12:19:59.419Z</time>
      </trkpt>
      <trkpt lat="47.81037" lon="-3.34196">
        <ele>99</ele>
        <time>2015-01-22T12:20:00.474Z</time>
      </trkpt>
      <trkpt lat="47.81033" lon="-3.34185">
        <ele>99</ele>
        <time>2015-01-22T12:20:04.430Z</time>
      </trkpt>
      <trkpt lat="47.81034" lon="-3.34179">
        <ele>98</ele>
        <time>2015-01-22T12:20:05.425Z</time>
      </trkpt>
      <trkpt lat="47.81035" lon="-3.34172">
        <ele>98</ele>
        <time>2015-01-22T12:20:06.420Z</time>
      </trkpt>
      <trkpt lat="47.81037" lon="-3.34161">
        <ele>98</ele>
        <time>2015-01-22T12:20:07.420Z</time>
      </trkpt>
      <trkpt lat="47.81037" lon="-3.34152">
        <ele>99</ele>
        <time>2015-01-22T12:20:08.486Z</time>
      </trkpt>
      <trkpt lat="47.81038" lon="-3.34142">
        <ele>99</ele>
        <time>2015-01-22T12:20:09.512Z</time>
      </trkpt>
      <trkpt lat="47.81038" lon="-3.34131">
        <ele>99</ele>
        <time>2015-01-22T12:20:10.451Z</time>
      </trkpt>
      <trkpt lat="47.81039" lon="-3.34123">
        <ele>100</ele>
        <time>2015-01-22T12:20:11.487Z</time>
      </trkpt>
      <trkpt lat="47.81039" lon="-3.34114">
        <ele>100</ele>
        <time>2015-01-22T12:20:12.424Z</time>
      </trkpt>
      <trkpt lat="47.81039" lon="-3.34105">
        <ele>100</ele>
        <time>2015-01-22T12:20:13.475Z</time>
      </trkpt>
      <trkpt lat="47.81039" lon="-3.34098">
        <ele>100</ele>
        <time>2015-01-22T12:20:14.421Z</time>
      </trkpt>
      <trkpt lat="47.81039" lon="-3.3409">
        <ele>100</ele>
        <time>2015-01-22T12:20:15.463Z</time>
      </trkpt>
      <trkpt lat="47.81038" lon="-3.34077">
        <ele>100</ele>
        <time>2015-01-22T12:20:23.420Z</time>
      </trkpt>
      <trkpt lat="47.81038" lon="-3.34077">
        <ele>99</ele>
        <time>2015-01-22T12:20:24.420Z</time>
      </trkpt>
      <trkpt lat="47.81044" lon="-3.34067">
        <ele>99</ele>
        <time>2015-01-22T12:20:30.416Z</time>
      </trkpt>
      <trkpt lat="47.81047" lon="-3.34067">
        <ele>98</ele>
        <time>2015-01-22T12:20:31.419Z</time>
      </trkpt>
      <trkpt lat="47.81054" lon="-3.3406">
        <ele>97</ele>
        <time>2015-01-22T12:20:34.417Z</time>
      </trkpt>
      <trkpt lat="47.81057" lon="-3.34055">
        <ele>97</ele>
        <time>2015-01-22T12:20:35.418Z</time>
      </trkpt>
      <trkpt lat="47.81058" lon="-3.34043">
        <ele>97</ele>
        <time>2015-01-22T12:20:36.453Z</time>
      </trkpt>
      <trkpt lat="47.81058" lon="-3.34036">
        <ele>96</ele>
        <time>2015-01-22T12:20:37.421Z</time>
      </trkpt>
      <trkpt lat="47.81058" lon="-3.34027">
        <ele>96</ele>
        <time>2015-01-22T12:20:38.446Z</time>
      </trkpt>
      <trkpt lat="47.81058" lon="-3.34018">
        <ele>97</ele>
        <time>2015-01-22T12:20:39.418Z</time>
      </trkpt>
      <trkpt lat="47.81058" lon="-3.34009">
        <ele>97</ele>
        <time>2015-01-22T12:20:40.419Z</time>
      </trkpt>
      <trkpt lat="47.81058" lon="-3.34">
        <ele>97</ele>
        <time>2015-01-22T12:20:41.418Z</time>
      </trkpt>
      <trkpt lat="47.81056" lon="-3.33988">
        <ele>98</ele>
        <time>2015-01-22T12:20:43.420Z</time>
      </trkpt>
      <trkpt lat="47.81052" lon="-3.33982">
        <ele>99</ele>
        <time>2015-01-22T12:20:44.418Z</time>
      </trkpt>
      <trkpt lat="47.81047" lon="-3.33977">
        <ele>99</ele>
        <time>2015-01-22T12:20:45.419Z</time>
      </trkpt>
      <trkpt lat="47.8104" lon="-3.33971">
        <ele>99</ele>
        <time>2015-01-22T12:20:46.419Z</time>
      </trkpt>
      <trkpt lat="47.81035" lon="-3.33965">
        <ele>99</ele>
        <time>2015-01-22T12:20:47.419Z</time>
      </trkpt>
      <trkpt lat="47.81029" lon="-3.33959">
        <ele>99</ele>
        <time>2015-01-22T12:20:48.420Z</time>
      </trkpt>
      <trkpt lat="47.81025" lon="-3.33955">
        <ele>99</ele>
        <time>2015-01-22T12:20:49.421Z</time>
      </trkpt>
      <trkpt lat="47.81022" lon="-3.33947">
        <ele>99</ele>
        <time>2015-01-22T12:20:50.416Z</time>
      </trkpt>
      <trkpt lat="47.81018" lon="-3.33939">
        <ele>99</ele>
        <time>2015-01-22T12:20:51.418Z</time>
      </trkpt>
      <trkpt lat="47.81015" lon="-3.33935">
        <ele>98</ele>
        <time>2015-01-22T12:20:52.420Z</time>
      </trkpt>
      <trkpt lat="47.8101" lon="-3.33927">
        <ele>99</ele>
        <time>2015-01-22T12:20:53.431Z</time>
      </trkpt>
      <trkpt lat="47.81006" lon="-3.33919">
        <ele>99</ele>
        <time>2015-01-22T12:20:54.416Z</time>
      </trkpt>
      <trkpt lat="47.81001" lon="-3.33914">
        <ele>98</ele>
        <time>2015-01-22T12:20:55.419Z</time>
      </trkpt>
      <trkpt lat="47.80997" lon="-3.33909">
        <ele>98</ele>
        <time>2015-01-22T12:20:56.419Z</time>
      </trkpt>
      <trkpt lat="47.80992" lon="-3.33904">
        <ele>98</ele>
        <time>2015-01-22T12:20:57.419Z</time>
      </trkpt>
      <trkpt lat="47.80985" lon="-3.33899">
        <ele>98</ele>
        <time>2015-01-22T12:20:58.465Z</time>
      </trkpt>
      <trkpt lat="47.80981" lon="-3.33885">
        <ele>99</ele>
        <time>2015-01-22T12:20:59.419Z</time>
      </trkpt>
      <trkpt lat="47.80976" lon="-3.33878">
        <ele>100</ele>
        <time>2015-01-22T12:21:00.412Z</time>
      </trkpt>
      <trkpt lat="47.8097" lon="-3.3387">
        <ele>101</ele>
        <time>2015-01-22T12:21:01.447Z</time>
      </trkpt>
      <trkpt lat="47.80967" lon="-3.33861">
        <ele>102</ele>
        <time>2015-01-22T12:21:03.431Z</time>
      </trkpt>
      <trkpt lat="47.80964" lon="-3.33858">
        <ele>103</ele>
        <time>2015-01-22T12:21:04.418Z</time>
      </trkpt>
      <trkpt lat="47.80962" lon="-3.3385">
        <ele>102</ele>
        <time>2015-01-22T12:21:05.418Z</time>
      </trkpt>
      <trkpt lat="47.80959" lon="-3.33841">
        <ele>103</ele>
        <time>2015-01-22T12:21:06.421Z</time>
      </trkpt>
      <trkpt lat="47.80958" lon="-3.33835">
        <ele>102</ele>
        <time>2015-01-22T12:21:07.417Z</time>
      </trkpt>
      <trkpt lat="47.80955" lon="-3.33824">
        <ele>102</ele>
        <time>2015-01-22T12:21:08.429Z</time>
      </trkpt>
      <trkpt lat="47.80951" lon="-3.33815">
        <ele>102</ele>
        <time>2015-01-22T12:21:09.419Z</time>
      </trkpt>
      <trkpt lat="47.80949" lon="-3.33808">
        <ele>102</ele>
        <time>2015-01-22T12:21:10.419Z</time>
      </trkpt>
      <trkpt lat="47.80947" lon="-3.33798">
        <ele>102</ele>
        <time>2015-01-22T12:21:11.417Z</time>
      </trkpt>
      <trkpt lat="47.80946" lon="-3.33783">
        <ele>102</ele>
        <time>2015-01-22T12:21:12.418Z</time>
      </trkpt>
      <trkpt lat="47.80946" lon="-3.33773">
        <ele>99</ele>
        <time>2015-01-22T12:21:13.419Z</time>
      </trkpt>
      <trkpt lat="47.80944" lon="-3.33766">
        <ele>98</ele>
        <time>2015-01-22T12:21:14.419Z</time>
      </trkpt>
      <trkpt lat="47.80944" lon="-3.33756">
        <ele>97</ele>
        <time>2015-01-22T12:21:15.418Z</time>
      </trkpt>
      <trkpt lat="47.80944" lon="-3.33746">
        <ele>95</ele>
        <time>2015-01-22T12:21:16.419Z</time>
      </trkpt>
      <trkpt lat="47.80943" lon="-3.33733">
        <ele>93</ele>
        <time>2015-01-22T12:21:17.418Z</time>
      </trkpt>
      <trkpt lat="47.80941" lon="-3.33724">
        <ele>91</ele>
        <time>2015-01-22T12:21:18.420Z</time>
      </trkpt>
      <trkpt lat="47.80939" lon="-3.33712">
        <ele>90</ele>
        <time>2015-01-22T12:21:19.418Z</time>
      </trkpt>
      <trkpt lat="47.80938" lon="-3.33701">
        <ele>89</ele>
        <time>2015-01-22T12:21:20.420Z</time>
      </trkpt>
      <trkpt lat="47.80938" lon="-3.33688">
        <ele>87</ele>
        <time>2015-01-22T12:21:21.418Z</time>
      </trkpt>
      <trkpt lat="47.80937" lon="-3.33677">
        <ele>88</ele>
        <time>2015-01-22T12:21:22.419Z</time>
      </trkpt>
      <trkpt lat="47.80935" lon="-3.33666">
        <ele>88</ele>
        <time>2015-01-22T12:21:23.417Z</time>
      </trkpt>
      <trkpt lat="47.80934" lon="-3.33657">
        <ele>88</ele>
        <time>2015-01-22T12:21:24.419Z</time>
      </trkpt>
      <trkpt lat="47.80932" lon="-3.33649">
        <ele>88</ele>
        <time>2015-01-22T12:21:25.417Z</time>
      </trkpt>
      <trkpt lat="47.80932" lon="-3.33638">
        <ele>89</ele>
        <time>2015-01-22T12:21:26.418Z</time>
      </trkpt>
      <trkpt lat="47.80932" lon="-3.33632">
        <ele>85</ele>
        <time>2015-01-22T12:21:28.420Z</time>
      </trkpt>
      <trkpt lat="47.8093" lon="-3.33622">
        <ele>85</ele>
        <time>2015-01-22T12:21:29.419Z</time>
      </trkpt>
      <trkpt lat="47.8093" lon="-3.33607">
        <ele>85</ele>
        <time>2015-01-22T12:21:30.420Z</time>
      </trkpt>
      <trkpt lat="47.8093" lon="-3.33598">
        <ele>82</ele>
        <time>2015-01-22T12:21:31.420Z</time>
      </trkpt>
      <trkpt lat="47.8093" lon="-3.33587">
        <ele>81</ele>
        <time>2015-01-22T12:21:32.421Z</time>
      </trkpt>
      <trkpt lat="47.80931" lon="-3.33573">
        <ele>83</ele>
        <time>2015-01-22T12:21:33.419Z</time>
      </trkpt>
      <trkpt lat="47.80925" lon="-3.33561">
        <ele>83</ele>
        <time>2015-01-22T12:21:34.418Z</time>
      </trkpt>
      <trkpt lat="47.80924" lon="-3.33546">
        <ele>84</ele>
        <time>2015-01-22T12:21:35.419Z</time>
      </trkpt>
      <trkpt lat="47.8092" lon="-3.3353">
        <ele>83</ele>
        <time>2015-01-22T12:21:36.419Z</time>
      </trkpt>
      <trkpt lat="47.8092" lon="-3.33514">
        <ele>84</ele>
        <time>2015-01-22T12:21:37.416Z</time>
      </trkpt>
      <trkpt lat="47.80912" lon="-3.33501">
        <ele>84</ele>
        <time>2015-01-22T12:21:38.416Z</time>
      </trkpt>
      <trkpt lat="47.80905" lon="-3.3349">
        <ele>82</ele>
        <time>2015-01-22T12:21:39.416Z</time>
      </trkpt>
      <trkpt lat="47.80899" lon="-3.33471">
        <ele>84</ele>
        <time>2015-01-22T12:21:40.418Z</time>
      </trkpt>
      <trkpt lat="47.80893" lon="-3.33455">
        <ele>85</ele>
        <time>2015-01-22T12:21:41.418Z</time>
      </trkpt>
      <trkpt lat="47.80885" lon="-3.33446">
        <ele>85</ele>
        <time>2015-01-22T12:21:42.460Z</time>
      </trkpt>
      <trkpt lat="47.80877" lon="-3.33433">
        <ele>85</ele>
        <time>2015-01-22T12:21:43.419Z</time>
      </trkpt>
      <trkpt lat="47.8087" lon="-3.33423">
        <ele>85</ele>
        <time>2015-01-22T12:21:44.419Z</time>
      </trkpt>
      <trkpt lat="47.80859" lon="-3.33411">
        <ele>86</ele>
        <time>2015-01-22T12:21:45.420Z</time>
      </trkpt>
      <trkpt lat="47.80851" lon="-3.33402">
        <ele>84</ele>
        <time>2015-01-22T12:21:46.417Z</time>
      </trkpt>
      <trkpt lat="47.80841" lon="-3.33391">
        <ele>85</ele>
        <time>2015-01-22T12:21:47.418Z</time>
      </trkpt>
      <trkpt lat="47.80829" lon="-3.33383">
        <ele>86</ele>
        <time>2015-01-22T12:21:48.421Z</time>
      </trkpt>
      <trkpt lat="47.80821" lon="-3.33373">
        <ele>83</ele>
        <time>2015-01-22T12:21:49.415Z</time>
      </trkpt>
      <trkpt lat="47.8081" lon="-3.33368">
        <ele>82</ele>
        <time>2015-01-22T12:21:50.418Z</time>
      </trkpt>
      <trkpt lat="47.80796" lon="-3.33363">
        <ele>82</ele>
        <time>2015-01-22T12:21:51.418Z</time>
      </trkpt>
      <trkpt lat="47.80785" lon="-3.33356">
        <ele>82</ele>
        <time>2015-01-22T12:21:52.419Z</time>
      </trkpt>
      <trkpt lat="47.80772" lon="-3.33351">
        <ele>82</ele>
        <time>2015-01-22T12:21:53.418Z</time>
      </trkpt>
      <trkpt lat="47.8076" lon="-3.3335">
        <ele>81</ele>
        <time>2015-01-22T12:21:54.419Z</time>
      </trkpt>
      <trkpt lat="47.80747" lon="-3.33347">
        <ele>81</ele>
        <time>2015-01-22T12:21:55.417Z</time>
      </trkpt>
      <trkpt lat="47.80736" lon="-3.33343">
        <ele>82</ele>
        <time>2015-01-22T12:21:56.418Z</time>
      </trkpt>
      <trkpt lat="47.80724" lon="-3.33339">
        <ele>83</ele>
        <time>2015-01-22T12:21:57.418Z</time>
      </trkpt>
      <trkpt lat="47.80712" lon="-3.33332">
        <ele>84</ele>
        <time>2015-01-22T12:21:58.418Z</time>
      </trkpt>
      <trkpt lat="47.80695" lon="-3.3332">
        <ele>82</ele>
        <time>2015-01-22T12:21:59.419Z</time>
      </trkpt>
      <trkpt lat="47.80684" lon="-3.33311">
        <ele>83</ele>
        <time>2015-01-22T12:22:00.418Z</time>
      </trkpt>
      <trkpt lat="47.80675" lon="-3.33297">
        <ele>82</ele>
        <time>2015-01-22T12:22:01.418Z</time>
      </trkpt>
      <trkpt lat="47.80664" lon="-3.33284">
        <ele>82</ele>
        <time>2015-01-22T12:22:02.438Z</time>
      </trkpt>
      <trkpt lat="47.80653" lon="-3.3327">
        <ele>82</ele>
        <time>2015-01-22T12:22:03.416Z</time>
      </trkpt>
      <trkpt lat="47.80641" lon="-3.33252">
        <ele>82</ele>
        <time>2015-01-22T12:22:04.416Z</time>
      </trkpt>
      <trkpt lat="47.80631" lon="-3.33235">
        <ele>80</ele>
        <time>2015-01-22T12:22:05.419Z</time>
      </trkpt>
      <trkpt lat="47.80621" lon="-3.3322">
        <ele>80</ele>
        <time>2015-01-22T12:22:06.419Z</time>
      </trkpt>
      <trkpt lat="47.80611" lon="-3.33207">
        <ele>82</ele>
        <time>2015-01-22T12:22:07.418Z</time>
      </trkpt>
      <trkpt lat="47.80601" lon="-3.33192">
        <ele>82</ele>
        <time>2015-01-22T12:22:08.419Z</time>
      </trkpt>
      <trkpt lat="47.80597" lon="-3.3317">
        <ele>81</ele>
        <time>2015-01-22T12:22:09.419Z</time>
      </trkpt>
      <trkpt lat="47.80588" lon="-3.33151">
        <ele>81</ele>
        <time>2015-01-22T12:22:10.417Z</time>
      </trkpt>
      <trkpt lat="47.80576" lon="-3.33137">
        <ele>81</ele>
        <time>2015-01-22T12:22:11.417Z</time>
      </trkpt>
      <trkpt lat="47.80563" lon="-3.33125">
        <ele>78</ele>
        <time>2015-01-22T12:22:12.425Z</time>
      </trkpt>
      <trkpt lat="47.8055" lon="-3.3311">
        <ele>79</ele>
        <time>2015-01-22T12:22:13.419Z</time>
      </trkpt>
      <trkpt lat="47.80537" lon="-3.33093">
        <ele>79</ele>
        <time>2015-01-22T12:22:14.418Z</time>
      </trkpt>
      <trkpt lat="47.80522" lon="-3.33077">
        <ele>78</ele>
        <time>2015-01-22T12:22:15.419Z</time>
      </trkpt>
      <trkpt lat="47.80509" lon="-3.33062">
        <ele>78</ele>
        <time>2015-01-22T12:22:16.418Z</time>
      </trkpt>
      <trkpt lat="47.80496" lon="-3.33045">
        <ele>78</ele>
        <time>2015-01-22T12:22:17.420Z</time>
      </trkpt>
      <trkpt lat="47.80483" lon="-3.33029">
        <ele>79</ele>
        <time>2015-01-22T12:22:18.417Z</time>
      </trkpt>
      <trkpt lat="47.80469" lon="-3.33012">
        <ele>79</ele>
        <time>2015-01-22T12:22:19.420Z</time>
      </trkpt>
      <trkpt lat="47.80457" lon="-3.32996">
        <ele>80</ele>
        <time>2015-01-22T12:22:20.423Z</time>
      </trkpt>
      <trkpt lat="47.80443" lon="-3.32977">
        <ele>81</ele>
        <time>2015-01-22T12:22:21.418Z</time>
      </trkpt>
      <trkpt lat="47.8043" lon="-3.32959">
        <ele>81</ele>
        <time>2015-01-22T12:22:22.416Z</time>
      </trkpt>
      <trkpt lat="47.80417" lon="-3.32942">
        <ele>83</ele>
        <time>2015-01-22T12:22:23.417Z</time>
      </trkpt>
      <trkpt lat="47.80405" lon="-3.32926">
        <ele>83</ele>
        <time>2015-01-22T12:22:24.415Z</time>
      </trkpt>
      <trkpt lat="47.80393" lon="-3.32908">
        <ele>81</ele>
        <time>2015-01-22T12:22:25.417Z</time>
      </trkpt>
      <trkpt lat="47.80381" lon="-3.32891">
        <ele>81</ele>
        <time>2015-01-22T12:22:26.418Z</time>
      </trkpt>
      <trkpt lat="47.80369" lon="-3.32874">
        <ele>81</ele>
        <time>2015-01-22T12:22:27.417Z</time>
      </trkpt>
      <trkpt lat="47.80357" lon="-3.32856">
        <ele>79</ele>
        <time>2015-01-22T12:22:28.418Z</time>
      </trkpt>
      <trkpt lat="47.80344" lon="-3.3284">
        <ele>79</ele>
        <time>2015-01-22T12:22:29.418Z</time>
      </trkpt>
      <trkpt lat="47.80332" lon="-3.32824">
        <ele>79</ele>
        <time>2015-01-22T12:22:30.417Z</time>
      </trkpt>
      <trkpt lat="47.80319" lon="-3.32806">
        <ele>80</ele>
        <time>2015-01-22T12:22:31.418Z</time>
      </trkpt>
      <trkpt lat="47.80307" lon="-3.32791">
        <ele>81</ele>
        <time>2015-01-22T12:22:32.418Z</time>
      </trkpt>
      <trkpt lat="47.80295" lon="-3.32778">
        <ele>82</ele>
        <time>2015-01-22T12:22:33.418Z</time>
      </trkpt>
      <trkpt lat="47.80282" lon="-3.32764">
        <ele>83</ele>
        <time>2015-01-22T12:22:34.416Z</time>
      </trkpt>
      <trkpt lat="47.80269" lon="-3.32748">
        <ele>83</ele>
        <time>2015-01-22T12:22:35.418Z</time>
      </trkpt>
      <trkpt lat="47.80255" lon="-3.32732">
        <ele>83</ele>
        <time>2015-01-22T12:22:36.419Z</time>
      </trkpt>
      <trkpt lat="47.80242" lon="-3.32715">
        <ele>84</ele>
        <time>2015-01-22T12:22:37.418Z</time>
      </trkpt>
      <trkpt lat="47.80228" lon="-3.32702">
        <ele>85</ele>
        <time>2015-01-22T12:22:38.417Z</time>
      </trkpt>
      <trkpt lat="47.80213" lon="-3.32686">
        <ele>85</ele>
        <time>2015-01-22T12:22:39.490Z</time>
      </trkpt>
      <trkpt lat="47.802" lon="-3.32669">
        <ele>86</ele>
        <time>2015-01-22T12:22:40.418Z</time>
      </trkpt>
      <trkpt lat="47.80186" lon="-3.32654">
        <ele>85</ele>
        <time>2015-01-22T12:22:41.416Z</time>
      </trkpt>
      <trkpt lat="47.80173" lon="-3.32639">
        <ele>86</ele>
        <time>2015-01-22T12:22:42.417Z</time>
      </trkpt>
      <trkpt lat="47.8016" lon="-3.32625">
        <ele>86</ele>
        <time>2015-01-22T12:22:43.417Z</time>
      </trkpt>
      <trkpt lat="47.80147" lon="-3.32611">
        <ele>85</ele>
        <time>2015-01-22T12:22:44.476Z</time>
      </trkpt>
      <trkpt lat="47.80134" lon="-3.32597">
        <ele>85</ele>
        <time>2015-01-22T12:22:45.417Z</time>
      </trkpt>
      <trkpt lat="47.80122" lon="-3.32582">
        <ele>84</ele>
        <time>2015-01-22T12:22:46.438Z</time>
      </trkpt>
      <trkpt lat="47.8011" lon="-3.32573">
        <ele>84</ele>
        <time>2015-01-22T12:22:47.418Z</time>
      </trkpt>
      <trkpt lat="47.80098" lon="-3.32562">
        <ele>84</ele>
        <time>2015-01-22T12:22:48.416Z</time>
      </trkpt>
      <trkpt lat="47.80086" lon="-3.32548">
        <ele>84</ele>
        <time>2015-01-22T12:22:49.418Z</time>
      </trkpt>
      <trkpt lat="47.80076" lon="-3.32536">
        <ele>82</ele>
        <time>2015-01-22T12:22:50.416Z</time>
      </trkpt>
      <trkpt lat="47.80064" lon="-3.32526">
        <ele>83</ele>
        <time>2015-01-22T12:22:51.417Z</time>
      </trkpt>
      <trkpt lat="47.80053" lon="-3.32515">
        <ele>82</ele>
        <time>2015-01-22T12:22:52.414Z</time>
      </trkpt>
      <trkpt lat="47.80042" lon="-3.32504">
        <ele>82</ele>
        <time>2015-01-22T12:22:53.463Z</time>
      </trkpt>
      <trkpt lat="47.8003" lon="-3.32495">
        <ele>81</ele>
        <time>2015-01-22T12:22:54.416Z</time>
      </trkpt>
      <trkpt lat="47.80018" lon="-3.32488">
        <ele>81</ele>
        <time>2015-01-22T12:22:55.416Z</time>
      </trkpt>
      <trkpt lat="47.80006" lon="-3.32481">
        <ele>81</ele>
        <time>2015-01-22T12:22:56.461Z</time>
      </trkpt>
      <trkpt lat="47.79994" lon="-3.32475">
        <ele>81</ele>
        <time>2015-01-22T12:22:57.451Z</time>
      </trkpt>
      <trkpt lat="47.79981" lon="-3.32471">
        <ele>81</ele>
        <time>2015-01-22T12:22:58.415Z</time>
      </trkpt>
      <trkpt lat="47.79969" lon="-3.32468">
        <ele>81</ele>
        <time>2015-01-22T12:22:59.409Z</time>
      </trkpt>
      <trkpt lat="47.79956" lon="-3.32466">
        <ele>81</ele>
        <time>2015-01-22T12:23:00.406Z</time>
      </trkpt>
      <trkpt lat="47.79944" lon="-3.32463">
        <ele>81</ele>
        <time>2015-01-22T12:23:01.204Z</time>
      </trkpt>
      <trkpt lat="47.79932" lon="-3.3246">
        <ele>81</ele>
        <time>2015-01-22T12:23:02.128Z</time>
      </trkpt>
      <trkpt lat="47.79918" lon="-3.32457">
        <ele>81</ele>
        <time>2015-01-22T12:23:03.141Z</time>
      </trkpt>
      <trkpt lat="47.79904" lon="-3.32454">
        <ele>82</ele>
        <time>2015-01-22T12:23:04.130Z</time>
      </trkpt>
      <trkpt lat="47.79892" lon="-3.32452">
        <ele>83</ele>
        <time>2015-01-22T12:23:05.143Z</time>
      </trkpt>
      <trkpt lat="47.79881" lon="-3.32454">
        <ele>83</ele>
        <time>2015-01-22T12:23:06.141Z</time>
      </trkpt>
      <trkpt lat="47.79864" lon="-3.32444">
        <ele>82</ele>
        <time>2015-01-22T12:23:07.141Z</time>
      </trkpt>
      <trkpt lat="47.79852" lon="-3.32439">
        <ele>82</ele>
        <time>2015-01-22T12:23:08.140Z</time>
      </trkpt>
      <trkpt lat="47.79839" lon="-3.3244">
        <ele>82</ele>
        <time>2015-01-22T12:23:09.142Z</time>
      </trkpt>
      <trkpt lat="47.79829" lon="-3.32444">
        <ele>82</ele>
        <time>2015-01-22T12:23:10.140Z</time>
      </trkpt>
      <trkpt lat="47.79822" lon="-3.32446">
        <ele>82</ele>
        <time>2015-01-22T12:23:11.142Z</time>
      </trkpt>
      <trkpt lat="47.79809" lon="-3.32442">
        <ele>81</ele>
        <time>2015-01-22T12:23:12.142Z</time>
      </trkpt>
      <trkpt lat="47.79802" lon="-3.3245">
        <ele>80</ele>
        <time>2015-01-22T12:23:13.142Z</time>
      </trkpt>
      <trkpt lat="47.79787" lon="-3.32447">
        <ele>81</ele>
        <time>2015-01-22T12:23:14.143Z</time>
      </trkpt>
      <trkpt lat="47.79776" lon="-3.32445">
        <ele>81</ele>
        <time>2015-01-22T12:23:15.142Z</time>
      </trkpt>
      <trkpt lat="47.79765" lon="-3.32448">
        <ele>81</ele>
        <time>2015-01-22T12:23:16.143Z</time>
      </trkpt>
      <trkpt lat="47.79751" lon="-3.32446">
        <ele>82</ele>
        <time>2015-01-22T12:23:17.142Z</time>
      </trkpt>
      <trkpt lat="47.79738" lon="-3.3244">
        <ele>83</ele>
        <time>2015-01-22T12:23:18.143Z</time>
      </trkpt>
      <trkpt lat="47.79727" lon="-3.32446">
        <ele>79</ele>
        <time>2015-01-22T12:23:19.143Z</time>
      </trkpt>
      <trkpt lat="47.79714" lon="-3.32438">
        <ele>79</ele>
        <time>2015-01-22T12:23:20.142Z</time>
      </trkpt>
      <trkpt lat="47.79702" lon="-3.32433">
        <ele>79</ele>
        <time>2015-01-22T12:23:21.142Z</time>
      </trkpt>
      <trkpt lat="47.7969" lon="-3.3243">
        <ele>78</ele>
        <time>2015-01-22T12:23:22.143Z</time>
      </trkpt>
      <trkpt lat="47.79678" lon="-3.32432">
        <ele>77</ele>
        <time>2015-01-22T12:23:23.142Z</time>
      </trkpt>
      <trkpt lat="47.79667" lon="-3.32427">
        <ele>79</ele>
        <time>2015-01-22T12:23:24.142Z</time>
      </trkpt>
      <trkpt lat="47.79654" lon="-3.3242">
        <ele>80</ele>
        <time>2015-01-22T12:23:25.141Z</time>
      </trkpt>
      <trkpt lat="47.79641" lon="-3.32415">
        <ele>80</ele>
        <time>2015-01-22T12:23:26.142Z</time>
      </trkpt>
      <trkpt lat="47.79629" lon="-3.32409">
        <ele>80</ele>
        <time>2015-01-22T12:23:27.141Z</time>
      </trkpt>
      <trkpt lat="47.79619" lon="-3.32403">
        <ele>79</ele>
        <time>2015-01-22T12:23:28.143Z</time>
      </trkpt>
      <trkpt lat="47.79606" lon="-3.32397">
        <ele>79</ele>
        <time>2015-01-22T12:23:29.141Z</time>
      </trkpt>
      <trkpt lat="47.79595" lon="-3.32391">
        <ele>80</ele>
        <time>2015-01-22T12:23:30.143Z</time>
      </trkpt>
      <trkpt lat="47.79583" lon="-3.32389">
        <ele>80</ele>
        <time>2015-01-22T12:23:31.146Z</time>
      </trkpt>
      <trkpt lat="47.79571" lon="-3.32383">
        <ele>80</ele>
        <time>2015-01-22T12:23:32.148Z</time>
      </trkpt>
      <trkpt lat="47.79559" lon="-3.32376">
        <ele>80</ele>
        <time>2015-01-22T12:23:33.142Z</time>
      </trkpt>
      <trkpt lat="47.79547" lon="-3.3237">
        <ele>81</ele>
        <time>2015-01-22T12:23:34.141Z</time>
      </trkpt>
      <trkpt lat="47.79535" lon="-3.32365">
        <ele>79</ele>
        <time>2015-01-22T12:23:35.142Z</time>
      </trkpt>
      <trkpt lat="47.79524" lon="-3.32361">
        <ele>81</ele>
        <time>2015-01-22T12:23:36.144Z</time>
      </trkpt>
      <trkpt lat="47.79513" lon="-3.32359">
        <ele>80</ele>
        <time>2015-01-22T12:23:37.141Z</time>
      </trkpt>
      <trkpt lat="47.79501" lon="-3.32353">
        <ele>79</ele>
        <time>2015-01-22T12:23:38.142Z</time>
      </trkpt>
      <trkpt lat="47.79488" lon="-3.32346">
        <ele>79</ele>
        <time>2015-01-22T12:23:39.143Z</time>
      </trkpt>
      <trkpt lat="47.79476" lon="-3.3234">
        <ele>78</ele>
        <time>2015-01-22T12:23:40.140Z</time>
      </trkpt>
      <trkpt lat="47.79465" lon="-3.32334">
        <ele>78</ele>
        <time>2015-01-22T12:23:41.141Z</time>
      </trkpt>
      <trkpt lat="47.79454" lon="-3.32327">
        <ele>78</ele>
        <time>2015-01-22T12:23:42.144Z</time>
      </trkpt>
      <trkpt lat="47.79442" lon="-3.32319">
        <ele>78</ele>
        <time>2015-01-22T12:23:43.141Z</time>
      </trkpt>
      <trkpt lat="47.79432" lon="-3.3231">
        <ele>78</ele>
        <time>2015-01-22T12:23:44.141Z</time>
      </trkpt>
      <trkpt lat="47.79421" lon="-3.32302">
        <ele>79</ele>
        <time>2015-01-22T12:23:45.140Z</time>
      </trkpt>
      <trkpt lat="47.7941" lon="-3.32294">
        <ele>80</ele>
        <time>2015-01-22T12:23:46.143Z</time>
      </trkpt>
      <trkpt lat="47.79398" lon="-3.32285">
        <ele>80</ele>
        <time>2015-01-22T12:23:47.141Z</time>
      </trkpt>
      <trkpt lat="47.79387" lon="-3.32282">
        <ele>80</ele>
        <time>2015-01-22T12:23:48.140Z</time>
      </trkpt>
      <trkpt lat="47.79376" lon="-3.32277">
        <ele>81</ele>
        <time>2015-01-22T12:23:49.141Z</time>
      </trkpt>
      <trkpt lat="47.79364" lon="-3.32269">
        <ele>81</ele>
        <time>2015-01-22T12:23:50.141Z</time>
      </trkpt>
      <trkpt lat="47.79351" lon="-3.32263">
        <ele>80</ele>
        <time>2015-01-22T12:23:51.142Z</time>
      </trkpt>
      <trkpt lat="47.7934" lon="-3.32257">
        <ele>80</ele>
        <time>2015-01-22T12:23:52.139Z</time>
      </trkpt>
      <trkpt lat="47.79327" lon="-3.32251">
        <ele>81</ele>
        <time>2015-01-22T12:23:53.371Z</time>
      </trkpt>
      <trkpt lat="47.79314" lon="-3.32245">
        <ele>80</ele>
        <time>2015-01-22T12:23:54.364Z</time>
      </trkpt>
      <trkpt lat="47.79303" lon="-3.32238">
        <ele>81</ele>
        <time>2015-01-22T12:23:55.364Z</time>
      </trkpt>
      <trkpt lat="47.79291" lon="-3.32228">
        <ele>81</ele>
        <time>2015-01-22T12:23:56.364Z</time>
      </trkpt>
      <trkpt lat="47.79281" lon="-3.32224">
        <ele>80</ele>
        <time>2015-01-22T12:23:57.363Z</time>
      </trkpt>
      <trkpt lat="47.7927" lon="-3.32219">
        <ele>81</ele>
        <time>2015-01-22T12:23:58.364Z</time>
      </trkpt>
      <trkpt lat="47.79258" lon="-3.32215">
        <ele>79</ele>
        <time>2015-01-22T12:23:59.363Z</time>
      </trkpt>
      <trkpt lat="47.79247" lon="-3.3221">
        <ele>80</ele>
        <time>2015-01-22T12:24:00.362Z</time>
      </trkpt>
      <trkpt lat="47.79236" lon="-3.32206">
        <ele>78</ele>
        <time>2015-01-22T12:24:01.364Z</time>
      </trkpt>
      <trkpt lat="47.79226" lon="-3.322">
        <ele>79</ele>
        <time>2015-01-22T12:24:02.367Z</time>
      </trkpt>
      <trkpt lat="47.79215" lon="-3.32192">
        <ele>81</ele>
        <time>2015-01-22T12:24:03.364Z</time>
      </trkpt>
      <trkpt lat="47.79204" lon="-3.32186">
        <ele>80</ele>
        <time>2015-01-22T12:24:04.362Z</time>
      </trkpt>
      <trkpt lat="47.79194" lon="-3.32181">
        <ele>80</ele>
        <time>2015-01-22T12:24:05.361Z</time>
      </trkpt>
      <trkpt lat="47.79184" lon="-3.32174">
        <ele>80</ele>
        <time>2015-01-22T12:24:06.364Z</time>
      </trkpt>
      <trkpt lat="47.79173" lon="-3.32167">
        <ele>82</ele>
        <time>2015-01-22T12:24:07.364Z</time>
      </trkpt>
      <trkpt lat="47.79164" lon="-3.3216">
        <ele>82</ele>
        <time>2015-01-22T12:24:08.364Z</time>
      </trkpt>
      <trkpt lat="47.79154" lon="-3.32152">
        <ele>83</ele>
        <time>2015-01-22T12:24:09.365Z</time>
      </trkpt>
      <trkpt lat="47.79143" lon="-3.32145">
        <ele>83</ele>
        <time>2015-01-22T12:24:10.364Z</time>
      </trkpt>
      <trkpt lat="47.79133" lon="-3.32138">
        <ele>83</ele>
        <time>2015-01-22T12:24:11.365Z</time>
      </trkpt>
      <trkpt lat="47.79124" lon="-3.32131">
        <ele>82</ele>
        <time>2015-01-22T12:24:12.365Z</time>
      </trkpt>
      <trkpt lat="47.79115" lon="-3.32126">
        <ele>84</ele>
        <time>2015-01-22T12:24:13.365Z</time>
      </trkpt>
      <trkpt lat="47.79108" lon="-3.32122">
        <ele>83</ele>
        <time>2015-01-22T12:24:14.364Z</time>
      </trkpt>
      <trkpt lat="47.79101" lon="-3.32116">
        <ele>83</ele>
        <time>2015-01-22T12:24:15.365Z</time>
      </trkpt>
      <trkpt lat="47.79093" lon="-3.32113">
        <ele>84</ele>
        <time>2015-01-22T12:24:16.363Z</time>
      </trkpt>
      <trkpt lat="47.79085" lon="-3.3211">
        <ele>83</ele>
        <time>2015-01-22T12:24:17.365Z</time>
      </trkpt>
      <trkpt lat="47.79077" lon="-3.32109">
        <ele>82</ele>
        <time>2015-01-22T12:24:18.364Z</time>
      </trkpt>
      <trkpt lat="47.79067" lon="-3.32108">
        <ele>82</ele>
        <time>2015-01-22T12:24:19.365Z</time>
      </trkpt>
      <trkpt lat="47.7906" lon="-3.32115">
        <ele>82</ele>
        <time>2015-01-22T12:24:20.364Z</time>
      </trkpt>
      <trkpt lat="47.79053" lon="-3.32115">
        <ele>83</ele>
        <time>2015-01-22T12:24:21.365Z</time>
      </trkpt>
      <trkpt lat="47.79047" lon="-3.32113">
        <ele>83</ele>
        <time>2015-01-22T12:24:23.364Z</time>
      </trkpt>
      <trkpt lat="47.79043" lon="-3.32117">
        <ele>84</ele>
        <time>2015-01-22T12:24:24.363Z</time>
      </trkpt>
      <trkpt lat="47.79039" lon="-3.32126">
        <ele>83</ele>
        <time>2015-01-22T12:24:25.364Z</time>
      </trkpt>
      <trkpt lat="47.79034" lon="-3.32135">
        <ele>85</ele>
        <time>2015-01-22T12:24:26.364Z</time>
      </trkpt>
      <trkpt lat="47.79031" lon="-3.32151">
        <ele>83</ele>
        <time>2015-01-22T12:24:27.364Z</time>
      </trkpt>
      <trkpt lat="47.79026" lon="-3.32166">
        <ele>82</ele>
        <time>2015-01-22T12:24:28.365Z</time>
      </trkpt>
      <trkpt lat="47.79021" lon="-3.32182">
        <ele>82</ele>
        <time>2015-01-22T12:24:29.364Z</time>
      </trkpt>
      <trkpt lat="47.79019" lon="-3.32198">
        <ele>81</ele>
        <time>2015-01-22T12:24:30.365Z</time>
      </trkpt>
      <trkpt lat="47.79019" lon="-3.32218">
        <ele>81</ele>
        <time>2015-01-22T12:24:31.363Z</time>
      </trkpt>
      <trkpt lat="47.79019" lon="-3.32235">
        <ele>81</ele>
        <time>2015-01-22T12:24:32.361Z</time>
      </trkpt>
      <trkpt lat="47.79018" lon="-3.32256">
        <ele>81</ele>
        <time>2015-01-22T12:24:33.362Z</time>
      </trkpt>
      <trkpt lat="47.79021" lon="-3.32274">
        <ele>80</ele>
        <time>2015-01-22T12:24:34.362Z</time>
      </trkpt>
      <trkpt lat="47.79021" lon="-3.32293">
        <ele>80</ele>
        <time>2015-01-22T12:24:35.364Z</time>
      </trkpt>
      <trkpt lat="47.7902" lon="-3.32308">
        <ele>81</ele>
        <time>2015-01-22T12:24:36.364Z</time>
      </trkpt>
      <trkpt lat="47.79018" lon="-3.32324">
        <ele>82</ele>
        <time>2015-01-22T12:24:37.366Z</time>
      </trkpt>
      <trkpt lat="47.79015" lon="-3.32338">
        <ele>83</ele>
        <time>2015-01-22T12:24:38.364Z</time>
      </trkpt>
      <trkpt lat="47.7901" lon="-3.32352">
        <ele>83</ele>
        <time>2015-01-22T12:24:39.364Z</time>
      </trkpt>
      <trkpt lat="47.79005" lon="-3.32364">
        <ele>83</ele>
        <time>2015-01-22T12:24:40.362Z</time>
      </trkpt>
      <trkpt lat="47.79" lon="-3.32373">
        <ele>84</ele>
        <time>2015-01-22T12:24:41.362Z</time>
      </trkpt>
      <trkpt lat="47.78993" lon="-3.3237">
        <ele>84</ele>
        <time>2015-01-22T12:24:42.363Z</time>
      </trkpt>
      <trkpt lat="47.78987" lon="-3.32356">
        <ele>83</ele>
        <time>2015-01-22T12:24:43.364Z</time>
      </trkpt>
      <trkpt lat="47.78982" lon="-3.32345">
        <ele>83</ele>
        <time>2015-01-22T12:24:44.363Z</time>
      </trkpt>
      <trkpt lat="47.78976" lon="-3.32335">
        <ele>86</ele>
        <time>2015-01-22T12:24:45.365Z</time>
      </trkpt>
      <trkpt lat="47.78969" lon="-3.32323">
        <ele>86</ele>
        <time>2015-01-22T12:24:46.364Z</time>
      </trkpt>
      <trkpt lat="47.78959" lon="-3.32315">
        <ele>86</ele>
        <time>2015-01-22T12:24:47.369Z</time>
      </trkpt>
      <trkpt lat="47.78949" lon="-3.32308">
        <ele>86</ele>
        <time>2015-01-22T12:24:48.382Z</time>
      </trkpt>
      <trkpt lat="47.78939" lon="-3.32301">
        <ele>86</ele>
        <time>2015-01-22T12:24:49.365Z</time>
      </trkpt>
      <trkpt lat="47.78929" lon="-3.32295">
        <ele>85</ele>
        <time>2015-01-22T12:24:50.362Z</time>
      </trkpt>
      <trkpt lat="47.7892" lon="-3.32294">
        <ele>86</ele>
        <time>2015-01-22T12:24:51.363Z</time>
      </trkpt>
      <trkpt lat="47.78913" lon="-3.32294">
        <ele>84</ele>
        <time>2015-01-22T12:24:52.363Z</time>
      </trkpt>
      <trkpt lat="47.78905" lon="-3.32295">
        <ele>83</ele>
        <time>2015-01-22T12:24:53.365Z</time>
      </trkpt>
      <trkpt lat="47.78897" lon="-3.32294">
        <ele>84</ele>
        <time>2015-01-22T12:24:54.363Z</time>
      </trkpt>
      <trkpt lat="47.7889" lon="-3.32288">
        <ele>83</ele>
        <time>2015-01-22T12:24:55.363Z</time>
      </trkpt>
      <trkpt lat="47.78884" lon="-3.32281">
        <ele>83</ele>
        <time>2015-01-22T12:24:56.364Z</time>
      </trkpt>
      <trkpt lat="47.78885" lon="-3.32268">
        <ele>83</ele>
        <time>2015-01-22T12:24:57.363Z</time>
      </trkpt>
      <trkpt lat="47.78887" lon="-3.32257">
        <ele>84</ele>
        <time>2015-01-22T12:24:58.379Z</time>
      </trkpt>
      <trkpt lat="47.78892" lon="-3.32245">
        <ele>84</ele>
        <time>2015-01-22T12:24:59.366Z</time>
      </trkpt>
      <trkpt lat="47.789" lon="-3.32234">
        <ele>84</ele>
        <time>2015-01-22T12:25:00.364Z</time>
      </trkpt>
      <trkpt lat="47.78909" lon="-3.32223">
        <ele>84</ele>
        <time>2015-01-22T12:25:01.441Z</time>
      </trkpt>
      <trkpt lat="47.7892" lon="-3.32211">
        <ele>83</ele>
        <time>2015-01-22T12:25:02.364Z</time>
      </trkpt>
      <trkpt lat="47.7893" lon="-3.32199">
        <ele>83</ele>
        <time>2015-01-22T12:25:03.374Z</time>
      </trkpt>
      <trkpt lat="47.7894" lon="-3.32188">
        <ele>82</ele>
        <time>2015-01-22T12:25:04.364Z</time>
      </trkpt>
      <trkpt lat="47.7895" lon="-3.32177">
        <ele>82</ele>
        <time>2015-01-22T12:25:05.362Z</time>
      </trkpt>
      <trkpt lat="47.78959" lon="-3.32165">
        <ele>81</ele>
        <time>2015-01-22T12:25:06.363Z</time>
      </trkpt>
      <trkpt lat="47.78968" lon="-3.32153">
        <ele>81</ele>
        <time>2015-01-22T12:25:07.382Z</time>
      </trkpt>
      <trkpt lat="47.78975" lon="-3.32141">
        <ele>81</ele>
        <time>2015-01-22T12:25:08.406Z</time>
      </trkpt>
      <trkpt lat="47.78983" lon="-3.32128">
        <ele>82</ele>
        <time>2015-01-22T12:25:09.362Z</time>
      </trkpt>
      <trkpt lat="47.7899" lon="-3.32115">
        <ele>83</ele>
        <time>2015-01-22T12:25:10.362Z</time>
      </trkpt>
      <trkpt lat="47.78996" lon="-3.32099">
        <ele>83</ele>
        <time>2015-01-22T12:25:11.363Z</time>
      </trkpt>
      <trkpt lat="47.79001" lon="-3.32084">
        <ele>85</ele>
        <time>2015-01-22T12:25:12.363Z</time>
      </trkpt>
      <trkpt lat="47.79007" lon="-3.32068">
        <ele>86</ele>
        <time>2015-01-22T12:25:13.363Z</time>
      </trkpt>
      <trkpt lat="47.79011" lon="-3.32054">
        <ele>85</ele>
        <time>2015-01-22T12:25:14.368Z</time>
      </trkpt>
      <trkpt lat="47.79015" lon="-3.32039">
        <ele>83</ele>
        <time>2015-01-22T12:25:15.362Z</time>
      </trkpt>
      <trkpt lat="47.79019" lon="-3.32023">
        <ele>84</ele>
        <time>2015-01-22T12:25:16.363Z</time>
      </trkpt>
      <trkpt lat="47.79024" lon="-3.32008">
        <ele>85</ele>
        <time>2015-01-22T12:25:17.389Z</time>
      </trkpt>
      <trkpt lat="47.79029" lon="-3.31993">
        <ele>85</ele>
        <time>2015-01-22T12:25:18.380Z</time>
      </trkpt>
      <trkpt lat="47.79034" lon="-3.31978">
        <ele>85</ele>
        <time>2015-01-22T12:25:19.361Z</time>
      </trkpt>
      <trkpt lat="47.79038" lon="-3.31963">
        <ele>86</ele>
        <time>2015-01-22T12:25:20.457Z</time>
      </trkpt>
      <trkpt lat="47.79043" lon="-3.31949">
        <ele>87</ele>
        <time>2015-01-22T12:25:21.413Z</time>
      </trkpt>
      <trkpt lat="47.79048" lon="-3.31934">
        <ele>87</ele>
        <time>2015-01-22T12:25:22.443Z</time>
      </trkpt>
      <trkpt lat="47.79053" lon="-3.31919">
        <ele>88</ele>
        <time>2015-01-22T12:25:23.412Z</time>
      </trkpt>
      <trkpt lat="47.79058" lon="-3.31906">
        <ele>87</ele>
        <time>2015-01-22T12:25:24.429Z</time>
      </trkpt>
      <trkpt lat="47.79063" lon="-3.31891">
        <ele>87</ele>
        <time>2015-01-22T12:25:25.361Z</time>
      </trkpt>
      <trkpt lat="47.79067" lon="-3.31877">
        <ele>87</ele>
        <time>2015-01-22T12:25:26.362Z</time>
      </trkpt>
      <trkpt lat="47.79072" lon="-3.31863">
        <ele>87</ele>
        <time>2015-01-22T12:25:27.362Z</time>
      </trkpt>
      <trkpt lat="47.79075" lon="-3.31851">
        <ele>87</ele>
        <time>2015-01-22T12:25:28.421Z</time>
      </trkpt>
      <trkpt lat="47.79076" lon="-3.31839">
        <ele>86</ele>
        <time>2015-01-22T12:25:29.363Z</time>
      </trkpt>
      <trkpt lat="47.79073" lon="-3.31828">
        <ele>84</ele>
        <time>2015-01-22T12:25:30.363Z</time>
      </trkpt>
      <trkpt lat="47.79068" lon="-3.31815">
        <ele>84</ele>
        <time>2015-01-22T12:25:31.364Z</time>
      </trkpt>
      <trkpt lat="47.79063" lon="-3.31801">
        <ele>84</ele>
        <time>2015-01-22T12:25:32.364Z</time>
      </trkpt>
      <trkpt lat="47.79057" lon="-3.31788">
        <ele>83</ele>
        <time>2015-01-22T12:25:33.360Z</time>
      </trkpt>
      <trkpt lat="47.79049" lon="-3.31777">
        <ele>83</ele>
        <time>2015-01-22T12:25:34.362Z</time>
      </trkpt>
      <trkpt lat="47.79038" lon="-3.31767">
        <ele>83</ele>
        <time>2015-01-22T12:25:35.363Z</time>
      </trkpt>
      <trkpt lat="47.79026" lon="-3.3176">
        <ele>82</ele>
        <time>2015-01-22T12:25:36.362Z</time>
      </trkpt>
      <trkpt lat="47.79013" lon="-3.31752">
        <ele>81</ele>
        <time>2015-01-22T12:25:37.363Z</time>
      </trkpt>
      <trkpt lat="47.78999" lon="-3.31742">
        <ele>80</ele>
        <time>2015-01-22T12:25:38.363Z</time>
      </trkpt>
      <trkpt lat="47.78985" lon="-3.31733">
        <ele>79</ele>
        <time>2015-01-22T12:25:39.364Z</time>
      </trkpt>
      <trkpt lat="47.78972" lon="-3.31724">
        <ele>78</ele>
        <time>2015-01-22T12:25:40.363Z</time>
      </trkpt>
      <trkpt lat="47.78958" lon="-3.31712">
        <ele>77</ele>
        <time>2015-01-22T12:25:41.361Z</time>
      </trkpt>
      <trkpt lat="47.78944" lon="-3.31703">
        <ele>77</ele>
        <time>2015-01-22T12:25:42.364Z</time>
      </trkpt>
      <trkpt lat="47.7893" lon="-3.31692">
        <ele>77</ele>
        <time>2015-01-22T12:25:43.388Z</time>
      </trkpt>
      <trkpt lat="47.78916" lon="-3.31684">
        <ele>77</ele>
        <time>2015-01-22T12:25:44.416Z</time>
      </trkpt>
      <trkpt lat="47.78902" lon="-3.31675">
        <ele>78</ele>
        <time>2015-01-22T12:25:45.363Z</time>
      </trkpt>
      <trkpt lat="47.78889" lon="-3.31666">
        <ele>78</ele>
        <time>2015-01-22T12:25:46.428Z</time>
      </trkpt>
      <trkpt lat="47.78877" lon="-3.31657">
        <ele>78</ele>
        <time>2015-01-22T12:25:47.414Z</time>
      </trkpt>
      <trkpt lat="47.78866" lon="-3.3165">
        <ele>78</ele>
        <time>2015-01-22T12:25:48.363Z</time>
      </trkpt>
      <trkpt lat="47.78857" lon="-3.31644">
        <ele>78</ele>
        <time>2015-01-22T12:25:49.361Z</time>
      </trkpt>
      <trkpt lat="47.78849" lon="-3.31641">
        <ele>78</ele>
        <time>2015-01-22T12:25:50.367Z</time>
      </trkpt>
      <trkpt lat="47.78842" lon="-3.31636">
        <ele>79</ele>
        <time>2015-01-22T12:25:51.362Z</time>
      </trkpt>
      <trkpt lat="47.78838" lon="-3.31631">
        <ele>79</ele>
        <time>2015-01-22T12:25:52.360Z</time>
      </trkpt>
      <trkpt lat="47.78835" lon="-3.31621">
        <ele>79</ele>
        <time>2015-01-22T12:25:53.372Z</time>
      </trkpt>
      <trkpt lat="47.78835" lon="-3.31612">
        <ele>78</ele>
        <time>2015-01-22T12:25:54.414Z</time>
      </trkpt>
      <trkpt lat="47.78835" lon="-3.31598">
        <ele>78</ele>
        <time>2015-01-22T12:25:55.410Z</time>
      </trkpt>
      <trkpt lat="47.78834" lon="-3.31584">
        <ele>79</ele>
        <time>2015-01-22T12:25:56.359Z</time>
      </trkpt>
      <trkpt lat="47.78834" lon="-3.31569">
        <ele>80</ele>
        <time>2015-01-22T12:25:57.394Z</time>
      </trkpt>
      <trkpt lat="47.78834" lon="-3.31555">
        <ele>80</ele>
        <time>2015-01-22T12:25:58.400Z</time>
      </trkpt>
      <trkpt lat="47.78834" lon="-3.31541">
        <ele>80</ele>
        <time>2015-01-22T12:25:59.414Z</time>
      </trkpt>
      <trkpt lat="47.78834" lon="-3.31527">
        <ele>80</ele>
        <time>2015-01-22T12:26:00.379Z</time>
      </trkpt>
      <trkpt lat="47.78834" lon="-3.31514">
        <ele>80</ele>
        <time>2015-01-22T12:26:01.431Z</time>
      </trkpt>
      <trkpt lat="47.78832" lon="-3.31502">
        <ele>81</ele>
        <time>2015-01-22T12:26:02.363Z</time>
      </trkpt>
      <trkpt lat="47.78832" lon="-3.31492">
        <ele>82</ele>
        <time>2015-01-22T12:26:03.441Z</time>
      </trkpt>
      <trkpt lat="47.78831" lon="-3.31482">
        <ele>82</ele>
        <time>2015-01-22T12:26:04.436Z</time>
      </trkpt>
      <trkpt lat="47.78829" lon="-3.31474">
        <ele>82</ele>
        <time>2015-01-22T12:26:05.396Z</time>
      </trkpt>
      <trkpt lat="47.78825" lon="-3.31466">
        <ele>83</ele>
        <time>2015-01-22T12:26:06.362Z</time>
      </trkpt>
      <trkpt lat="47.78819" lon="-3.31462">
        <ele>82</ele>
        <time>2015-01-22T12:26:07.361Z</time>
      </trkpt>
      <trkpt lat="47.78813" lon="-3.31464">
        <ele>81</ele>
        <time>2015-01-22T12:26:08.361Z</time>
      </trkpt>
      <trkpt lat="47.78807" lon="-3.31465">
        <ele>82</ele>
        <time>2015-01-22T12:26:09.361Z</time>
      </trkpt>
      <trkpt lat="47.78802" lon="-3.31467">
        <ele>82</ele>
        <time>2015-01-22T12:26:10.361Z</time>
      </trkpt>
      <trkpt lat="47.78795" lon="-3.31474">
        <ele>82</ele>
        <time>2015-01-22T12:26:12.362Z</time>
      </trkpt>
      <trkpt lat="47.78793" lon="-3.31479">
        <ele>81</ele>
        <time>2015-01-22T12:26:13.360Z</time>
      </trkpt>
      <trkpt lat="47.78784" lon="-3.31481">
        <ele>86</ele>
        <time>2015-01-22T12:27:17.361Z</time>
      </trkpt>
      <trkpt lat="47.78783" lon="-3.3148">
        <ele>86</ele>
        <time>2015-01-22T12:27:18.360Z</time>
      </trkpt>
      <trkpt lat="47.78785" lon="-3.3147">
        <ele>85</ele>
        <time>2015-01-22T12:27:54.361Z</time>
      </trkpt>
      <trkpt lat="47.78784" lon="-3.31466">
        <ele>84</ele>
        <time>2015-01-22T12:27:55.360Z</time>
      </trkpt>
      <trkpt lat="47.78792" lon="-3.31466">
        <ele>78</ele>
        <time>2015-01-22T12:28:26.364Z</time>
      </trkpt>
      <trkpt lat="47.78794" lon="-3.31466">
        <ele>77</ele>
        <time>2015-01-22T12:28:27.362Z</time>
      </trkpt>
      <trkpt lat="47.78795" lon="-3.31479">
        <ele>72</ele>
        <time>2015-01-22T12:30:07.357Z</time>
      </trkpt>
      <trkpt lat="47.78795" lon="-3.3148">
        <ele>72</ele>
        <time>2015-01-22T12:30:08.358Z</time>
      </trkpt>
      <trkpt lat="47.78796" lon="-3.31483">
        <ele>72</ele>
        <time>2015-01-22T12:30:10.358Z</time>
      </trkpt>
      <trkpt lat="47.78785" lon="-3.31521">
        <ele>76</ele>
        <time>2015-01-22T12:30:29.358Z</time>
      </trkpt>
      <trkpt lat="47.78789" lon="-3.31533">
        <ele>80</ele>
        <time>2015-01-22T12:30:33.368Z</time>
      </trkpt>
      <trkpt lat="47.7879" lon="-3.31533">
        <ele>80</ele>
        <time>2015-01-22T12:30:34.354Z</time>
      </trkpt>
      <trkpt lat="47.78792" lon="-3.31534">
        <ele>80</ele>
        <time>2015-01-22T12:30:55.221Z</time>
      </trkpt>
    </trkseg>
  </trk>
</gpx>